<?xml version="1.0" encoding="UTF-8" standalone="no" ?>
<gpx xmlns="http://www.topografix.com/GPX/1/1" xmlns:xsi="http://www.w3.org/2001/XMLSchema-instance" xsi:schemaLocation="http://www.topografix.com/GPX/1/1 http://www.topografix.com/GPX/1/1/gpx.xsd" version="1.1" creator="VisuGPX - https://www.visugpx.com">
  <metadata>
    <name>RECO TDS 2022 Beaufort NDG</name>
    <desc><![CDATA[Reco Beaufort Notre dame de la Gorge]]></desc>
  </metadata>
  <trk>
    <name><![CDATA[TDS 2021]]></name>
    <trkseg>
      <trkpt lat="45.7189" lon="6.57382">
        <ele>733.7</ele>
        <time>2018-10-15T13:20:29.000Z</time>
      </trkpt>
      <trkpt lat="45.71899" lon="6.57358">
        <ele>735</ele>
        <time>2018-10-15T13:20:39.000Z</time>
      </trkpt>
      <trkpt lat="45.71917" lon="6.57341">
        <ele>734</ele>
        <time>2018-10-15T13:20:49.000Z</time>
      </trkpt>
      <trkpt lat="45.71925" lon="6.5733">
        <ele>734</ele>
        <time>2018-10-15T13:20:59.000Z</time>
      </trkpt>
      <trkpt lat="45.71934" lon="6.57322">
        <ele>734</ele>
        <time>2018-10-15T13:21:09.000Z</time>
      </trkpt>
      <trkpt lat="45.71945" lon="6.57317">
        <ele>734</ele>
        <time>2018-10-15T13:21:19.000Z</time>
      </trkpt>
      <trkpt lat="45.71955" lon="6.57308">
        <ele>733</ele>
        <time>2018-10-15T13:21:29.000Z</time>
      </trkpt>
      <trkpt lat="45.7196" lon="6.57295">
        <ele>733</ele>
        <time>2018-10-15T13:21:39.000Z</time>
      </trkpt>
      <trkpt lat="45.71974" lon="6.57273">
        <ele>733</ele>
        <time>2018-10-15T13:21:49.000Z</time>
      </trkpt>
      <trkpt lat="45.71986" lon="6.57248">
        <ele>732</ele>
        <time>2018-10-15T13:21:59.000Z</time>
      </trkpt>
      <trkpt lat="45.71994" lon="6.57235">
        <ele>732</ele>
        <time>2018-10-15T13:22:09.000Z</time>
      </trkpt>
      <trkpt lat="45.72013" lon="6.57227">
        <ele>732</ele>
        <time>2018-10-15T13:22:19.000Z</time>
      </trkpt>
      <trkpt lat="45.72021" lon="6.5722">
        <ele>732</ele>
        <time>2018-10-15T13:22:29.000Z</time>
      </trkpt>
      <trkpt lat="45.72029" lon="6.57211">
        <ele>732</ele>
        <time>2018-10-15T13:22:39.000Z</time>
      </trkpt>
      <trkpt lat="45.72042" lon="6.57188">
        <ele>731</ele>
        <time>2018-10-15T13:22:49.000Z</time>
      </trkpt>
      <trkpt lat="45.7205" lon="6.57161">
        <ele>730</ele>
        <time>2018-10-15T13:22:59.000Z</time>
      </trkpt>
      <trkpt lat="45.72052" lon="6.57147">
        <ele>730</ele>
        <time>2018-10-15T13:23:09.000Z</time>
      </trkpt>
      <trkpt lat="45.72057" lon="6.57106">
        <ele>729</ele>
        <time>2018-10-15T13:23:19.000Z</time>
      </trkpt>
      <trkpt lat="45.72057" lon="6.57094">
        <ele>729</ele>
        <time>2018-10-15T13:23:29.000Z</time>
      </trkpt>
      <trkpt lat="45.72053" lon="6.57065">
        <ele>728</ele>
        <time>2018-10-15T13:23:39.000Z</time>
      </trkpt>
      <trkpt lat="45.72052" lon="6.57048">
        <ele>728</ele>
        <time>2018-10-15T13:23:49.000Z</time>
      </trkpt>
      <trkpt lat="45.7205" lon="6.57016">
        <ele>727</ele>
        <time>2018-10-15T13:23:59.000Z</time>
      </trkpt>
      <trkpt lat="45.7205" lon="6.57003">
        <ele>727</ele>
        <time>2018-10-15T13:24:09.000Z</time>
      </trkpt>
      <trkpt lat="45.72047" lon="6.56989">
        <ele>727</ele>
        <time>2018-10-15T13:24:19.000Z</time>
      </trkpt>
      <trkpt lat="45.72044" lon="6.56975">
        <ele>727</ele>
        <time>2018-10-15T13:24:29.000Z</time>
      </trkpt>
      <trkpt lat="45.72047" lon="6.56961">
        <ele>727</ele>
        <time>2018-10-15T13:24:39.000Z</time>
      </trkpt>
      <trkpt lat="45.72063" lon="6.56948">
        <ele>726</ele>
        <time>2018-10-15T13:24:49.000Z</time>
      </trkpt>
      <trkpt lat="45.72065" lon="6.56932">
        <ele>726</ele>
        <time>2018-10-15T13:24:59.000Z</time>
      </trkpt>
      <trkpt lat="45.72064" lon="6.56918">
        <ele>726</ele>
        <time>2018-10-15T13:25:09.000Z</time>
      </trkpt>
      <trkpt lat="45.7206" lon="6.56906">
        <ele>726</ele>
        <time>2018-10-15T13:25:19.000Z</time>
      </trkpt>
      <trkpt lat="45.72048" lon="6.56885">
        <ele>724</ele>
        <time>2018-10-15T13:25:29.000Z</time>
      </trkpt>
      <trkpt lat="45.72041" lon="6.56874">
        <ele>724</ele>
        <time>2018-10-15T13:25:39.000Z</time>
      </trkpt>
      <trkpt lat="45.72033" lon="6.56864">
        <ele>724</ele>
        <time>2018-10-15T13:25:49.000Z</time>
      </trkpt>
      <trkpt lat="45.72028" lon="6.5685">
        <ele>725</ele>
        <time>2018-10-15T13:25:59.000Z</time>
      </trkpt>
      <trkpt lat="45.72027" lon="6.56834">
        <ele>724</ele>
        <time>2018-10-15T13:26:09.000Z</time>
      </trkpt>
      <trkpt lat="45.72027" lon="6.56806">
        <ele>724</ele>
        <time>2018-10-15T13:26:19.000Z</time>
      </trkpt>
      <trkpt lat="45.72028" lon="6.56791">
        <ele>724</ele>
        <time>2018-10-15T13:26:29.000Z</time>
      </trkpt>
      <trkpt lat="45.72026" lon="6.56776">
        <ele>723</ele>
        <time>2018-10-15T13:26:39.000Z</time>
      </trkpt>
      <trkpt lat="45.72029" lon="6.56762">
        <ele>724</ele>
        <time>2018-10-15T13:26:49.000Z</time>
      </trkpt>
      <trkpt lat="45.72033" lon="6.56748">
        <ele>726</ele>
        <time>2018-10-15T13:26:59.000Z</time>
      </trkpt>
      <trkpt lat="45.72038" lon="6.56735">
        <ele>727</ele>
        <time>2018-10-15T13:27:09.000Z</time>
      </trkpt>
      <trkpt lat="45.72046" lon="6.56725">
        <ele>730</ele>
        <time>2018-10-15T13:27:19.000Z</time>
      </trkpt>
      <trkpt lat="45.72053" lon="6.56717">
        <ele>733</ele>
        <time>2018-10-15T13:27:29.000Z</time>
      </trkpt>
      <trkpt lat="45.7206" lon="6.56705">
        <ele>736</ele>
        <time>2018-10-15T13:27:39.000Z</time>
      </trkpt>
      <trkpt lat="45.72063" lon="6.5671">
        <ele>738</ele>
        <time>2018-10-15T13:27:49.000Z</time>
      </trkpt>
      <trkpt lat="45.72063" lon="6.56718">
        <ele>741</ele>
        <time>2018-10-15T13:27:59.000Z</time>
      </trkpt>
      <trkpt lat="45.7207" lon="6.56709">
        <ele>745</ele>
        <time>2018-10-15T13:28:09.000Z</time>
      </trkpt>
      <trkpt lat="45.72074" lon="6.56695">
        <ele>750</ele>
        <time>2018-10-15T13:28:19.000Z</time>
      </trkpt>
      <trkpt lat="45.72084" lon="6.56689">
        <ele>752</ele>
        <time>2018-10-15T13:28:29.000Z</time>
      </trkpt>
      <trkpt lat="45.72092" lon="6.56682">
        <ele>753</ele>
        <time>2018-10-15T13:28:39.000Z</time>
      </trkpt>
      <trkpt lat="45.72114" lon="6.56684">
        <ele>750</ele>
        <time>2018-10-15T13:28:49.000Z</time>
      </trkpt>
      <trkpt lat="45.72138" lon="6.56683">
        <ele>748</ele>
        <time>2018-10-15T13:28:59.000Z</time>
      </trkpt>
      <trkpt lat="45.72149" lon="6.56685">
        <ele>748</ele>
        <time>2018-10-15T13:29:09.000Z</time>
      </trkpt>
      <trkpt lat="45.72159" lon="6.56688">
        <ele>749</ele>
        <time>2018-10-15T13:29:19.000Z</time>
      </trkpt>
      <trkpt lat="45.72169" lon="6.56691">
        <ele>749</ele>
        <time>2018-10-15T13:29:29.000Z</time>
      </trkpt>
      <trkpt lat="45.72189" lon="6.56698">
        <ele>751</ele>
        <time>2018-10-15T13:29:39.000Z</time>
      </trkpt>
      <trkpt lat="45.72197" lon="6.56706">
        <ele>750</ele>
        <time>2018-10-15T13:29:49.000Z</time>
      </trkpt>
      <trkpt lat="45.72204" lon="6.56715">
        <ele>749</ele>
        <time>2018-10-15T13:29:59.000Z</time>
      </trkpt>
      <trkpt lat="45.72213" lon="6.56723">
        <ele>748</ele>
        <time>2018-10-15T13:30:09.000Z</time>
      </trkpt>
      <trkpt lat="45.72221" lon="6.56734">
        <ele>747</ele>
        <time>2018-10-15T13:30:19.000Z</time>
      </trkpt>
      <trkpt lat="45.72231" lon="6.56736">
        <ele>746</ele>
        <time>2018-10-15T13:30:29.000Z</time>
      </trkpt>
      <trkpt lat="45.72243" lon="6.56734">
        <ele>746</ele>
        <time>2018-10-15T13:30:39.000Z</time>
      </trkpt>
      <trkpt lat="45.72272" lon="6.56724">
        <ele>744</ele>
        <time>2018-10-15T13:30:49.000Z</time>
      </trkpt>
      <trkpt lat="45.72294" lon="6.56717">
        <ele>743</ele>
        <time>2018-10-15T13:30:59.000Z</time>
      </trkpt>
      <trkpt lat="45.723" lon="6.56705">
        <ele>741</ele>
        <time>2018-10-15T13:31:09.000Z</time>
      </trkpt>
      <trkpt lat="45.72302" lon="6.56692">
        <ele>740</ele>
        <time>2018-10-15T13:31:19.000Z</time>
      </trkpt>
      <trkpt lat="45.72298" lon="6.56677">
        <ele>736</ele>
        <time>2018-10-15T13:31:29.000Z</time>
      </trkpt>
      <trkpt lat="45.72292" lon="6.56667">
        <ele>735</ele>
        <time>2018-10-15T13:31:39.000Z</time>
      </trkpt>
      <trkpt lat="45.72284" lon="6.56659">
        <ele>733</ele>
        <time>2018-10-15T13:31:49.000Z</time>
      </trkpt>
      <trkpt lat="45.72291" lon="6.56655">
        <ele>732</ele>
        <time>2018-10-15T13:31:59.000Z</time>
      </trkpt>
      <trkpt lat="45.723" lon="6.56658">
        <ele>731</ele>
        <time>2018-10-15T13:32:09.000Z</time>
      </trkpt>
      <trkpt lat="45.7231" lon="6.56656">
        <ele>730</ele>
        <time>2018-10-15T13:32:19.000Z</time>
      </trkpt>
      <trkpt lat="45.72333" lon="6.5665">
        <ele>729</ele>
        <time>2018-10-15T13:32:29.000Z</time>
      </trkpt>
      <trkpt lat="45.72342" lon="6.56652">
        <ele>730</ele>
        <time>2018-10-15T13:32:39.000Z</time>
      </trkpt>
      <trkpt lat="45.72353" lon="6.56658">
        <ele>730</ele>
        <time>2018-10-15T13:32:49.000Z</time>
      </trkpt>
      <trkpt lat="45.72363" lon="6.56666">
        <ele>730</ele>
        <time>2018-10-15T13:32:59.000Z</time>
      </trkpt>
      <trkpt lat="45.72372" lon="6.56673">
        <ele>731</ele>
        <time>2018-10-15T13:33:09.000Z</time>
      </trkpt>
      <trkpt lat="45.72389" lon="6.56687">
        <ele>732</ele>
        <time>2018-10-15T13:33:19.000Z</time>
      </trkpt>
      <trkpt lat="45.72406" lon="6.56698">
        <ele>733</ele>
        <time>2018-10-15T13:33:29.000Z</time>
      </trkpt>
      <trkpt lat="45.72416" lon="6.56704">
        <ele>733</ele>
        <time>2018-10-15T13:33:39.000Z</time>
      </trkpt>
      <trkpt lat="45.72423" lon="6.5671">
        <ele>733</ele>
        <time>2018-10-15T13:33:49.000Z</time>
      </trkpt>
      <trkpt lat="45.72443" lon="6.56725">
        <ele>734</ele>
        <time>2018-10-15T13:33:59.000Z</time>
      </trkpt>
      <trkpt lat="45.72452" lon="6.5673">
        <ele>735</ele>
        <time>2018-10-15T13:34:09.000Z</time>
      </trkpt>
      <trkpt lat="45.72461" lon="6.56736">
        <ele>735</ele>
        <time>2018-10-15T13:34:19.000Z</time>
      </trkpt>
      <trkpt lat="45.72471" lon="6.56745">
        <ele>736</ele>
        <time>2018-10-15T13:34:29.000Z</time>
      </trkpt>
      <trkpt lat="45.72501" lon="6.56765">
        <ele>737</ele>
        <time>2018-10-15T13:34:39.000Z</time>
      </trkpt>
      <trkpt lat="45.72532" lon="6.5678">
        <ele>738</ele>
        <time>2018-10-15T13:34:49.000Z</time>
      </trkpt>
      <trkpt lat="45.72542" lon="6.56782">
        <ele>738</ele>
        <time>2018-10-15T13:34:59.000Z</time>
      </trkpt>
      <trkpt lat="45.72562" lon="6.56785">
        <ele>739</ele>
        <time>2018-10-15T13:35:09.000Z</time>
      </trkpt>
      <trkpt lat="45.72571" lon="6.56783">
        <ele>740</ele>
        <time>2018-10-15T13:35:19.000Z</time>
      </trkpt>
      <trkpt lat="45.72582" lon="6.56783">
        <ele>740</ele>
        <time>2018-10-15T13:35:29.000Z</time>
      </trkpt>
      <trkpt lat="45.72591" lon="6.56779">
        <ele>740</ele>
        <time>2018-10-15T13:35:39.000Z</time>
      </trkpt>
      <trkpt lat="45.72642" lon="6.56765">
        <ele>743</ele>
        <time>2018-10-15T13:35:49.000Z</time>
      </trkpt>
      <trkpt lat="45.72663" lon="6.56763">
        <ele>744</ele>
        <time>2018-10-15T13:35:59.000Z</time>
      </trkpt>
      <trkpt lat="45.72701" lon="6.56746">
        <ele>747</ele>
        <time>2018-10-15T13:36:09.000Z</time>
      </trkpt>
      <trkpt lat="45.72723" lon="6.56744">
        <ele>748</ele>
        <time>2018-10-15T13:36:19.000Z</time>
      </trkpt>
      <trkpt lat="45.72733" lon="6.5674">
        <ele>747</ele>
        <time>2018-10-15T13:36:29.000Z</time>
      </trkpt>
      <trkpt lat="45.72734" lon="6.56707">
        <ele>746</ele>
        <time>2018-10-15T13:36:39.000Z</time>
      </trkpt>
      <trkpt lat="45.72722" lon="6.56685">
        <ele>752</ele>
        <time>2018-10-15T13:36:49.000Z</time>
      </trkpt>
      <trkpt lat="45.72731" lon="6.56682">
        <ele>754</ele>
        <time>2018-10-15T13:36:59.000Z</time>
      </trkpt>
      <trkpt lat="45.72739" lon="6.56677">
        <ele>758</ele>
        <time>2018-10-15T13:37:09.000Z</time>
      </trkpt>
      <trkpt lat="45.7276" lon="6.5667">
        <ele>763</ele>
        <time>2018-10-15T13:37:19.000Z</time>
      </trkpt>
      <trkpt lat="45.72771" lon="6.56663">
        <ele>766</ele>
        <time>2018-10-15T13:37:29.000Z</time>
      </trkpt>
      <trkpt lat="45.72782" lon="6.56655">
        <ele>768</ele>
        <time>2018-10-15T13:37:39.000Z</time>
      </trkpt>
      <trkpt lat="45.72793" lon="6.56653">
        <ele>771</ele>
        <time>2018-10-15T13:37:49.000Z</time>
      </trkpt>
      <trkpt lat="45.72804" lon="6.56651">
        <ele>775</ele>
        <time>2018-10-15T13:37:59.000Z</time>
      </trkpt>
      <trkpt lat="45.7281" lon="6.5666">
        <ele>778</ele>
        <time>2018-10-15T13:38:09.000Z</time>
      </trkpt>
      <trkpt lat="45.72831" lon="6.56673">
        <ele>783</ele>
        <time>2018-10-15T13:38:19.000Z</time>
      </trkpt>
      <trkpt lat="45.72841" lon="6.56677">
        <ele>785</ele>
        <time>2018-10-15T13:38:29.000Z</time>
      </trkpt>
      <trkpt lat="45.72849" lon="6.56676">
        <ele>788</ele>
        <time>2018-10-15T13:38:39.000Z</time>
      </trkpt>
      <trkpt lat="45.72828" lon="6.56651">
        <ele>796</ele>
        <time>2018-10-15T13:38:49.000Z</time>
      </trkpt>
      <trkpt lat="45.72822" lon="6.56639">
        <ele>799</ele>
        <time>2018-10-15T13:38:59.000Z</time>
      </trkpt>
      <trkpt lat="45.72816" lon="6.56624">
        <ele>801</ele>
        <time>2018-10-15T13:39:09.000Z</time>
      </trkpt>
      <trkpt lat="45.72793" lon="6.56608">
        <ele>806</ele>
        <time>2018-10-15T13:39:19.000Z</time>
      </trkpt>
      <trkpt lat="45.72791" lon="6.56592">
        <ele>810</ele>
        <time>2018-10-15T13:39:29.000Z</time>
      </trkpt>
      <trkpt lat="45.72764" lon="6.56595">
        <ele>814</ele>
        <time>2018-10-15T13:39:39.000Z</time>
      </trkpt>
      <trkpt lat="45.72749" lon="6.56592">
        <ele>818</ele>
        <time>2018-10-15T13:39:49.000Z</time>
      </trkpt>
      <trkpt lat="45.72722" lon="6.56575">
        <ele>825</ele>
        <time>2018-10-15T13:39:59.000Z</time>
      </trkpt>
      <trkpt lat="45.72706" lon="6.56573">
        <ele>830</ele>
        <time>2018-10-15T13:40:09.000Z</time>
      </trkpt>
      <trkpt lat="45.72693" lon="6.56568">
        <ele>834</ele>
        <time>2018-10-15T13:40:19.000Z</time>
      </trkpt>
      <trkpt lat="45.72696" lon="6.56563">
        <ele>838</ele>
        <time>2018-10-15T13:40:29.000Z</time>
      </trkpt>
      <trkpt lat="45.72722" lon="6.56556">
        <ele>847</ele>
        <time>2018-10-15T13:40:39.000Z</time>
      </trkpt>
      <trkpt lat="45.72735" lon="6.56549">
        <ele>850</ele>
        <time>2018-10-15T13:40:49.000Z</time>
      </trkpt>
      <trkpt lat="45.72749" lon="6.56544">
        <ele>853</ele>
        <time>2018-10-15T13:40:59.000Z</time>
      </trkpt>
      <trkpt lat="45.72762" lon="6.56537">
        <ele>856</ele>
        <time>2018-10-15T13:41:09.000Z</time>
      </trkpt>
      <trkpt lat="45.72774" lon="6.56532">
        <ele>859</ele>
        <time>2018-10-15T13:41:19.000Z</time>
      </trkpt>
      <trkpt lat="45.72789" lon="6.56522">
        <ele>861</ele>
        <time>2018-10-15T13:41:29.000Z</time>
      </trkpt>
      <trkpt lat="45.72803" lon="6.56521">
        <ele>868</ele>
        <time>2018-10-15T13:41:39.000Z</time>
      </trkpt>
      <trkpt lat="45.72815" lon="6.56531">
        <ele>872</ele>
        <time>2018-10-15T13:41:49.000Z</time>
      </trkpt>
      <trkpt lat="45.72833" lon="6.56534">
        <ele>875</ele>
        <time>2018-10-15T13:41:59.000Z</time>
      </trkpt>
      <trkpt lat="45.72847" lon="6.56539">
        <ele>878</ele>
        <time>2018-10-15T13:42:09.000Z</time>
      </trkpt>
      <trkpt lat="45.72863" lon="6.56537">
        <ele>881</ele>
        <time>2018-10-15T13:42:19.000Z</time>
      </trkpt>
      <trkpt lat="45.72892" lon="6.56542">
        <ele>888</ele>
        <time>2018-10-15T13:42:29.000Z</time>
      </trkpt>
      <trkpt lat="45.72908" lon="6.56547">
        <ele>892</ele>
        <time>2018-10-15T13:42:39.000Z</time>
      </trkpt>
      <trkpt lat="45.72921" lon="6.56557">
        <ele>893</ele>
        <time>2018-10-15T13:42:49.000Z</time>
      </trkpt>
      <trkpt lat="45.72937" lon="6.56554">
        <ele>894</ele>
        <time>2018-10-15T13:42:59.000Z</time>
      </trkpt>
      <trkpt lat="45.72948" lon="6.5654">
        <ele>897</ele>
        <time>2018-10-15T13:43:09.000Z</time>
      </trkpt>
      <trkpt lat="45.72956" lon="6.56522">
        <ele>898</ele>
        <time>2018-10-15T13:43:19.000Z</time>
      </trkpt>
      <trkpt lat="45.7296" lon="6.56505">
        <ele>899</ele>
        <time>2018-10-15T13:43:29.000Z</time>
      </trkpt>
      <trkpt lat="45.72967" lon="6.56492">
        <ele>900</ele>
        <time>2018-10-15T13:43:39.000Z</time>
      </trkpt>
      <trkpt lat="45.7298" lon="6.56475">
        <ele>902</ele>
        <time>2018-10-15T13:43:49.000Z</time>
      </trkpt>
      <trkpt lat="45.72988" lon="6.56466">
        <ele>905</ele>
        <time>2018-10-15T13:43:59.000Z</time>
      </trkpt>
      <trkpt lat="45.72994" lon="6.56454">
        <ele>908</ele>
        <time>2018-10-15T13:44:09.000Z</time>
      </trkpt>
      <trkpt lat="45.72991" lon="6.56441">
        <ele>910</ele>
        <time>2018-10-15T13:44:19.000Z</time>
      </trkpt>
      <trkpt lat="45.72997" lon="6.56441">
        <ele>913</ele>
        <time>2018-10-15T13:44:29.000Z</time>
      </trkpt>
      <trkpt lat="45.73006" lon="6.56449">
        <ele>916</ele>
        <time>2018-10-15T13:44:39.000Z</time>
      </trkpt>
      <trkpt lat="45.73013" lon="6.5646">
        <ele>917</ele>
        <time>2018-10-15T13:44:49.000Z</time>
      </trkpt>
      <trkpt lat="45.7302" lon="6.56473">
        <ele>918</ele>
        <time>2018-10-15T13:44:59.000Z</time>
      </trkpt>
      <trkpt lat="45.73025" lon="6.56486">
        <ele>919</ele>
        <time>2018-10-15T13:45:09.000Z</time>
      </trkpt>
      <trkpt lat="45.73033" lon="6.56495">
        <ele>919</ele>
        <time>2018-10-15T13:45:19.000Z</time>
      </trkpt>
      <trkpt lat="45.7304" lon="6.56505">
        <ele>920</ele>
        <time>2018-10-15T13:45:29.000Z</time>
      </trkpt>
      <trkpt lat="45.73049" lon="6.56511">
        <ele>922</ele>
        <time>2018-10-15T13:45:39.000Z</time>
      </trkpt>
      <trkpt lat="45.73059" lon="6.56508">
        <ele>925</ele>
        <time>2018-10-15T13:45:49.000Z</time>
      </trkpt>
      <trkpt lat="45.73057" lon="6.56499">
        <ele>928</ele>
        <time>2018-10-15T13:45:59.000Z</time>
      </trkpt>
      <trkpt lat="45.73068" lon="6.56504">
        <ele>933</ele>
        <time>2018-10-15T13:46:09.000Z</time>
      </trkpt>
      <trkpt lat="45.7307" lon="6.56516">
        <ele>934</ele>
        <time>2018-10-15T13:46:19.000Z</time>
      </trkpt>
      <trkpt lat="45.73071" lon="6.56547">
        <ele>935</ele>
        <time>2018-10-15T13:46:29.000Z</time>
      </trkpt>
      <trkpt lat="45.73077" lon="6.56557">
        <ele>936</ele>
        <time>2018-10-15T13:46:39.000Z</time>
      </trkpt>
      <trkpt lat="45.73082" lon="6.56549">
        <ele>937</ele>
        <time>2018-10-15T13:46:49.000Z</time>
      </trkpt>
      <trkpt lat="45.73085" lon="6.56537">
        <ele>938</ele>
        <time>2018-10-15T13:46:59.000Z</time>
      </trkpt>
      <trkpt lat="45.73084" lon="6.56522">
        <ele>939</ele>
        <time>2018-10-15T13:47:09.000Z</time>
      </trkpt>
      <trkpt lat="45.73085" lon="6.56509">
        <ele>940</ele>
        <time>2018-10-15T13:47:19.000Z</time>
      </trkpt>
      <trkpt lat="45.73088" lon="6.56494">
        <ele>942</ele>
        <time>2018-10-15T13:47:29.000Z</time>
      </trkpt>
      <trkpt lat="45.73092" lon="6.56482">
        <ele>946</ele>
        <time>2018-10-15T13:47:39.000Z</time>
      </trkpt>
      <trkpt lat="45.73097" lon="6.56485">
        <ele>950</ele>
        <time>2018-10-15T13:47:49.000Z</time>
      </trkpt>
      <trkpt lat="45.73106" lon="6.56497">
        <ele>954</ele>
        <time>2018-10-15T13:47:59.000Z</time>
      </trkpt>
      <trkpt lat="45.73117" lon="6.56504">
        <ele>960</ele>
        <time>2018-10-15T13:48:09.000Z</time>
      </trkpt>
      <trkpt lat="45.73133" lon="6.56497">
        <ele>966</ele>
        <time>2018-10-15T13:48:19.000Z</time>
      </trkpt>
      <trkpt lat="45.73145" lon="6.5649">
        <ele>970</ele>
        <time>2018-10-15T13:48:29.000Z</time>
      </trkpt>
      <trkpt lat="45.73157" lon="6.5649">
        <ele>973</ele>
        <time>2018-10-15T13:48:39.000Z</time>
      </trkpt>
      <trkpt lat="45.73171" lon="6.56483">
        <ele>977</ele>
        <time>2018-10-15T13:48:49.000Z</time>
      </trkpt>
      <trkpt lat="45.73189" lon="6.56464">
        <ele>980</ele>
        <time>2018-10-15T13:48:59.000Z</time>
      </trkpt>
      <trkpt lat="45.73209" lon="6.56464">
        <ele>985</ele>
        <time>2018-10-15T13:49:09.000Z</time>
      </trkpt>
      <trkpt lat="45.73217" lon="6.5647">
        <ele>985</ele>
        <time>2018-10-15T13:49:19.000Z</time>
      </trkpt>
      <trkpt lat="45.73224" lon="6.5648">
        <ele>988</ele>
        <time>2018-10-15T13:49:29.000Z</time>
      </trkpt>
      <trkpt lat="45.73236" lon="6.56479">
        <ele>993</ele>
        <time>2018-10-15T13:49:39.000Z</time>
      </trkpt>
      <trkpt lat="45.73245" lon="6.56482">
        <ele>998</ele>
        <time>2018-10-15T13:49:49.000Z</time>
      </trkpt>
      <trkpt lat="45.73256" lon="6.56486">
        <ele>1003</ele>
        <time>2018-10-15T13:49:59.000Z</time>
      </trkpt>
      <trkpt lat="45.73263" lon="6.56482">
        <ele>1008</ele>
        <time>2018-10-15T13:50:09.000Z</time>
      </trkpt>
      <trkpt lat="45.73259" lon="6.56465">
        <ele>1012</ele>
        <time>2018-10-15T13:50:19.000Z</time>
      </trkpt>
      <trkpt lat="45.73258" lon="6.56423">
        <ele>1018</ele>
        <time>2018-10-15T13:50:29.000Z</time>
      </trkpt>
      <trkpt lat="45.7326" lon="6.56405">
        <ele>1022</ele>
        <time>2018-10-15T13:50:39.000Z</time>
      </trkpt>
      <trkpt lat="45.73269" lon="6.564">
        <ele>1025</ele>
        <time>2018-10-15T13:50:49.000Z</time>
      </trkpt>
      <trkpt lat="45.73275" lon="6.56407">
        <ele>1030</ele>
        <time>2018-10-15T13:50:59.000Z</time>
      </trkpt>
      <trkpt lat="45.7328" lon="6.56415">
        <ele>1034</ele>
        <time>2018-10-15T13:51:09.000Z</time>
      </trkpt>
      <trkpt lat="45.73285" lon="6.56429">
        <ele>1037</ele>
        <time>2018-10-15T13:51:19.000Z</time>
      </trkpt>
      <trkpt lat="45.73292" lon="6.56453">
        <ele>1042</ele>
        <time>2018-10-15T13:51:29.000Z</time>
      </trkpt>
      <trkpt lat="45.73305" lon="6.56474">
        <ele>1047</ele>
        <time>2018-10-15T13:51:39.000Z</time>
      </trkpt>
      <trkpt lat="45.73317" lon="6.56489">
        <ele>1050</ele>
        <time>2018-10-15T13:51:49.000Z</time>
      </trkpt>
      <trkpt lat="45.73321" lon="6.56505">
        <ele>1050</ele>
        <time>2018-10-15T13:51:59.000Z</time>
      </trkpt>
      <trkpt lat="45.7333" lon="6.56528">
        <ele>1052</ele>
        <time>2018-10-15T13:52:09.000Z</time>
      </trkpt>
      <trkpt lat="45.73344" lon="6.56547">
        <ele>1055</ele>
        <time>2018-10-15T13:52:19.000Z</time>
      </trkpt>
      <trkpt lat="45.73358" lon="6.56569">
        <ele>1058</ele>
        <time>2018-10-15T13:52:29.000Z</time>
      </trkpt>
      <trkpt lat="45.7337" lon="6.56582">
        <ele>1057</ele>
        <time>2018-10-15T13:52:39.000Z</time>
      </trkpt>
      <trkpt lat="45.73384" lon="6.56606">
        <ele>1054</ele>
        <time>2018-10-15T13:52:49.000Z</time>
      </trkpt>
      <trkpt lat="45.73397" lon="6.56621">
        <ele>1053</ele>
        <time>2018-10-15T13:52:59.000Z</time>
      </trkpt>
      <trkpt lat="45.73409" lon="6.5663">
        <ele>1053</ele>
        <time>2018-10-15T13:53:09.000Z</time>
      </trkpt>
      <trkpt lat="45.73422" lon="6.56636">
        <ele>1055</ele>
        <time>2018-10-15T13:53:19.000Z</time>
      </trkpt>
      <trkpt lat="45.73436" lon="6.5664">
        <ele>1056</ele>
        <time>2018-10-15T13:53:29.000Z</time>
      </trkpt>
      <trkpt lat="45.73451" lon="6.56637">
        <ele>1057</ele>
        <time>2018-10-15T13:53:39.000Z</time>
      </trkpt>
      <trkpt lat="45.73466" lon="6.56633">
        <ele>1059</ele>
        <time>2018-10-15T13:53:49.000Z</time>
      </trkpt>
      <trkpt lat="45.73477" lon="6.56629">
        <ele>1061</ele>
        <time>2018-10-15T13:53:59.000Z</time>
      </trkpt>
      <trkpt lat="45.73489" lon="6.56635">
        <ele>1063</ele>
        <time>2018-10-15T13:54:09.000Z</time>
      </trkpt>
      <trkpt lat="45.73503" lon="6.56632">
        <ele>1065</ele>
        <time>2018-10-15T13:54:19.000Z</time>
      </trkpt>
      <trkpt lat="45.73516" lon="6.56631">
        <ele>1068</ele>
        <time>2018-10-15T13:54:29.000Z</time>
      </trkpt>
      <trkpt lat="45.7353" lon="6.56624">
        <ele>1073</ele>
        <time>2018-10-15T13:54:39.000Z</time>
      </trkpt>
      <trkpt lat="45.73541" lon="6.56628">
        <ele>1075</ele>
        <time>2018-10-15T13:54:49.000Z</time>
      </trkpt>
      <trkpt lat="45.73552" lon="6.56621">
        <ele>1078</ele>
        <time>2018-10-15T13:54:59.000Z</time>
      </trkpt>
      <trkpt lat="45.73548" lon="6.5661">
        <ele>1080</ele>
        <time>2018-10-15T13:55:09.000Z</time>
      </trkpt>
      <trkpt lat="45.73541" lon="6.56606">
        <ele>1083</ele>
        <time>2018-10-15T13:55:19.000Z</time>
      </trkpt>
      <trkpt lat="45.7355" lon="6.56608">
        <ele>1085</ele>
        <time>2018-10-15T13:55:29.000Z</time>
      </trkpt>
      <trkpt lat="45.73559" lon="6.56607">
        <ele>1088</ele>
        <time>2018-10-15T13:55:39.000Z</time>
      </trkpt>
      <trkpt lat="45.73571" lon="6.56607">
        <ele>1090</ele>
        <time>2018-10-15T13:55:49.000Z</time>
      </trkpt>
      <trkpt lat="45.73578" lon="6.56608">
        <ele>1089</ele>
        <time>2018-10-15T13:55:59.000Z</time>
      </trkpt>
      <trkpt lat="45.73579" lon="6.56622">
        <ele>1091</ele>
        <time>2018-10-15T13:56:09.000Z</time>
      </trkpt>
      <trkpt lat="45.73593" lon="6.56642">
        <ele>1094</ele>
        <time>2018-10-15T13:56:19.000Z</time>
      </trkpt>
      <trkpt lat="45.73601" lon="6.56656">
        <ele>1094</ele>
        <time>2018-10-15T13:56:29.000Z</time>
      </trkpt>
      <trkpt lat="45.73609" lon="6.56677">
        <ele>1095</ele>
        <time>2018-10-15T13:56:39.000Z</time>
      </trkpt>
      <trkpt lat="45.7362" lon="6.56696">
        <ele>1095</ele>
        <time>2018-10-15T13:56:49.000Z</time>
      </trkpt>
      <trkpt lat="45.73634" lon="6.56716">
        <ele>1093</ele>
        <time>2018-10-15T13:56:59.000Z</time>
      </trkpt>
      <trkpt lat="45.73652" lon="6.56728">
        <ele>1093</ele>
        <time>2018-10-15T13:57:09.000Z</time>
      </trkpt>
      <trkpt lat="45.73669" lon="6.56729">
        <ele>1092</ele>
        <time>2018-10-15T13:57:19.000Z</time>
      </trkpt>
      <trkpt lat="45.73686" lon="6.56727">
        <ele>1093</ele>
        <time>2018-10-15T13:57:29.000Z</time>
      </trkpt>
      <trkpt lat="45.73704" lon="6.56722">
        <ele>1095</ele>
        <time>2018-10-15T13:57:39.000Z</time>
      </trkpt>
      <trkpt lat="45.73703" lon="6.56732">
        <ele>1093</ele>
        <time>2018-10-15T13:57:49.000Z</time>
      </trkpt>
      <trkpt lat="45.73711" lon="6.56751">
        <ele>1095</ele>
        <time>2018-10-15T13:57:59.000Z</time>
      </trkpt>
      <trkpt lat="45.73719" lon="6.56764">
        <ele>1097</ele>
        <time>2018-10-15T13:58:09.000Z</time>
      </trkpt>
      <trkpt lat="45.73749" lon="6.56788">
        <ele>1103</ele>
        <time>2018-10-15T13:58:19.000Z</time>
      </trkpt>
      <trkpt lat="45.73759" lon="6.5679">
        <ele>1107</ele>
        <time>2018-10-15T13:58:29.000Z</time>
      </trkpt>
      <trkpt lat="45.73768" lon="6.56796">
        <ele>1107</ele>
        <time>2018-10-15T13:58:39.000Z</time>
      </trkpt>
      <trkpt lat="45.73767" lon="6.56804">
        <ele>1105</ele>
        <time>2018-10-15T13:58:49.000Z</time>
      </trkpt>
      <trkpt lat="45.73761" lon="6.56816">
        <ele>1105</ele>
        <time>2018-10-15T13:58:59.000Z</time>
      </trkpt>
      <trkpt lat="45.7376" lon="6.5684">
        <ele>1106</ele>
        <time>2018-10-15T13:59:09.000Z</time>
      </trkpt>
      <trkpt lat="45.73771" lon="6.56867">
        <ele>1104</ele>
        <time>2018-10-15T13:59:19.000Z</time>
      </trkpt>
      <trkpt lat="45.73772" lon="6.56885">
        <ele>1107</ele>
        <time>2018-10-15T13:59:29.000Z</time>
      </trkpt>
      <trkpt lat="45.73784" lon="6.5691">
        <ele>1108</ele>
        <time>2018-10-15T13:59:39.000Z</time>
      </trkpt>
      <trkpt lat="45.73794" lon="6.56937">
        <ele>1110</ele>
        <time>2018-10-15T13:59:49.000Z</time>
      </trkpt>
      <trkpt lat="45.73806" lon="6.56958">
        <ele>1112</ele>
        <time>2018-10-15T13:59:59.000Z</time>
      </trkpt>
      <trkpt lat="45.7382" lon="6.56978">
        <ele>1113</ele>
        <time>2018-10-15T14:00:09.000Z</time>
      </trkpt>
      <trkpt lat="45.73839" lon="6.57001">
        <ele>1115</ele>
        <time>2018-10-15T14:00:19.000Z</time>
      </trkpt>
      <trkpt lat="45.73853" lon="6.5702">
        <ele>1116</ele>
        <time>2018-10-15T14:00:29.000Z</time>
      </trkpt>
      <trkpt lat="45.73868" lon="6.57038">
        <ele>1118</ele>
        <time>2018-10-15T14:00:39.000Z</time>
      </trkpt>
      <trkpt lat="45.73881" lon="6.57053">
        <ele>1120</ele>
        <time>2018-10-15T14:00:49.000Z</time>
      </trkpt>
      <trkpt lat="45.73891" lon="6.57066">
        <ele>1122</ele>
        <time>2018-10-15T14:00:59.000Z</time>
      </trkpt>
      <trkpt lat="45.73912" lon="6.57078">
        <ele>1123</ele>
        <time>2018-10-15T14:01:09.000Z</time>
      </trkpt>
      <trkpt lat="45.73924" lon="6.57084">
        <ele>1124</ele>
        <time>2018-10-15T14:01:19.000Z</time>
      </trkpt>
      <trkpt lat="45.73936" lon="6.57088">
        <ele>1124</ele>
        <time>2018-10-15T14:01:29.000Z</time>
      </trkpt>
      <trkpt lat="45.73945" lon="6.57097">
        <ele>1124</ele>
        <time>2018-10-15T14:01:39.000Z</time>
      </trkpt>
      <trkpt lat="45.73952" lon="6.57108">
        <ele>1124</ele>
        <time>2018-10-15T14:01:49.000Z</time>
      </trkpt>
      <trkpt lat="45.73962" lon="6.5712">
        <ele>1124</ele>
        <time>2018-10-15T14:01:59.000Z</time>
      </trkpt>
      <trkpt lat="45.73969" lon="6.57132">
        <ele>1123</ele>
        <time>2018-10-15T14:02:09.000Z</time>
      </trkpt>
      <trkpt lat="45.73976" lon="6.57146">
        <ele>1122</ele>
        <time>2018-10-15T14:02:19.000Z</time>
      </trkpt>
      <trkpt lat="45.73982" lon="6.57158">
        <ele>1121</ele>
        <time>2018-10-15T14:02:29.000Z</time>
      </trkpt>
      <trkpt lat="45.7399" lon="6.57169">
        <ele>1120</ele>
        <time>2018-10-15T14:02:39.000Z</time>
      </trkpt>
      <trkpt lat="45.74016" lon="6.57186">
        <ele>1119</ele>
        <time>2018-10-15T14:02:49.000Z</time>
      </trkpt>
      <trkpt lat="45.74034" lon="6.57201">
        <ele>1118</ele>
        <time>2018-10-15T14:02:59.000Z</time>
      </trkpt>
      <trkpt lat="45.74043" lon="6.57208">
        <ele>1117</ele>
        <time>2018-10-15T14:03:09.000Z</time>
      </trkpt>
      <trkpt lat="45.74075" lon="6.57228">
        <ele>1116</ele>
        <time>2018-10-15T14:03:19.000Z</time>
      </trkpt>
      <trkpt lat="45.74087" lon="6.57242">
        <ele>1116</ele>
        <time>2018-10-15T14:03:29.000Z</time>
      </trkpt>
      <trkpt lat="45.74093" lon="6.57259">
        <ele>1114</ele>
        <time>2018-10-15T14:03:39.000Z</time>
      </trkpt>
      <trkpt lat="45.74103" lon="6.57269">
        <ele>1113</ele>
        <time>2018-10-15T14:03:49.000Z</time>
      </trkpt>
      <trkpt lat="45.74114" lon="6.57277">
        <ele>1112</ele>
        <time>2018-10-15T14:03:59.000Z</time>
      </trkpt>
      <trkpt lat="45.74125" lon="6.57279">
        <ele>1112</ele>
        <time>2018-10-15T14:04:09.000Z</time>
      </trkpt>
      <trkpt lat="45.74129" lon="6.57289">
        <ele>1112</ele>
        <time>2018-10-15T14:04:19.000Z</time>
      </trkpt>
      <trkpt lat="45.74127" lon="6.57296">
        <ele>1112</ele>
        <time>2018-10-15T14:04:29.000Z</time>
      </trkpt>
      <trkpt lat="45.74129" lon="6.57308">
        <ele>1111</ele>
        <time>2018-10-15T14:04:39.000Z</time>
      </trkpt>
      <trkpt lat="45.74133" lon="6.5732">
        <ele>1111</ele>
        <time>2018-10-15T14:04:49.000Z</time>
      </trkpt>
      <trkpt lat="45.74144" lon="6.57345">
        <ele>1109</ele>
        <time>2018-10-15T14:04:59.000Z</time>
      </trkpt>
      <trkpt lat="45.74151" lon="6.57358">
        <ele>1107</ele>
        <time>2018-10-15T14:05:09.000Z</time>
      </trkpt>
      <trkpt lat="45.7417" lon="6.57373">
        <ele>1097</ele>
        <time>2017-07-15T12:51:28.000Z</time>
      </trkpt>
      <trkpt lat="45.74179" lon="6.57377">
        <ele>1096</ele>
        <time>2017-07-15T12:51:34.000Z</time>
      </trkpt>
      <trkpt lat="45.74183" lon="6.57388">
        <ele>1096</ele>
        <time>2017-07-15T12:52:10.000Z</time>
      </trkpt>
      <trkpt lat="45.74175" lon="6.57412">
        <ele>1098</ele>
        <time>2017-07-15T12:52:30.000Z</time>
      </trkpt>
      <trkpt lat="45.74173" lon="6.57424">
        <ele>1102</ele>
        <time>2017-07-15T12:52:44.000Z</time>
      </trkpt>
      <trkpt lat="45.74173" lon="6.57445">
        <ele>1103</ele>
        <time>2017-07-15T12:52:57.000Z</time>
      </trkpt>
      <trkpt lat="45.74181" lon="6.57466">
        <ele>1104</ele>
        <time>2017-07-15T12:53:07.000Z</time>
      </trkpt>
      <trkpt lat="45.74188" lon="6.57479">
        <ele>1104</ele>
        <time>2017-07-15T12:53:15.000Z</time>
      </trkpt>
      <trkpt lat="45.74199" lon="6.57489">
        <ele>1106</ele>
        <time>2017-07-15T12:53:23.000Z</time>
      </trkpt>
      <trkpt lat="45.74213" lon="6.57501">
        <ele>1108</ele>
        <time>2017-07-15T12:53:30.000Z</time>
      </trkpt>
      <trkpt lat="45.74245" lon="6.57525">
        <ele>1113</ele>
        <time>2017-07-15T12:53:58.000Z</time>
      </trkpt>
      <trkpt lat="45.74261" lon="6.57533">
        <ele>1116</ele>
        <time>2017-07-15T12:54:12.000Z</time>
      </trkpt>
      <trkpt lat="45.74271" lon="6.5754">
        <ele>1120</ele>
        <time>2017-07-15T12:54:27.000Z</time>
      </trkpt>
      <trkpt lat="45.7428" lon="6.57554">
        <ele>1123</ele>
        <time>2017-07-15T12:54:40.000Z</time>
      </trkpt>
      <trkpt lat="45.74286" lon="6.57567">
        <ele>1123</ele>
        <time>2017-07-15T12:54:50.000Z</time>
      </trkpt>
      <trkpt lat="45.74295" lon="6.57578">
        <ele>1124</ele>
        <time>2017-07-15T12:54:59.000Z</time>
      </trkpt>
      <trkpt lat="45.74308" lon="6.57586">
        <ele>1126</ele>
        <time>2017-07-15T12:55:09.000Z</time>
      </trkpt>
      <trkpt lat="45.74335" lon="6.57597">
        <ele>1132</ele>
        <time>2017-07-15T12:55:32.000Z</time>
      </trkpt>
      <trkpt lat="45.74347" lon="6.57599">
        <ele>1134</ele>
        <time>2017-07-15T12:55:43.000Z</time>
      </trkpt>
      <trkpt lat="45.74358" lon="6.57603">
        <ele>1136</ele>
        <time>2017-07-15T12:55:54.000Z</time>
      </trkpt>
      <trkpt lat="45.7437" lon="6.57606">
        <ele>1138</ele>
        <time>2017-07-15T12:56:05.000Z</time>
      </trkpt>
      <trkpt lat="45.74382" lon="6.57606">
        <ele>1140</ele>
        <time>2017-07-15T12:56:16.000Z</time>
      </trkpt>
      <trkpt lat="45.74411" lon="6.57625">
        <ele>1142</ele>
        <time>2017-07-15T12:56:39.000Z</time>
      </trkpt>
      <trkpt lat="45.74421" lon="6.57625">
        <ele>1143</ele>
        <time>2017-07-15T12:56:45.000Z</time>
      </trkpt>
      <trkpt lat="45.74431" lon="6.57625">
        <ele>1144</ele>
        <time>2017-07-15T12:56:52.000Z</time>
      </trkpt>
      <trkpt lat="45.74454" lon="6.57628">
        <ele>1147</ele>
        <time>2017-07-15T12:57:07.000Z</time>
      </trkpt>
      <trkpt lat="45.74464" lon="6.57628">
        <ele>1147</ele>
        <time>2017-07-15T12:57:14.000Z</time>
      </trkpt>
      <trkpt lat="45.74474" lon="6.57629">
        <ele>1148</ele>
        <time>2017-07-15T12:57:21.000Z</time>
      </trkpt>
      <trkpt lat="45.74484" lon="6.57634">
        <ele>1150</ele>
        <time>2017-07-15T12:57:28.000Z</time>
      </trkpt>
      <trkpt lat="45.74503" lon="6.57641">
        <ele>1151</ele>
        <time>2017-07-15T12:57:42.000Z</time>
      </trkpt>
      <trkpt lat="45.74525" lon="6.57644">
        <ele>1151</ele>
        <time>2017-07-15T12:57:56.000Z</time>
      </trkpt>
      <trkpt lat="45.74533" lon="6.57651">
        <ele>1153</ele>
        <time>2017-07-15T12:58:02.000Z</time>
      </trkpt>
      <trkpt lat="45.7454" lon="6.57662">
        <ele>1154</ele>
        <time>2017-07-15T12:58:09.000Z</time>
      </trkpt>
      <trkpt lat="45.74554" lon="6.57681">
        <ele>1155</ele>
        <time>2017-07-15T12:58:22.000Z</time>
      </trkpt>
      <trkpt lat="45.7457" lon="6.57694">
        <ele>1157</ele>
        <time>2017-07-15T12:58:36.000Z</time>
      </trkpt>
      <trkpt lat="45.74579" lon="6.57704">
        <ele>1157</ele>
        <time>2017-07-15T12:58:43.000Z</time>
      </trkpt>
      <trkpt lat="45.74587" lon="6.57714">
        <ele>1158</ele>
        <time>2017-07-15T12:58:51.000Z</time>
      </trkpt>
      <trkpt lat="45.74604" lon="6.57733">
        <ele>1159</ele>
        <time>2017-07-15T12:59:06.000Z</time>
      </trkpt>
      <trkpt lat="45.74615" lon="6.57736">
        <ele>1159</ele>
        <time>2017-07-15T12:59:13.000Z</time>
      </trkpt>
      <trkpt lat="45.74623" lon="6.57739">
        <ele>1160</ele>
        <time>2017-07-15T12:59:21.000Z</time>
      </trkpt>
      <trkpt lat="45.74643" lon="6.5775">
        <ele>1161</ele>
        <time>2017-07-15T12:59:34.000Z</time>
      </trkpt>
      <trkpt lat="45.74652" lon="6.57756">
        <ele>1161</ele>
        <time>2017-07-15T12:59:40.000Z</time>
      </trkpt>
      <trkpt lat="45.74666" lon="6.57771">
        <ele>1162</ele>
        <time>2017-07-15T12:59:49.000Z</time>
      </trkpt>
      <trkpt lat="45.74676" lon="6.57785">
        <ele>1162</ele>
        <time>2017-07-15T12:59:59.000Z</time>
      </trkpt>
      <trkpt lat="45.7468" lon="6.57796">
        <ele>1161</ele>
        <time>2017-07-15T13:00:07.000Z</time>
      </trkpt>
      <trkpt lat="45.74687" lon="6.57806">
        <ele>1161</ele>
        <time>2017-07-15T13:00:14.000Z</time>
      </trkpt>
      <trkpt lat="45.74693" lon="6.57817">
        <ele>1160</ele>
        <time>2017-07-15T13:00:22.000Z</time>
      </trkpt>
      <trkpt lat="45.74701" lon="6.57829">
        <ele>1160</ele>
        <time>2017-07-15T13:00:31.000Z</time>
      </trkpt>
      <trkpt lat="45.74718" lon="6.57854">
        <ele>1161</ele>
        <time>2017-07-15T13:00:45.000Z</time>
      </trkpt>
      <trkpt lat="45.74729" lon="6.57867">
        <ele>1161</ele>
        <time>2017-07-15T13:00:52.000Z</time>
      </trkpt>
      <trkpt lat="45.74746" lon="6.57884">
        <ele>1163</ele>
        <time>2017-07-15T13:01:05.000Z</time>
      </trkpt>
      <trkpt lat="45.74763" lon="6.57898">
        <ele>1163</ele>
        <time>2017-07-15T13:01:17.000Z</time>
      </trkpt>
      <trkpt lat="45.74773" lon="6.57904">
        <ele>1164</ele>
        <time>2017-07-15T13:01:23.000Z</time>
      </trkpt>
      <trkpt lat="45.74783" lon="6.57908">
        <ele>1165</ele>
        <time>2017-07-15T13:01:29.000Z</time>
      </trkpt>
      <trkpt lat="45.74792" lon="6.57907">
        <ele>1166</ele>
        <time>2017-07-15T13:01:36.000Z</time>
      </trkpt>
      <trkpt lat="45.74804" lon="6.57901">
        <ele>1166</ele>
        <time>2017-07-15T13:01:43.000Z</time>
      </trkpt>
      <trkpt lat="45.74812" lon="6.57893">
        <ele>1168</ele>
        <time>2017-07-15T13:01:50.000Z</time>
      </trkpt>
      <trkpt lat="45.7482" lon="6.57881">
        <ele>1168</ele>
        <time>2017-07-15T13:01:58.000Z</time>
      </trkpt>
      <trkpt lat="45.74828" lon="6.57872">
        <ele>1169</ele>
        <time>2017-07-15T13:02:05.000Z</time>
      </trkpt>
      <trkpt lat="45.74837" lon="6.57871">
        <ele>1168</ele>
        <time>2017-07-15T13:02:13.000Z</time>
      </trkpt>
      <trkpt lat="45.74857" lon="6.57878">
        <ele>1166</ele>
        <time>2017-07-15T13:02:24.000Z</time>
      </trkpt>
      <trkpt lat="45.74868" lon="6.57883">
        <ele>1165</ele>
        <time>2017-07-15T13:02:30.000Z</time>
      </trkpt>
      <trkpt lat="45.74877" lon="6.57889">
        <ele>1165</ele>
        <time>2017-07-15T13:02:35.000Z</time>
      </trkpt>
      <trkpt lat="45.74886" lon="6.579">
        <ele>1165</ele>
        <time>2017-07-15T13:02:41.000Z</time>
      </trkpt>
      <trkpt lat="45.74887" lon="6.57913">
        <ele>1165</ele>
        <time>2017-07-15T13:02:46.000Z</time>
      </trkpt>
      <trkpt lat="45.74882" lon="6.57924">
        <ele>1165</ele>
        <time>2017-07-15T13:02:52.000Z</time>
      </trkpt>
      <trkpt lat="45.74873" lon="6.57926">
        <ele>1166</ele>
        <time>2017-07-15T13:02:58.000Z</time>
      </trkpt>
      <trkpt lat="45.74864" lon="6.5793">
        <ele>1167</ele>
        <time>2017-07-15T13:03:03.000Z</time>
      </trkpt>
      <trkpt lat="45.74862" lon="6.57946">
        <ele>1168</ele>
        <time>2017-07-15T13:03:08.000Z</time>
      </trkpt>
      <trkpt lat="45.74857" lon="6.57959">
        <ele>1168</ele>
        <time>2017-07-15T13:03:13.000Z</time>
      </trkpt>
      <trkpt lat="45.74853" lon="6.57973">
        <ele>1169</ele>
        <time>2017-07-15T13:03:18.000Z</time>
      </trkpt>
      <trkpt lat="45.74853" lon="6.57986">
        <ele>1169</ele>
        <time>2017-07-15T13:03:23.000Z</time>
      </trkpt>
      <trkpt lat="45.74851" lon="6.58001">
        <ele>1170</ele>
        <time>2017-07-15T13:03:28.000Z</time>
      </trkpt>
      <trkpt lat="45.74851" lon="6.58015">
        <ele>1169</ele>
        <time>2017-07-15T13:03:33.000Z</time>
      </trkpt>
      <trkpt lat="45.74854" lon="6.58041">
        <ele>1169</ele>
        <time>2017-07-15T13:03:43.000Z</time>
      </trkpt>
      <trkpt lat="45.74865" lon="6.58079">
        <ele>1166</ele>
        <time>2017-07-15T13:03:58.000Z</time>
      </trkpt>
      <trkpt lat="45.74872" lon="6.58107">
        <ele>1165</ele>
        <time>2017-07-15T13:04:07.000Z</time>
      </trkpt>
      <trkpt lat="45.74875" lon="6.58122">
        <ele>1164</ele>
        <time>2017-07-15T13:04:11.000Z</time>
      </trkpt>
      <trkpt lat="45.74879" lon="6.58139">
        <ele>1164</ele>
        <time>2017-07-15T13:04:16.000Z</time>
      </trkpt>
      <trkpt lat="45.74883" lon="6.58171">
        <ele>1162</ele>
        <time>2017-07-15T13:04:26.000Z</time>
      </trkpt>
      <trkpt lat="45.74885" lon="6.58201">
        <ele>1160</ele>
        <time>2017-07-15T13:04:34.000Z</time>
      </trkpt>
      <trkpt lat="45.74889" lon="6.58214">
        <ele>1159</ele>
        <time>2017-07-15T13:04:38.000Z</time>
      </trkpt>
      <trkpt lat="45.74891" lon="6.58227">
        <ele>1159</ele>
        <time>2017-07-15T13:04:42.000Z</time>
      </trkpt>
      <trkpt lat="45.74894" lon="6.5824">
        <ele>1158</ele>
        <time>2017-07-15T13:04:46.000Z</time>
      </trkpt>
      <trkpt lat="45.74895" lon="6.58264">
        <ele>1160</ele>
        <time>2017-07-15T13:04:56.000Z</time>
      </trkpt>
      <trkpt lat="45.74908" lon="6.58274">
        <ele>1150</ele>
        <time>2017-07-15T13:05:06.000Z</time>
      </trkpt>
      <trkpt lat="45.74914" lon="6.58291">
        <ele>1149</ele>
        <time>2017-07-15T13:05:16.000Z</time>
      </trkpt>
      <trkpt lat="45.7492" lon="6.58315">
        <ele>1148</ele>
        <time>2017-07-15T13:05:26.000Z</time>
      </trkpt>
      <trkpt lat="45.74929" lon="6.5834">
        <ele>1147</ele>
        <time>2017-07-15T13:05:36.000Z</time>
      </trkpt>
      <trkpt lat="45.74946" lon="6.58369">
        <ele>1146</ele>
        <time>2017-07-15T13:05:46.000Z</time>
      </trkpt>
      <trkpt lat="45.74966" lon="6.58394">
        <ele>1145</ele>
        <time>2017-07-15T13:05:56.000Z</time>
      </trkpt>
      <trkpt lat="45.74975" lon="6.58407">
        <ele>1144</ele>
        <time>2017-07-15T13:06:06.000Z</time>
      </trkpt>
      <trkpt lat="45.74986" lon="6.58428">
        <ele>1144</ele>
        <time>2017-07-15T13:06:16.000Z</time>
      </trkpt>
      <trkpt lat="45.75" lon="6.58446">
        <ele>1145</ele>
        <time>2017-07-15T13:06:26.000Z</time>
      </trkpt>
      <trkpt lat="45.75019" lon="6.58457">
        <ele>1146</ele>
        <time>2017-07-15T13:06:36.000Z</time>
      </trkpt>
      <trkpt lat="45.75027" lon="6.58488">
        <ele>1147</ele>
        <time>2017-07-15T13:06:46.000Z</time>
      </trkpt>
      <trkpt lat="45.75035" lon="6.58505">
        <ele>1147</ele>
        <time>2017-07-15T13:06:56.000Z</time>
      </trkpt>
      <trkpt lat="45.75052" lon="6.58519">
        <ele>1148</ele>
        <time>2017-07-15T13:07:06.000Z</time>
      </trkpt>
      <trkpt lat="45.75057" lon="6.58533">
        <ele>1149</ele>
        <time>2017-07-15T13:07:16.000Z</time>
      </trkpt>
      <trkpt lat="45.75065" lon="6.58535">
        <ele>1152</ele>
        <time>2017-07-15T13:07:26.000Z</time>
      </trkpt>
      <trkpt lat="45.75071" lon="6.58529">
        <ele>1154</ele>
        <time>2017-07-15T13:07:36.000Z</time>
      </trkpt>
      <trkpt lat="45.75079" lon="6.58536">
        <ele>1155</ele>
        <time>2017-07-15T13:07:46.000Z</time>
      </trkpt>
      <trkpt lat="45.75084" lon="6.58545">
        <ele>1155</ele>
        <time>2017-07-15T13:07:56.000Z</time>
      </trkpt>
      <trkpt lat="45.75091" lon="6.58554">
        <ele>1156</ele>
        <time>2017-07-15T13:08:06.000Z</time>
      </trkpt>
      <trkpt lat="45.75099" lon="6.5856">
        <ele>1157</ele>
        <time>2017-07-15T13:08:16.000Z</time>
      </trkpt>
      <trkpt lat="45.75111" lon="6.58558">
        <ele>1159</ele>
        <time>2017-07-15T13:08:26.000Z</time>
      </trkpt>
      <trkpt lat="45.75118" lon="6.58551">
        <ele>1161</ele>
        <time>2017-07-15T13:08:36.000Z</time>
      </trkpt>
      <trkpt lat="45.75126" lon="6.58544">
        <ele>1162</ele>
        <time>2017-07-15T13:08:46.000Z</time>
      </trkpt>
      <trkpt lat="45.75135" lon="6.58537">
        <ele>1165</ele>
        <time>2017-07-15T13:08:56.000Z</time>
      </trkpt>
      <trkpt lat="45.75142" lon="6.5854">
        <ele>1166</ele>
        <time>2017-07-15T13:09:06.000Z</time>
      </trkpt>
      <trkpt lat="45.75149" lon="6.58549">
        <ele>1168</ele>
        <time>2017-07-15T13:09:16.000Z</time>
      </trkpt>
      <trkpt lat="45.75158" lon="6.58553">
        <ele>1169</ele>
        <time>2017-07-15T13:09:26.000Z</time>
      </trkpt>
      <trkpt lat="45.75166" lon="6.58548">
        <ele>1171</ele>
        <time>2017-07-15T13:09:36.000Z</time>
      </trkpt>
      <trkpt lat="45.75173" lon="6.58539">
        <ele>1174</ele>
        <time>2017-07-15T13:09:46.000Z</time>
      </trkpt>
      <trkpt lat="45.75181" lon="6.58531">
        <ele>1175</ele>
        <time>2017-07-15T13:09:56.000Z</time>
      </trkpt>
      <trkpt lat="45.7519" lon="6.5853">
        <ele>1178</ele>
        <time>2017-07-15T13:10:06.000Z</time>
      </trkpt>
      <trkpt lat="45.75196" lon="6.58519">
        <ele>1182</ele>
        <time>2017-07-15T13:10:16.000Z</time>
      </trkpt>
      <trkpt lat="45.75202" lon="6.5851">
        <ele>1185</ele>
        <time>2017-07-15T13:10:26.000Z</time>
      </trkpt>
      <trkpt lat="45.75204" lon="6.58497">
        <ele>1190</ele>
        <time>2017-07-15T13:10:36.000Z</time>
      </trkpt>
      <trkpt lat="45.75213" lon="6.58493">
        <ele>1192</ele>
        <time>2017-07-15T13:10:46.000Z</time>
      </trkpt>
      <trkpt lat="45.75216" lon="6.58478">
        <ele>1195</ele>
        <time>2017-07-15T13:10:56.000Z</time>
      </trkpt>
      <trkpt lat="45.75234" lon="6.58466">
        <ele>1205</ele>
        <time>2019-06-22T12:46:54.000Z</time>
      </trkpt>
      <trkpt lat="45.75238" lon="6.58462">
        <ele>1205</ele>
        <time>2019-06-22T12:47:00.000Z</time>
      </trkpt>
      <trkpt lat="45.75241" lon="6.58462">
        <ele>1207</ele>
        <time>2019-06-22T12:47:04.000Z</time>
      </trkpt>
      <trkpt lat="45.75243" lon="6.58459">
        <ele>1208</ele>
        <time>2019-06-22T12:47:08.000Z</time>
      </trkpt>
      <trkpt lat="45.75243" lon="6.58456">
        <ele>1209</ele>
        <time>2019-06-22T12:47:11.000Z</time>
      </trkpt>
      <trkpt lat="45.75246" lon="6.58453">
        <ele>1209</ele>
        <time>2019-06-22T12:47:17.000Z</time>
      </trkpt>
      <trkpt lat="45.7525" lon="6.58453">
        <ele>1211</ele>
        <time>2019-06-22T12:47:22.000Z</time>
      </trkpt>
      <trkpt lat="45.75251" lon="6.58451">
        <ele>1211</ele>
        <time>2019-06-22T12:47:26.000Z</time>
      </trkpt>
      <trkpt lat="45.75252" lon="6.58448">
        <ele>1212</ele>
        <time>2019-06-22T12:47:30.000Z</time>
      </trkpt>
      <trkpt lat="45.75253" lon="6.58447">
        <ele>1213</ele>
        <time>2019-06-22T12:47:35.000Z</time>
      </trkpt>
      <trkpt lat="45.75257" lon="6.58446">
        <ele>1214</ele>
        <time>2019-06-22T12:47:42.000Z</time>
      </trkpt>
      <trkpt lat="45.75259" lon="6.58445">
        <ele>1214</ele>
        <time>2019-06-22T12:47:48.000Z</time>
      </trkpt>
      <trkpt lat="45.75262" lon="6.58445">
        <ele>1216</ele>
        <time>2019-06-22T12:47:53.000Z</time>
      </trkpt>
      <trkpt lat="45.75267" lon="6.58441">
        <ele>1218</ele>
        <time>2019-06-22T12:48:03.000Z</time>
      </trkpt>
      <trkpt lat="45.75269" lon="6.5844">
        <ele>1219</ele>
        <time>2019-06-22T12:48:07.000Z</time>
      </trkpt>
      <trkpt lat="45.7527" lon="6.58439">
        <ele>1219</ele>
        <time>2019-06-22T12:48:09.000Z</time>
      </trkpt>
      <trkpt lat="45.75272" lon="6.5844">
        <ele>1220</ele>
        <time>2019-06-22T12:48:32.000Z</time>
      </trkpt>
      <trkpt lat="45.75271" lon="6.58438">
        <ele>1220</ele>
        <time>2019-06-22T12:48:46.000Z</time>
      </trkpt>
      <trkpt lat="45.75272" lon="6.5844">
        <ele>1221</ele>
        <time>2019-06-22T12:48:49.000Z</time>
      </trkpt>
      <trkpt lat="45.75274" lon="6.58441">
        <ele>1221</ele>
        <time>2019-06-22T12:48:54.000Z</time>
      </trkpt>
      <trkpt lat="45.75276" lon="6.58441">
        <ele>1221</ele>
        <time>2019-06-22T12:49:01.000Z</time>
      </trkpt>
      <trkpt lat="45.75275" lon="6.58436">
        <ele>1222</ele>
        <time>2019-06-22T12:49:06.000Z</time>
      </trkpt>
      <trkpt lat="45.75275" lon="6.58431">
        <ele>1224</ele>
        <time>2019-06-22T12:49:15.000Z</time>
      </trkpt>
      <trkpt lat="45.75274" lon="6.58426">
        <ele>1226</ele>
        <time>2019-06-22T12:49:21.000Z</time>
      </trkpt>
      <trkpt lat="45.75275" lon="6.58422">
        <ele>1227</ele>
        <time>2019-06-22T12:49:27.000Z</time>
      </trkpt>
      <trkpt lat="45.75278" lon="6.5842">
        <ele>1228</ele>
        <time>2019-06-22T12:49:33.000Z</time>
      </trkpt>
      <trkpt lat="45.75279" lon="6.58414">
        <ele>1230</ele>
        <time>2019-06-22T12:49:39.000Z</time>
      </trkpt>
      <trkpt lat="45.75282" lon="6.58412">
        <ele>1231</ele>
        <time>2019-06-22T12:49:46.000Z</time>
      </trkpt>
      <trkpt lat="45.75283" lon="6.58409">
        <ele>1232</ele>
        <time>2019-06-22T12:49:52.000Z</time>
      </trkpt>
      <trkpt lat="45.75284" lon="6.5841">
        <ele>1228.8</ele>
        <time>2019-06-22T12:50:02.000Z</time>
      </trkpt>
      <trkpt lat="45.75286" lon="6.5841">
        <ele>1229.5</ele>
        <time>2019-06-22T12:50:22.000Z</time>
      </trkpt>
      <trkpt lat="45.75286" lon="6.58404">
        <ele>1234</ele>
        <time>2019-06-22T12:50:54.000Z</time>
      </trkpt>
      <trkpt lat="45.75289" lon="6.58402">
        <ele>1235</ele>
        <time>2019-06-22T12:51:01.000Z</time>
      </trkpt>
      <trkpt lat="45.75292" lon="6.58399">
        <ele>1236</ele>
        <time>2019-06-22T12:51:08.000Z</time>
      </trkpt>
      <trkpt lat="45.75294" lon="6.58399">
        <ele>1237</ele>
        <time>2019-06-22T12:51:12.000Z</time>
      </trkpt>
      <trkpt lat="45.75294" lon="6.58398">
        <ele>1237</ele>
        <time>2019-06-22T12:51:13.000Z</time>
      </trkpt>
      <trkpt lat="45.75297" lon="6.58395">
        <ele>1239</ele>
        <time>2019-06-22T12:51:24.000Z</time>
      </trkpt>
      <trkpt lat="45.75297" lon="6.58392">
        <ele>1240</ele>
        <time>2019-06-22T12:51:28.000Z</time>
      </trkpt>
      <trkpt lat="45.75298" lon="6.58391">
        <ele>1237.6</ele>
        <time>2019-06-22T12:51:38.000Z</time>
      </trkpt>
      <trkpt lat="45.75299" lon="6.5839">
        <ele>1238.1</ele>
        <time>2019-06-22T12:51:48.000Z</time>
      </trkpt>
      <trkpt lat="45.753" lon="6.58387">
        <ele>1240</ele>
        <time>2019-06-22T12:52:55.000Z</time>
      </trkpt>
      <trkpt lat="45.75301" lon="6.58382">
        <ele>1240</ele>
        <time>2019-06-22T12:53:02.000Z</time>
      </trkpt>
      <trkpt lat="45.75303" lon="6.5838">
        <ele>1242</ele>
        <time>2019-06-22T12:53:08.000Z</time>
      </trkpt>
      <trkpt lat="45.75308" lon="6.58381">
        <ele>1242</ele>
        <time>2019-06-22T12:53:14.000Z</time>
      </trkpt>
      <trkpt lat="45.75309" lon="6.58378">
        <ele>1244</ele>
        <time>2019-06-22T12:53:20.000Z</time>
      </trkpt>
      <trkpt lat="45.75309" lon="6.58377">
        <ele>1244</ele>
        <time>2019-06-22T12:53:21.000Z</time>
      </trkpt>
      <trkpt lat="45.7531" lon="6.5837">
        <ele>1246</ele>
        <time>2019-06-22T12:53:32.000Z</time>
      </trkpt>
      <trkpt lat="45.75312" lon="6.58368">
        <ele>1246</ele>
        <time>2019-06-22T12:53:37.000Z</time>
      </trkpt>
      <trkpt lat="45.75314" lon="6.58367">
        <ele>1247</ele>
        <time>2019-06-22T12:53:42.000Z</time>
      </trkpt>
      <trkpt lat="45.75314" lon="6.58366">
        <ele>1248</ele>
        <time>2019-06-22T12:53:45.000Z</time>
      </trkpt>
      <trkpt lat="45.75316" lon="6.58366">
        <ele>1249</ele>
        <time>2019-06-22T12:53:49.000Z</time>
      </trkpt>
      <trkpt lat="45.75315" lon="6.58362">
        <ele>1249</ele>
        <time>2019-06-22T12:53:58.000Z</time>
      </trkpt>
      <trkpt lat="45.75314" lon="6.58357">
        <ele>1250</ele>
        <time>2019-06-22T12:54:04.000Z</time>
      </trkpt>
      <trkpt lat="45.75315" lon="6.58356">
        <ele>1250</ele>
        <time>2019-06-22T12:54:06.000Z</time>
      </trkpt>
      <trkpt lat="45.75315" lon="6.58355">
        <ele>1251</ele>
        <time>2019-06-22T12:54:07.000Z</time>
      </trkpt>
      <trkpt lat="45.75315" lon="6.58352">
        <ele>1251</ele>
        <time>2019-06-22T12:54:12.000Z</time>
      </trkpt>
      <trkpt lat="45.75316" lon="6.58351">
        <ele>1252</ele>
        <time>2019-06-22T12:54:14.000Z</time>
      </trkpt>
      <trkpt lat="45.75318" lon="6.5835">
        <ele>1252</ele>
        <time>2019-06-22T12:54:18.000Z</time>
      </trkpt>
      <trkpt lat="45.75319" lon="6.58347">
        <ele>1254</ele>
        <time>2019-06-22T12:54:28.000Z</time>
      </trkpt>
      <trkpt lat="45.7532" lon="6.58348">
        <ele>1253</ele>
        <time>2019-06-22T12:54:33.000Z</time>
      </trkpt>
      <trkpt lat="45.75321" lon="6.58346">
        <ele>1254</ele>
        <time>2019-06-22T12:54:37.000Z</time>
      </trkpt>
      <trkpt lat="45.75317" lon="6.58338">
        <ele>1256</ele>
        <time>2019-06-22T12:54:50.000Z</time>
      </trkpt>
      <trkpt lat="45.75321" lon="6.58327">
        <ele>1257</ele>
        <time>2019-06-22T12:55:02.000Z</time>
      </trkpt>
      <trkpt lat="45.75323" lon="6.58324">
        <ele>1258</ele>
        <time>2019-06-22T12:55:06.000Z</time>
      </trkpt>
      <trkpt lat="45.75324" lon="6.58324">
        <ele>1259</ele>
        <time>2019-06-22T12:55:07.000Z</time>
      </trkpt>
      <trkpt lat="45.75325" lon="6.5832">
        <ele>1260</ele>
        <time>2019-06-22T12:55:11.000Z</time>
      </trkpt>
      <trkpt lat="45.75324" lon="6.58314">
        <ele>1260</ele>
        <time>2019-06-22T12:55:16.000Z</time>
      </trkpt>
      <trkpt lat="45.75324" lon="6.58311">
        <ele>1261</ele>
        <time>2019-06-22T12:55:19.000Z</time>
      </trkpt>
      <trkpt lat="45.75324" lon="6.58312">
        <ele>1261</ele>
        <time>2019-06-22T12:55:20.000Z</time>
      </trkpt>
      <trkpt lat="45.75326" lon="6.58311">
        <ele>1261</ele>
        <time>2019-06-22T12:55:23.000Z</time>
      </trkpt>
      <trkpt lat="45.75327" lon="6.5831">
        <ele>1262</ele>
        <time>2019-06-22T12:55:26.000Z</time>
      </trkpt>
      <trkpt lat="45.7533" lon="6.58309">
        <ele>1263</ele>
        <time>2019-06-22T12:55:30.000Z</time>
      </trkpt>
      <trkpt lat="45.75329" lon="6.58305">
        <ele>1263</ele>
        <time>2019-06-22T12:55:34.000Z</time>
      </trkpt>
      <trkpt lat="45.7533" lon="6.58304">
        <ele>1264</ele>
        <time>2019-06-22T12:55:36.000Z</time>
      </trkpt>
      <trkpt lat="45.7533" lon="6.58301">
        <ele>1264</ele>
        <time>2019-06-22T12:55:40.000Z</time>
      </trkpt>
      <trkpt lat="45.7533" lon="6.583">
        <ele>1264</ele>
        <time>2019-06-22T12:55:43.000Z</time>
      </trkpt>
      <trkpt lat="45.75332" lon="6.583">
        <ele>1266</ele>
        <time>2019-06-22T12:55:46.000Z</time>
      </trkpt>
      <trkpt lat="45.75334" lon="6.583">
        <ele>1266</ele>
        <time>2019-06-22T12:55:49.000Z</time>
      </trkpt>
      <trkpt lat="45.75335" lon="6.58299">
        <ele>1266.8</ele>
        <time>2019-06-22T12:55:59.000Z</time>
      </trkpt>
      <trkpt lat="45.75342" lon="6.58297">
        <ele>1269.1</ele>
        <time>2019-06-22T12:56:19.000Z</time>
      </trkpt>
      <trkpt lat="45.75346" lon="6.58299">
        <ele>1269</ele>
        <time>2019-06-22T12:56:59.000Z</time>
      </trkpt>
      <trkpt lat="45.75347" lon="6.583">
        <ele>1269</ele>
        <time>2019-06-22T12:57:06.000Z</time>
      </trkpt>
      <trkpt lat="45.75345" lon="6.58298">
        <ele>1269</ele>
        <time>2019-06-22T12:57:14.000Z</time>
      </trkpt>
      <trkpt lat="45.7535" lon="6.58311">
        <ele>1270</ele>
        <time>2019-06-22T12:57:23.000Z</time>
      </trkpt>
      <trkpt lat="45.75354" lon="6.58318">
        <ele>1271</ele>
        <time>2019-06-22T12:57:28.000Z</time>
      </trkpt>
      <trkpt lat="45.75358" lon="6.58322">
        <ele>1271</ele>
        <time>2019-06-22T12:57:33.000Z</time>
      </trkpt>
      <trkpt lat="45.75355" lon="6.58309">
        <ele>1272</ele>
        <time>2019-06-22T12:57:39.000Z</time>
      </trkpt>
      <trkpt lat="45.75353" lon="6.58298">
        <ele>1273</ele>
        <time>2019-06-22T12:57:46.000Z</time>
      </trkpt>
      <trkpt lat="45.75354" lon="6.5828">
        <ele>1274</ele>
        <time>2019-06-22T12:57:57.000Z</time>
      </trkpt>
      <trkpt lat="45.75354" lon="6.58276">
        <ele>1274</ele>
        <time>2019-06-22T12:57:59.000Z</time>
      </trkpt>
      <trkpt lat="45.75353" lon="6.58251">
        <ele>1276</ele>
        <time>2019-06-22T12:58:12.000Z</time>
      </trkpt>
      <trkpt lat="45.75356" lon="6.58244">
        <ele>1277</ele>
        <time>2019-06-22T12:58:17.000Z</time>
      </trkpt>
      <trkpt lat="45.75356" lon="6.58231">
        <ele>1277</ele>
        <time>2019-06-22T12:58:24.000Z</time>
      </trkpt>
      <trkpt lat="45.75355" lon="6.58227">
        <ele>1277</ele>
        <time>2019-06-22T12:58:27.000Z</time>
      </trkpt>
      <trkpt lat="45.75356" lon="6.58223">
        <ele>1278</ele>
        <time>2019-06-22T12:58:30.000Z</time>
      </trkpt>
      <trkpt lat="45.75353" lon="6.58215">
        <ele>1278</ele>
        <time>2019-06-22T12:58:33.000Z</time>
      </trkpt>
      <trkpt lat="45.75349" lon="6.582">
        <ele>1279</ele>
        <time>2019-06-22T12:58:41.000Z</time>
      </trkpt>
      <trkpt lat="45.7535" lon="6.58195">
        <ele>1280</ele>
        <time>2019-06-22T12:58:44.000Z</time>
      </trkpt>
      <trkpt lat="45.75349" lon="6.58178">
        <ele>1281</ele>
        <time>2019-06-22T12:58:53.000Z</time>
      </trkpt>
      <trkpt lat="45.75349" lon="6.58167">
        <ele>1282</ele>
        <time>2019-06-22T12:59:00.000Z</time>
      </trkpt>
      <trkpt lat="45.75349" lon="6.58159">
        <ele>1283</ele>
        <time>2019-06-22T12:59:04.000Z</time>
      </trkpt>
      <trkpt lat="45.7535" lon="6.58152">
        <ele>1283</ele>
        <time>2019-06-22T12:59:09.000Z</time>
      </trkpt>
      <trkpt lat="45.75353" lon="6.58151">
        <ele>1283</ele>
        <time>2019-06-22T12:59:11.000Z</time>
      </trkpt>
      <trkpt lat="45.75353" lon="6.58149">
        <ele>1283</ele>
        <time>2019-06-22T12:59:12.000Z</time>
      </trkpt>
      <trkpt lat="45.75352" lon="6.58141">
        <ele>1284</ele>
        <time>2019-06-22T12:59:15.000Z</time>
      </trkpt>
      <trkpt lat="45.75354" lon="6.58137">
        <ele>1285</ele>
        <time>2019-06-22T12:59:18.000Z</time>
      </trkpt>
      <trkpt lat="45.75353" lon="6.58129">
        <ele>1285</ele>
        <time>2019-06-22T12:59:21.000Z</time>
      </trkpt>
      <trkpt lat="45.75355" lon="6.58108">
        <ele>1287</ele>
        <time>2019-06-22T12:59:34.000Z</time>
      </trkpt>
      <trkpt lat="45.75352" lon="6.58096">
        <ele>1288</ele>
        <time>2019-06-22T12:59:38.000Z</time>
      </trkpt>
      <trkpt lat="45.75351" lon="6.58091">
        <ele>1288</ele>
        <time>2019-06-22T12:59:40.000Z</time>
      </trkpt>
      <trkpt lat="45.75349" lon="6.58078">
        <ele>1289</ele>
        <time>2019-06-22T12:59:45.000Z</time>
      </trkpt>
      <trkpt lat="45.75346" lon="6.58061">
        <ele>1290</ele>
        <time>2019-06-22T12:59:53.000Z</time>
      </trkpt>
      <trkpt lat="45.75347" lon="6.58048">
        <ele>1290</ele>
        <time>2019-06-22T13:00:00.000Z</time>
      </trkpt>
      <trkpt lat="45.75349" lon="6.5804">
        <ele>1291</ele>
        <time>2019-06-22T13:00:06.000Z</time>
      </trkpt>
      <trkpt lat="45.75353" lon="6.58034">
        <ele>1235</ele>
        <time>2018-10-17T06:09:21.000Z</time>
      </trkpt>
      <trkpt lat="45.75363" lon="6.58036">
        <ele>1239</ele>
        <time>2018-10-17T06:09:33.000Z</time>
      </trkpt>
      <trkpt lat="45.75363" lon="6.58032">
        <ele>1301</ele>
        <time>2017-10-05T07:52:45.000Z</time>
      </trkpt>
      <trkpt lat="45.75372" lon="6.5804">
        <ele>1303</ele>
        <time>2017-10-05T07:52:53.000Z</time>
      </trkpt>
      <trkpt lat="45.75388" lon="6.58046">
        <ele>1306</ele>
        <time>2017-10-05T07:53:07.000Z</time>
      </trkpt>
      <trkpt lat="45.75401" lon="6.58048">
        <ele>1308</ele>
        <time>2017-10-05T07:53:16.000Z</time>
      </trkpt>
      <trkpt lat="45.7542" lon="6.5804">
        <ele>1311</ele>
        <time>2017-10-05T07:53:34.000Z</time>
      </trkpt>
      <trkpt lat="45.75428" lon="6.58018">
        <ele>1313</ele>
        <time>2017-10-05T07:53:44.000Z</time>
      </trkpt>
      <trkpt lat="45.75438" lon="6.58">
        <ele>1316</ele>
        <time>2017-10-05T07:53:55.000Z</time>
      </trkpt>
      <trkpt lat="45.75441" lon="6.57987">
        <ele>1319</ele>
        <time>2017-10-05T07:54:04.000Z</time>
      </trkpt>
      <trkpt lat="45.75447" lon="6.57978">
        <ele>1321</ele>
        <time>2017-10-05T07:54:15.000Z</time>
      </trkpt>
      <trkpt lat="45.75453" lon="6.5798">
        <ele>1324</ele>
        <time>2017-10-05T07:54:25.000Z</time>
      </trkpt>
      <trkpt lat="45.75461" lon="6.57976">
        <ele>1326</ele>
        <time>2017-10-05T07:54:35.000Z</time>
      </trkpt>
      <trkpt lat="45.75481" lon="6.57973">
        <ele>1336</ele>
        <time>2017-10-05T07:55:17.000Z</time>
      </trkpt>
      <trkpt lat="45.75508" lon="6.57991">
        <ele>1344</ele>
        <time>2017-10-05T07:55:52.000Z</time>
      </trkpt>
      <trkpt lat="45.75523" lon="6.58006">
        <ele>1349</ele>
        <time>2017-10-05T07:56:13.000Z</time>
      </trkpt>
      <trkpt lat="45.75531" lon="6.58014">
        <ele>1351</ele>
        <time>2017-10-05T07:56:23.000Z</time>
      </trkpt>
      <trkpt lat="45.75549" lon="6.58027">
        <ele>1355</ele>
        <time>2017-10-05T07:56:42.000Z</time>
      </trkpt>
      <trkpt lat="45.75554" lon="6.58039">
        <ele>1357</ele>
        <time>2017-10-05T07:56:51.000Z</time>
      </trkpt>
      <trkpt lat="45.75557" lon="6.58051">
        <ele>1360</ele>
        <time>2017-10-05T07:57:03.000Z</time>
      </trkpt>
      <trkpt lat="45.75556" lon="6.58065">
        <ele>1362</ele>
        <time>2017-10-05T07:57:12.000Z</time>
      </trkpt>
      <trkpt lat="45.75562" lon="6.58077">
        <ele>1363</ele>
        <time>2017-10-05T07:57:20.000Z</time>
      </trkpt>
      <trkpt lat="45.7557" lon="6.58078">
        <ele>1365</ele>
        <time>2017-10-05T07:57:30.000Z</time>
      </trkpt>
      <trkpt lat="45.7558" lon="6.58081">
        <ele>1369</ele>
        <time>2017-10-05T07:57:43.000Z</time>
      </trkpt>
      <trkpt lat="45.75588" lon="6.5809">
        <ele>1372</ele>
        <time>2017-10-05T07:57:55.000Z</time>
      </trkpt>
      <trkpt lat="45.75598" lon="6.58097">
        <ele>1375</ele>
        <time>2017-10-05T07:58:08.000Z</time>
      </trkpt>
      <trkpt lat="45.75607" lon="6.58104">
        <ele>1379</ele>
        <time>2017-10-05T07:58:20.000Z</time>
      </trkpt>
      <trkpt lat="45.75615" lon="6.58109">
        <ele>1382</ele>
        <time>2017-10-05T07:58:29.000Z</time>
      </trkpt>
      <trkpt lat="45.75623" lon="6.58111">
        <ele>1384</ele>
        <time>2017-10-05T07:58:39.000Z</time>
      </trkpt>
      <trkpt lat="45.75632" lon="6.58108">
        <ele>1385</ele>
        <time>2017-10-05T07:58:47.000Z</time>
      </trkpt>
      <trkpt lat="45.75642" lon="6.58111">
        <ele>1387</ele>
        <time>2017-10-05T07:58:55.000Z</time>
      </trkpt>
      <trkpt lat="45.7565" lon="6.58118">
        <ele>1388</ele>
        <time>2017-10-05T07:59:03.000Z</time>
      </trkpt>
      <trkpt lat="45.75656" lon="6.58127">
        <ele>1390</ele>
        <time>2017-10-05T07:59:11.000Z</time>
      </trkpt>
      <trkpt lat="45.75667" lon="6.58149">
        <ele>1392</ele>
        <time>2017-10-05T07:59:25.000Z</time>
      </trkpt>
      <trkpt lat="45.75668" lon="6.58139">
        <ele>1393</ele>
        <time>2017-10-05T07:59:33.000Z</time>
      </trkpt>
      <trkpt lat="45.75667" lon="6.58123">
        <ele>1393</ele>
        <time>2017-10-05T07:59:40.000Z</time>
      </trkpt>
      <trkpt lat="45.75669" lon="6.58111">
        <ele>1394</ele>
        <time>2017-10-05T07:59:47.000Z</time>
      </trkpt>
      <trkpt lat="45.75672" lon="6.58098">
        <ele>1395</ele>
        <time>2017-10-05T07:59:53.000Z</time>
      </trkpt>
      <trkpt lat="45.75674" lon="6.58084">
        <ele>1396</ele>
        <time>2017-10-05T08:00:01.000Z</time>
      </trkpt>
      <trkpt lat="45.75674" lon="6.58071">
        <ele>1397</ele>
        <time>2017-10-05T08:00:08.000Z</time>
      </trkpt>
      <trkpt lat="45.75676" lon="6.58058">
        <ele>1398</ele>
        <time>2017-10-05T08:00:15.000Z</time>
      </trkpt>
      <trkpt lat="45.75682" lon="6.5805">
        <ele>1399</ele>
        <time>2017-10-05T08:00:22.000Z</time>
      </trkpt>
      <trkpt lat="45.75689" lon="6.5806">
        <ele>1401</ele>
        <time>2017-10-05T08:00:30.000Z</time>
      </trkpt>
      <trkpt lat="45.7569" lon="6.58074">
        <ele>1403</ele>
        <time>2017-10-05T08:00:37.000Z</time>
      </trkpt>
      <trkpt lat="45.75692" lon="6.58088">
        <ele>1404</ele>
        <time>2017-10-05T08:00:45.000Z</time>
      </trkpt>
      <trkpt lat="45.75701" lon="6.5809">
        <ele>1405</ele>
        <time>2017-10-05T08:00:52.000Z</time>
      </trkpt>
      <trkpt lat="45.75703" lon="6.58076">
        <ele>1407</ele>
        <time>2017-10-05T08:00:59.000Z</time>
      </trkpt>
      <trkpt lat="45.75703" lon="6.58048">
        <ele>1409</ele>
        <time>2017-10-05T08:01:15.000Z</time>
      </trkpt>
      <trkpt lat="45.757" lon="6.58021">
        <ele>1412</ele>
        <time>2017-10-05T08:01:31.000Z</time>
      </trkpt>
      <trkpt lat="45.75701" lon="6.58006">
        <ele>1414</ele>
        <time>2017-10-05T08:01:38.000Z</time>
      </trkpt>
      <trkpt lat="45.75703" lon="6.57992">
        <ele>1415</ele>
        <time>2017-10-05T08:01:45.000Z</time>
      </trkpt>
      <trkpt lat="45.75714" lon="6.57969">
        <ele>1417</ele>
        <time>2017-10-05T08:01:58.000Z</time>
      </trkpt>
      <trkpt lat="45.75719" lon="6.57956">
        <ele>1419</ele>
        <time>2017-10-05T08:02:05.000Z</time>
      </trkpt>
      <trkpt lat="45.75726" lon="6.57953">
        <ele>1420</ele>
        <time>2017-10-05T08:02:12.000Z</time>
      </trkpt>
      <trkpt lat="45.75727" lon="6.57968">
        <ele>1420</ele>
        <time>2017-10-05T08:02:19.000Z</time>
      </trkpt>
      <trkpt lat="45.7573" lon="6.57982">
        <ele>1421</ele>
        <time>2017-10-05T08:02:26.000Z</time>
      </trkpt>
      <trkpt lat="45.75734" lon="6.57996">
        <ele>1422</ele>
        <time>2017-10-05T08:02:33.000Z</time>
      </trkpt>
      <trkpt lat="45.75739" lon="6.58008">
        <ele>1424</ele>
        <time>2017-10-05T08:02:40.000Z</time>
      </trkpt>
      <trkpt lat="45.75742" lon="6.58021">
        <ele>1425</ele>
        <time>2017-10-05T08:02:47.000Z</time>
      </trkpt>
      <trkpt lat="45.75746" lon="6.58035">
        <ele>1426</ele>
        <time>2017-10-05T08:02:55.000Z</time>
      </trkpt>
      <trkpt lat="45.75756" lon="6.58039">
        <ele>1429</ele>
        <time>2017-10-05T08:03:05.000Z</time>
      </trkpt>
      <trkpt lat="45.75763" lon="6.58032">
        <ele>1432</ele>
        <time>2017-10-05T08:03:16.000Z</time>
      </trkpt>
      <trkpt lat="45.75772" lon="6.58004">
        <ele>1436</ele>
        <time>2017-10-05T08:03:35.000Z</time>
      </trkpt>
      <trkpt lat="45.75778" lon="6.57998">
        <ele>1438</ele>
        <time>2017-10-05T08:03:46.000Z</time>
      </trkpt>
      <trkpt lat="45.75785" lon="6.57998">
        <ele>1441</ele>
        <time>2017-10-05T08:03:58.000Z</time>
      </trkpt>
      <trkpt lat="45.75793" lon="6.57991">
        <ele>1444</ele>
        <time>2017-10-05T08:04:09.000Z</time>
      </trkpt>
      <trkpt lat="45.75802" lon="6.57968">
        <ele>1449</ele>
        <time>2017-10-05T08:04:30.000Z</time>
      </trkpt>
      <trkpt lat="45.75805" lon="6.57954">
        <ele>1452</ele>
        <time>2017-10-05T08:04:41.000Z</time>
      </trkpt>
      <trkpt lat="45.7581" lon="6.57941">
        <ele>1455</ele>
        <time>2017-10-05T08:04:53.000Z</time>
      </trkpt>
      <trkpt lat="45.75816" lon="6.5793">
        <ele>1458</ele>
        <time>2017-10-05T08:05:05.000Z</time>
      </trkpt>
      <trkpt lat="45.75824" lon="6.57924">
        <ele>1461</ele>
        <time>2017-10-05T08:05:18.000Z</time>
      </trkpt>
      <trkpt lat="45.75832" lon="6.57927">
        <ele>1464</ele>
        <time>2017-10-05T08:05:30.000Z</time>
      </trkpt>
      <trkpt lat="45.75839" lon="6.57936">
        <ele>1468</ele>
        <time>2017-10-05T08:05:42.000Z</time>
      </trkpt>
      <trkpt lat="45.75847" lon="6.57944">
        <ele>1471</ele>
        <time>2017-10-05T08:05:55.000Z</time>
      </trkpt>
      <trkpt lat="45.75879" lon="6.57964">
        <ele>1483</ele>
        <time>2017-10-05T08:06:49.000Z</time>
      </trkpt>
      <trkpt lat="45.75888" lon="6.57965">
        <ele>1485</ele>
        <time>2017-10-05T08:07:03.000Z</time>
      </trkpt>
      <trkpt lat="45.75907" lon="6.57956">
        <ele>1490</ele>
        <time>2017-10-05T08:07:27.000Z</time>
      </trkpt>
      <trkpt lat="45.75914" lon="6.57947">
        <ele>1494</ele>
        <time>2017-10-05T08:07:40.000Z</time>
      </trkpt>
      <trkpt lat="45.75921" lon="6.5794">
        <ele>1497</ele>
        <time>2017-10-05T08:07:55.000Z</time>
      </trkpt>
      <trkpt lat="45.75928" lon="6.5793">
        <ele>1500</ele>
        <time>2017-10-05T08:08:07.000Z</time>
      </trkpt>
      <trkpt lat="45.75932" lon="6.57918">
        <ele>1503</ele>
        <time>2017-10-05T08:08:19.000Z</time>
      </trkpt>
      <trkpt lat="45.75936" lon="6.57906">
        <ele>1506</ele>
        <time>2017-10-05T08:08:29.000Z</time>
      </trkpt>
      <trkpt lat="45.7594" lon="6.57894">
        <ele>1508</ele>
        <time>2017-10-05T08:08:41.000Z</time>
      </trkpt>
      <trkpt lat="45.75944" lon="6.5788">
        <ele>1511</ele>
        <time>2017-10-05T08:08:53.000Z</time>
      </trkpt>
      <trkpt lat="45.75947" lon="6.57866">
        <ele>1514</ele>
        <time>2017-10-05T08:09:05.000Z</time>
      </trkpt>
      <trkpt lat="45.75952" lon="6.57856">
        <ele>1517</ele>
        <time>2017-10-05T08:09:17.000Z</time>
      </trkpt>
      <trkpt lat="45.75961" lon="6.57849">
        <ele>1521</ele>
        <time>2017-10-05T08:09:32.000Z</time>
      </trkpt>
      <trkpt lat="45.75969" lon="6.57841">
        <ele>1525</ele>
        <time>2017-10-05T08:09:46.000Z</time>
      </trkpt>
      <trkpt lat="45.75978" lon="6.57837">
        <ele>1529</ele>
        <time>2017-10-05T08:10:00.000Z</time>
      </trkpt>
      <trkpt lat="45.75982" lon="6.57848">
        <ele>1532</ele>
        <time>2017-10-05T08:10:13.000Z</time>
      </trkpt>
      <trkpt lat="45.75986" lon="6.5786">
        <ele>1536</ele>
        <time>2017-10-05T08:10:25.000Z</time>
      </trkpt>
      <trkpt lat="45.75991" lon="6.57872">
        <ele>1539</ele>
        <time>2017-10-05T08:10:37.000Z</time>
      </trkpt>
      <trkpt lat="45.75998" lon="6.57881">
        <ele>1541</ele>
        <time>2017-10-05T08:10:46.000Z</time>
      </trkpt>
      <trkpt lat="45.76006" lon="6.57887">
        <ele>1544</ele>
        <time>2017-10-05T08:10:58.000Z</time>
      </trkpt>
      <trkpt lat="45.76014" lon="6.57896">
        <ele>1547</ele>
        <time>2017-10-05T08:11:11.000Z</time>
      </trkpt>
      <trkpt lat="45.7602" lon="6.57893">
        <ele>1550</ele>
        <time>2017-10-05T08:11:22.000Z</time>
      </trkpt>
      <trkpt lat="45.76022" lon="6.57881">
        <ele>1553</ele>
        <time>2017-10-05T08:11:32.000Z</time>
      </trkpt>
      <trkpt lat="45.76027" lon="6.57873">
        <ele>1557</ele>
        <time>2017-10-05T08:11:45.000Z</time>
      </trkpt>
      <trkpt lat="45.76037" lon="6.57895">
        <ele>1563</ele>
        <time>2017-10-05T08:12:07.000Z</time>
      </trkpt>
      <trkpt lat="45.76045" lon="6.57891">
        <ele>1566</ele>
        <time>2017-10-05T08:12:19.000Z</time>
      </trkpt>
      <trkpt lat="45.76051" lon="6.5785">
        <ele>1574</ele>
        <time>2017-10-05T08:12:51.000Z</time>
      </trkpt>
      <trkpt lat="45.76057" lon="6.5782">
        <ele>1580</ele>
        <time>2017-10-05T08:13:14.000Z</time>
      </trkpt>
      <trkpt lat="45.76061" lon="6.57807">
        <ele>1582</ele>
        <time>2017-10-05T08:13:25.000Z</time>
      </trkpt>
      <trkpt lat="45.76068" lon="6.57798">
        <ele>1586</ele>
        <time>2017-10-05T08:13:39.000Z</time>
      </trkpt>
      <trkpt lat="45.76075" lon="6.57785">
        <ele>1590</ele>
        <time>2017-10-05T08:13:51.000Z</time>
      </trkpt>
      <trkpt lat="45.76081" lon="6.57771">
        <ele>1593</ele>
        <time>2017-10-05T08:14:04.000Z</time>
      </trkpt>
      <trkpt lat="45.76088" lon="6.57761">
        <ele>1596</ele>
        <time>2017-10-05T08:14:15.000Z</time>
      </trkpt>
      <trkpt lat="45.76092" lon="6.5775">
        <ele>1599</ele>
        <time>2017-10-05T08:14:28.000Z</time>
      </trkpt>
      <trkpt lat="45.76098" lon="6.57738">
        <ele>1602</ele>
        <time>2017-10-05T08:14:40.000Z</time>
      </trkpt>
      <trkpt lat="45.76105" lon="6.57724">
        <ele>1605</ele>
        <time>2017-10-05T08:14:51.000Z</time>
      </trkpt>
      <trkpt lat="45.76106" lon="6.57712">
        <ele>1608</ele>
        <time>2017-10-05T08:15:03.000Z</time>
      </trkpt>
      <trkpt lat="45.76116" lon="6.57708">
        <ele>1611</ele>
        <time>2017-10-05T08:15:13.000Z</time>
      </trkpt>
      <trkpt lat="45.76135" lon="6.5768">
        <ele>1618</ele>
        <time>2017-10-05T08:15:41.000Z</time>
      </trkpt>
      <trkpt lat="45.76146" lon="6.57668">
        <ele>1620</ele>
        <time>2017-10-05T08:15:53.000Z</time>
      </trkpt>
      <trkpt lat="45.76153" lon="6.57663">
        <ele>1624</ele>
        <time>2017-10-05T08:16:05.000Z</time>
      </trkpt>
      <trkpt lat="45.76146" lon="6.5767">
        <ele>1631</ele>
        <time>2017-10-05T08:16:32.000Z</time>
      </trkpt>
      <trkpt lat="45.76156" lon="6.57681">
        <ele>1636</ele>
        <time>2017-10-05T08:16:49.000Z</time>
      </trkpt>
      <trkpt lat="45.76157" lon="6.57671">
        <ele>1639</ele>
        <time>2017-10-05T08:17:01.000Z</time>
      </trkpt>
      <trkpt lat="45.76154" lon="6.57718">
        <ele>1647</ele>
        <time>2017-10-05T08:17:34.000Z</time>
      </trkpt>
      <trkpt lat="45.76156" lon="6.57739">
        <ele>1651</ele>
        <time>2017-10-05T08:17:47.000Z</time>
      </trkpt>
      <trkpt lat="45.76154" lon="6.57755">
        <ele>1653</ele>
        <time>2017-10-05T08:17:58.000Z</time>
      </trkpt>
      <trkpt lat="45.76157" lon="6.57783">
        <ele>1658</ele>
        <time>2017-10-05T08:18:14.000Z</time>
      </trkpt>
      <trkpt lat="45.76164" lon="6.57796">
        <ele>1662</ele>
        <time>2017-10-05T08:18:27.000Z</time>
      </trkpt>
      <trkpt lat="45.76183" lon="6.57771">
        <ele>1668</ele>
        <time>2017-10-05T08:18:54.000Z</time>
      </trkpt>
      <trkpt lat="45.76192" lon="6.57763">
        <ele>1671</ele>
        <time>2017-10-05T08:19:08.000Z</time>
      </trkpt>
      <trkpt lat="45.76198" lon="6.5775">
        <ele>1675</ele>
        <time>2017-10-05T08:19:22.000Z</time>
      </trkpt>
      <trkpt lat="45.76206" lon="6.57751">
        <ele>1681</ele>
        <time>2017-10-05T08:19:41.000Z</time>
      </trkpt>
      <trkpt lat="45.76208" lon="6.57766">
        <ele>1686</ele>
        <time>2017-10-05T08:19:57.000Z</time>
      </trkpt>
      <trkpt lat="45.76214" lon="6.57779">
        <ele>1691</ele>
        <time>2017-10-05T08:20:11.000Z</time>
      </trkpt>
      <trkpt lat="45.7622" lon="6.57791">
        <ele>1694</ele>
        <time>2017-10-05T08:20:24.000Z</time>
      </trkpt>
      <trkpt lat="45.7623" lon="6.57788">
        <ele>1697</ele>
        <time>2017-10-05T08:20:35.000Z</time>
      </trkpt>
      <trkpt lat="45.76246" lon="6.5778">
        <ele>1705</ele>
        <time>2017-10-05T08:21:01.000Z</time>
      </trkpt>
      <trkpt lat="45.76258" lon="6.57778">
        <ele>1708</ele>
        <time>2017-10-05T08:21:16.000Z</time>
      </trkpt>
      <trkpt lat="45.76269" lon="6.57772">
        <ele>1713</ele>
        <time>2017-10-05T08:21:30.000Z</time>
      </trkpt>
      <trkpt lat="45.76281" lon="6.57765">
        <ele>1716</ele>
        <time>2017-10-05T08:21:44.000Z</time>
      </trkpt>
      <trkpt lat="45.763" lon="6.57755">
        <ele>1721</ele>
        <time>2017-10-05T08:22:05.000Z</time>
      </trkpt>
      <trkpt lat="45.76311" lon="6.57753">
        <ele>1726</ele>
        <time>2017-10-05T08:22:21.000Z</time>
      </trkpt>
      <trkpt lat="45.7633" lon="6.57739">
        <ele>1732</ele>
        <time>2017-10-05T08:22:42.000Z</time>
      </trkpt>
      <trkpt lat="45.7634" lon="6.57734">
        <ele>1734</ele>
        <time>2017-10-05T08:22:52.000Z</time>
      </trkpt>
      <trkpt lat="45.76349" lon="6.57727">
        <ele>1737</ele>
        <time>2017-10-05T08:23:02.000Z</time>
      </trkpt>
      <trkpt lat="45.76357" lon="6.57716">
        <ele>1740</ele>
        <time>2017-10-05T08:23:14.000Z</time>
      </trkpt>
      <trkpt lat="45.76366" lon="6.57707">
        <ele>1743</ele>
        <time>2017-10-05T08:23:26.000Z</time>
      </trkpt>
      <trkpt lat="45.76375" lon="6.577">
        <ele>1746</ele>
        <time>2017-10-05T08:23:37.000Z</time>
      </trkpt>
      <trkpt lat="45.76384" lon="6.57696">
        <ele>1748</ele>
        <time>2017-10-05T08:23:46.000Z</time>
      </trkpt>
      <trkpt lat="45.76394" lon="6.57692">
        <ele>1750</ele>
        <time>2017-10-05T08:23:54.000Z</time>
      </trkpt>
      <trkpt lat="45.76413" lon="6.57693">
        <ele>1753</ele>
        <time>2017-10-05T08:24:10.000Z</time>
      </trkpt>
      <trkpt lat="45.76424" lon="6.57692">
        <ele>1754</ele>
        <time>2017-10-05T08:24:17.000Z</time>
      </trkpt>
      <trkpt lat="45.76444" lon="6.57693">
        <ele>1756</ele>
        <time>2017-10-05T08:24:32.000Z</time>
      </trkpt>
      <trkpt lat="45.76453" lon="6.57691">
        <ele>1758</ele>
        <time>2017-10-05T08:24:40.000Z</time>
      </trkpt>
      <trkpt lat="45.76464" lon="6.57686">
        <ele>1760</ele>
        <time>2017-10-05T08:24:49.000Z</time>
      </trkpt>
      <trkpt lat="45.76471" lon="6.57675">
        <ele>1762</ele>
        <time>2017-10-05T08:24:57.000Z</time>
      </trkpt>
      <trkpt lat="45.76474" lon="6.57661">
        <ele>1764</ele>
        <time>2017-10-05T08:25:05.000Z</time>
      </trkpt>
      <trkpt lat="45.76478" lon="6.57648">
        <ele>1766</ele>
        <time>2017-10-05T08:25:13.000Z</time>
      </trkpt>
      <trkpt lat="45.76483" lon="6.57639">
        <ele>1768</ele>
        <time>2017-10-05T08:25:20.000Z</time>
      </trkpt>
      <trkpt lat="45.76491" lon="6.57629">
        <ele>1769</ele>
        <time>2017-10-05T08:25:28.000Z</time>
      </trkpt>
      <trkpt lat="45.76496" lon="6.57627">
        <ele>1771</ele>
        <time>2017-10-05T08:25:37.000Z</time>
      </trkpt>
      <trkpt lat="45.76497" lon="6.57641">
        <ele>1772</ele>
        <time>2017-10-05T08:25:44.000Z</time>
      </trkpt>
      <trkpt lat="45.76501" lon="6.57681">
        <ele>1776</ele>
        <time>2017-10-05T08:26:09.000Z</time>
      </trkpt>
      <trkpt lat="45.76521" lon="6.57688">
        <ele>1782</ele>
        <time>2017-10-05T08:26:32.000Z</time>
      </trkpt>
      <trkpt lat="45.76531" lon="6.5769">
        <ele>1786</ele>
        <time>2017-10-05T08:26:42.000Z</time>
      </trkpt>
      <trkpt lat="45.76548" lon="6.57682">
        <ele>1790</ele>
        <time>2017-10-05T08:27:02.000Z</time>
      </trkpt>
      <trkpt lat="45.76557" lon="6.57679">
        <ele>1793</ele>
        <time>2017-10-05T08:27:13.000Z</time>
      </trkpt>
      <trkpt lat="45.76565" lon="6.57673">
        <ele>1797</ele>
        <time>2017-10-05T08:27:25.000Z</time>
      </trkpt>
      <trkpt lat="45.76574" lon="6.57669">
        <ele>1799</ele>
        <time>2017-10-05T08:27:36.000Z</time>
      </trkpt>
      <trkpt lat="45.76583" lon="6.57662">
        <ele>1801</ele>
        <time>2017-10-05T08:27:46.000Z</time>
      </trkpt>
      <trkpt lat="45.76592" lon="6.57658">
        <ele>1804</ele>
        <time>2017-10-05T08:27:55.000Z</time>
      </trkpt>
      <trkpt lat="45.76601" lon="6.57654">
        <ele>1806</ele>
        <time>2017-10-05T08:28:04.000Z</time>
      </trkpt>
      <trkpt lat="45.7661" lon="6.57653">
        <ele>1809</ele>
        <time>2017-10-05T08:28:15.000Z</time>
      </trkpt>
      <trkpt lat="45.7662" lon="6.57653">
        <ele>1812</ele>
        <time>2017-10-05T08:28:27.000Z</time>
      </trkpt>
      <trkpt lat="45.76629" lon="6.57651">
        <ele>1816</ele>
        <time>2017-10-05T08:28:39.000Z</time>
      </trkpt>
      <trkpt lat="45.76639" lon="6.57647">
        <ele>1818</ele>
        <time>2017-10-05T08:28:50.000Z</time>
      </trkpt>
      <trkpt lat="45.76648" lon="6.57646">
        <ele>1820</ele>
        <time>2017-10-05T08:29:01.000Z</time>
      </trkpt>
      <trkpt lat="45.76658" lon="6.57649">
        <ele>1821</ele>
        <time>2017-10-05T08:29:11.000Z</time>
      </trkpt>
      <trkpt lat="45.76666" lon="6.57653">
        <ele>1821</ele>
        <time>2017-10-05T08:29:18.000Z</time>
      </trkpt>
      <trkpt lat="45.76676" lon="6.57661">
        <ele>1821</ele>
        <time>2017-10-05T08:29:26.000Z</time>
      </trkpt>
      <trkpt lat="45.76684" lon="6.57671">
        <ele>1821</ele>
        <time>2017-10-05T08:29:33.000Z</time>
      </trkpt>
      <trkpt lat="45.76689" lon="6.57682">
        <ele>1822</ele>
        <time>2017-10-05T08:29:42.000Z</time>
      </trkpt>
      <trkpt lat="45.76701" lon="6.57709">
        <ele>1823</ele>
        <time>2017-10-05T08:29:56.000Z</time>
      </trkpt>
      <trkpt lat="45.76706" lon="6.57721">
        <ele>1824</ele>
        <time>2017-10-05T08:30:04.000Z</time>
      </trkpt>
      <trkpt lat="45.76713" lon="6.57729">
        <ele>1824</ele>
        <time>2017-10-05T08:30:11.000Z</time>
      </trkpt>
      <trkpt lat="45.76728" lon="6.57752">
        <ele>1825</ele>
        <time>2017-10-05T08:30:22.000Z</time>
      </trkpt>
      <trkpt lat="45.76733" lon="6.57764">
        <ele>1825</ele>
        <time>2017-10-05T08:30:26.000Z</time>
      </trkpt>
      <trkpt lat="45.76735" lon="6.57776">
        <ele>1826</ele>
        <time>2017-10-05T08:30:31.000Z</time>
      </trkpt>
      <trkpt lat="45.76738" lon="6.57787">
        <ele>1827</ele>
        <time>2017-10-05T08:30:36.000Z</time>
      </trkpt>
      <trkpt lat="45.76741" lon="6.57802">
        <ele>1828</ele>
        <time>2017-10-05T08:30:42.000Z</time>
      </trkpt>
      <trkpt lat="45.76745" lon="6.57817">
        <ele>1826</ele>
        <time>2017-10-05T08:30:47.000Z</time>
      </trkpt>
      <trkpt lat="45.76747" lon="6.5783">
        <ele>1825</ele>
        <time>2017-10-05T08:30:51.000Z</time>
      </trkpt>
      <trkpt lat="45.7675" lon="6.57843">
        <ele>1824</ele>
        <time>2017-10-05T08:30:55.000Z</time>
      </trkpt>
      <trkpt lat="45.76755" lon="6.57871">
        <ele>1825</ele>
        <time>2017-10-05T08:31:05.000Z</time>
      </trkpt>
      <trkpt lat="45.76759" lon="6.57884">
        <ele>1825</ele>
        <time>2017-10-05T08:31:10.000Z</time>
      </trkpt>
      <trkpt lat="45.76766" lon="6.57893">
        <ele>1825</ele>
        <time>2017-10-05T08:31:15.000Z</time>
      </trkpt>
      <trkpt lat="45.76774" lon="6.57889">
        <ele>1826</ele>
        <time>2017-10-05T08:31:21.000Z</time>
      </trkpt>
      <trkpt lat="45.76776" lon="6.57878">
        <ele>1828</ele>
        <time>2017-10-05T08:31:28.000Z</time>
      </trkpt>
      <trkpt lat="45.76777" lon="6.57864">
        <ele>1829</ele>
        <time>2017-10-05T08:31:35.000Z</time>
      </trkpt>
      <trkpt lat="45.76785" lon="6.5784">
        <ele>1832</ele>
        <time>2017-10-05T08:31:49.000Z</time>
      </trkpt>
      <trkpt lat="45.76785" lon="6.57826">
        <ele>1834</ele>
        <time>2017-10-05T08:31:57.000Z</time>
      </trkpt>
      <trkpt lat="45.76783" lon="6.57813">
        <ele>1836</ele>
        <time>2017-10-05T08:32:06.000Z</time>
      </trkpt>
      <trkpt lat="45.76784" lon="6.578">
        <ele>1840</ele>
        <time>2017-10-05T08:32:18.000Z</time>
      </trkpt>
      <trkpt lat="45.76791" lon="6.57794">
        <ele>1842</ele>
        <time>2017-10-05T08:32:28.000Z</time>
      </trkpt>
      <trkpt lat="45.76796" lon="6.57804">
        <ele>1844</ele>
        <time>2017-10-05T08:32:38.000Z</time>
      </trkpt>
      <trkpt lat="45.7681" lon="6.5782">
        <ele>1849</ele>
        <time>2017-10-05T08:32:57.000Z</time>
      </trkpt>
      <trkpt lat="45.76819" lon="6.57827">
        <ele>1851</ele>
        <time>2017-10-05T08:33:05.000Z</time>
      </trkpt>
      <trkpt lat="45.76828" lon="6.57832">
        <ele>1853</ele>
        <time>2017-10-05T08:33:14.000Z</time>
      </trkpt>
      <trkpt lat="45.76835" lon="6.57839">
        <ele>1855</ele>
        <time>2017-10-05T08:33:23.000Z</time>
      </trkpt>
      <trkpt lat="45.76839" lon="6.5785">
        <ele>1855</ele>
        <time>2017-10-05T08:33:30.000Z</time>
      </trkpt>
      <trkpt lat="45.76845" lon="6.57862">
        <ele>1856</ele>
        <time>2017-10-05T08:33:36.000Z</time>
      </trkpt>
      <trkpt lat="45.7685" lon="6.5789">
        <ele>1858</ele>
        <time>2017-10-05T08:33:49.000Z</time>
      </trkpt>
      <trkpt lat="45.76854" lon="6.57917">
        <ele>1860</ele>
        <time>2017-10-05T08:34:02.000Z</time>
      </trkpt>
      <trkpt lat="45.76859" lon="6.57948">
        <ele>1862</ele>
        <time>2017-10-05T08:34:15.000Z</time>
      </trkpt>
      <trkpt lat="45.76859" lon="6.57961">
        <ele>1863</ele>
        <time>2017-10-05T08:34:21.000Z</time>
      </trkpt>
      <trkpt lat="45.76859" lon="6.57975">
        <ele>1865</ele>
        <time>2017-10-05T08:34:28.000Z</time>
      </trkpt>
      <trkpt lat="45.76859" lon="6.57987">
        <ele>1866</ele>
        <time>2017-10-05T08:34:34.000Z</time>
      </trkpt>
      <trkpt lat="45.76856" lon="6.58056">
        <ele>1871</ele>
        <time>2017-10-05T08:35:07.000Z</time>
      </trkpt>
      <trkpt lat="45.76856" lon="6.58071">
        <ele>1873</ele>
        <time>2017-10-05T08:35:14.000Z</time>
      </trkpt>
      <trkpt lat="45.76858" lon="6.58099">
        <ele>1875</ele>
        <time>2017-10-05T08:35:27.000Z</time>
      </trkpt>
      <trkpt lat="45.76859" lon="6.58114">
        <ele>1875</ele>
        <time>2017-10-05T08:35:33.000Z</time>
      </trkpt>
      <trkpt lat="45.76868" lon="6.5817">
        <ele>1879</ele>
        <time>2017-10-05T08:35:57.000Z</time>
      </trkpt>
      <trkpt lat="45.76871" lon="6.58211">
        <ele>1882</ele>
        <time>2017-10-05T08:36:14.000Z</time>
      </trkpt>
      <trkpt lat="45.76875" lon="6.58237">
        <ele>1884</ele>
        <time>2017-10-05T08:36:26.000Z</time>
      </trkpt>
      <trkpt lat="45.76877" lon="6.58263">
        <ele>1885</ele>
        <time>2017-10-05T08:36:37.000Z</time>
      </trkpt>
      <trkpt lat="45.76877" lon="6.58275">
        <ele>1886</ele>
        <time>2017-10-05T08:36:42.000Z</time>
      </trkpt>
      <trkpt lat="45.76879" lon="6.58287">
        <ele>1887</ele>
        <time>2017-10-05T08:36:47.000Z</time>
      </trkpt>
      <trkpt lat="45.76883" lon="6.583">
        <ele>1888</ele>
        <time>2017-10-05T08:36:54.000Z</time>
      </trkpt>
      <trkpt lat="45.76887" lon="6.58314">
        <ele>1889</ele>
        <time>2017-10-05T08:37:00.000Z</time>
      </trkpt>
      <trkpt lat="45.76888" lon="6.58328">
        <ele>1889</ele>
        <time>2017-10-05T08:37:06.000Z</time>
      </trkpt>
      <trkpt lat="45.76892" lon="6.58341">
        <ele>1890</ele>
        <time>2017-10-05T08:37:12.000Z</time>
      </trkpt>
      <trkpt lat="45.76905" lon="6.58376">
        <ele>1893</ele>
        <time>2017-10-05T08:37:27.000Z</time>
      </trkpt>
      <trkpt lat="45.7691" lon="6.58387">
        <ele>1893</ele>
        <time>2017-10-05T08:37:32.000Z</time>
      </trkpt>
      <trkpt lat="45.76933" lon="6.58432">
        <ele>1898</ele>
        <time>2017-10-05T08:37:58.000Z</time>
      </trkpt>
      <trkpt lat="45.76937" lon="6.58445">
        <ele>1899</ele>
        <time>2017-10-05T08:38:04.000Z</time>
      </trkpt>
      <trkpt lat="45.76943" lon="6.58458">
        <ele>1900</ele>
        <time>2017-10-05T08:38:10.000Z</time>
      </trkpt>
      <trkpt lat="45.76953" lon="6.58482">
        <ele>1901</ele>
        <time>2017-10-05T08:38:22.000Z</time>
      </trkpt>
      <trkpt lat="45.76962" lon="6.58508">
        <ele>1903</ele>
        <time>2017-10-05T08:38:33.000Z</time>
      </trkpt>
      <trkpt lat="45.76975" lon="6.5854">
        <ele>1905</ele>
        <time>2017-10-05T08:38:49.000Z</time>
      </trkpt>
      <trkpt lat="45.7698" lon="6.58549">
        <ele>1905</ele>
        <time>2017-10-05T08:38:54.000Z</time>
      </trkpt>
      <trkpt lat="45.76985" lon="6.58559">
        <ele>1906</ele>
        <time>2017-10-05T08:38:59.000Z</time>
      </trkpt>
      <trkpt lat="45.76989" lon="6.58578">
        <ele>1909</ele>
        <time>2017-10-05T08:39:13.000Z</time>
      </trkpt>
      <trkpt lat="45.76996" lon="6.586">
        <ele>1914</ele>
        <time>2017-10-05T08:39:30.000Z</time>
      </trkpt>
      <trkpt lat="45.76996" lon="6.58613">
        <ele>1917</ele>
        <time>2017-10-05T08:39:43.000Z</time>
      </trkpt>
      <trkpt lat="45.77007" lon="6.58638">
        <ele>1921</ele>
        <time>2017-10-05T08:40:03.000Z</time>
      </trkpt>
      <trkpt lat="45.77012" lon="6.5865">
        <ele>1924</ele>
        <time>2017-10-05T08:40:13.000Z</time>
      </trkpt>
      <trkpt lat="45.77013" lon="6.58665">
        <ele>1927</ele>
        <time>2017-10-05T08:40:23.000Z</time>
      </trkpt>
      <trkpt lat="45.77026" lon="6.58704">
        <ele>1933</ele>
        <time>2017-10-05T08:40:48.000Z</time>
      </trkpt>
      <trkpt lat="45.77033" lon="6.5873">
        <ele>1937</ele>
        <time>2017-10-05T08:41:03.000Z</time>
      </trkpt>
      <trkpt lat="45.77037" lon="6.58742">
        <ele>1938</ele>
        <time>2017-10-05T08:41:10.000Z</time>
      </trkpt>
      <trkpt lat="45.77041" lon="6.58756">
        <ele>1939</ele>
        <time>2017-10-05T08:41:16.000Z</time>
      </trkpt>
      <trkpt lat="45.77057" lon="6.5879">
        <ele>1938</ele>
        <time>2017-10-05T08:41:31.000Z</time>
      </trkpt>
      <trkpt lat="45.77066" lon="6.58832">
        <ele>1940</ele>
        <time>2017-10-05T08:41:49.000Z</time>
      </trkpt>
      <trkpt lat="45.77068" lon="6.58844">
        <ele>1941</ele>
        <time>2017-10-05T08:41:55.000Z</time>
      </trkpt>
      <trkpt lat="45.77073" lon="6.58857">
        <ele>1943</ele>
        <time>2017-10-05T08:42:03.000Z</time>
      </trkpt>
      <trkpt lat="45.77081" lon="6.58867">
        <ele>1945</ele>
        <time>2017-10-05T08:42:11.000Z</time>
      </trkpt>
      <trkpt lat="45.7709" lon="6.58873">
        <ele>1948</ele>
        <time>2017-10-05T08:42:20.000Z</time>
      </trkpt>
      <trkpt lat="45.77099" lon="6.58877">
        <ele>1949</ele>
        <time>2017-10-05T08:42:30.000Z</time>
      </trkpt>
      <trkpt lat="45.77097" lon="6.58878">
        <ele>1950</ele>
        <time>2017-10-05T08:42:41.000Z</time>
      </trkpt>
      <trkpt lat="45.771" lon="6.5889">
        <ele>1953</ele>
        <time>2017-10-05T08:42:52.000Z</time>
      </trkpt>
      <trkpt lat="45.77105" lon="6.58901">
        <ele>1954</ele>
        <time>2017-10-05T08:42:59.000Z</time>
      </trkpt>
      <trkpt lat="45.77109" lon="6.58914">
        <ele>1955</ele>
        <time>2017-10-05T08:43:06.000Z</time>
      </trkpt>
      <trkpt lat="45.77115" lon="6.58923">
        <ele>1956</ele>
        <time>2017-10-05T08:43:12.000Z</time>
      </trkpt>
      <trkpt lat="45.77118" lon="6.58948">
        <ele>1956</ele>
        <time>2017-10-05T08:43:23.000Z</time>
      </trkpt>
      <trkpt lat="45.77119" lon="6.58962">
        <ele>1954</ele>
        <time>2017-10-05T08:43:28.000Z</time>
      </trkpt>
      <trkpt lat="45.77122" lon="6.58976">
        <ele>1954</ele>
        <time>2017-10-05T08:43:33.000Z</time>
      </trkpt>
      <trkpt lat="45.77127" lon="6.58986">
        <ele>1954</ele>
        <time>2017-10-05T08:43:39.000Z</time>
      </trkpt>
      <trkpt lat="45.77132" lon="6.58997">
        <ele>1957</ele>
        <time>2017-10-05T08:43:49.000Z</time>
      </trkpt>
      <trkpt lat="45.77135" lon="6.5901">
        <ele>1962</ele>
        <time>2017-10-05T08:44:04.000Z</time>
      </trkpt>
      <trkpt lat="45.77136" lon="6.59024">
        <ele>1966</ele>
        <time>2017-10-05T08:44:18.000Z</time>
      </trkpt>
      <trkpt lat="45.77139" lon="6.59037">
        <ele>1970</ele>
        <time>2017-10-05T08:44:31.000Z</time>
      </trkpt>
      <trkpt lat="45.77144" lon="6.5905">
        <ele>1971</ele>
        <time>2017-10-05T08:44:40.000Z</time>
      </trkpt>
      <trkpt lat="45.77152" lon="6.5906">
        <ele>1971</ele>
        <time>2017-10-05T08:44:46.000Z</time>
      </trkpt>
      <trkpt lat="45.77157" lon="6.59069">
        <ele>1974</ele>
        <time>2017-10-05T08:45:49.000Z</time>
      </trkpt>
      <trkpt lat="45.77162" lon="6.59073">
        <ele>1973</ele>
        <time>2017-10-05T08:49:44.000Z</time>
      </trkpt>
      <trkpt lat="45.77169" lon="6.59081">
        <ele>1972</ele>
        <time>2017-10-05T08:49:52.000Z</time>
      </trkpt>
      <trkpt lat="45.77173" lon="6.59094">
        <ele>1970</ele>
        <time>2017-10-05T08:50:00.000Z</time>
      </trkpt>
      <trkpt lat="45.77183" lon="6.59098">
        <ele>1967</ele>
        <time>2017-10-05T08:50:07.000Z</time>
      </trkpt>
      <trkpt lat="45.77192" lon="6.59106">
        <ele>1966</ele>
        <time>2017-10-05T08:50:13.000Z</time>
      </trkpt>
      <trkpt lat="45.77212" lon="6.59116">
        <ele>1960</ele>
        <time>2017-10-05T08:50:24.000Z</time>
      </trkpt>
      <trkpt lat="45.77232" lon="6.5912">
        <ele>1957</ele>
        <time>2017-10-05T08:50:34.000Z</time>
      </trkpt>
      <trkpt lat="45.77241" lon="6.59124">
        <ele>1956</ele>
        <time>2017-10-05T08:50:39.000Z</time>
      </trkpt>
      <trkpt lat="45.7725" lon="6.59129">
        <ele>1955</ele>
        <time>2017-10-05T08:50:44.000Z</time>
      </trkpt>
      <trkpt lat="45.77258" lon="6.59135">
        <ele>1953</ele>
        <time>2017-10-05T08:50:49.000Z</time>
      </trkpt>
      <trkpt lat="45.77267" lon="6.5914">
        <ele>1951</ele>
        <time>2017-10-05T08:50:54.000Z</time>
      </trkpt>
      <trkpt lat="45.77276" lon="6.59147">
        <ele>1950</ele>
        <time>2017-10-05T08:50:59.000Z</time>
      </trkpt>
      <trkpt lat="45.77287" lon="6.59154">
        <ele>1948</ele>
        <time>2017-10-05T08:51:05.000Z</time>
      </trkpt>
      <trkpt lat="45.77297" lon="6.59157">
        <ele>1946</ele>
        <time>2017-10-05T08:51:10.000Z</time>
      </trkpt>
      <trkpt lat="45.77308" lon="6.59161">
        <ele>1946</ele>
        <time>2017-10-05T08:51:15.000Z</time>
      </trkpt>
      <trkpt lat="45.77319" lon="6.59164">
        <ele>1945</ele>
        <time>2017-10-05T08:51:20.000Z</time>
      </trkpt>
      <trkpt lat="45.77339" lon="6.59165">
        <ele>1945</ele>
        <time>2017-10-05T08:51:30.000Z</time>
      </trkpt>
      <trkpt lat="45.77357" lon="6.59178">
        <ele>1945</ele>
        <time>2017-10-05T08:51:41.000Z</time>
      </trkpt>
      <trkpt lat="45.77372" lon="6.59196">
        <ele>1945</ele>
        <time>2017-10-05T08:51:50.000Z</time>
      </trkpt>
      <trkpt lat="45.7738" lon="6.59203">
        <ele>1945</ele>
        <time>2017-10-05T08:51:54.000Z</time>
      </trkpt>
      <trkpt lat="45.77389" lon="6.59209">
        <ele>1945</ele>
        <time>2017-10-05T08:51:59.000Z</time>
      </trkpt>
      <trkpt lat="45.77399" lon="6.59211">
        <ele>1945</ele>
        <time>2017-10-05T08:52:04.000Z</time>
      </trkpt>
      <trkpt lat="45.7741" lon="6.59208">
        <ele>1946</ele>
        <time>2017-10-05T08:52:09.000Z</time>
      </trkpt>
      <trkpt lat="45.7742" lon="6.59206">
        <ele>1946</ele>
        <time>2017-10-05T08:52:14.000Z</time>
      </trkpt>
      <trkpt lat="45.7743" lon="6.59203">
        <ele>1946</ele>
        <time>2017-10-05T08:52:19.000Z</time>
      </trkpt>
      <trkpt lat="45.7744" lon="6.592">
        <ele>1947</ele>
        <time>2017-10-05T08:52:24.000Z</time>
      </trkpt>
      <trkpt lat="45.77451" lon="6.592">
        <ele>1947</ele>
        <time>2017-10-05T08:52:29.000Z</time>
      </trkpt>
      <trkpt lat="45.77462" lon="6.59196">
        <ele>1947</ele>
        <time>2017-10-05T08:52:34.000Z</time>
      </trkpt>
      <trkpt lat="45.77473" lon="6.59193">
        <ele>1947</ele>
        <time>2017-10-05T08:52:39.000Z</time>
      </trkpt>
      <trkpt lat="45.77484" lon="6.59194">
        <ele>1947</ele>
        <time>2017-10-05T08:52:44.000Z</time>
      </trkpt>
      <trkpt lat="45.77494" lon="6.59197">
        <ele>1947</ele>
        <time>2017-10-05T08:52:49.000Z</time>
      </trkpt>
      <trkpt lat="45.77503" lon="6.59203">
        <ele>1947</ele>
        <time>2017-10-05T08:52:54.000Z</time>
      </trkpt>
      <trkpt lat="45.77535" lon="6.59237">
        <ele>1948</ele>
        <time>2017-10-05T08:53:14.000Z</time>
      </trkpt>
      <trkpt lat="45.77546" lon="6.59242">
        <ele>1948</ele>
        <time>2017-10-05T08:53:19.000Z</time>
      </trkpt>
      <trkpt lat="45.77555" lon="6.5925">
        <ele>1948</ele>
        <time>2017-10-05T08:53:24.000Z</time>
      </trkpt>
      <trkpt lat="45.77564" lon="6.59256">
        <ele>1949</ele>
        <time>2017-10-05T08:53:29.000Z</time>
      </trkpt>
      <trkpt lat="45.77573" lon="6.59264">
        <ele>1949</ele>
        <time>2017-10-05T08:53:34.000Z</time>
      </trkpt>
      <trkpt lat="45.77583" lon="6.5927">
        <ele>1950</ele>
        <time>2017-10-05T08:53:39.000Z</time>
      </trkpt>
      <trkpt lat="45.77593" lon="6.59276">
        <ele>1951</ele>
        <time>2017-10-05T08:53:44.000Z</time>
      </trkpt>
      <trkpt lat="45.7761" lon="6.59285">
        <ele>1953</ele>
        <time>2017-10-05T08:53:54.000Z</time>
      </trkpt>
      <trkpt lat="45.77618" lon="6.59287">
        <ele>1954</ele>
        <time>2017-10-05T08:53:59.000Z</time>
      </trkpt>
      <trkpt lat="45.77628" lon="6.59285">
        <ele>1955</ele>
        <time>2017-10-05T08:54:06.000Z</time>
      </trkpt>
      <trkpt lat="45.77639" lon="6.59289">
        <ele>1956</ele>
        <time>2017-10-05T08:54:13.000Z</time>
      </trkpt>
      <trkpt lat="45.77648" lon="6.59293">
        <ele>1957</ele>
        <time>2017-10-05T08:54:19.000Z</time>
      </trkpt>
      <trkpt lat="45.77656" lon="6.593">
        <ele>1958</ele>
        <time>2017-10-05T08:54:26.000Z</time>
      </trkpt>
      <trkpt lat="45.77666" lon="6.59307">
        <ele>1959</ele>
        <time>2017-10-05T08:54:33.000Z</time>
      </trkpt>
      <trkpt lat="45.77674" lon="6.59307">
        <ele>1961</ele>
        <time>2017-10-05T08:54:39.000Z</time>
      </trkpt>
      <trkpt lat="45.77685" lon="6.59307">
        <ele>1962</ele>
        <time>2017-10-05T08:54:46.000Z</time>
      </trkpt>
      <trkpt lat="45.77716" lon="6.59299">
        <ele>1964</ele>
        <time>2017-10-05T08:55:03.000Z</time>
      </trkpt>
      <trkpt lat="45.77734" lon="6.59292">
        <ele>1965</ele>
        <time>2017-10-05T08:55:14.000Z</time>
      </trkpt>
      <trkpt lat="45.77744" lon="6.59291">
        <ele>1966</ele>
        <time>2017-10-05T08:55:20.000Z</time>
      </trkpt>
      <trkpt lat="45.77754" lon="6.5929">
        <ele>1967</ele>
        <time>2017-10-05T08:55:26.000Z</time>
      </trkpt>
      <trkpt lat="45.77763" lon="6.59293">
        <ele>1967</ele>
        <time>2017-10-05T08:55:31.000Z</time>
      </trkpt>
      <trkpt lat="45.77773" lon="6.59293">
        <ele>1967</ele>
        <time>2017-10-05T08:55:37.000Z</time>
      </trkpt>
      <trkpt lat="45.77793" lon="6.59286">
        <ele>1969</ele>
        <time>2017-10-05T08:55:49.000Z</time>
      </trkpt>
      <trkpt lat="45.77803" lon="6.59285">
        <ele>1969</ele>
        <time>2017-10-05T08:55:55.000Z</time>
      </trkpt>
      <trkpt lat="45.77823" lon="6.59281">
        <ele>1970</ele>
        <time>2017-10-05T08:56:06.000Z</time>
      </trkpt>
      <trkpt lat="45.77832" lon="6.5928">
        <ele>1971</ele>
        <time>2017-10-05T08:56:11.000Z</time>
      </trkpt>
      <trkpt lat="45.77843" lon="6.59282">
        <ele>1971</ele>
        <time>2017-10-05T08:56:16.000Z</time>
      </trkpt>
      <trkpt lat="45.77861" lon="6.59295">
        <ele>1971</ele>
        <time>2017-10-05T08:56:26.000Z</time>
      </trkpt>
      <trkpt lat="45.7788" lon="6.59306">
        <ele>1970</ele>
        <time>2017-10-05T08:56:36.000Z</time>
      </trkpt>
      <trkpt lat="45.7789" lon="6.5931">
        <ele>1970</ele>
        <time>2017-10-05T08:56:41.000Z</time>
      </trkpt>
      <trkpt lat="45.77909" lon="6.59318">
        <ele>1971</ele>
        <time>2017-10-05T08:56:52.000Z</time>
      </trkpt>
      <trkpt lat="45.7792" lon="6.59318">
        <ele>1972</ele>
        <time>2017-10-05T08:56:58.000Z</time>
      </trkpt>
      <trkpt lat="45.77928" lon="6.59318">
        <ele>1974</ele>
        <time>2017-10-05T08:57:06.000Z</time>
      </trkpt>
      <trkpt lat="45.77958" lon="6.59323">
        <ele>1981</ele>
        <time>2017-10-05T08:57:32.000Z</time>
      </trkpt>
      <trkpt lat="45.77977" lon="6.59319">
        <ele>1983</ele>
        <time>2017-10-05T08:57:45.000Z</time>
      </trkpt>
      <trkpt lat="45.77988" lon="6.59318">
        <ele>1984</ele>
        <time>2017-10-05T08:57:52.000Z</time>
      </trkpt>
      <trkpt lat="45.77998" lon="6.59319">
        <ele>1985</ele>
        <time>2017-10-05T08:57:59.000Z</time>
      </trkpt>
      <trkpt lat="45.78016" lon="6.59329">
        <ele>1987</ele>
        <time>2017-10-05T08:58:11.000Z</time>
      </trkpt>
      <trkpt lat="45.78024" lon="6.59334">
        <ele>1988</ele>
        <time>2017-10-05T08:58:16.000Z</time>
      </trkpt>
      <trkpt lat="45.78045" lon="6.59352">
        <ele>1991</ele>
        <time>2017-10-05T08:58:31.000Z</time>
      </trkpt>
      <trkpt lat="45.78059" lon="6.59362">
        <ele>1992</ele>
        <time>2017-10-05T08:58:41.000Z</time>
      </trkpt>
      <trkpt lat="45.78068" lon="6.59366">
        <ele>1994</ele>
        <time>2017-10-05T08:58:47.000Z</time>
      </trkpt>
      <trkpt lat="45.78076" lon="6.59368">
        <ele>1994</ele>
        <time>2017-10-05T08:58:53.000Z</time>
      </trkpt>
      <trkpt lat="45.78101" lon="6.59385">
        <ele>1998</ele>
        <time>2017-10-05T08:59:12.000Z</time>
      </trkpt>
      <trkpt lat="45.78111" lon="6.59389">
        <ele>1999</ele>
        <time>2017-10-05T08:59:19.000Z</time>
      </trkpt>
      <trkpt lat="45.78131" lon="6.59392">
        <ele>2001</ele>
        <time>2017-10-05T08:59:33.000Z</time>
      </trkpt>
      <trkpt lat="45.78161" lon="6.59391">
        <ele>2006</ele>
        <time>2017-10-05T08:59:53.000Z</time>
      </trkpt>
      <trkpt lat="45.78171" lon="6.59389">
        <ele>2009</ele>
        <time>2017-10-05T09:00:01.000Z</time>
      </trkpt>
      <trkpt lat="45.78181" lon="6.5939">
        <ele>2011</ele>
        <time>2017-10-05T09:00:08.000Z</time>
      </trkpt>
      <trkpt lat="45.78191" lon="6.59389">
        <ele>2013</ele>
        <time>2017-10-05T09:00:16.000Z</time>
      </trkpt>
      <trkpt lat="45.7821" lon="6.59389">
        <ele>2017</ele>
        <time>2017-10-05T09:00:32.000Z</time>
      </trkpt>
      <trkpt lat="45.78221" lon="6.59387">
        <ele>2019</ele>
        <time>2017-10-05T09:00:40.000Z</time>
      </trkpt>
      <trkpt lat="45.78231" lon="6.59387">
        <ele>2021</ele>
        <time>2017-10-05T09:00:48.000Z</time>
      </trkpt>
      <trkpt lat="45.78239" lon="6.59391">
        <ele>2022</ele>
        <time>2017-10-05T09:00:54.000Z</time>
      </trkpt>
      <trkpt lat="45.78247" lon="6.59399">
        <ele>2023</ele>
        <time>2017-10-05T09:01:01.000Z</time>
      </trkpt>
      <trkpt lat="45.78265" lon="6.59413">
        <ele>2027</ele>
        <time>2017-10-05T09:01:17.000Z</time>
      </trkpt>
      <trkpt lat="45.78273" lon="6.59421">
        <ele>2029</ele>
        <time>2017-10-05T09:01:24.000Z</time>
      </trkpt>
      <trkpt lat="45.78289" lon="6.59433">
        <ele>2032</ele>
        <time>2017-10-05T09:01:37.000Z</time>
      </trkpt>
      <trkpt lat="45.78308" lon="6.59448">
        <ele>2035</ele>
        <time>2017-10-05T09:01:52.000Z</time>
      </trkpt>
      <trkpt lat="45.78324" lon="6.59463">
        <ele>2037</ele>
        <time>2017-10-05T09:02:04.000Z</time>
      </trkpt>
      <trkpt lat="45.78333" lon="6.59471">
        <ele>2038</ele>
        <time>2017-10-05T09:02:11.000Z</time>
      </trkpt>
      <trkpt lat="45.78343" lon="6.59477">
        <ele>2039</ele>
        <time>2017-10-05T09:02:18.000Z</time>
      </trkpt>
      <trkpt lat="45.78361" lon="6.59491">
        <ele>2041</ele>
        <time>2017-10-05T09:02:32.000Z</time>
      </trkpt>
      <trkpt lat="45.78371" lon="6.59497">
        <ele>2040</ele>
        <time>2017-10-05T09:02:37.000Z</time>
      </trkpt>
      <trkpt lat="45.78389" lon="6.5951">
        <ele>2038</ele>
        <time>2017-10-05T09:02:45.000Z</time>
      </trkpt>
      <trkpt lat="45.78416" lon="6.59526">
        <ele>2035</ele>
        <time>2017-10-05T09:02:57.000Z</time>
      </trkpt>
      <trkpt lat="45.78425" lon="6.59527">
        <ele>2034</ele>
        <time>2017-10-05T09:03:01.000Z</time>
      </trkpt>
      <trkpt lat="45.78455" lon="6.59539">
        <ele>2030</ele>
        <time>2017-10-05T09:03:14.000Z</time>
      </trkpt>
      <trkpt lat="45.78476" lon="6.59549">
        <ele>2028</ele>
        <time>2017-10-05T09:03:24.000Z</time>
      </trkpt>
      <trkpt lat="45.78487" lon="6.5955">
        <ele>2027</ele>
        <time>2017-10-05T09:03:29.000Z</time>
      </trkpt>
      <trkpt lat="45.78498" lon="6.59553">
        <ele>2025</ele>
        <time>2017-10-05T09:03:34.000Z</time>
      </trkpt>
      <trkpt lat="45.78508" lon="6.59558">
        <ele>2024</ele>
        <time>2017-10-05T09:03:39.000Z</time>
      </trkpt>
      <trkpt lat="45.78517" lon="6.59563">
        <ele>2023</ele>
        <time>2017-10-05T09:03:43.000Z</time>
      </trkpt>
      <trkpt lat="45.78535" lon="6.59578">
        <ele>2021</ele>
        <time>2017-10-05T09:03:52.000Z</time>
      </trkpt>
      <trkpt lat="45.78564" lon="6.59597">
        <ele>2020</ele>
        <time>2017-10-05T09:04:05.000Z</time>
      </trkpt>
      <trkpt lat="45.78573" lon="6.59604">
        <ele>2019</ele>
        <time>2017-10-05T09:04:10.000Z</time>
      </trkpt>
      <trkpt lat="45.78582" lon="6.59611">
        <ele>2021</ele>
        <time>2017-10-05T09:04:15.000Z</time>
      </trkpt>
      <trkpt lat="45.78592" lon="6.59615">
        <ele>2020</ele>
        <time>2017-10-05T09:04:20.000Z</time>
      </trkpt>
      <trkpt lat="45.78612" lon="6.59618">
        <ele>2019</ele>
        <time>2017-10-05T09:04:29.000Z</time>
      </trkpt>
      <trkpt lat="45.7862" lon="6.59622">
        <ele>2017</ele>
        <time>2017-10-05T09:04:33.000Z</time>
      </trkpt>
      <trkpt lat="45.78631" lon="6.59625">
        <ele>2016</ele>
        <time>2017-10-05T09:04:38.000Z</time>
      </trkpt>
      <trkpt lat="45.7864" lon="6.59629">
        <ele>2016</ele>
        <time>2017-10-05T09:04:43.000Z</time>
      </trkpt>
      <trkpt lat="45.78651" lon="6.5963">
        <ele>2016</ele>
        <time>2017-10-05T09:04:48.000Z</time>
      </trkpt>
      <trkpt lat="45.78662" lon="6.59633">
        <ele>2015</ele>
        <time>2017-10-05T09:04:53.000Z</time>
      </trkpt>
      <trkpt lat="45.78672" lon="6.59633">
        <ele>2015</ele>
        <time>2017-10-05T09:04:57.000Z</time>
      </trkpt>
      <trkpt lat="45.78682" lon="6.59635">
        <ele>2015</ele>
        <time>2017-10-05T09:05:02.000Z</time>
      </trkpt>
      <trkpt lat="45.78692" lon="6.59638">
        <ele>2014</ele>
        <time>2017-10-05T09:05:07.000Z</time>
      </trkpt>
      <trkpt lat="45.78713" lon="6.59649">
        <ele>2013</ele>
        <time>2017-10-05T09:05:17.000Z</time>
      </trkpt>
      <trkpt lat="45.78732" lon="6.59652">
        <ele>2006</ele>
        <time>2017-10-05T09:05:27.000Z</time>
      </trkpt>
      <trkpt lat="45.7875" lon="6.59657">
        <ele>2004</ele>
        <time>2017-10-05T09:05:35.000Z</time>
      </trkpt>
      <trkpt lat="45.7876" lon="6.59661">
        <ele>2003</ele>
        <time>2017-10-05T09:05:40.000Z</time>
      </trkpt>
      <trkpt lat="45.7877" lon="6.59669">
        <ele>2003</ele>
        <time>2017-10-05T09:05:45.000Z</time>
      </trkpt>
      <trkpt lat="45.78779" lon="6.59674">
        <ele>2003</ele>
        <time>2017-10-05T09:05:50.000Z</time>
      </trkpt>
      <trkpt lat="45.78789" lon="6.59682">
        <ele>2003</ele>
        <time>2017-10-05T09:05:55.000Z</time>
      </trkpt>
      <trkpt lat="45.788" lon="6.59686">
        <ele>2003</ele>
        <time>2017-10-05T09:06:00.000Z</time>
      </trkpt>
      <trkpt lat="45.78821" lon="6.59688">
        <ele>2001</ele>
        <time>2017-10-05T09:06:10.000Z</time>
      </trkpt>
      <trkpt lat="45.78832" lon="6.59692">
        <ele>2000</ele>
        <time>2017-10-05T09:06:15.000Z</time>
      </trkpt>
      <trkpt lat="45.78842" lon="6.59692">
        <ele>1999</ele>
        <time>2017-10-05T09:06:19.000Z</time>
      </trkpt>
      <trkpt lat="45.78853" lon="6.59694">
        <ele>1999</ele>
        <time>2017-10-05T09:06:24.000Z</time>
      </trkpt>
      <trkpt lat="45.78862" lon="6.59697">
        <ele>1999</ele>
        <time>2017-10-05T09:06:29.000Z</time>
      </trkpt>
      <trkpt lat="45.78872" lon="6.59698">
        <ele>2000</ele>
        <time>2017-10-05T09:06:34.000Z</time>
      </trkpt>
      <trkpt lat="45.789" lon="6.59704">
        <ele>2001</ele>
        <time>2017-10-05T09:06:49.000Z</time>
      </trkpt>
      <trkpt lat="45.78911" lon="6.59705">
        <ele>2001</ele>
        <time>2017-10-05T09:06:54.000Z</time>
      </trkpt>
      <trkpt lat="45.78921" lon="6.59711">
        <ele>2002</ele>
        <time>2017-10-05T09:07:04.000Z</time>
      </trkpt>
      <trkpt lat="45.7893" lon="6.59721">
        <ele>1999</ele>
        <time>2018-10-17T07:29:32.000Z</time>
      </trkpt>
      <trkpt lat="45.78955" lon="6.59745">
        <ele>2004</ele>
        <time>2018-10-17T07:29:56.000Z</time>
      </trkpt>
      <trkpt lat="45.78963" lon="6.59754">
        <ele>2007</ele>
        <time>2018-10-17T07:30:07.000Z</time>
      </trkpt>
      <trkpt lat="45.7897" lon="6.59764">
        <ele>2010</ele>
        <time>2018-10-17T07:30:17.000Z</time>
      </trkpt>
      <trkpt lat="45.78986" lon="6.59782">
        <ele>2014</ele>
        <time>2018-10-17T07:30:35.000Z</time>
      </trkpt>
      <trkpt lat="45.78993" lon="6.59787">
        <ele>2016</ele>
        <time>2018-10-17T07:30:43.000Z</time>
      </trkpt>
      <trkpt lat="45.79011" lon="6.59803">
        <ele>2019</ele>
        <time>2018-10-17T07:31:00.000Z</time>
      </trkpt>
      <trkpt lat="45.7902" lon="6.5981">
        <ele>2021</ele>
        <time>2018-10-17T07:31:08.000Z</time>
      </trkpt>
      <trkpt lat="45.79029" lon="6.59813">
        <ele>2022</ele>
        <time>2018-10-17T07:32:59.000Z</time>
      </trkpt>
      <trkpt lat="45.79037" lon="6.59819">
        <ele>2022</ele>
        <time>2018-10-17T07:33:36.000Z</time>
      </trkpt>
      <trkpt lat="45.79047" lon="6.59823">
        <ele>2022</ele>
        <time>2018-10-17T07:33:43.000Z</time>
      </trkpt>
      <trkpt lat="45.79076" lon="6.59842">
        <ele>2024</ele>
        <time>2018-10-17T07:34:01.000Z</time>
      </trkpt>
      <trkpt lat="45.79084" lon="6.59848">
        <ele>2024</ele>
        <time>2018-10-17T07:34:15.000Z</time>
      </trkpt>
      <trkpt lat="45.79103" lon="6.59854">
        <ele>2024</ele>
        <time>2018-10-17T07:34:27.000Z</time>
      </trkpt>
      <trkpt lat="45.79113" lon="6.59858">
        <ele>2023</ele>
        <time>2018-10-17T07:34:31.000Z</time>
      </trkpt>
      <trkpt lat="45.79122" lon="6.5986">
        <ele>2024</ele>
        <time>2018-10-17T07:34:36.000Z</time>
      </trkpt>
      <trkpt lat="45.79133" lon="6.59859">
        <ele>2025</ele>
        <time>2018-10-17T07:34:41.000Z</time>
      </trkpt>
      <trkpt lat="45.79162" lon="6.59863">
        <ele>2027</ele>
        <time>2018-10-17T07:34:56.000Z</time>
      </trkpt>
      <trkpt lat="45.79171" lon="6.59867">
        <ele>2027</ele>
        <time>2018-10-17T07:35:02.000Z</time>
      </trkpt>
      <trkpt lat="45.7918" lon="6.59872">
        <ele>2031</ele>
        <time>2018-10-17T07:35:12.000Z</time>
      </trkpt>
      <trkpt lat="45.79185" lon="6.59874">
        <ele>2033</ele>
        <time>2018-10-17T07:35:21.000Z</time>
      </trkpt>
      <trkpt lat="45.7919" lon="6.59883">
        <ele>2035</ele>
        <time>2018-10-17T07:35:30.000Z</time>
      </trkpt>
      <trkpt lat="45.79197" lon="6.59877">
        <ele>2038</ele>
        <time>2018-10-17T07:35:39.000Z</time>
      </trkpt>
      <trkpt lat="45.79201" lon="6.59888">
        <ele>2041</ele>
        <time>2018-10-17T07:35:50.000Z</time>
      </trkpt>
      <trkpt lat="45.79209" lon="6.59886">
        <ele>2043</ele>
        <time>2018-10-17T07:36:01.000Z</time>
      </trkpt>
      <trkpt lat="45.79218" lon="6.59894">
        <ele>2049</ele>
        <time>2018-10-17T07:36:23.000Z</time>
      </trkpt>
      <trkpt lat="45.79225" lon="6.59893">
        <ele>2052</ele>
        <time>2018-10-17T07:36:34.000Z</time>
      </trkpt>
      <trkpt lat="45.79229" lon="6.59901">
        <ele>2054</ele>
        <time>2018-10-17T07:36:44.000Z</time>
      </trkpt>
      <trkpt lat="45.79235" lon="6.59906">
        <ele>2056</ele>
        <time>2018-10-17T07:36:55.000Z</time>
      </trkpt>
      <trkpt lat="45.79242" lon="6.59909">
        <ele>2059</ele>
        <time>2018-10-17T07:37:04.000Z</time>
      </trkpt>
      <trkpt lat="45.79248" lon="6.59919">
        <ele>2061</ele>
        <time>2018-10-17T07:37:13.000Z</time>
      </trkpt>
      <trkpt lat="45.79251" lon="6.59915">
        <ele>2062</ele>
        <time>2018-10-17T07:37:25.000Z</time>
      </trkpt>
      <trkpt lat="45.79248" lon="6.59914">
        <ele>2062</ele>
        <time>2018-10-17T07:40:58.000Z</time>
      </trkpt>
      <trkpt lat="45.79249" lon="6.59913">
        <ele>2063</ele>
        <time>2018-10-17T07:44:31.000Z</time>
      </trkpt>
      <trkpt lat="45.79249" lon="6.59924">
        <ele>2063</ele>
        <time>2018-10-17T07:44:46.000Z</time>
      </trkpt>
      <trkpt lat="45.79254" lon="6.59932">
        <ele>2063</ele>
        <time>2018-10-17T07:45:04.000Z</time>
      </trkpt>
      <trkpt lat="45.79262" lon="6.59957">
        <ele>2062</ele>
        <time>2018-10-17T07:45:14.000Z</time>
      </trkpt>
      <trkpt lat="45.79268" lon="6.59972">
        <ele>2061</ele>
        <time>2018-10-17T07:45:19.000Z</time>
      </trkpt>
      <trkpt lat="45.7928" lon="6.59995">
        <ele>2060</ele>
        <time>2018-10-17T07:45:28.000Z</time>
      </trkpt>
      <trkpt lat="45.79287" lon="6.60004">
        <ele>2060</ele>
        <time>2018-10-17T07:45:33.000Z</time>
      </trkpt>
      <trkpt lat="45.79294" lon="6.60015">
        <ele>2060</ele>
        <time>2018-10-17T07:45:38.000Z</time>
      </trkpt>
      <trkpt lat="45.79307" lon="6.60037">
        <ele>2057</ele>
        <time>2018-10-17T07:45:46.000Z</time>
      </trkpt>
      <trkpt lat="45.79312" lon="6.60048">
        <ele>2057</ele>
        <time>2018-10-17T07:45:50.000Z</time>
      </trkpt>
      <trkpt lat="45.7932" lon="6.60058">
        <ele>2057</ele>
        <time>2018-10-17T07:45:55.000Z</time>
      </trkpt>
      <trkpt lat="45.79327" lon="6.6007">
        <ele>2058</ele>
        <time>2018-10-17T07:46:00.000Z</time>
      </trkpt>
      <trkpt lat="45.79334" lon="6.6008">
        <ele>2060</ele>
        <time>2018-10-17T07:46:06.000Z</time>
      </trkpt>
      <trkpt lat="45.7934" lon="6.60091">
        <ele>2060</ele>
        <time>2018-10-17T07:46:11.000Z</time>
      </trkpt>
      <trkpt lat="45.79348" lon="6.60102">
        <ele>2059</ele>
        <time>2018-10-17T07:46:19.000Z</time>
      </trkpt>
      <trkpt lat="45.79354" lon="6.60114">
        <ele>2057</ele>
        <time>2018-10-17T07:46:24.000Z</time>
      </trkpt>
      <trkpt lat="45.79362" lon="6.60124">
        <ele>2054</ele>
        <time>2018-10-17T07:46:29.000Z</time>
      </trkpt>
      <trkpt lat="45.79368" lon="6.60135">
        <ele>2052</ele>
        <time>2018-10-17T07:46:34.000Z</time>
      </trkpt>
      <trkpt lat="45.79378" lon="6.60139">
        <ele>2049</ele>
        <time>2018-10-17T07:46:40.000Z</time>
      </trkpt>
      <trkpt lat="45.79387" lon="6.60135">
        <ele>2045</ele>
        <time>2018-10-17T07:46:46.000Z</time>
      </trkpt>
      <trkpt lat="45.79417" lon="6.60139">
        <ele>2036</ele>
        <time>2018-10-17T07:46:59.000Z</time>
      </trkpt>
      <trkpt lat="45.79437" lon="6.60147">
        <ele>2036</ele>
        <time>2018-10-17T07:47:07.000Z</time>
      </trkpt>
      <trkpt lat="45.79445" lon="6.60152">
        <ele>2036</ele>
        <time>2018-10-17T07:47:11.000Z</time>
      </trkpt>
      <trkpt lat="45.79472" lon="6.6016">
        <ele>2034</ele>
        <time>2018-10-17T07:47:23.000Z</time>
      </trkpt>
      <trkpt lat="45.79481" lon="6.60168">
        <ele>2034</ele>
        <time>2018-10-17T07:47:28.000Z</time>
      </trkpt>
      <trkpt lat="45.79486" lon="6.60178">
        <ele>2034</ele>
        <time>2018-10-17T07:47:33.000Z</time>
      </trkpt>
      <trkpt lat="45.79494" lon="6.60188">
        <ele>2033</ele>
        <time>2018-10-17T07:47:38.000Z</time>
      </trkpt>
      <trkpt lat="45.79499" lon="6.602">
        <ele>2032</ele>
        <time>2018-10-17T07:47:43.000Z</time>
      </trkpt>
      <trkpt lat="45.79506" lon="6.60213">
        <ele>2032</ele>
        <time>2018-10-17T07:47:48.000Z</time>
      </trkpt>
      <trkpt lat="45.7952" lon="6.60233">
        <ele>2033</ele>
        <time>2018-10-17T07:47:58.000Z</time>
      </trkpt>
      <trkpt lat="45.7953" lon="6.6026">
        <ele>2033</ele>
        <time>2018-10-17T07:48:08.000Z</time>
      </trkpt>
      <trkpt lat="45.79533" lon="6.60275">
        <ele>2033</ele>
        <time>2018-10-17T07:48:14.000Z</time>
      </trkpt>
      <trkpt lat="45.79546" lon="6.60302">
        <ele>2033</ele>
        <time>2018-10-17T07:48:25.000Z</time>
      </trkpt>
      <trkpt lat="45.79554" lon="6.60313">
        <ele>2033</ele>
        <time>2018-10-17T07:48:30.000Z</time>
      </trkpt>
      <trkpt lat="45.79568" lon="6.60336">
        <ele>2033</ele>
        <time>2018-10-17T07:48:40.000Z</time>
      </trkpt>
      <trkpt lat="45.79575" lon="6.60365">
        <ele>2033</ele>
        <time>2018-10-17T07:48:50.000Z</time>
      </trkpt>
      <trkpt lat="45.79581" lon="6.60379">
        <ele>2032</ele>
        <time>2018-10-17T07:48:55.000Z</time>
      </trkpt>
      <trkpt lat="45.79591" lon="6.604">
        <ele>2032</ele>
        <time>2018-10-17T07:49:03.000Z</time>
      </trkpt>
      <trkpt lat="45.79592" lon="6.60414">
        <ele>2033</ele>
        <time>2018-10-17T07:49:08.000Z</time>
      </trkpt>
      <trkpt lat="45.79591" lon="6.60427">
        <ele>2034</ele>
        <time>2018-10-17T07:49:13.000Z</time>
      </trkpt>
      <trkpt lat="45.79588" lon="6.60453">
        <ele>2036</ele>
        <time>2018-10-17T07:49:24.000Z</time>
      </trkpt>
      <trkpt lat="45.79588" lon="6.60483">
        <ele>2038</ele>
        <time>2018-10-17T07:49:36.000Z</time>
      </trkpt>
      <trkpt lat="45.79587" lon="6.60497">
        <ele>2035</ele>
        <time>2018-10-17T07:49:42.000Z</time>
      </trkpt>
      <trkpt lat="45.79585" lon="6.60539">
        <ele>2028</ele>
        <time>2018-10-17T07:49:57.000Z</time>
      </trkpt>
      <trkpt lat="45.7958" lon="6.6055">
        <ele>2026</ele>
        <time>2018-10-17T07:50:02.000Z</time>
      </trkpt>
      <trkpt lat="45.79578" lon="6.60563">
        <ele>2024</ele>
        <time>2018-10-17T07:50:07.000Z</time>
      </trkpt>
      <trkpt lat="45.79573" lon="6.60577">
        <ele>2022</ele>
        <time>2018-10-17T07:50:13.000Z</time>
      </trkpt>
      <trkpt lat="45.79571" lon="6.60592">
        <ele>2018</ele>
        <time>2018-10-17T07:50:19.000Z</time>
      </trkpt>
      <trkpt lat="45.79569" lon="6.60605">
        <ele>2016</ele>
        <time>2018-10-17T07:50:24.000Z</time>
      </trkpt>
      <trkpt lat="45.79565" lon="6.60617">
        <ele>2013</ele>
        <time>2018-10-17T07:50:29.000Z</time>
      </trkpt>
      <trkpt lat="45.79565" lon="6.60657">
        <ele>2008</ele>
        <time>2018-10-17T07:50:42.000Z</time>
      </trkpt>
      <trkpt lat="45.79563" lon="6.60687">
        <ele>2007</ele>
        <time>2018-10-17T07:50:52.000Z</time>
      </trkpt>
      <trkpt lat="45.7956" lon="6.60701">
        <ele>2006</ele>
        <time>2018-10-17T07:50:57.000Z</time>
      </trkpt>
      <trkpt lat="45.79558" lon="6.60717">
        <ele>2005</ele>
        <time>2018-10-17T07:51:02.000Z</time>
      </trkpt>
      <trkpt lat="45.79556" lon="6.60749">
        <ele>2004</ele>
        <time>2018-10-17T07:51:12.000Z</time>
      </trkpt>
      <trkpt lat="45.79553" lon="6.60778">
        <ele>2003</ele>
        <time>2018-10-17T07:51:22.000Z</time>
      </trkpt>
      <trkpt lat="45.79551" lon="6.60792">
        <ele>2001</ele>
        <time>2018-10-17T07:51:27.000Z</time>
      </trkpt>
      <trkpt lat="45.79547" lon="6.60806">
        <ele>1999</ele>
        <time>2018-10-17T07:51:32.000Z</time>
      </trkpt>
      <trkpt lat="45.79541" lon="6.6082">
        <ele>1997</ele>
        <time>2018-10-17T07:51:37.000Z</time>
      </trkpt>
      <trkpt lat="45.7954" lon="6.60833">
        <ele>1996</ele>
        <time>2018-10-17T07:51:42.000Z</time>
      </trkpt>
      <trkpt lat="45.79538" lon="6.60863">
        <ele>1989</ele>
        <time>2018-10-17T07:51:54.000Z</time>
      </trkpt>
      <trkpt lat="45.79534" lon="6.6089">
        <ele>1983</ele>
        <time>2018-10-17T07:52:04.000Z</time>
      </trkpt>
      <trkpt lat="45.79534" lon="6.60905">
        <ele>1981</ele>
        <time>2018-10-17T07:52:09.000Z</time>
      </trkpt>
      <trkpt lat="45.79534" lon="6.60918">
        <ele>1980</ele>
        <time>2018-10-17T07:52:13.000Z</time>
      </trkpt>
      <trkpt lat="45.79534" lon="6.60932">
        <ele>1978</ele>
        <time>2018-10-17T07:52:17.000Z</time>
      </trkpt>
      <trkpt lat="45.79531" lon="6.60944">
        <ele>1977</ele>
        <time>2018-10-17T07:52:21.000Z</time>
      </trkpt>
      <trkpt lat="45.79534" lon="6.6097">
        <ele>1974</ele>
        <time>2018-10-17T07:52:29.000Z</time>
      </trkpt>
      <trkpt lat="45.79539" lon="6.60996">
        <ele>1970</ele>
        <time>2018-10-17T07:52:37.000Z</time>
      </trkpt>
      <trkpt lat="45.79544" lon="6.61024">
        <ele>1967</ele>
        <time>2018-10-17T07:52:45.000Z</time>
      </trkpt>
      <trkpt lat="45.79547" lon="6.61036">
        <ele>1966</ele>
        <time>2018-10-17T07:52:49.000Z</time>
      </trkpt>
      <trkpt lat="45.79553" lon="6.61047">
        <ele>1966</ele>
        <time>2018-10-17T07:52:53.000Z</time>
      </trkpt>
      <trkpt lat="45.79559" lon="6.61057">
        <ele>1965</ele>
        <time>2018-10-17T07:52:57.000Z</time>
      </trkpt>
      <trkpt lat="45.79565" lon="6.6107">
        <ele>1964</ele>
        <time>2018-10-17T07:53:02.000Z</time>
      </trkpt>
      <trkpt lat="45.7957" lon="6.61083">
        <ele>1963</ele>
        <time>2018-10-17T07:53:06.000Z</time>
      </trkpt>
      <trkpt lat="45.79586" lon="6.61116">
        <ele>1961</ele>
        <time>2018-10-17T07:53:18.000Z</time>
      </trkpt>
      <trkpt lat="45.79589" lon="6.61128">
        <ele>1961</ele>
        <time>2018-10-17T07:53:22.000Z</time>
      </trkpt>
      <trkpt lat="45.79589" lon="6.61143">
        <ele>1961</ele>
        <time>2018-10-17T07:53:27.000Z</time>
      </trkpt>
      <trkpt lat="45.79591" lon="6.61168">
        <ele>1961</ele>
        <time>2018-10-17T07:53:37.000Z</time>
      </trkpt>
      <trkpt lat="45.796" lon="6.61211">
        <ele>1962</ele>
        <time>2018-10-17T07:53:51.000Z</time>
      </trkpt>
      <trkpt lat="45.79603" lon="6.61239">
        <ele>1963</ele>
        <time>2018-10-17T07:54:01.000Z</time>
      </trkpt>
      <trkpt lat="45.79606" lon="6.61253">
        <ele>1964</ele>
        <time>2018-10-17T07:54:06.000Z</time>
      </trkpt>
      <trkpt lat="45.79607" lon="6.61267">
        <ele>1965</ele>
        <time>2018-10-17T07:54:11.000Z</time>
      </trkpt>
      <trkpt lat="45.7961" lon="6.61281">
        <ele>1966</ele>
        <time>2018-10-17T07:54:17.000Z</time>
      </trkpt>
      <trkpt lat="45.79617" lon="6.61306">
        <ele>1967</ele>
        <time>2018-10-17T07:54:28.000Z</time>
      </trkpt>
      <trkpt lat="45.79619" lon="6.61319">
        <ele>1967</ele>
        <time>2018-10-17T07:54:33.000Z</time>
      </trkpt>
      <trkpt lat="45.79621" lon="6.6136">
        <ele>1968</ele>
        <time>2018-10-17T07:54:48.000Z</time>
      </trkpt>
      <trkpt lat="45.79626" lon="6.61389">
        <ele>1968</ele>
        <time>2018-10-17T07:54:58.000Z</time>
      </trkpt>
      <trkpt lat="45.79627" lon="6.61419">
        <ele>1968</ele>
        <time>2018-10-17T07:55:08.000Z</time>
      </trkpt>
      <trkpt lat="45.7963" lon="6.61434">
        <ele>1969</ele>
        <time>2018-10-17T07:55:13.000Z</time>
      </trkpt>
      <trkpt lat="45.79631" lon="6.61449">
        <ele>1969</ele>
        <time>2018-10-17T07:55:18.000Z</time>
      </trkpt>
      <trkpt lat="45.79631" lon="6.61479">
        <ele>1970</ele>
        <time>2018-10-17T07:55:28.000Z</time>
      </trkpt>
      <trkpt lat="45.7963" lon="6.61493">
        <ele>1970</ele>
        <time>2018-10-17T07:55:33.000Z</time>
      </trkpt>
      <trkpt lat="45.79627" lon="6.61507">
        <ele>1971</ele>
        <time>2018-10-17T07:55:38.000Z</time>
      </trkpt>
      <trkpt lat="45.79624" lon="6.61521">
        <ele>1971</ele>
        <time>2018-10-17T07:55:43.000Z</time>
      </trkpt>
      <trkpt lat="45.79616" lon="6.61546">
        <ele>1974</ele>
        <time>2018-10-17T07:55:53.000Z</time>
      </trkpt>
      <trkpt lat="45.79611" lon="6.61558">
        <ele>1975</ele>
        <time>2018-10-17T07:55:58.000Z</time>
      </trkpt>
      <trkpt lat="45.79604" lon="6.61583">
        <ele>1976</ele>
        <time>2018-10-17T07:56:08.000Z</time>
      </trkpt>
      <trkpt lat="45.79602" lon="6.61597">
        <ele>1976</ele>
        <time>2018-10-17T07:56:13.000Z</time>
      </trkpt>
      <trkpt lat="45.79598" lon="6.61611">
        <ele>1976</ele>
        <time>2018-10-17T07:56:18.000Z</time>
      </trkpt>
      <trkpt lat="45.79598" lon="6.61638">
        <ele>1976</ele>
        <time>2018-10-17T07:56:27.000Z</time>
      </trkpt>
      <trkpt lat="45.79585" lon="6.61658">
        <ele>1979</ele>
        <time>2018-10-17T07:56:38.000Z</time>
      </trkpt>
      <trkpt lat="45.79573" lon="6.61683">
        <ele>1979</ele>
        <time>2018-10-17T07:56:48.000Z</time>
      </trkpt>
      <trkpt lat="45.7957" lon="6.61696">
        <ele>1981</ele>
        <time>2018-10-17T07:56:54.000Z</time>
      </trkpt>
      <trkpt lat="45.79567" lon="6.61711">
        <ele>1981</ele>
        <time>2018-10-17T07:57:00.000Z</time>
      </trkpt>
      <trkpt lat="45.79566" lon="6.61739">
        <ele>1982</ele>
        <time>2018-10-17T07:57:10.000Z</time>
      </trkpt>
      <trkpt lat="45.79562" lon="6.61752">
        <ele>1982</ele>
        <time>2018-10-17T07:57:15.000Z</time>
      </trkpt>
      <trkpt lat="45.79558" lon="6.61782">
        <ele>1983</ele>
        <time>2018-10-17T07:57:25.000Z</time>
      </trkpt>
      <trkpt lat="45.79556" lon="6.61795">
        <ele>1983</ele>
        <time>2018-10-17T07:57:30.000Z</time>
      </trkpt>
      <trkpt lat="45.79538" lon="6.61806">
        <ele>1984</ele>
        <time>2018-10-17T07:57:40.000Z</time>
      </trkpt>
      <trkpt lat="45.7953" lon="6.6181">
        <ele>1985</ele>
        <time>2018-10-17T07:57:45.000Z</time>
      </trkpt>
      <trkpt lat="45.79521" lon="6.61815">
        <ele>1986</ele>
        <time>2018-10-17T07:57:50.000Z</time>
      </trkpt>
      <trkpt lat="45.79513" lon="6.61822">
        <ele>1987</ele>
        <time>2018-10-17T07:57:55.000Z</time>
      </trkpt>
      <trkpt lat="45.79503" lon="6.61826">
        <ele>1988</ele>
        <time>2018-10-17T07:58:01.000Z</time>
      </trkpt>
      <trkpt lat="45.79494" lon="6.61827">
        <ele>1989</ele>
        <time>2018-10-17T07:58:06.000Z</time>
      </trkpt>
      <trkpt lat="45.79486" lon="6.61831">
        <ele>1991</ele>
        <time>2018-10-17T07:58:12.000Z</time>
      </trkpt>
      <trkpt lat="45.79478" lon="6.61839">
        <ele>1992</ele>
        <time>2018-10-17T07:58:18.000Z</time>
      </trkpt>
      <trkpt lat="45.79473" lon="6.6185">
        <ele>1993</ele>
        <time>2018-10-17T07:58:24.000Z</time>
      </trkpt>
      <trkpt lat="45.79469" lon="6.61864">
        <ele>1994</ele>
        <time>2018-10-17T07:58:30.000Z</time>
      </trkpt>
      <trkpt lat="45.79466" lon="6.61877">
        <ele>1994</ele>
        <time>2018-10-17T07:58:35.000Z</time>
      </trkpt>
      <trkpt lat="45.79463" lon="6.61889">
        <ele>1994</ele>
        <time>2018-10-17T07:58:40.000Z</time>
      </trkpt>
      <trkpt lat="45.79459" lon="6.619">
        <ele>1994</ele>
        <time>2018-10-17T07:58:45.000Z</time>
      </trkpt>
      <trkpt lat="45.79455" lon="6.61913">
        <ele>1994</ele>
        <time>2018-10-17T07:58:50.000Z</time>
      </trkpt>
      <trkpt lat="45.79452" lon="6.61926">
        <ele>1993</ele>
        <time>2018-10-17T07:58:55.000Z</time>
      </trkpt>
      <trkpt lat="45.79449" lon="6.61941">
        <ele>1991</ele>
        <time>2018-10-17T07:59:00.000Z</time>
      </trkpt>
      <trkpt lat="45.79449" lon="6.61954">
        <ele>1990</ele>
        <time>2018-10-17T07:59:04.000Z</time>
      </trkpt>
      <trkpt lat="45.79453" lon="6.61967">
        <ele>1988</ele>
        <time>2018-10-17T07:59:08.000Z</time>
      </trkpt>
      <trkpt lat="45.79456" lon="6.61982">
        <ele>1987</ele>
        <time>2018-10-17T07:59:13.000Z</time>
      </trkpt>
      <trkpt lat="45.7946" lon="6.61995">
        <ele>1987</ele>
        <time>2018-10-17T07:59:18.000Z</time>
      </trkpt>
      <trkpt lat="45.79462" lon="6.62008">
        <ele>1986</ele>
        <time>2018-10-17T07:59:22.000Z</time>
      </trkpt>
      <trkpt lat="45.79466" lon="6.62023">
        <ele>1986</ele>
        <time>2018-10-17T07:59:27.000Z</time>
      </trkpt>
      <trkpt lat="45.79468" lon="6.62036">
        <ele>1985</ele>
        <time>2018-10-17T07:59:31.000Z</time>
      </trkpt>
      <trkpt lat="45.79468" lon="6.6205">
        <ele>1985</ele>
        <time>2018-10-17T07:59:35.000Z</time>
      </trkpt>
      <trkpt lat="45.79468" lon="6.62093">
        <ele>1983</ele>
        <time>2018-10-17T07:59:47.000Z</time>
      </trkpt>
      <trkpt lat="45.7947" lon="6.62121">
        <ele>1981</ele>
        <time>2018-10-17T07:59:55.000Z</time>
      </trkpt>
      <trkpt lat="45.7947" lon="6.62135">
        <ele>1980</ele>
        <time>2018-10-17T07:59:59.000Z</time>
      </trkpt>
      <trkpt lat="45.7947" lon="6.62149">
        <ele>1979</ele>
        <time>2018-10-17T08:00:03.000Z</time>
      </trkpt>
      <trkpt lat="45.79466" lon="6.62177">
        <ele>1978</ele>
        <time>2018-10-17T08:00:11.000Z</time>
      </trkpt>
      <trkpt lat="45.79463" lon="6.62204">
        <ele>1976</ele>
        <time>2018-10-17T08:00:19.000Z</time>
      </trkpt>
      <trkpt lat="45.7946" lon="6.62218">
        <ele>1974</ele>
        <time>2018-10-17T08:00:23.000Z</time>
      </trkpt>
      <trkpt lat="45.7946" lon="6.62232">
        <ele>1974</ele>
        <time>2018-10-17T08:00:27.000Z</time>
      </trkpt>
      <trkpt lat="45.79456" lon="6.62246">
        <ele>1973</ele>
        <time>2018-10-17T08:00:32.000Z</time>
      </trkpt>
      <trkpt lat="45.79449" lon="6.62256">
        <ele>1974</ele>
        <time>2018-10-17T08:00:37.000Z</time>
      </trkpt>
      <trkpt lat="45.79444" lon="6.62268">
        <ele>1976</ele>
        <time>2018-10-17T08:00:42.000Z</time>
      </trkpt>
      <trkpt lat="45.79439" lon="6.62298">
        <ele>1975</ele>
        <time>2018-10-17T08:00:53.000Z</time>
      </trkpt>
      <trkpt lat="45.7944" lon="6.62311">
        <ele>1973</ele>
        <time>2018-10-17T08:00:57.000Z</time>
      </trkpt>
      <trkpt lat="45.79442" lon="6.62324">
        <ele>1972</ele>
        <time>2018-10-17T08:01:01.000Z</time>
      </trkpt>
      <trkpt lat="45.79443" lon="6.62337">
        <ele>1971</ele>
        <time>2018-10-17T08:01:05.000Z</time>
      </trkpt>
      <trkpt lat="45.79443" lon="6.62352">
        <ele>1971</ele>
        <time>2018-10-17T08:01:10.000Z</time>
      </trkpt>
      <trkpt lat="45.79446" lon="6.62381">
        <ele>1970</ele>
        <time>2018-10-17T08:01:20.000Z</time>
      </trkpt>
      <trkpt lat="45.79447" lon="6.62411">
        <ele>1969</ele>
        <time>2018-10-17T08:01:30.000Z</time>
      </trkpt>
      <trkpt lat="45.79446" lon="6.62437">
        <ele>1967</ele>
        <time>2018-10-17T08:01:38.000Z</time>
      </trkpt>
      <trkpt lat="45.7945" lon="6.6245">
        <ele>1966</ele>
        <time>2018-10-17T08:01:42.000Z</time>
      </trkpt>
      <trkpt lat="45.79455" lon="6.62461">
        <ele>1965</ele>
        <time>2018-10-17T08:01:46.000Z</time>
      </trkpt>
      <trkpt lat="45.79475" lon="6.62492">
        <ele>1964</ele>
        <time>2018-10-17T08:02:14.000Z</time>
      </trkpt>
      <trkpt lat="45.79491" lon="6.62525">
        <ele>1961</ele>
        <time>2018-10-17T08:02:36.000Z</time>
      </trkpt>
      <trkpt lat="45.79495" lon="6.62537">
        <ele>1961</ele>
        <time>2018-10-17T08:02:44.000Z</time>
      </trkpt>
      <trkpt lat="45.79496" lon="6.62551">
        <ele>1960</ele>
        <time>2018-10-17T08:02:52.000Z</time>
      </trkpt>
      <trkpt lat="45.79498" lon="6.62564">
        <ele>1959</ele>
        <time>2018-10-17T08:02:59.000Z</time>
      </trkpt>
      <trkpt lat="45.79499" lon="6.62592">
        <ele>1957</ele>
        <time>2018-10-17T08:03:15.000Z</time>
      </trkpt>
      <trkpt lat="45.79495" lon="6.62603">
        <ele>1957</ele>
        <time>2018-10-17T08:03:23.000Z</time>
      </trkpt>
      <trkpt lat="45.79492" lon="6.62616">
        <ele>1956</ele>
        <time>2018-10-17T08:03:32.000Z</time>
      </trkpt>
      <trkpt lat="45.79494" lon="6.62629">
        <ele>1956</ele>
        <time>2018-10-17T08:03:40.000Z</time>
      </trkpt>
      <trkpt lat="45.79492" lon="6.62642">
        <ele>1955</ele>
        <time>2018-10-17T08:03:49.000Z</time>
      </trkpt>
      <trkpt lat="45.79492" lon="6.62656">
        <ele>1954</ele>
        <time>2018-10-17T08:03:59.000Z</time>
      </trkpt>
      <trkpt lat="45.7949" lon="6.62668">
        <ele>1951</ele>
        <time>2018-10-17T08:04:09.000Z</time>
      </trkpt>
      <trkpt lat="45.79482" lon="6.62676">
        <ele>1949</ele>
        <time>2018-10-17T08:04:18.000Z</time>
      </trkpt>
      <trkpt lat="45.79479" lon="6.62687">
        <ele>1948</ele>
        <time>2018-10-17T08:04:26.000Z</time>
      </trkpt>
      <trkpt lat="45.79475" lon="6.62699">
        <ele>1946</ele>
        <time>2018-10-17T08:04:34.000Z</time>
      </trkpt>
      <trkpt lat="45.79474" lon="6.62714">
        <ele>1947</ele>
        <time>2018-10-17T08:04:44.000Z</time>
      </trkpt>
      <trkpt lat="45.79471" lon="6.62726">
        <ele>1947</ele>
        <time>2018-10-17T08:04:52.000Z</time>
      </trkpt>
      <trkpt lat="45.79471" lon="6.62739">
        <ele>1946</ele>
        <time>2018-10-17T08:05:00.000Z</time>
      </trkpt>
      <trkpt lat="45.79469" lon="6.62753">
        <ele>1946</ele>
        <time>2018-10-17T08:05:08.000Z</time>
      </trkpt>
      <trkpt lat="45.7946" lon="6.62791">
        <ele>1946</ele>
        <time>2018-10-17T08:05:33.000Z</time>
      </trkpt>
      <trkpt lat="45.79451" lon="6.62813">
        <ele>1945</ele>
        <time>2018-10-17T08:05:49.000Z</time>
      </trkpt>
      <trkpt lat="45.79447" lon="6.62827">
        <ele>1945</ele>
        <time>2018-10-17T08:05:57.000Z</time>
      </trkpt>
      <trkpt lat="45.79447" lon="6.62842">
        <ele>1945</ele>
        <time>2018-10-17T08:06:05.000Z</time>
      </trkpt>
      <trkpt lat="45.79449" lon="6.62855">
        <ele>1944</ele>
        <time>2018-10-17T08:06:13.000Z</time>
      </trkpt>
      <trkpt lat="45.79451" lon="6.62867">
        <ele>1943</ele>
        <time>2018-10-17T08:06:21.000Z</time>
      </trkpt>
      <trkpt lat="45.7945" lon="6.62881">
        <ele>1943</ele>
        <time>2018-10-17T08:06:29.000Z</time>
      </trkpt>
      <trkpt lat="45.79449" lon="6.62908">
        <ele>1941</ele>
        <time>2018-10-17T08:06:46.000Z</time>
      </trkpt>
      <trkpt lat="45.79449" lon="6.62922">
        <ele>1941</ele>
        <time>2018-10-17T08:06:54.000Z</time>
      </trkpt>
      <trkpt lat="45.79448" lon="6.62936">
        <ele>1940</ele>
        <time>2018-10-17T08:07:01.000Z</time>
      </trkpt>
      <trkpt lat="45.79439" lon="6.62972">
        <ele>1943</ele>
        <time>2018-10-17T08:07:26.000Z</time>
      </trkpt>
      <trkpt lat="45.79436" lon="6.62986">
        <ele>1943</ele>
        <time>2018-10-17T08:07:35.000Z</time>
      </trkpt>
      <trkpt lat="45.79439" lon="6.63">
        <ele>1943</ele>
        <time>2018-10-17T08:07:44.000Z</time>
      </trkpt>
      <trkpt lat="45.79444" lon="6.63012">
        <ele>1945</ele>
        <time>2018-10-17T08:07:54.000Z</time>
      </trkpt>
      <trkpt lat="45.79448" lon="6.63023">
        <ele>1946</ele>
        <time>2018-10-17T08:08:04.000Z</time>
      </trkpt>
      <trkpt lat="45.79453" lon="6.63035">
        <ele>1946</ele>
        <time>2018-10-17T08:08:13.000Z</time>
      </trkpt>
      <trkpt lat="45.79452" lon="6.63042">
        <ele>1947</ele>
        <time>2018-10-17T08:08:23.000Z</time>
      </trkpt>
      <trkpt lat="45.79444" lon="6.63041">
        <ele>1947</ele>
        <time>2018-10-17T08:08:30.000Z</time>
      </trkpt>
      <trkpt lat="45.79437" lon="6.63047">
        <ele>1946</ele>
        <time>2018-10-17T08:08:39.000Z</time>
      </trkpt>
      <trkpt lat="45.79434" lon="6.6306">
        <ele>1946</ele>
        <time>2018-10-17T08:08:49.000Z</time>
      </trkpt>
      <trkpt lat="45.79428" lon="6.63069">
        <ele>1946</ele>
        <time>2018-10-17T08:08:59.000Z</time>
      </trkpt>
      <trkpt lat="45.79421" lon="6.63076">
        <ele>1947</ele>
        <time>2018-10-17T08:09:08.000Z</time>
      </trkpt>
      <trkpt lat="45.79404" lon="6.63107">
        <ele>1954</ele>
        <time>2018-10-17T08:09:47.000Z</time>
      </trkpt>
      <trkpt lat="45.79397" lon="6.63116">
        <ele>1956</ele>
        <time>2018-10-17T08:10:02.000Z</time>
      </trkpt>
      <trkpt lat="45.79388" lon="6.63138">
        <ele>1958</ele>
        <time>2018-10-17T08:10:25.000Z</time>
      </trkpt>
      <trkpt lat="45.79385" lon="6.6315">
        <ele>1959</ele>
        <time>2018-10-17T08:10:34.000Z</time>
      </trkpt>
      <trkpt lat="45.79384" lon="6.63164">
        <ele>1959</ele>
        <time>2018-10-17T08:10:45.000Z</time>
      </trkpt>
      <trkpt lat="45.79381" lon="6.63175">
        <ele>1959</ele>
        <time>2018-10-17T08:10:54.000Z</time>
      </trkpt>
      <trkpt lat="45.79373" lon="6.63198">
        <ele>1960</ele>
        <time>2018-10-17T08:11:15.000Z</time>
      </trkpt>
      <trkpt lat="45.79367" lon="6.6321">
        <ele>1961</ele>
        <time>2018-10-17T08:11:25.000Z</time>
      </trkpt>
      <trkpt lat="45.79365" lon="6.63223">
        <ele>1962</ele>
        <time>2018-10-17T08:11:36.000Z</time>
      </trkpt>
      <trkpt lat="45.79363" lon="6.6325">
        <ele>1962</ele>
        <time>2018-10-17T08:11:57.000Z</time>
      </trkpt>
      <trkpt lat="45.79364" lon="6.63262">
        <ele>1962</ele>
        <time>2018-10-17T08:12:06.000Z</time>
      </trkpt>
      <trkpt lat="45.79371" lon="6.63303">
        <ele>1959</ele>
        <time>2018-10-17T08:12:31.000Z</time>
      </trkpt>
      <trkpt lat="45.79379" lon="6.63328">
        <ele>1959</ele>
        <time>2018-10-17T08:12:48.000Z</time>
      </trkpt>
      <trkpt lat="45.79384" lon="6.6334">
        <ele>1959</ele>
        <time>2018-10-17T08:12:59.000Z</time>
      </trkpt>
      <trkpt lat="45.79387" lon="6.63354">
        <ele>1959</ele>
        <time>2018-10-17T08:13:08.000Z</time>
      </trkpt>
      <trkpt lat="45.79389" lon="6.63366">
        <ele>1959</ele>
        <time>2018-10-17T08:13:17.000Z</time>
      </trkpt>
      <trkpt lat="45.79396" lon="6.6339">
        <ele>1959</ele>
        <time>2018-10-17T08:13:35.000Z</time>
      </trkpt>
      <trkpt lat="45.79402" lon="6.63401">
        <ele>1959</ele>
        <time>2018-10-17T08:13:44.000Z</time>
      </trkpt>
      <trkpt lat="45.79409" lon="6.63413">
        <ele>1959</ele>
        <time>2018-10-17T08:13:53.000Z</time>
      </trkpt>
      <trkpt lat="45.79416" lon="6.63421">
        <ele>1959</ele>
        <time>2018-10-17T08:14:02.000Z</time>
      </trkpt>
      <trkpt lat="45.79423" lon="6.63429">
        <ele>1960</ele>
        <time>2018-10-17T08:14:12.000Z</time>
      </trkpt>
      <trkpt lat="45.79428" lon="6.63439">
        <ele>1959</ele>
        <time>2018-10-17T08:14:21.000Z</time>
      </trkpt>
      <trkpt lat="45.79432" lon="6.63452">
        <ele>1959</ele>
        <time>2018-10-17T08:14:30.000Z</time>
      </trkpt>
      <trkpt lat="45.79441" lon="6.63461">
        <ele>1958</ele>
        <time>2018-10-17T08:14:39.000Z</time>
      </trkpt>
      <trkpt lat="45.79448" lon="6.63471">
        <ele>1958</ele>
        <time>2018-10-17T08:14:49.000Z</time>
      </trkpt>
      <trkpt lat="45.7945" lon="6.63485">
        <ele>1958</ele>
        <time>2018-10-17T08:14:58.000Z</time>
      </trkpt>
      <trkpt lat="45.79453" lon="6.63498">
        <ele>1958</ele>
        <time>2018-10-17T08:15:06.000Z</time>
      </trkpt>
      <trkpt lat="45.79453" lon="6.63511">
        <ele>1958</ele>
        <time>2018-10-17T08:15:14.000Z</time>
      </trkpt>
      <trkpt lat="45.79454" lon="6.63524">
        <ele>1957</ele>
        <time>2018-10-17T08:15:23.000Z</time>
      </trkpt>
      <trkpt lat="45.79447" lon="6.63533">
        <ele>1956</ele>
        <time>2018-10-17T08:15:32.000Z</time>
      </trkpt>
      <trkpt lat="45.79447" lon="6.63546">
        <ele>1954</ele>
        <time>2018-10-17T08:15:40.000Z</time>
      </trkpt>
      <trkpt lat="45.79451" lon="6.63556">
        <ele>1954</ele>
        <time>2018-10-17T08:15:48.000Z</time>
      </trkpt>
      <trkpt lat="45.79455" lon="6.63569">
        <ele>1954</ele>
        <time>2018-10-17T08:15:57.000Z</time>
      </trkpt>
      <trkpt lat="45.79458" lon="6.63581">
        <ele>1953</ele>
        <time>2018-10-17T08:16:05.000Z</time>
      </trkpt>
      <trkpt lat="45.79467" lon="6.63608">
        <ele>1953</ele>
        <time>2018-10-17T08:16:22.000Z</time>
      </trkpt>
      <trkpt lat="45.79469" lon="6.63621">
        <ele>1952</ele>
        <time>2018-10-17T08:16:29.000Z</time>
      </trkpt>
      <trkpt lat="45.79477" lon="6.63647">
        <ele>1951</ele>
        <time>2018-10-17T08:16:39.000Z</time>
      </trkpt>
      <trkpt lat="45.79483" lon="6.6366">
        <ele>1951</ele>
        <time>2018-10-17T08:16:44.000Z</time>
      </trkpt>
      <trkpt lat="45.79488" lon="6.63672">
        <ele>1951</ele>
        <time>2018-10-17T08:16:49.000Z</time>
      </trkpt>
      <trkpt lat="45.79491" lon="6.63684">
        <ele>1951</ele>
        <time>2018-10-17T08:16:54.000Z</time>
      </trkpt>
      <trkpt lat="45.79497" lon="6.63694">
        <ele>1951</ele>
        <time>2018-10-17T08:16:59.000Z</time>
      </trkpt>
      <trkpt lat="45.79501" lon="6.63706">
        <ele>1950</ele>
        <time>2018-10-17T08:17:04.000Z</time>
      </trkpt>
      <trkpt lat="45.79507" lon="6.63718">
        <ele>1951</ele>
        <time>2018-10-17T08:17:10.000Z</time>
      </trkpt>
      <trkpt lat="45.79506" lon="6.63733">
        <ele>1951</ele>
        <time>2018-10-17T08:17:16.000Z</time>
      </trkpt>
      <trkpt lat="45.7951" lon="6.63745">
        <ele>1950</ele>
        <time>2018-10-17T08:17:21.000Z</time>
      </trkpt>
      <trkpt lat="45.79514" lon="6.63759">
        <ele>1949</ele>
        <time>2018-10-17T08:17:26.000Z</time>
      </trkpt>
      <trkpt lat="45.79518" lon="6.63772">
        <ele>1950</ele>
        <time>2018-10-17T08:17:31.000Z</time>
      </trkpt>
      <trkpt lat="45.79517" lon="6.63786">
        <ele>1951</ele>
        <time>2018-10-17T08:17:36.000Z</time>
      </trkpt>
      <trkpt lat="45.79514" lon="6.638">
        <ele>1950</ele>
        <time>2018-10-17T08:17:41.000Z</time>
      </trkpt>
      <trkpt lat="45.79513" lon="6.63814">
        <ele>1951</ele>
        <time>2018-10-17T08:17:46.000Z</time>
      </trkpt>
      <trkpt lat="45.79508" lon="6.63828">
        <ele>1951</ele>
        <time>2018-10-17T08:17:52.000Z</time>
      </trkpt>
      <trkpt lat="45.79504" lon="6.6384">
        <ele>1951</ele>
        <time>2018-10-17T08:17:58.000Z</time>
      </trkpt>
      <trkpt lat="45.79502" lon="6.63853">
        <ele>1952</ele>
        <time>2018-10-17T08:18:04.000Z</time>
      </trkpt>
      <trkpt lat="45.79502" lon="6.63867">
        <ele>1949</ele>
        <time>2018-10-17T08:18:11.000Z</time>
      </trkpt>
      <trkpt lat="45.795" lon="6.6388">
        <ele>1949</ele>
        <time>2018-10-17T08:18:16.000Z</time>
      </trkpt>
      <trkpt lat="45.79501" lon="6.63895">
        <ele>1949</ele>
        <time>2018-10-17T08:18:21.000Z</time>
      </trkpt>
      <trkpt lat="45.79506" lon="6.63907">
        <ele>1950</ele>
        <time>2018-10-17T08:18:26.000Z</time>
      </trkpt>
      <trkpt lat="45.79508" lon="6.63922">
        <ele>1949</ele>
        <time>2018-10-17T08:18:31.000Z</time>
      </trkpt>
      <trkpt lat="45.79504" lon="6.63935">
        <ele>1949</ele>
        <time>2018-10-17T08:18:36.000Z</time>
      </trkpt>
      <trkpt lat="45.79502" lon="6.63949">
        <ele>1948</ele>
        <time>2018-10-17T08:18:41.000Z</time>
      </trkpt>
      <trkpt lat="45.79509" lon="6.63977">
        <ele>1946</ele>
        <time>2018-10-17T08:18:51.000Z</time>
      </trkpt>
      <trkpt lat="45.79509" lon="6.63992">
        <ele>1947</ele>
        <time>2018-10-17T08:18:57.000Z</time>
      </trkpt>
      <trkpt lat="45.79515" lon="6.64018">
        <ele>1946</ele>
        <time>2018-10-17T08:19:07.000Z</time>
      </trkpt>
      <trkpt lat="45.79512" lon="6.6403">
        <ele>1946</ele>
        <time>2018-10-17T08:19:11.000Z</time>
      </trkpt>
      <trkpt lat="45.79507" lon="6.64044">
        <ele>1945</ele>
        <time>2018-10-17T08:19:16.000Z</time>
      </trkpt>
      <trkpt lat="45.795" lon="6.64055">
        <ele>1944</ele>
        <time>2018-10-17T08:19:21.000Z</time>
      </trkpt>
      <trkpt lat="45.79491" lon="6.64062">
        <ele>1944</ele>
        <time>2018-10-17T08:19:26.000Z</time>
      </trkpt>
      <trkpt lat="45.79484" lon="6.64071">
        <ele>1944</ele>
        <time>2018-10-17T08:19:31.000Z</time>
      </trkpt>
      <trkpt lat="45.79478" lon="6.64083">
        <ele>1943</ele>
        <time>2018-10-17T08:19:36.000Z</time>
      </trkpt>
      <trkpt lat="45.79474" lon="6.64097">
        <ele>1942</ele>
        <time>2018-10-17T08:19:41.000Z</time>
      </trkpt>
      <trkpt lat="45.79469" lon="6.64107">
        <ele>1941</ele>
        <time>2018-10-17T08:19:45.000Z</time>
      </trkpt>
      <trkpt lat="45.79464" lon="6.6412">
        <ele>1940</ele>
        <time>2018-10-17T08:19:50.000Z</time>
      </trkpt>
      <trkpt lat="45.79462" lon="6.64136">
        <ele>1939</ele>
        <time>2018-10-17T08:19:55.000Z</time>
      </trkpt>
      <trkpt lat="45.79466" lon="6.64149">
        <ele>1939</ele>
        <time>2018-10-17T08:20:00.000Z</time>
      </trkpt>
      <trkpt lat="45.79473" lon="6.64161">
        <ele>1938</ele>
        <time>2018-10-17T08:20:05.000Z</time>
      </trkpt>
      <trkpt lat="45.79483" lon="6.64168">
        <ele>1937</ele>
        <time>2018-10-17T08:20:10.000Z</time>
      </trkpt>
      <trkpt lat="45.79495" lon="6.64169">
        <ele>1936</ele>
        <time>2018-10-17T08:20:15.000Z</time>
      </trkpt>
      <trkpt lat="45.79506" lon="6.64169">
        <ele>1935</ele>
        <time>2018-10-17T08:20:20.000Z</time>
      </trkpt>
      <trkpt lat="45.79515" lon="6.64172">
        <ele>1935</ele>
        <time>2018-10-17T08:20:24.000Z</time>
      </trkpt>
      <trkpt lat="45.79522" lon="6.64181">
        <ele>1934</ele>
        <time>2018-10-17T08:20:28.000Z</time>
      </trkpt>
      <trkpt lat="45.79524" lon="6.64193">
        <ele>1933</ele>
        <time>2018-10-17T08:20:32.000Z</time>
      </trkpt>
      <trkpt lat="45.7952" lon="6.64206">
        <ele>1932</ele>
        <time>2018-10-17T08:20:36.000Z</time>
      </trkpt>
      <trkpt lat="45.79512" lon="6.64217">
        <ele>1932</ele>
        <time>2018-10-17T08:20:41.000Z</time>
      </trkpt>
      <trkpt lat="45.79496" lon="6.64229">
        <ele>1930</ele>
        <time>2018-10-17T08:20:49.000Z</time>
      </trkpt>
      <trkpt lat="45.79488" lon="6.64239">
        <ele>1929</ele>
        <time>2018-10-17T08:20:54.000Z</time>
      </trkpt>
      <trkpt lat="45.79487" lon="6.64254">
        <ele>1929</ele>
        <time>2018-10-17T08:20:59.000Z</time>
      </trkpt>
      <trkpt lat="45.79494" lon="6.64268">
        <ele>1928</ele>
        <time>2018-10-17T08:21:04.000Z</time>
      </trkpt>
      <trkpt lat="45.79501" lon="6.64275">
        <ele>1928</ele>
        <time>2018-10-17T08:21:08.000Z</time>
      </trkpt>
      <trkpt lat="45.7951" lon="6.64276">
        <ele>1928</ele>
        <time>2018-10-17T08:21:12.000Z</time>
      </trkpt>
      <trkpt lat="45.79518" lon="6.64286">
        <ele>1927</ele>
        <time>2018-10-17T08:21:17.000Z</time>
      </trkpt>
      <trkpt lat="45.79514" lon="6.64297">
        <ele>1926</ele>
        <time>2018-10-17T08:21:22.000Z</time>
      </trkpt>
      <trkpt lat="45.79493" lon="6.64299">
        <ele>1923</ele>
        <time>2018-10-17T08:21:31.000Z</time>
      </trkpt>
      <trkpt lat="45.79484" lon="6.64302">
        <ele>1922</ele>
        <time>2018-10-17T08:21:35.000Z</time>
      </trkpt>
      <trkpt lat="45.79474" lon="6.64299">
        <ele>1921</ele>
        <time>2018-10-17T08:21:40.000Z</time>
      </trkpt>
      <trkpt lat="45.79464" lon="6.64292">
        <ele>1920</ele>
        <time>2018-10-17T08:21:45.000Z</time>
      </trkpt>
      <trkpt lat="45.79459" lon="6.64292">
        <ele>1919</ele>
        <time>2018-10-17T08:21:52.000Z</time>
      </trkpt>
      <trkpt lat="45.79462" lon="6.64306">
        <ele>1917</ele>
        <time>2018-10-17T08:22:00.000Z</time>
      </trkpt>
      <trkpt lat="45.79468" lon="6.64318">
        <ele>1916</ele>
        <time>2018-10-17T08:22:05.000Z</time>
      </trkpt>
      <trkpt lat="45.79475" lon="6.64328">
        <ele>1915</ele>
        <time>2018-10-17T08:22:09.000Z</time>
      </trkpt>
      <trkpt lat="45.79481" lon="6.64341">
        <ele>1914</ele>
        <time>2018-10-17T08:22:14.000Z</time>
      </trkpt>
      <trkpt lat="45.79488" lon="6.64353">
        <ele>1912</ele>
        <time>2018-10-17T08:22:19.000Z</time>
      </trkpt>
      <trkpt lat="45.79498" lon="6.64358">
        <ele>1911</ele>
        <time>2018-10-17T08:22:24.000Z</time>
      </trkpt>
      <trkpt lat="45.79509" lon="6.6436">
        <ele>1909</ele>
        <time>2018-10-17T08:22:29.000Z</time>
      </trkpt>
      <trkpt lat="45.79513" lon="6.64371">
        <ele>1908</ele>
        <time>2018-10-17T08:22:34.000Z</time>
      </trkpt>
      <trkpt lat="45.79515" lon="6.64382">
        <ele>1909</ele>
        <time>2018-10-17T08:22:40.000Z</time>
      </trkpt>
      <trkpt lat="45.79529" lon="6.64419">
        <ele>1903</ele>
        <time>2018-10-17T08:22:55.000Z</time>
      </trkpt>
      <trkpt lat="45.79536" lon="6.64428">
        <ele>1901</ele>
        <time>2018-10-17T08:23:00.000Z</time>
      </trkpt>
      <trkpt lat="45.79542" lon="6.6444">
        <ele>1899</ele>
        <time>2018-10-17T08:23:05.000Z</time>
      </trkpt>
      <trkpt lat="45.79541" lon="6.64453">
        <ele>1897</ele>
        <time>2018-10-17T08:23:10.000Z</time>
      </trkpt>
      <trkpt lat="45.79541" lon="6.64464">
        <ele>1894</ele>
        <time>2018-10-17T08:23:16.000Z</time>
      </trkpt>
      <trkpt lat="45.79545" lon="6.64477">
        <ele>1894</ele>
        <time>2018-10-17T08:23:22.000Z</time>
      </trkpt>
      <trkpt lat="45.79547" lon="6.64491">
        <ele>1892</ele>
        <time>2018-10-17T08:23:27.000Z</time>
      </trkpt>
      <trkpt lat="45.79549" lon="6.64503">
        <ele>1892</ele>
        <time>2018-10-17T08:23:31.000Z</time>
      </trkpt>
      <trkpt lat="45.79558" lon="6.64529">
        <ele>1890</ele>
        <time>2018-10-17T08:23:41.000Z</time>
      </trkpt>
      <trkpt lat="45.79562" lon="6.64541">
        <ele>1890</ele>
        <time>2018-10-17T08:23:46.000Z</time>
      </trkpt>
      <trkpt lat="45.79566" lon="6.64557">
        <ele>1888</ele>
        <time>2018-10-17T08:23:52.000Z</time>
      </trkpt>
      <trkpt lat="45.79568" lon="6.6457">
        <ele>1888</ele>
        <time>2018-10-17T08:23:57.000Z</time>
      </trkpt>
      <trkpt lat="45.79571" lon="6.64584">
        <ele>1886</ele>
        <time>2018-10-17T08:24:02.000Z</time>
      </trkpt>
      <trkpt lat="45.79572" lon="6.64598">
        <ele>1884</ele>
        <time>2018-10-17T08:24:07.000Z</time>
      </trkpt>
      <trkpt lat="45.7957" lon="6.64611">
        <ele>1882</ele>
        <time>2018-10-17T08:24:12.000Z</time>
      </trkpt>
      <trkpt lat="45.79561" lon="6.64618">
        <ele>1880</ele>
        <time>2018-10-17T08:24:17.000Z</time>
      </trkpt>
      <trkpt lat="45.79552" lon="6.64624">
        <ele>1878</ele>
        <time>2018-10-17T08:24:22.000Z</time>
      </trkpt>
      <trkpt lat="45.79545" lon="6.64632">
        <ele>1878</ele>
        <time>2018-10-17T08:24:27.000Z</time>
      </trkpt>
      <trkpt lat="45.7954" lon="6.64643">
        <ele>1877</ele>
        <time>2018-10-17T08:24:31.000Z</time>
      </trkpt>
      <trkpt lat="45.79535" lon="6.64655">
        <ele>1876</ele>
        <time>2018-10-17T08:24:36.000Z</time>
      </trkpt>
      <trkpt lat="45.79526" lon="6.64683">
        <ele>1873</ele>
        <time>2018-10-17T08:24:46.000Z</time>
      </trkpt>
      <trkpt lat="45.7952" lon="6.64696">
        <ele>1871</ele>
        <time>2018-10-17T08:24:51.000Z</time>
      </trkpt>
      <trkpt lat="45.79512" lon="6.64705">
        <ele>1869</ele>
        <time>2018-10-17T08:24:56.000Z</time>
      </trkpt>
      <trkpt lat="45.79503" lon="6.64711">
        <ele>1867</ele>
        <time>2018-10-17T08:25:01.000Z</time>
      </trkpt>
      <trkpt lat="45.79495" lon="6.6472">
        <ele>1866</ele>
        <time>2018-10-17T08:25:06.000Z</time>
      </trkpt>
      <trkpt lat="45.79488" lon="6.64731">
        <ele>1863</ele>
        <time>2018-10-17T08:25:11.000Z</time>
      </trkpt>
      <trkpt lat="45.79481" lon="6.64741">
        <ele>1860</ele>
        <time>2018-10-17T08:25:17.000Z</time>
      </trkpt>
      <trkpt lat="45.79476" lon="6.64751">
        <ele>1857</ele>
        <time>2018-10-17T08:25:22.000Z</time>
      </trkpt>
      <trkpt lat="45.79466" lon="6.64759">
        <ele>1855</ele>
        <time>2018-10-17T08:25:28.000Z</time>
      </trkpt>
      <trkpt lat="45.79463" lon="6.64771">
        <ele>1853</ele>
        <time>2018-10-17T08:25:32.000Z</time>
      </trkpt>
      <trkpt lat="45.79457" lon="6.64783">
        <ele>1852</ele>
        <time>2018-10-17T08:25:36.000Z</time>
      </trkpt>
      <trkpt lat="45.79454" lon="6.64795">
        <ele>1852</ele>
        <time>2018-10-17T08:25:40.000Z</time>
      </trkpt>
      <trkpt lat="45.79452" lon="6.64808">
        <ele>1852</ele>
        <time>2018-10-17T08:25:44.000Z</time>
      </trkpt>
      <trkpt lat="45.79449" lon="6.6482">
        <ele>1852</ele>
        <time>2018-10-17T08:25:49.000Z</time>
      </trkpt>
      <trkpt lat="45.79435" lon="6.6484">
        <ele>1852</ele>
        <time>2018-10-17T08:25:59.000Z</time>
      </trkpt>
      <trkpt lat="45.79425" lon="6.64846">
        <ele>1852</ele>
        <time>2018-10-17T08:26:04.000Z</time>
      </trkpt>
      <trkpt lat="45.79418" lon="6.64856">
        <ele>1852</ele>
        <time>2018-10-17T08:26:09.000Z</time>
      </trkpt>
      <trkpt lat="45.79413" lon="6.64868">
        <ele>1852</ele>
        <time>2018-10-17T08:26:14.000Z</time>
      </trkpt>
      <trkpt lat="45.794" lon="6.64891">
        <ele>1853</ele>
        <time>2018-10-17T08:26:24.000Z</time>
      </trkpt>
      <trkpt lat="45.79394" lon="6.64902">
        <ele>1854</ele>
        <time>2018-10-17T08:26:29.000Z</time>
      </trkpt>
      <trkpt lat="45.79388" lon="6.64928">
        <ele>1852</ele>
        <time>2018-10-17T08:26:42.000Z</time>
      </trkpt>
      <trkpt lat="45.79389" lon="6.6494">
        <ele>1847</ele>
        <time>2018-10-17T08:26:49.000Z</time>
      </trkpt>
      <trkpt lat="45.79384" lon="6.6495">
        <ele>1844</ele>
        <time>2018-10-17T08:26:56.000Z</time>
      </trkpt>
      <trkpt lat="45.79377" lon="6.64958">
        <ele>1839</ele>
        <time>2018-10-17T08:27:04.000Z</time>
      </trkpt>
      <trkpt lat="45.7938" lon="6.64966">
        <ele>1837</ele>
        <time>2018-10-17T08:27:10.000Z</time>
      </trkpt>
      <trkpt lat="45.79387" lon="6.64977">
        <ele>1838</ele>
        <time>2018-10-17T08:27:16.000Z</time>
      </trkpt>
      <trkpt lat="45.79392" lon="6.64984">
        <ele>1839</ele>
        <time>2018-10-17T08:27:26.000Z</time>
      </trkpt>
      <trkpt lat="45.79386" lon="6.6499">
        <ele>1840</ele>
        <time>2018-10-17T08:27:34.000Z</time>
      </trkpt>
      <trkpt lat="45.79378" lon="6.64994">
        <ele>1839</ele>
        <time>2018-10-17T08:27:43.000Z</time>
      </trkpt>
      <trkpt lat="45.79372" lon="6.65005">
        <ele>1840</ele>
        <time>2018-10-17T08:30:43.000Z</time>
      </trkpt>
      <trkpt lat="45.79365" lon="6.65012">
        <ele>1843</ele>
        <time>2018-10-17T08:30:57.000Z</time>
      </trkpt>
      <trkpt lat="45.79356" lon="6.65012">
        <ele>1844</ele>
        <time>2018-10-17T08:31:09.000Z</time>
      </trkpt>
      <trkpt lat="45.79348" lon="6.6502">
        <ele>1844</ele>
        <time>2018-10-17T08:31:16.000Z</time>
      </trkpt>
      <trkpt lat="45.7934" lon="6.65031">
        <ele>1844</ele>
        <time>2018-10-17T08:31:21.000Z</time>
      </trkpt>
      <trkpt lat="45.7933" lon="6.65029">
        <ele>1845</ele>
        <time>2018-10-17T08:31:27.000Z</time>
      </trkpt>
      <trkpt lat="45.7932" lon="6.65026">
        <ele>1845</ele>
        <time>2018-10-17T08:31:32.000Z</time>
      </trkpt>
      <trkpt lat="45.79299" lon="6.65026">
        <ele>1845</ele>
        <time>2018-10-17T08:31:54.000Z</time>
      </trkpt>
      <trkpt lat="45.79292" lon="6.65034">
        <ele>1842</ele>
        <time>2018-10-17T08:31:59.000Z</time>
      </trkpt>
      <trkpt lat="45.79284" lon="6.65044">
        <ele>1842</ele>
        <time>2018-10-17T08:32:04.000Z</time>
      </trkpt>
      <trkpt lat="45.79264" lon="6.65058">
        <ele>1841</ele>
        <time>2018-10-17T08:32:14.000Z</time>
      </trkpt>
      <trkpt lat="45.79248" lon="6.65073">
        <ele>1838</ele>
        <time>2018-10-17T08:32:23.000Z</time>
      </trkpt>
      <trkpt lat="45.7924" lon="6.65082">
        <ele>1837</ele>
        <time>2018-10-17T08:32:27.000Z</time>
      </trkpt>
      <trkpt lat="45.79231" lon="6.65086">
        <ele>1836</ele>
        <time>2018-10-17T08:32:31.000Z</time>
      </trkpt>
      <trkpt lat="45.79223" lon="6.65092">
        <ele>1835</ele>
        <time>2018-10-17T08:32:35.000Z</time>
      </trkpt>
      <trkpt lat="45.79207" lon="6.65105">
        <ele>1833</ele>
        <time>2018-10-17T08:32:43.000Z</time>
      </trkpt>
      <trkpt lat="45.79196" lon="6.6511">
        <ele>1833</ele>
        <time>2018-10-17T08:32:48.000Z</time>
      </trkpt>
      <trkpt lat="45.79186" lon="6.65115">
        <ele>1831</ele>
        <time>2018-10-17T08:32:53.000Z</time>
      </trkpt>
      <trkpt lat="45.79152" lon="6.65152">
        <ele>1827</ele>
        <time>2018-10-17T08:33:13.000Z</time>
      </trkpt>
      <trkpt lat="45.79146" lon="6.65163">
        <ele>1826</ele>
        <time>2018-10-17T08:33:17.000Z</time>
      </trkpt>
      <trkpt lat="45.79141" lon="6.65176">
        <ele>1825</ele>
        <time>2018-10-17T08:33:22.000Z</time>
      </trkpt>
      <trkpt lat="45.79133" lon="6.6518">
        <ele>1825</ele>
        <time>2018-10-17T08:33:27.000Z</time>
      </trkpt>
      <trkpt lat="45.79125" lon="6.65188">
        <ele>1824</ele>
        <time>2018-10-17T08:33:32.000Z</time>
      </trkpt>
      <trkpt lat="45.79116" lon="6.65194">
        <ele>1821</ele>
        <time>2018-10-17T08:33:37.000Z</time>
      </trkpt>
      <trkpt lat="45.79105" lon="6.65196">
        <ele>1819</ele>
        <time>2018-10-17T08:33:42.000Z</time>
      </trkpt>
      <trkpt lat="45.79099" lon="6.65207">
        <ele>1819</ele>
        <time>2018-10-17T08:33:47.000Z</time>
      </trkpt>
      <trkpt lat="45.79094" lon="6.65215">
        <ele>1821</ele>
        <time>2018-10-17T08:33:55.000Z</time>
      </trkpt>
      <trkpt lat="45.79084" lon="6.6522">
        <ele>1820</ele>
        <time>2018-10-17T08:34:00.000Z</time>
      </trkpt>
      <trkpt lat="45.79077" lon="6.65224">
        <ele>1820</ele>
        <time>2018-10-17T08:34:07.000Z</time>
      </trkpt>
      <trkpt lat="45.79069" lon="6.65227">
        <ele>1823</ele>
        <time>2018-10-17T08:34:16.000Z</time>
      </trkpt>
      <trkpt lat="45.79061" lon="6.65237">
        <ele>1822</ele>
        <time>2018-10-17T08:34:21.000Z</time>
      </trkpt>
      <trkpt lat="45.79056" lon="6.65251">
        <ele>1821</ele>
        <time>2018-10-17T08:34:27.000Z</time>
      </trkpt>
      <trkpt lat="45.79049" lon="6.6526">
        <ele>1820</ele>
        <time>2018-10-17T08:34:31.000Z</time>
      </trkpt>
      <trkpt lat="45.79046" lon="6.65272">
        <ele>1820</ele>
        <time>2018-10-17T08:34:36.000Z</time>
      </trkpt>
      <trkpt lat="45.79039" lon="6.65282">
        <ele>1821</ele>
        <time>2018-10-17T08:34:41.000Z</time>
      </trkpt>
      <trkpt lat="45.79031" lon="6.65289">
        <ele>1821</ele>
        <time>2018-10-17T08:34:46.000Z</time>
      </trkpt>
      <trkpt lat="45.79022" lon="6.65296">
        <ele>1821</ele>
        <time>2018-10-17T08:34:51.000Z</time>
      </trkpt>
      <trkpt lat="45.79011" lon="6.65302">
        <ele>1820</ele>
        <time>2018-10-17T08:34:56.000Z</time>
      </trkpt>
      <trkpt lat="45.78993" lon="6.65314">
        <ele>1820</ele>
        <time>2018-10-17T08:35:05.000Z</time>
      </trkpt>
      <trkpt lat="45.78983" lon="6.65319">
        <ele>1820</ele>
        <time>2018-10-17T08:35:10.000Z</time>
      </trkpt>
      <trkpt lat="45.78974" lon="6.65329">
        <ele>1820</ele>
        <time>2018-10-17T08:35:15.000Z</time>
      </trkpt>
      <trkpt lat="45.7897" lon="6.65343">
        <ele>1820</ele>
        <time>2018-10-17T08:35:20.000Z</time>
      </trkpt>
      <trkpt lat="45.78964" lon="6.65356">
        <ele>1820</ele>
        <time>2018-10-17T08:35:25.000Z</time>
      </trkpt>
      <trkpt lat="45.78958" lon="6.65368">
        <ele>1820</ele>
        <time>2018-10-17T08:35:30.000Z</time>
      </trkpt>
      <trkpt lat="45.78953" lon="6.65381">
        <ele>1819</ele>
        <time>2018-10-17T08:35:35.000Z</time>
      </trkpt>
      <trkpt lat="45.78949" lon="6.65392">
        <ele>1819</ele>
        <time>2018-10-17T08:35:40.000Z</time>
      </trkpt>
      <trkpt lat="45.78947" lon="6.65405">
        <ele>1821</ele>
        <time>2018-10-17T08:35:46.000Z</time>
      </trkpt>
      <trkpt lat="45.78944" lon="6.65419">
        <ele>1821</ele>
        <time>2018-10-17T08:35:52.000Z</time>
      </trkpt>
      <trkpt lat="45.78931" lon="6.65439">
        <ele>1823</ele>
        <time>2018-10-17T08:36:08.000Z</time>
      </trkpt>
      <trkpt lat="45.78922" lon="6.65441">
        <ele>1823</ele>
        <time>2018-10-17T08:36:17.000Z</time>
      </trkpt>
      <trkpt lat="45.78913" lon="6.65436">
        <ele>1822</ele>
        <time>2018-10-17T08:36:25.000Z</time>
      </trkpt>
      <trkpt lat="45.78902" lon="6.65442">
        <ele>1822</ele>
        <time>2018-10-17T08:36:30.000Z</time>
      </trkpt>
      <trkpt lat="45.78897" lon="6.65453">
        <ele>1825</ele>
        <time>2018-10-17T08:36:38.000Z</time>
      </trkpt>
      <trkpt lat="45.78896" lon="6.65467">
        <ele>1828</ele>
        <time>2018-10-17T08:36:50.000Z</time>
      </trkpt>
      <trkpt lat="45.78903" lon="6.65474">
        <ele>1832</ele>
        <time>2018-10-17T08:37:06.000Z</time>
      </trkpt>
      <trkpt lat="45.78912" lon="6.65477">
        <ele>1835</ele>
        <time>2018-10-17T08:37:20.000Z</time>
      </trkpt>
      <trkpt lat="45.78909" lon="6.65489">
        <ele>1838</ele>
        <time>2018-10-17T08:37:32.000Z</time>
      </trkpt>
      <trkpt lat="45.78907" lon="6.65516">
        <ele>1843</ele>
        <time>2018-10-17T08:37:53.000Z</time>
      </trkpt>
      <trkpt lat="45.78903" lon="6.65526">
        <ele>1846</ele>
        <time>2018-10-17T08:38:07.000Z</time>
      </trkpt>
      <trkpt lat="45.78907" lon="6.65534">
        <ele>1850</ele>
        <time>2018-10-17T08:38:23.000Z</time>
      </trkpt>
      <trkpt lat="45.78902" lon="6.65541">
        <ele>1853</ele>
        <time>2018-10-17T08:38:32.000Z</time>
      </trkpt>
      <trkpt lat="45.78893" lon="6.65544">
        <ele>1855</ele>
        <time>2018-10-17T08:38:41.000Z</time>
      </trkpt>
      <trkpt lat="45.78885" lon="6.65549">
        <ele>1857</ele>
        <time>2018-10-17T08:38:52.000Z</time>
      </trkpt>
      <trkpt lat="45.78879" lon="6.65562">
        <ele>1859</ele>
        <time>2018-10-17T08:39:02.000Z</time>
      </trkpt>
      <trkpt lat="45.78872" lon="6.6557">
        <ele>1862</ele>
        <time>2018-10-17T08:39:12.000Z</time>
      </trkpt>
      <trkpt lat="45.78865" lon="6.65581">
        <ele>1866</ele>
        <time>2018-10-17T08:39:25.000Z</time>
      </trkpt>
      <trkpt lat="45.78867" lon="6.65599">
        <ele>1868</ele>
        <time>2018-10-17T08:39:35.000Z</time>
      </trkpt>
      <trkpt lat="45.78879" lon="6.65601">
        <ele>1870</ele>
        <time>2018-10-17T08:39:45.000Z</time>
      </trkpt>
      <trkpt lat="45.78883" lon="6.65603">
        <ele>1873</ele>
        <time>2018-10-17T08:39:56.000Z</time>
      </trkpt>
      <trkpt lat="45.78884" lon="6.65617">
        <ele>1875</ele>
        <time>2018-10-17T08:40:06.000Z</time>
      </trkpt>
      <trkpt lat="45.78886" lon="6.65631">
        <ele>1877</ele>
        <time>2018-10-17T08:40:15.000Z</time>
      </trkpt>
      <trkpt lat="45.78892" lon="6.65659">
        <ele>1880</ele>
        <time>2018-10-17T08:40:33.000Z</time>
      </trkpt>
      <trkpt lat="45.78898" lon="6.65673">
        <ele>1882</ele>
        <time>2018-10-17T08:40:42.000Z</time>
      </trkpt>
      <trkpt lat="45.78909" lon="6.65696">
        <ele>1888</ele>
        <time>2018-10-17T08:41:03.000Z</time>
      </trkpt>
      <trkpt lat="45.78924" lon="6.65718">
        <ele>1893</ele>
        <time>2018-10-17T08:41:26.000Z</time>
      </trkpt>
      <trkpt lat="45.78933" lon="6.65725">
        <ele>1896</ele>
        <time>2018-10-17T08:41:38.000Z</time>
      </trkpt>
      <trkpt lat="45.78947" lon="6.65725">
        <ele>1900</ele>
        <time>2018-10-17T08:41:53.000Z</time>
      </trkpt>
      <trkpt lat="45.78954" lon="6.65718">
        <ele>1905</ele>
        <time>2018-10-17T08:42:09.000Z</time>
      </trkpt>
      <trkpt lat="45.78956" lon="6.65705">
        <ele>1908</ele>
        <time>2018-10-17T08:42:24.000Z</time>
      </trkpt>
      <trkpt lat="45.78982" lon="6.65695">
        <ele>1918</ele>
        <time>2018-10-17T08:43:06.000Z</time>
      </trkpt>
      <trkpt lat="45.79011" lon="6.6569">
        <ele>1927</ele>
        <time>2018-10-17T08:43:42.000Z</time>
      </trkpt>
      <trkpt lat="45.79032" lon="6.65682">
        <ele>1934</ele>
        <time>2018-10-17T08:44:11.000Z</time>
      </trkpt>
      <trkpt lat="45.79039" lon="6.65684">
        <ele>1938</ele>
        <time>2018-10-17T08:44:25.000Z</time>
      </trkpt>
      <trkpt lat="45.79049" lon="6.65684">
        <ele>1941</ele>
        <time>2018-10-17T08:44:39.000Z</time>
      </trkpt>
      <trkpt lat="45.79058" lon="6.65688">
        <ele>1945</ele>
        <time>2018-10-17T08:44:52.000Z</time>
      </trkpt>
      <trkpt lat="45.79077" lon="6.65695">
        <ele>1954</ele>
        <time>2018-10-17T08:45:27.000Z</time>
      </trkpt>
      <trkpt lat="45.79086" lon="6.657">
        <ele>1958</ele>
        <time>2018-10-17T08:45:44.000Z</time>
      </trkpt>
      <trkpt lat="45.79094" lon="6.65708">
        <ele>1962</ele>
        <time>2018-10-17T08:45:56.000Z</time>
      </trkpt>
      <trkpt lat="45.79103" lon="6.65714">
        <ele>1964</ele>
        <time>2018-10-17T08:46:06.000Z</time>
      </trkpt>
      <trkpt lat="45.79112" lon="6.65718">
        <ele>1966</ele>
        <time>2018-10-17T08:46:16.000Z</time>
      </trkpt>
      <trkpt lat="45.79133" lon="6.65716">
        <ele>1970</ele>
        <time>2018-10-17T08:46:36.000Z</time>
      </trkpt>
      <trkpt lat="45.79141" lon="6.6572">
        <ele>1972</ele>
        <time>2018-10-17T08:46:45.000Z</time>
      </trkpt>
      <trkpt lat="45.7915" lon="6.65727">
        <ele>1975</ele>
        <time>2018-10-17T08:46:56.000Z</time>
      </trkpt>
      <trkpt lat="45.79161" lon="6.65726">
        <ele>1978</ele>
        <time>2018-10-17T08:47:08.000Z</time>
      </trkpt>
      <trkpt lat="45.79182" lon="6.65723">
        <ele>1983</ele>
        <time>2018-10-17T08:47:28.000Z</time>
      </trkpt>
      <trkpt lat="45.79191" lon="6.65718">
        <ele>1985</ele>
        <time>2018-10-17T08:47:37.000Z</time>
      </trkpt>
      <trkpt lat="45.79196" lon="6.65719">
        <ele>1985</ele>
        <time>2018-10-17T08:48:12.000Z</time>
      </trkpt>
      <trkpt lat="45.79202" lon="6.65712">
        <ele>1987</ele>
        <time>2018-10-17T08:48:22.000Z</time>
      </trkpt>
      <trkpt lat="45.79208" lon="6.65708">
        <ele>1990</ele>
        <time>2018-10-17T08:48:34.000Z</time>
      </trkpt>
      <trkpt lat="45.792" lon="6.6573">
        <ele>1992</ele>
        <time>2018-10-17T08:48:50.000Z</time>
      </trkpt>
      <trkpt lat="45.792" lon="6.65743">
        <ele>1993</ele>
        <time>2018-10-17T08:48:58.000Z</time>
      </trkpt>
      <trkpt lat="45.79199" lon="6.65756">
        <ele>1996</ele>
        <time>2018-10-17T08:49:08.000Z</time>
      </trkpt>
      <trkpt lat="45.79194" lon="6.65786">
        <ele>2000</ele>
        <time>2018-10-17T08:49:27.000Z</time>
      </trkpt>
      <trkpt lat="45.79193" lon="6.65801">
        <ele>2001</ele>
        <time>2018-10-17T08:49:35.000Z</time>
      </trkpt>
      <trkpt lat="45.79193" lon="6.65815">
        <ele>2003</ele>
        <time>2018-10-17T08:49:43.000Z</time>
      </trkpt>
      <trkpt lat="45.79192" lon="6.65831">
        <ele>2005</ele>
        <time>2018-10-17T08:49:53.000Z</time>
      </trkpt>
      <trkpt lat="45.7919" lon="6.65844">
        <ele>2006</ele>
        <time>2018-10-17T08:50:02.000Z</time>
      </trkpt>
      <trkpt lat="45.7919" lon="6.65859">
        <ele>2007</ele>
        <time>2018-10-17T08:50:11.000Z</time>
      </trkpt>
      <trkpt lat="45.79191" lon="6.65873">
        <ele>2008</ele>
        <time>2018-10-17T08:50:20.000Z</time>
      </trkpt>
      <trkpt lat="45.79195" lon="6.65889">
        <ele>2011</ele>
        <time>2018-10-17T08:50:32.000Z</time>
      </trkpt>
      <trkpt lat="45.79189" lon="6.65902">
        <ele>2011</ele>
        <time>2018-10-17T08:50:42.000Z</time>
      </trkpt>
      <trkpt lat="45.79188" lon="6.65915">
        <ele>2013</ele>
        <time>2018-10-17T08:50:52.000Z</time>
      </trkpt>
      <trkpt lat="45.79187" lon="6.6593">
        <ele>2015</ele>
        <time>2018-10-17T08:51:04.000Z</time>
      </trkpt>
      <trkpt lat="45.7919" lon="6.65942">
        <ele>2018</ele>
        <time>2018-10-17T08:51:17.000Z</time>
      </trkpt>
      <trkpt lat="45.79187" lon="6.65956">
        <ele>2018</ele>
        <time>2018-10-17T08:51:28.000Z</time>
      </trkpt>
      <trkpt lat="45.79183" lon="6.65988">
        <ele>2021</ele>
        <time>2018-10-17T08:51:51.000Z</time>
      </trkpt>
      <trkpt lat="45.79179" lon="6.66001">
        <ele>2021</ele>
        <time>2018-10-17T08:51:59.000Z</time>
      </trkpt>
      <trkpt lat="45.79172" lon="6.66014">
        <ele>2019</ele>
        <time>2018-10-17T08:52:08.000Z</time>
      </trkpt>
      <trkpt lat="45.7917" lon="6.66026">
        <ele>2018</ele>
        <time>2018-10-17T08:52:14.000Z</time>
      </trkpt>
      <trkpt lat="45.7917" lon="6.66041">
        <ele>2018</ele>
        <time>2018-10-17T08:52:21.000Z</time>
      </trkpt>
      <trkpt lat="45.79172" lon="6.66056">
        <ele>2017</ele>
        <time>2018-10-17T08:52:27.000Z</time>
      </trkpt>
      <trkpt lat="45.79174" lon="6.66069">
        <ele>2018</ele>
        <time>2018-10-17T08:52:34.000Z</time>
      </trkpt>
      <trkpt lat="45.7917" lon="6.66081">
        <ele>2018</ele>
        <time>2018-10-17T08:52:41.000Z</time>
      </trkpt>
      <trkpt lat="45.7917" lon="6.66097">
        <ele>2017</ele>
        <time>2018-10-17T08:52:49.000Z</time>
      </trkpt>
      <trkpt lat="45.79174" lon="6.66123">
        <ele>2018</ele>
        <time>2018-10-17T08:53:02.000Z</time>
      </trkpt>
      <trkpt lat="45.79175" lon="6.66136">
        <ele>2019</ele>
        <time>2018-10-17T08:53:10.000Z</time>
      </trkpt>
      <trkpt lat="45.79175" lon="6.66151">
        <ele>2020</ele>
        <time>2018-10-17T08:53:17.000Z</time>
      </trkpt>
      <trkpt lat="45.79171" lon="6.66163">
        <ele>2019</ele>
        <time>2018-10-17T08:53:23.000Z</time>
      </trkpt>
      <trkpt lat="45.79169" lon="6.66177">
        <ele>2020</ele>
        <time>2018-10-17T08:53:31.000Z</time>
      </trkpt>
      <trkpt lat="45.79165" lon="6.66189">
        <ele>2021</ele>
        <time>2018-10-17T08:53:39.000Z</time>
      </trkpt>
      <trkpt lat="45.79159" lon="6.66199">
        <ele>2022</ele>
        <time>2018-10-17T08:53:46.000Z</time>
      </trkpt>
      <trkpt lat="45.79154" lon="6.66213">
        <ele>2024</ele>
        <time>2018-10-17T08:53:54.000Z</time>
      </trkpt>
      <trkpt lat="45.79151" lon="6.66226">
        <ele>2024</ele>
        <time>2018-10-17T08:54:02.000Z</time>
      </trkpt>
      <trkpt lat="45.79145" lon="6.66238">
        <ele>2025</ele>
        <time>2018-10-17T08:54:10.000Z</time>
      </trkpt>
      <trkpt lat="45.79133" lon="6.6626">
        <ele>2026</ele>
        <time>2018-10-17T08:54:24.000Z</time>
      </trkpt>
      <trkpt lat="45.79123" lon="6.66283">
        <ele>2027</ele>
        <time>2018-10-17T08:54:39.000Z</time>
      </trkpt>
      <trkpt lat="45.79116" lon="6.66293">
        <ele>2027</ele>
        <time>2018-10-17T08:54:47.000Z</time>
      </trkpt>
      <trkpt lat="45.7911" lon="6.66305">
        <ele>2028</ele>
        <time>2018-10-17T08:54:54.000Z</time>
      </trkpt>
      <trkpt lat="45.79104" lon="6.66329">
        <ele>2029</ele>
        <time>2018-10-17T08:55:08.000Z</time>
      </trkpt>
      <trkpt lat="45.79103" lon="6.66356">
        <ele>2029</ele>
        <time>2018-10-17T08:55:22.000Z</time>
      </trkpt>
      <trkpt lat="45.79101" lon="6.6637">
        <ele>2029</ele>
        <time>2018-10-17T08:55:29.000Z</time>
      </trkpt>
      <trkpt lat="45.791" lon="6.66385">
        <ele>2028</ele>
        <time>2018-10-17T08:55:36.000Z</time>
      </trkpt>
      <trkpt lat="45.79102" lon="6.66397">
        <ele>2029</ele>
        <time>2018-10-17T08:55:46.000Z</time>
      </trkpt>
      <trkpt lat="45.79099" lon="6.66424">
        <ele>2029</ele>
        <time>2018-10-17T08:56:02.000Z</time>
      </trkpt>
      <trkpt lat="45.79099" lon="6.66439">
        <ele>2030</ele>
        <time>2018-10-17T08:56:11.000Z</time>
      </trkpt>
      <trkpt lat="45.79093" lon="6.66465">
        <ele>2031</ele>
        <time>2018-10-17T08:56:26.000Z</time>
      </trkpt>
      <trkpt lat="45.79088" lon="6.66477">
        <ele>2031</ele>
        <time>2018-10-17T08:56:34.000Z</time>
      </trkpt>
      <trkpt lat="45.79086" lon="6.66491">
        <ele>2032</ele>
        <time>2018-10-17T08:56:41.000Z</time>
      </trkpt>
      <trkpt lat="45.79082" lon="6.66518">
        <ele>2034</ele>
        <time>2018-10-17T08:56:56.000Z</time>
      </trkpt>
      <trkpt lat="45.79075" lon="6.66527">
        <ele>2034</ele>
        <time>2018-10-17T08:57:04.000Z</time>
      </trkpt>
      <trkpt lat="45.7907" lon="6.66539">
        <ele>2034</ele>
        <time>2018-10-17T08:57:11.000Z</time>
      </trkpt>
      <trkpt lat="45.79058" lon="6.66561">
        <ele>2034</ele>
        <time>2018-10-17T08:57:25.000Z</time>
      </trkpt>
      <trkpt lat="45.79053" lon="6.66572">
        <ele>2034</ele>
        <time>2018-10-17T08:57:32.000Z</time>
      </trkpt>
      <trkpt lat="45.79043" lon="6.66579">
        <ele>2033</ele>
        <time>2018-10-17T08:58:12.000Z</time>
      </trkpt>
      <trkpt lat="45.79036" lon="6.66591">
        <ele>2033</ele>
        <time>2018-10-17T08:58:17.000Z</time>
      </trkpt>
      <trkpt lat="45.79026" lon="6.66615">
        <ele>2035</ele>
        <time>2018-10-17T08:58:27.000Z</time>
      </trkpt>
      <trkpt lat="45.79022" lon="6.66638">
        <ele>2037</ele>
        <time>2018-10-17T08:58:39.000Z</time>
      </trkpt>
      <trkpt lat="45.79017" lon="6.6665">
        <ele>2038</ele>
        <time>2018-10-17T08:58:48.000Z</time>
      </trkpt>
      <trkpt lat="45.79012" lon="6.66662">
        <ele>2041</ele>
        <time>2018-10-17T08:58:58.000Z</time>
      </trkpt>
      <trkpt lat="45.79006" lon="6.66673">
        <ele>2041</ele>
        <time>2018-10-17T08:59:05.000Z</time>
      </trkpt>
      <trkpt lat="45.7899" lon="6.66691">
        <ele>2039</ele>
        <time>2018-10-17T08:59:16.000Z</time>
      </trkpt>
      <trkpt lat="45.7897" lon="6.66723">
        <ele>2038</ele>
        <time>2018-10-17T08:59:29.000Z</time>
      </trkpt>
      <trkpt lat="45.78953" lon="6.66744">
        <ele>2037</ele>
        <time>2018-10-17T08:59:39.000Z</time>
      </trkpt>
      <trkpt lat="45.78946" lon="6.66756">
        <ele>2036</ele>
        <time>2018-10-17T08:59:44.000Z</time>
      </trkpt>
      <trkpt lat="45.78938" lon="6.66766">
        <ele>2036</ele>
        <time>2018-10-17T08:59:49.000Z</time>
      </trkpt>
      <trkpt lat="45.78933" lon="6.66778">
        <ele>2036</ele>
        <time>2018-10-17T08:59:54.000Z</time>
      </trkpt>
      <trkpt lat="45.78926" lon="6.66791">
        <ele>2036</ele>
        <time>2018-10-17T08:59:59.000Z</time>
      </trkpt>
      <trkpt lat="45.78917" lon="6.66819">
        <ele>2035</ele>
        <time>2018-10-17T09:00:09.000Z</time>
      </trkpt>
      <trkpt lat="45.78914" lon="6.66832">
        <ele>2035</ele>
        <time>2018-10-17T09:00:13.000Z</time>
      </trkpt>
      <trkpt lat="45.78912" lon="6.66846">
        <ele>2035</ele>
        <time>2018-10-17T09:00:18.000Z</time>
      </trkpt>
      <trkpt lat="45.78912" lon="6.66859">
        <ele>2033</ele>
        <time>2018-10-17T09:00:22.000Z</time>
      </trkpt>
      <trkpt lat="45.7891" lon="6.66872">
        <ele>2031</ele>
        <time>2018-10-17T09:00:26.000Z</time>
      </trkpt>
      <trkpt lat="45.78907" lon="6.66886">
        <ele>2031</ele>
        <time>2018-10-17T09:00:31.000Z</time>
      </trkpt>
      <trkpt lat="45.78905" lon="6.66901">
        <ele>2031</ele>
        <time>2018-10-17T09:00:36.000Z</time>
      </trkpt>
      <trkpt lat="45.78905" lon="6.66916">
        <ele>2031</ele>
        <time>2018-10-17T09:00:42.000Z</time>
      </trkpt>
      <trkpt lat="45.78905" lon="6.66931">
        <ele>2030</ele>
        <time>2018-10-17T09:00:47.000Z</time>
      </trkpt>
      <trkpt lat="45.78905" lon="6.66947">
        <ele>2028</ele>
        <time>2018-10-17T09:00:53.000Z</time>
      </trkpt>
      <trkpt lat="45.78903" lon="6.66961">
        <ele>2024</ele>
        <time>2018-10-17T09:00:58.000Z</time>
      </trkpt>
      <trkpt lat="45.78899" lon="6.66975">
        <ele>2021</ele>
        <time>2018-10-17T09:01:03.000Z</time>
      </trkpt>
      <trkpt lat="45.78893" lon="6.66988">
        <ele>2017</ele>
        <time>2018-10-17T09:01:08.000Z</time>
      </trkpt>
      <trkpt lat="45.78889" lon="6.67001">
        <ele>2016</ele>
        <time>2018-10-17T09:01:12.000Z</time>
      </trkpt>
      <trkpt lat="45.78885" lon="6.67016">
        <ele>2015</ele>
        <time>2018-10-17T09:01:16.000Z</time>
      </trkpt>
      <trkpt lat="45.78859" lon="6.67034">
        <ele>2014</ele>
        <time>2018-10-17T09:01:28.000Z</time>
      </trkpt>
      <trkpt lat="45.78849" lon="6.67037">
        <ele>2014</ele>
        <time>2018-10-17T09:01:32.000Z</time>
      </trkpt>
      <trkpt lat="45.78839" lon="6.67042">
        <ele>2013</ele>
        <time>2018-10-17T09:01:36.000Z</time>
      </trkpt>
      <trkpt lat="45.78831" lon="6.67049">
        <ele>2013</ele>
        <time>2018-10-17T09:01:40.000Z</time>
      </trkpt>
      <trkpt lat="45.78824" lon="6.67059">
        <ele>2012</ele>
        <time>2018-10-17T09:01:44.000Z</time>
      </trkpt>
      <trkpt lat="45.78819" lon="6.67073">
        <ele>2011</ele>
        <time>2018-10-17T09:01:49.000Z</time>
      </trkpt>
      <trkpt lat="45.78815" lon="6.67087">
        <ele>2010</ele>
        <time>2018-10-17T09:01:54.000Z</time>
      </trkpt>
      <trkpt lat="45.78808" lon="6.67096">
        <ele>2009</ele>
        <time>2018-10-17T09:01:58.000Z</time>
      </trkpt>
      <trkpt lat="45.78801" lon="6.67105">
        <ele>2008</ele>
        <time>2018-10-17T09:02:03.000Z</time>
      </trkpt>
      <trkpt lat="45.78783" lon="6.67121">
        <ele>2006</ele>
        <time>2018-10-17T09:02:11.000Z</time>
      </trkpt>
      <trkpt lat="45.78768" lon="6.67142">
        <ele>2005</ele>
        <time>2018-10-17T09:02:20.000Z</time>
      </trkpt>
      <trkpt lat="45.78758" lon="6.67152">
        <ele>2004</ele>
        <time>2018-10-17T09:02:25.000Z</time>
      </trkpt>
      <trkpt lat="45.7875" lon="6.67159">
        <ele>2003</ele>
        <time>2018-10-17T09:02:29.000Z</time>
      </trkpt>
      <trkpt lat="45.78734" lon="6.67176">
        <ele>2002</ele>
        <time>2018-10-17T09:02:37.000Z</time>
      </trkpt>
      <trkpt lat="45.78718" lon="6.67195">
        <ele>2000</ele>
        <time>2018-10-17T09:02:46.000Z</time>
      </trkpt>
      <trkpt lat="45.78709" lon="6.67204">
        <ele>2000</ele>
        <time>2018-10-17T09:02:51.000Z</time>
      </trkpt>
      <trkpt lat="45.787" lon="6.67212">
        <ele>1999</ele>
        <time>2018-10-17T09:02:55.000Z</time>
      </trkpt>
      <trkpt lat="45.78691" lon="6.67219">
        <ele>1998</ele>
        <time>2018-10-17T09:03:00.000Z</time>
      </trkpt>
      <trkpt lat="45.78663" lon="6.67234">
        <ele>1997</ele>
        <time>2018-10-17T09:03:13.000Z</time>
      </trkpt>
      <trkpt lat="45.78654" lon="6.67238">
        <ele>1997</ele>
        <time>2018-10-17T09:03:17.000Z</time>
      </trkpt>
      <trkpt lat="45.78643" lon="6.67244">
        <ele>1996</ele>
        <time>2018-10-17T09:03:22.000Z</time>
      </trkpt>
      <trkpt lat="45.78625" lon="6.67258">
        <ele>1996</ele>
        <time>2018-10-17T09:03:31.000Z</time>
      </trkpt>
      <trkpt lat="45.78607" lon="6.67277">
        <ele>1995</ele>
        <time>2018-10-17T09:03:41.000Z</time>
      </trkpt>
      <trkpt lat="45.78592" lon="6.67304">
        <ele>1994</ele>
        <time>2018-10-17T09:03:51.000Z</time>
      </trkpt>
      <trkpt lat="45.7858" lon="6.67332">
        <ele>1994</ele>
        <time>2018-10-17T09:04:01.000Z</time>
      </trkpt>
      <trkpt lat="45.78561" lon="6.67384">
        <ele>1994</ele>
        <time>2018-10-17T09:04:19.000Z</time>
      </trkpt>
      <trkpt lat="45.78545" lon="6.6742">
        <ele>1994</ele>
        <time>2018-10-17T09:04:34.000Z</time>
      </trkpt>
      <trkpt lat="45.78539" lon="6.67428">
        <ele>1995</ele>
        <time>2018-10-17T09:04:39.000Z</time>
      </trkpt>
      <trkpt lat="45.7853" lon="6.67438">
        <ele>1996</ele>
        <time>2018-10-17T09:04:45.000Z</time>
      </trkpt>
      <trkpt lat="45.78522" lon="6.67442">
        <ele>1995</ele>
        <time>2018-10-17T09:04:52.000Z</time>
      </trkpt>
      <trkpt lat="45.78512" lon="6.67443">
        <ele>1995</ele>
        <time>2018-10-17T09:04:58.000Z</time>
      </trkpt>
      <trkpt lat="45.78503" lon="6.67436">
        <ele>1995</ele>
        <time>2018-10-17T09:05:03.000Z</time>
      </trkpt>
      <trkpt lat="45.78495" lon="6.67428">
        <ele>1995</ele>
        <time>2018-10-17T09:05:08.000Z</time>
      </trkpt>
      <trkpt lat="45.78486" lon="6.67421">
        <ele>1996</ele>
        <time>2018-10-17T09:05:14.000Z</time>
      </trkpt>
      <trkpt lat="45.78474" lon="6.67417">
        <ele>1995</ele>
        <time>2018-10-17T09:05:19.000Z</time>
      </trkpt>
      <trkpt lat="45.78465" lon="6.6741">
        <ele>1995</ele>
        <time>2018-10-17T09:05:27.000Z</time>
      </trkpt>
      <trkpt lat="45.78457" lon="6.67407">
        <ele>1994</ele>
        <time>2018-10-17T09:05:50.000Z</time>
      </trkpt>
      <trkpt lat="45.78423" lon="6.67402">
        <ele>1991</ele>
        <time>2018-10-17T09:06:00.000Z</time>
      </trkpt>
      <trkpt lat="45.78396" lon="6.67395">
        <ele>1988</ele>
        <time>2018-10-17T09:06:10.000Z</time>
      </trkpt>
      <trkpt lat="45.78366" lon="6.67408">
        <ele>1989</ele>
        <time>2018-10-17T09:06:20.000Z</time>
      </trkpt>
      <trkpt lat="45.78386" lon="6.67385">
        <ele>1987.8</ele>
      </trkpt>
      <trkpt lat="45.78344" lon="6.67325">
        <ele>1980.1</ele>
      </trkpt>
      <trkpt lat="45.78224" lon="6.67304">
        <ele>1968.4</ele>
      </trkpt>
      <trkpt lat="45.78141" lon="6.67299">
        <ele>1961.5</ele>
      </trkpt>
      <trkpt lat="45.78087" lon="6.67201">
        <ele>1951.9</ele>
      </trkpt>
      <trkpt lat="45.78006" lon="6.67201">
        <ele>1948.8</ele>
      </trkpt>
      <trkpt lat="45.77928" lon="6.67201">
        <ele>1938.9</ele>
      </trkpt>
      <trkpt lat="45.77904" lon="6.67166">
        <ele>1932.5</ele>
      </trkpt>
      <trkpt lat="45.77788" lon="6.66883">
        <ele>1911.7</ele>
      </trkpt>
      <trkpt lat="45.7774" lon="6.66737">
        <ele>1893.9</ele>
      </trkpt>
      <trkpt lat="45.77677" lon="6.66733">
        <ele>1889.8</ele>
      </trkpt>
      <trkpt lat="45.77596" lon="6.66853">
        <ele>1877.8</ele>
      </trkpt>
      <trkpt lat="45.77572" lon="6.66926">
        <ele>1875.5</ele>
      </trkpt>
      <trkpt lat="45.77522" lon="6.6696">
        <ele>1869.3</ele>
      </trkpt>
      <trkpt lat="45.7748" lon="6.67059">
        <ele>1862.1</ele>
      </trkpt>
      <trkpt lat="45.77462" lon="6.67149">
        <ele>1856.2</ele>
      </trkpt>
      <trkpt lat="45.77486" lon="6.67222">
        <ele>1856.3</ele>
      </trkpt>
      <trkpt lat="45.77513" lon="6.67342">
        <ele>1865.8</ele>
      </trkpt>
      <trkpt lat="45.77519" lon="6.67445">
        <ele>1879</ele>
      </trkpt>
      <trkpt lat="45.77465" lon="6.67608">
        <ele>1886</ele>
      </trkpt>
      <trkpt lat="45.77399" lon="6.6772">
        <ele>1891.2</ele>
      </trkpt>
      <trkpt lat="45.77375" lon="6.67827">
        <ele>1898.8</ele>
      </trkpt>
      <trkpt lat="45.7733" lon="6.67943">
        <ele>1910.6</ele>
      </trkpt>
      <trkpt lat="45.7724" lon="6.6796">
        <ele>1918.6</ele>
      </trkpt>
      <trkpt lat="45.77195" lon="6.67909">
        <ele>1921.3</ele>
      </trkpt>
      <trkpt lat="45.77112" lon="6.67806">
        <ele>1932.9</ele>
      </trkpt>
      <trkpt lat="45.77076" lon="6.67823">
        <ele>1938.7</ele>
      </trkpt>
      <trkpt lat="45.7713" lon="6.67887">
        <ele>1939.8</ele>
      </trkpt>
      <trkpt lat="45.77124" lon="6.67982">
        <ele>1948.5</ele>
      </trkpt>
      <trkpt lat="45.77181" lon="6.68098">
        <ele>1959.8</ele>
      </trkpt>
      <trkpt lat="45.77172" lon="6.68128">
        <ele>1966.7</ele>
      </trkpt>
      <trkpt lat="45.771" lon="6.68085">
        <ele>1970.6</ele>
      </trkpt>
      <trkpt lat="45.76957" lon="6.67973">
        <ele>1976.5</ele>
      </trkpt>
      <trkpt lat="45.76891" lon="6.68003">
        <ele>1984.2</ele>
      </trkpt>
      <trkpt lat="45.76819" lon="6.67922">
        <ele>1986.4</ele>
      </trkpt>
      <trkpt lat="45.76756" lon="6.679">
        <ele>1994</ele>
      </trkpt>
      <trkpt lat="45.76642" lon="6.67844">
        <ele>2004.6</ele>
      </trkpt>
      <trkpt lat="45.76598" lon="6.679">
        <ele>2014.6</ele>
      </trkpt>
      <trkpt lat="45.76517" lon="6.67857">
        <ele>2030</ele>
      </trkpt>
      <trkpt lat="45.76451" lon="6.6781">
        <ele>2037.9</ele>
      </trkpt>
      <trkpt lat="45.76382" lon="6.67724">
        <ele>2050.2</ele>
      </trkpt>
      <trkpt lat="45.76313" lon="6.67716">
        <ele>2067.8</ele>
      </trkpt>
      <trkpt lat="45.76236" lon="6.67703">
        <ele>2076</ele>
      </trkpt>
      <trkpt lat="45.7614" lon="6.67651">
        <ele>2093.9</ele>
      </trkpt>
      <trkpt lat="45.76083" lon="6.67617">
        <ele>2097.9</ele>
      </trkpt>
      <trkpt lat="45.76041" lon="6.67625">
        <ele>2103.9</ele>
      </trkpt>
      <trkpt lat="45.76008" lon="6.67583">
        <ele>2107.5</ele>
      </trkpt>
      <trkpt lat="45.75924" lon="6.67557">
        <ele>2109.9</ele>
      </trkpt>
      <trkpt lat="45.75879" lon="6.67587">
        <ele>2115.8</ele>
      </trkpt>
      <trkpt lat="45.75882" lon="6.67651">
        <ele>2132.3</ele>
      </trkpt>
      <trkpt lat="45.75808" lon="6.676">
        <ele>2157.2</ele>
      </trkpt>
      <trkpt lat="45.75646" lon="6.67595">
        <ele>2183.6</ele>
      </trkpt>
      <trkpt lat="45.75508" lon="6.67595">
        <ele>2198.1</ele>
      </trkpt>
      <trkpt lat="45.75437" lon="6.676">
        <ele>2211.9</ele>
      </trkpt>
      <trkpt lat="45.75329" lon="6.67492">
        <ele>2237.6</ele>
      </trkpt>
      <trkpt lat="45.75251" lon="6.67471">
        <ele>2247.1</ele>
      </trkpt>
      <trkpt lat="45.75069" lon="6.67518">
        <ele>2256.5</ele>
      </trkpt>
      <trkpt lat="45.74958" lon="6.6745">
        <ele>2266.4</ele>
      </trkpt>
      <trkpt lat="45.7485" lon="6.67432">
        <ele>2277.6</ele>
      </trkpt>
      <trkpt lat="45.74766" lon="6.67381">
        <ele>2286.3</ele>
      </trkpt>
      <trkpt lat="45.74679" lon="6.67372">
        <ele>2293.4</ele>
      </trkpt>
      <trkpt lat="45.74605" lon="6.67282">
        <ele>2302</ele>
      </trkpt>
      <trkpt lat="45.74542" lon="6.67269">
        <ele>2300.3</ele>
      </trkpt>
      <trkpt lat="45.74476" lon="6.67248">
        <ele>2300.8</ele>
      </trkpt>
      <trkpt lat="45.74395" lon="6.67235">
        <ele>2310.1</ele>
      </trkpt>
      <trkpt lat="45.74357" lon="6.67202">
        <ele>2292</ele>
        <time>2018-07-01T11:57:43.000Z</time>
      </trkpt>
      <trkpt lat="45.74355" lon="6.67191">
        <ele>2294</ele>
        <time>2018-07-01T11:57:50.000Z</time>
      </trkpt>
      <trkpt lat="45.7435" lon="6.67178">
        <ele>2293</ele>
        <time>2018-07-01T11:57:57.000Z</time>
      </trkpt>
      <trkpt lat="45.74344" lon="6.67169">
        <ele>2293</ele>
        <time>2018-07-01T11:58:03.000Z</time>
      </trkpt>
      <trkpt lat="45.74338" lon="6.67156">
        <ele>2292</ele>
        <time>2018-07-01T11:58:09.000Z</time>
      </trkpt>
      <trkpt lat="45.74333" lon="6.67142">
        <ele>2291</ele>
        <time>2018-07-01T11:58:14.000Z</time>
      </trkpt>
      <trkpt lat="45.74329" lon="6.67128">
        <ele>2291</ele>
        <time>2018-07-01T11:58:19.000Z</time>
      </trkpt>
      <trkpt lat="45.74323" lon="6.67117">
        <ele>2290</ele>
        <time>2018-07-01T11:58:24.000Z</time>
      </trkpt>
      <trkpt lat="45.74309" lon="6.67098">
        <ele>2289</ele>
        <time>2018-07-01T11:58:34.000Z</time>
      </trkpt>
      <trkpt lat="45.74303" lon="6.67087">
        <ele>2289</ele>
        <time>2018-07-01T11:58:40.000Z</time>
      </trkpt>
      <trkpt lat="45.74289" lon="6.67068">
        <ele>2287</ele>
        <time>2018-07-01T11:58:50.000Z</time>
      </trkpt>
      <trkpt lat="45.74278" lon="6.67048">
        <ele>2286</ele>
        <time>2018-07-01T11:59:00.000Z</time>
      </trkpt>
      <trkpt lat="45.7427" lon="6.67037">
        <ele>2285</ele>
        <time>2018-07-01T11:59:06.000Z</time>
      </trkpt>
      <trkpt lat="45.74267" lon="6.67024">
        <ele>2284</ele>
        <time>2018-07-01T11:59:11.000Z</time>
      </trkpt>
      <trkpt lat="45.74261" lon="6.67011">
        <ele>2284</ele>
        <time>2018-07-01T11:59:17.000Z</time>
      </trkpt>
      <trkpt lat="45.74253" lon="6.67002">
        <ele>2284</ele>
        <time>2018-07-01T11:59:23.000Z</time>
      </trkpt>
      <trkpt lat="45.74244" lon="6.66994">
        <ele>2284</ele>
        <time>2018-07-01T11:59:29.000Z</time>
      </trkpt>
      <trkpt lat="45.74231" lon="6.66956">
        <ele>2284</ele>
        <time>2018-07-01T11:59:46.000Z</time>
      </trkpt>
      <trkpt lat="45.74228" lon="6.66942">
        <ele>2285</ele>
        <time>2018-07-01T11:59:53.000Z</time>
      </trkpt>
      <trkpt lat="45.74219" lon="6.66918">
        <ele>2286</ele>
        <time>2018-07-01T12:00:05.000Z</time>
      </trkpt>
      <trkpt lat="45.74212" lon="6.66905">
        <ele>2286</ele>
        <time>2018-07-01T12:00:11.000Z</time>
      </trkpt>
      <trkpt lat="45.74206" lon="6.66897">
        <ele>2286</ele>
        <time>2018-07-01T12:00:16.000Z</time>
      </trkpt>
      <trkpt lat="45.742" lon="6.66886">
        <ele>2285</ele>
        <time>2018-07-01T12:00:22.000Z</time>
      </trkpt>
      <trkpt lat="45.74192" lon="6.66876">
        <ele>2285</ele>
        <time>2018-07-01T12:00:30.000Z</time>
      </trkpt>
      <trkpt lat="45.74186" lon="6.66864">
        <ele>2285</ele>
        <time>2018-07-01T12:01:34.000Z</time>
      </trkpt>
      <trkpt lat="45.74172" lon="6.66844">
        <ele>2282</ele>
        <time>2018-07-01T12:01:49.000Z</time>
      </trkpt>
      <trkpt lat="45.74152" lon="6.6681">
        <ele>2279</ele>
        <time>2018-07-01T12:02:12.000Z</time>
      </trkpt>
      <trkpt lat="45.74147" lon="6.66797">
        <ele>2280</ele>
        <time>2018-07-01T12:02:19.000Z</time>
      </trkpt>
      <trkpt lat="45.74144" lon="6.66784">
        <ele>2279</ele>
        <time>2018-07-01T12:02:26.000Z</time>
      </trkpt>
      <trkpt lat="45.74138" lon="6.66772">
        <ele>2278</ele>
        <time>2018-07-01T12:02:32.000Z</time>
      </trkpt>
      <trkpt lat="45.74122" lon="6.66754">
        <ele>2276</ele>
        <time>2018-07-01T12:02:45.000Z</time>
      </trkpt>
      <trkpt lat="45.74118" lon="6.6674">
        <ele>2274</ele>
        <time>2018-07-01T12:02:53.000Z</time>
      </trkpt>
      <trkpt lat="45.74116" lon="6.66728">
        <ele>2273</ele>
        <time>2018-07-01T12:02:59.000Z</time>
      </trkpt>
      <trkpt lat="45.74111" lon="6.66718">
        <ele>2271</ele>
        <time>2018-07-01T12:03:04.000Z</time>
      </trkpt>
      <trkpt lat="45.74108" lon="6.66689">
        <ele>2268</ele>
        <time>2018-07-01T12:03:14.000Z</time>
      </trkpt>
      <trkpt lat="45.74105" lon="6.66677">
        <ele>2267</ele>
        <time>2018-07-01T12:03:19.000Z</time>
      </trkpt>
      <trkpt lat="45.74099" lon="6.66648">
        <ele>2265</ele>
        <time>2018-07-01T12:03:29.000Z</time>
      </trkpt>
      <trkpt lat="45.74087" lon="6.66592">
        <ele>2264</ele>
        <time>2018-07-01T12:03:50.000Z</time>
      </trkpt>
      <trkpt lat="45.74089" lon="6.66579">
        <ele>2265</ele>
        <time>2018-07-01T12:03:57.000Z</time>
      </trkpt>
      <trkpt lat="45.74093" lon="6.66552">
        <ele>2266</ele>
        <time>2018-07-01T12:04:11.000Z</time>
      </trkpt>
      <trkpt lat="45.74095" lon="6.66538">
        <ele>2268</ele>
        <time>2018-07-01T12:04:19.000Z</time>
      </trkpt>
      <trkpt lat="45.74097" lon="6.6651">
        <ele>2271</ele>
        <time>2018-07-01T12:04:35.000Z</time>
      </trkpt>
      <trkpt lat="45.74099" lon="6.66497">
        <ele>2274</ele>
        <time>2018-07-01T12:04:47.000Z</time>
      </trkpt>
      <trkpt lat="45.74098" lon="6.66485">
        <ele>2276</ele>
        <time>2018-07-01T12:04:59.000Z</time>
      </trkpt>
      <trkpt lat="45.74096" lon="6.66474">
        <ele>2279</ele>
        <time>2018-07-01T12:05:14.000Z</time>
      </trkpt>
      <trkpt lat="45.74097" lon="6.66461">
        <ele>2283</ele>
        <time>2018-07-01T12:05:30.000Z</time>
      </trkpt>
      <trkpt lat="45.74094" lon="6.66436">
        <ele>2288</ele>
        <time>2018-07-01T12:05:54.000Z</time>
      </trkpt>
      <trkpt lat="45.74089" lon="6.66427">
        <ele>2291</ele>
        <time>2018-07-01T12:06:08.000Z</time>
      </trkpt>
      <trkpt lat="45.74084" lon="6.66415">
        <ele>2294</ele>
        <time>2018-07-01T12:06:22.000Z</time>
      </trkpt>
      <trkpt lat="45.74081" lon="6.66403">
        <ele>2297</ele>
        <time>2018-07-01T12:06:34.000Z</time>
      </trkpt>
      <trkpt lat="45.74076" lon="6.66393">
        <ele>2299</ele>
        <time>2018-07-01T12:06:46.000Z</time>
      </trkpt>
      <trkpt lat="45.74065" lon="6.66374">
        <ele>2304</ele>
        <time>2018-07-01T12:07:09.000Z</time>
      </trkpt>
      <trkpt lat="45.74056" lon="6.66367">
        <ele>2305</ele>
        <time>2018-07-01T12:07:18.000Z</time>
      </trkpt>
      <trkpt lat="45.74047" lon="6.66366">
        <ele>2307</ele>
        <time>2018-07-01T12:07:27.000Z</time>
      </trkpt>
      <trkpt lat="45.74041" lon="6.66359">
        <ele>2308</ele>
        <time>2018-07-01T12:07:35.000Z</time>
      </trkpt>
      <trkpt lat="45.74036" lon="6.66331">
        <ele>2312</ele>
        <time>2018-07-01T12:07:53.000Z</time>
      </trkpt>
      <trkpt lat="45.74032" lon="6.66321">
        <ele>2314</ele>
        <time>2018-07-01T12:08:02.000Z</time>
      </trkpt>
      <trkpt lat="45.74029" lon="6.66309">
        <ele>2315</ele>
        <time>2018-07-01T12:08:09.000Z</time>
      </trkpt>
      <trkpt lat="45.74027" lon="6.66283">
        <ele>2315</ele>
        <time>2018-07-01T12:08:20.000Z</time>
      </trkpt>
      <trkpt lat="45.74023" lon="6.6627">
        <ele>2315</ele>
        <time>2018-07-01T12:08:25.000Z</time>
      </trkpt>
      <trkpt lat="45.74018" lon="6.66257">
        <ele>2314</ele>
        <time>2018-07-01T12:08:31.000Z</time>
      </trkpt>
      <trkpt lat="45.74013" lon="6.66245">
        <ele>2314</ele>
        <time>2018-07-01T12:08:37.000Z</time>
      </trkpt>
      <trkpt lat="45.74009" lon="6.66233">
        <ele>2315</ele>
        <time>2018-07-01T12:08:44.000Z</time>
      </trkpt>
      <trkpt lat="45.73996" lon="6.66212">
        <ele>2317</ele>
        <time>2018-07-01T12:08:58.000Z</time>
      </trkpt>
      <trkpt lat="45.73985" lon="6.66189">
        <ele>2318</ele>
        <time>2018-07-01T12:09:11.000Z</time>
      </trkpt>
      <trkpt lat="45.7398" lon="6.66178">
        <ele>2319</ele>
        <time>2018-07-01T12:09:17.000Z</time>
      </trkpt>
      <trkpt lat="45.73971" lon="6.66152">
        <ele>2320</ele>
        <time>2018-07-01T12:09:30.000Z</time>
      </trkpt>
      <trkpt lat="45.73965" lon="6.66141">
        <ele>2321</ele>
        <time>2018-07-01T12:09:37.000Z</time>
      </trkpt>
      <trkpt lat="45.7396" lon="6.66131">
        <ele>2323</ele>
        <time>2018-07-01T12:09:45.000Z</time>
      </trkpt>
      <trkpt lat="45.73945" lon="6.66112">
        <ele>2327</ele>
        <time>2018-07-01T12:10:03.000Z</time>
      </trkpt>
      <trkpt lat="45.73932" lon="6.66092">
        <ele>2330</ele>
        <time>2018-07-01T12:10:22.000Z</time>
      </trkpt>
      <trkpt lat="45.73926" lon="6.66081">
        <ele>2332</ele>
        <time>2018-07-01T12:10:32.000Z</time>
      </trkpt>
      <trkpt lat="45.7392" lon="6.66071">
        <ele>2334</ele>
        <time>2018-07-01T12:10:42.000Z</time>
      </trkpt>
      <trkpt lat="45.73907" lon="6.6605">
        <ele>2339</ele>
        <time>2018-07-01T12:11:07.000Z</time>
      </trkpt>
      <trkpt lat="45.73903" lon="6.6604">
        <ele>2341</ele>
        <time>2018-07-01T12:11:19.000Z</time>
      </trkpt>
      <trkpt lat="45.73906" lon="6.66017">
        <ele>2347</ele>
        <time>2018-07-01T12:11:50.000Z</time>
      </trkpt>
      <trkpt lat="45.73916" lon="6.66014">
        <ele>2347</ele>
        <time>2018-07-01T12:11:57.000Z</time>
      </trkpt>
      <trkpt lat="45.73924" lon="6.66006">
        <ele>2348</ele>
        <time>2018-07-01T12:12:04.000Z</time>
      </trkpt>
      <trkpt lat="45.7393" lon="6.65997">
        <ele>2348</ele>
        <time>2018-07-01T12:12:10.000Z</time>
      </trkpt>
      <trkpt lat="45.73934" lon="6.65986">
        <ele>2348</ele>
        <time>2018-07-01T12:12:16.000Z</time>
      </trkpt>
      <trkpt lat="45.73947" lon="6.65965">
        <ele>2347</ele>
        <time>2018-07-01T12:12:28.000Z</time>
      </trkpt>
      <trkpt lat="45.73963" lon="6.65948">
        <ele>2346</ele>
        <time>2018-07-01T12:12:38.000Z</time>
      </trkpt>
      <trkpt lat="45.73969" lon="6.65938">
        <ele>2345</ele>
        <time>2018-07-01T12:12:43.000Z</time>
      </trkpt>
      <trkpt lat="45.73975" lon="6.65926">
        <ele>2345</ele>
        <time>2018-07-01T12:12:48.000Z</time>
      </trkpt>
      <trkpt lat="45.73983" lon="6.65898">
        <ele>2344</ele>
        <time>2018-07-01T12:12:58.000Z</time>
      </trkpt>
      <trkpt lat="45.73986" lon="6.65884">
        <ele>2346</ele>
        <time>2018-07-01T12:13:04.000Z</time>
      </trkpt>
      <trkpt lat="45.73989" lon="6.65873">
        <ele>2346</ele>
        <time>2018-07-01T12:13:10.000Z</time>
      </trkpt>
      <trkpt lat="45.73994" lon="6.65844">
        <ele>2346</ele>
        <time>2018-07-01T12:13:21.000Z</time>
      </trkpt>
      <trkpt lat="45.73994" lon="6.65829">
        <ele>2346</ele>
        <time>2018-07-01T12:13:27.000Z</time>
      </trkpt>
      <trkpt lat="45.73995" lon="6.65815">
        <ele>2346</ele>
        <time>2018-07-01T12:13:32.000Z</time>
      </trkpt>
      <trkpt lat="45.73996" lon="6.65801">
        <ele>2347</ele>
        <time>2018-07-01T12:13:39.000Z</time>
      </trkpt>
      <trkpt lat="45.73995" lon="6.65787">
        <ele>2348</ele>
        <time>2018-07-01T12:13:46.000Z</time>
      </trkpt>
      <trkpt lat="45.73995" lon="6.65771">
        <ele>2349</ele>
        <time>2018-07-01T12:13:54.000Z</time>
      </trkpt>
      <trkpt lat="45.74001" lon="6.65761">
        <ele>2351</ele>
        <time>2018-07-01T12:14:02.000Z</time>
      </trkpt>
      <trkpt lat="45.74008" lon="6.65753">
        <ele>2352</ele>
        <time>2018-07-01T12:14:11.000Z</time>
      </trkpt>
      <trkpt lat="45.74007" lon="6.65738">
        <ele>2354</ele>
        <time>2018-07-01T12:14:19.000Z</time>
      </trkpt>
      <trkpt lat="45.7401" lon="6.65726">
        <ele>2354</ele>
        <time>2018-07-01T12:14:27.000Z</time>
      </trkpt>
      <trkpt lat="45.74014" lon="6.65715">
        <ele>2354</ele>
        <time>2018-07-01T12:14:33.000Z</time>
      </trkpt>
      <trkpt lat="45.7402" lon="6.65702">
        <ele>2356</ele>
        <time>2018-07-01T12:14:42.000Z</time>
      </trkpt>
      <trkpt lat="45.74021" lon="6.65687">
        <ele>2359</ele>
        <time>2018-07-01T12:14:53.000Z</time>
      </trkpt>
      <trkpt lat="45.74027" lon="6.65679">
        <ele>2362</ele>
        <time>2018-07-01T12:15:06.000Z</time>
      </trkpt>
      <trkpt lat="45.74034" lon="6.65673">
        <ele>2364</ele>
        <time>2018-07-01T12:15:17.000Z</time>
      </trkpt>
      <trkpt lat="45.74038" lon="6.65661">
        <ele>2367</ele>
        <time>2018-07-01T12:15:30.000Z</time>
      </trkpt>
      <trkpt lat="45.74039" lon="6.65648">
        <ele>2367</ele>
        <time>2018-07-01T12:15:37.000Z</time>
      </trkpt>
      <trkpt lat="45.74043" lon="6.65638">
        <ele>2369</ele>
        <time>2018-07-01T12:15:44.000Z</time>
      </trkpt>
      <trkpt lat="45.74057" lon="6.65615">
        <ele>2370</ele>
        <time>2018-07-01T12:15:59.000Z</time>
      </trkpt>
      <trkpt lat="45.74075" lon="6.65605">
        <ele>2367</ele>
        <time>2018-07-01T12:16:09.000Z</time>
      </trkpt>
      <trkpt lat="45.74085" lon="6.65601">
        <ele>2364</ele>
        <time>2018-07-01T12:16:15.000Z</time>
      </trkpt>
      <trkpt lat="45.74094" lon="6.65596">
        <ele>2362</ele>
        <time>2018-07-01T12:16:21.000Z</time>
      </trkpt>
      <trkpt lat="45.74097" lon="6.65581">
        <ele>2361</ele>
        <time>2018-07-01T12:16:26.000Z</time>
      </trkpt>
      <trkpt lat="45.74102" lon="6.65569">
        <ele>2358</ele>
        <time>2018-07-01T12:16:31.000Z</time>
      </trkpt>
      <trkpt lat="45.74107" lon="6.65554">
        <ele>2357</ele>
        <time>2018-07-01T12:16:37.000Z</time>
      </trkpt>
      <trkpt lat="45.74112" lon="6.65542">
        <ele>2357</ele>
        <time>2018-07-01T12:16:41.000Z</time>
      </trkpt>
      <trkpt lat="45.74118" lon="6.65517">
        <ele>2355</ele>
        <time>2018-07-01T12:16:52.000Z</time>
      </trkpt>
      <trkpt lat="45.74123" lon="6.65504">
        <ele>2353</ele>
        <time>2018-07-01T12:16:58.000Z</time>
      </trkpt>
      <trkpt lat="45.74131" lon="6.65496">
        <ele>2353</ele>
        <time>2018-07-01T12:17:02.000Z</time>
      </trkpt>
      <trkpt lat="45.7414" lon="6.65494">
        <ele>2352</ele>
        <time>2018-07-01T12:17:07.000Z</time>
      </trkpt>
      <trkpt lat="45.74151" lon="6.65489">
        <ele>2352</ele>
        <time>2018-07-01T12:17:13.000Z</time>
      </trkpt>
      <trkpt lat="45.74158" lon="6.65481">
        <ele>2351</ele>
        <time>2018-07-01T12:17:18.000Z</time>
      </trkpt>
      <trkpt lat="45.74167" lon="6.65476">
        <ele>2350</ele>
        <time>2018-07-01T12:17:22.000Z</time>
      </trkpt>
      <trkpt lat="45.74176" lon="6.65469">
        <ele>2349</ele>
        <time>2018-07-01T12:17:28.000Z</time>
      </trkpt>
      <trkpt lat="45.74183" lon="6.65458">
        <ele>2347</ele>
        <time>2018-07-01T12:17:34.000Z</time>
      </trkpt>
      <trkpt lat="45.74191" lon="6.65455">
        <ele>2346</ele>
        <time>2018-07-01T12:17:41.000Z</time>
      </trkpt>
      <trkpt lat="45.742" lon="6.65453">
        <ele>2343</ele>
        <time>2018-07-01T12:17:49.000Z</time>
      </trkpt>
      <trkpt lat="45.74203" lon="6.65427">
        <ele>2340</ele>
        <time>2018-07-01T12:17:58.000Z</time>
      </trkpt>
      <trkpt lat="45.742" lon="6.65383">
        <ele>2333</ele>
        <time>2018-07-01T12:18:12.000Z</time>
      </trkpt>
      <trkpt lat="45.74211" lon="6.65342">
        <ele>2329</ele>
        <time>2018-07-01T12:18:30.000Z</time>
      </trkpt>
      <trkpt lat="45.74209" lon="6.65329">
        <ele>2327</ele>
        <time>2018-07-01T12:18:36.000Z</time>
      </trkpt>
      <trkpt lat="45.74201" lon="6.65321">
        <ele>2324</ele>
        <time>2018-07-01T12:18:42.000Z</time>
      </trkpt>
      <trkpt lat="45.74197" lon="6.65308">
        <ele>2322</ele>
        <time>2018-07-01T12:18:48.000Z</time>
      </trkpt>
      <trkpt lat="45.74193" lon="6.65296">
        <ele>2320</ele>
        <time>2018-07-01T12:18:54.000Z</time>
      </trkpt>
      <trkpt lat="45.74192" lon="6.65255">
        <ele>2312</ele>
        <time>2018-07-01T12:19:13.000Z</time>
      </trkpt>
      <trkpt lat="45.74186" lon="6.65244">
        <ele>2311</ele>
        <time>2018-07-01T12:19:18.000Z</time>
      </trkpt>
      <trkpt lat="45.74189" lon="6.65237">
        <ele>2308</ele>
        <time>2018-07-01T12:19:30.000Z</time>
      </trkpt>
      <trkpt lat="45.74197" lon="6.65229">
        <ele>2305</ele>
        <time>2018-07-01T12:19:39.000Z</time>
      </trkpt>
      <trkpt lat="45.74208" lon="6.65223">
        <ele>2303</ele>
        <time>2018-07-01T12:19:47.000Z</time>
      </trkpt>
      <trkpt lat="45.74214" lon="6.65216">
        <ele>2298</ele>
        <time>2018-07-01T12:19:57.000Z</time>
      </trkpt>
      <trkpt lat="45.74233" lon="6.6521">
        <ele>2293</ele>
        <time>2018-07-01T12:20:13.000Z</time>
      </trkpt>
      <trkpt lat="45.74257" lon="6.65189">
        <ele>2282</ele>
        <time>2018-07-01T12:20:39.000Z</time>
      </trkpt>
      <trkpt lat="45.74258" lon="6.65181">
        <ele>2278</ele>
        <time>2018-07-01T12:20:48.000Z</time>
      </trkpt>
      <trkpt lat="45.74263" lon="6.65171">
        <ele>2274</ele>
        <time>2018-07-01T12:20:59.000Z</time>
      </trkpt>
      <trkpt lat="45.74268" lon="6.6516">
        <ele>2270</ele>
        <time>2018-07-01T12:21:08.000Z</time>
      </trkpt>
      <trkpt lat="45.74277" lon="6.65158">
        <ele>2268</ele>
        <time>2018-07-01T12:21:15.000Z</time>
      </trkpt>
      <trkpt lat="45.74288" lon="6.6516">
        <ele>2266</ele>
        <time>2018-07-01T12:21:23.000Z</time>
      </trkpt>
      <trkpt lat="45.74298" lon="6.65159">
        <ele>2263</ele>
        <time>2018-07-01T12:21:32.000Z</time>
      </trkpt>
      <trkpt lat="45.74306" lon="6.65158">
        <ele>2262</ele>
        <time>2018-07-01T12:21:40.000Z</time>
      </trkpt>
      <trkpt lat="45.74309" lon="6.65146">
        <ele>2258</ele>
        <time>2018-07-01T12:21:49.000Z</time>
      </trkpt>
      <trkpt lat="45.74304" lon="6.6514">
        <ele>2254</ele>
        <time>2018-07-01T12:21:56.000Z</time>
      </trkpt>
      <trkpt lat="45.74298" lon="6.65132">
        <ele>2251</ele>
        <time>2018-07-01T12:22:02.000Z</time>
      </trkpt>
      <trkpt lat="45.74292" lon="6.65122">
        <ele>2250</ele>
        <time>2018-07-01T12:22:08.000Z</time>
      </trkpt>
      <trkpt lat="45.74294" lon="6.65106">
        <ele>2246</ele>
        <time>2018-07-01T12:22:19.000Z</time>
      </trkpt>
      <trkpt lat="45.743" lon="6.6509">
        <ele>2242</ele>
        <time>2018-07-01T12:22:27.000Z</time>
      </trkpt>
      <trkpt lat="45.74303" lon="6.65077">
        <ele>2240</ele>
        <time>2018-07-01T12:22:32.000Z</time>
      </trkpt>
      <trkpt lat="45.74307" lon="6.65065">
        <ele>2239</ele>
        <time>2018-07-01T12:22:38.000Z</time>
      </trkpt>
      <trkpt lat="45.74308" lon="6.65051">
        <ele>2237</ele>
        <time>2018-07-01T12:22:47.000Z</time>
      </trkpt>
      <trkpt lat="45.74305" lon="6.65037">
        <ele>2237</ele>
        <time>2018-07-01T12:22:54.000Z</time>
      </trkpt>
      <trkpt lat="45.74308" lon="6.65025">
        <ele>2233</ele>
        <time>2018-07-01T12:23:03.000Z</time>
      </trkpt>
      <trkpt lat="45.74304" lon="6.65013">
        <ele>2232</ele>
        <time>2018-07-01T12:23:11.000Z</time>
      </trkpt>
      <trkpt lat="45.74301" lon="6.64998">
        <ele>2231</ele>
        <time>2018-07-01T12:23:21.000Z</time>
      </trkpt>
      <trkpt lat="45.74297" lon="6.64984">
        <ele>2229</ele>
        <time>2018-07-01T12:23:29.000Z</time>
      </trkpt>
      <trkpt lat="45.74293" lon="6.6497">
        <ele>2227</ele>
        <time>2018-07-01T12:23:36.000Z</time>
      </trkpt>
      <trkpt lat="45.74288" lon="6.64958">
        <ele>2225</ele>
        <time>2018-07-01T12:23:42.000Z</time>
      </trkpt>
      <trkpt lat="45.74284" lon="6.64946">
        <ele>2223</ele>
        <time>2018-07-01T12:23:49.000Z</time>
      </trkpt>
      <trkpt lat="45.74288" lon="6.64935">
        <ele>2219</ele>
        <time>2018-07-01T12:23:58.000Z</time>
      </trkpt>
      <trkpt lat="45.74274" lon="6.64914">
        <ele>2214</ele>
        <time>2018-07-01T12:24:13.000Z</time>
      </trkpt>
      <trkpt lat="45.74271" lon="6.64902">
        <ele>2212</ele>
        <time>2018-07-01T12:24:18.000Z</time>
      </trkpt>
      <trkpt lat="45.74271" lon="6.6489">
        <ele>2209</ele>
        <time>2018-07-01T12:24:25.000Z</time>
      </trkpt>
      <trkpt lat="45.74271" lon="6.64876">
        <ele>2206</ele>
        <time>2018-07-01T12:24:32.000Z</time>
      </trkpt>
      <trkpt lat="45.74271" lon="6.64863">
        <ele>2203</ele>
        <time>2018-07-01T12:24:38.000Z</time>
      </trkpt>
      <trkpt lat="45.74268" lon="6.64848">
        <ele>2203</ele>
        <time>2018-07-01T12:24:43.000Z</time>
      </trkpt>
      <trkpt lat="45.74264" lon="6.64806">
        <ele>2203</ele>
        <time>2018-07-01T12:24:53.000Z</time>
      </trkpt>
      <trkpt lat="45.74255" lon="6.64778">
        <ele>2203</ele>
        <time>2018-07-01T12:25:03.000Z</time>
      </trkpt>
      <trkpt lat="45.74254" lon="6.64771">
        <ele>2203</ele>
        <time>2018-10-06T14:42:28.000Z</time>
      </trkpt>
      <trkpt lat="45.74251" lon="6.64746">
        <ele>2201</ele>
        <time>2018-10-06T14:43:09.000Z</time>
      </trkpt>
      <trkpt lat="45.74251" lon="6.64735">
        <ele>2201</ele>
        <time>2018-10-06T14:43:16.000Z</time>
      </trkpt>
      <trkpt lat="45.74244" lon="6.64737">
        <ele>2201</ele>
        <time>2018-10-06T14:43:26.000Z</time>
      </trkpt>
      <trkpt lat="45.74236" lon="6.64729">
        <ele>2202</ele>
        <time>2018-10-06T14:43:33.000Z</time>
      </trkpt>
      <trkpt lat="45.74229" lon="6.64724">
        <ele>2202</ele>
        <time>2018-10-06T14:43:41.000Z</time>
      </trkpt>
      <trkpt lat="45.7422" lon="6.64717">
        <ele>2203</ele>
        <time>2018-10-06T14:43:48.000Z</time>
      </trkpt>
      <trkpt lat="45.74208" lon="6.64695">
        <ele>2205</ele>
        <time>2018-10-06T14:44:02.000Z</time>
      </trkpt>
      <trkpt lat="45.74201" lon="6.64687">
        <ele>2205</ele>
        <time>2018-10-06T14:44:08.000Z</time>
      </trkpt>
      <trkpt lat="45.74182" lon="6.64679">
        <ele>2206</ele>
        <time>2018-10-06T14:44:22.000Z</time>
      </trkpt>
      <trkpt lat="45.74174" lon="6.64674">
        <ele>2206</ele>
        <time>2018-10-06T14:44:28.000Z</time>
      </trkpt>
      <trkpt lat="45.74168" lon="6.64664">
        <ele>2204</ele>
        <time>2018-10-06T14:44:50.000Z</time>
      </trkpt>
      <trkpt lat="45.74164" lon="6.64651">
        <ele>2203</ele>
        <time>2018-10-06T14:44:56.000Z</time>
      </trkpt>
      <trkpt lat="45.74157" lon="6.64642">
        <ele>2202</ele>
        <time>2018-10-06T14:45:04.000Z</time>
      </trkpt>
      <trkpt lat="45.74153" lon="6.64616">
        <ele>2201</ele>
        <time>2018-10-06T14:45:18.000Z</time>
      </trkpt>
      <trkpt lat="45.74153" lon="6.64604">
        <ele>2200</ele>
        <time>2018-10-06T14:45:24.000Z</time>
      </trkpt>
      <trkpt lat="45.7415" lon="6.6459">
        <ele>2200</ele>
        <time>2018-10-06T14:45:31.000Z</time>
      </trkpt>
      <trkpt lat="45.74144" lon="6.6458">
        <ele>2201</ele>
        <time>2018-10-06T14:45:38.000Z</time>
      </trkpt>
      <trkpt lat="45.74139" lon="6.64568">
        <ele>2200</ele>
        <time>2018-10-06T14:45:44.000Z</time>
      </trkpt>
      <trkpt lat="45.74132" lon="6.64556">
        <ele>2200</ele>
        <time>2018-10-06T14:45:51.000Z</time>
      </trkpt>
      <trkpt lat="45.74125" lon="6.64547">
        <ele>2201</ele>
        <time>2018-10-06T14:45:57.000Z</time>
      </trkpt>
      <trkpt lat="45.74119" lon="6.64536">
        <ele>2201</ele>
        <time>2018-10-06T14:46:04.000Z</time>
      </trkpt>
      <trkpt lat="45.74115" lon="6.64525">
        <ele>2200</ele>
        <time>2018-10-06T14:46:10.000Z</time>
      </trkpt>
      <trkpt lat="45.74117" lon="6.64513">
        <ele>2202</ele>
        <time>2018-10-06T14:46:17.000Z</time>
      </trkpt>
      <trkpt lat="45.74112" lon="6.64487">
        <ele>2204</ele>
        <time>2018-10-06T14:46:34.000Z</time>
      </trkpt>
      <trkpt lat="45.74104" lon="6.64482">
        <ele>2205</ele>
        <time>2018-10-06T14:46:41.000Z</time>
      </trkpt>
      <trkpt lat="45.74098" lon="6.64472">
        <ele>2205</ele>
        <time>2018-10-06T14:46:48.000Z</time>
      </trkpt>
      <trkpt lat="45.74092" lon="6.64462">
        <ele>2205</ele>
        <time>2018-10-06T14:46:55.000Z</time>
      </trkpt>
      <trkpt lat="45.74089" lon="6.6445">
        <ele>2204</ele>
        <time>2018-10-06T14:47:03.000Z</time>
      </trkpt>
      <trkpt lat="45.74094" lon="6.64438">
        <ele>2202</ele>
        <time>2018-10-06T14:47:11.000Z</time>
      </trkpt>
      <trkpt lat="45.74093" lon="6.64425">
        <ele>2201</ele>
        <time>2018-10-06T14:47:20.000Z</time>
      </trkpt>
      <trkpt lat="45.74097" lon="6.64415">
        <ele>2197</ele>
        <time>2018-10-06T14:47:30.000Z</time>
      </trkpt>
      <trkpt lat="45.74094" lon="6.64402">
        <ele>2195</ele>
        <time>2018-10-06T14:47:36.000Z</time>
      </trkpt>
      <trkpt lat="45.74093" lon="6.64388">
        <ele>2194</ele>
        <time>2018-10-06T14:47:44.000Z</time>
      </trkpt>
      <trkpt lat="45.74094" lon="6.64366">
        <ele>2188</ele>
        <time>2018-10-06T14:48:00.000Z</time>
      </trkpt>
      <trkpt lat="45.74102" lon="6.64359">
        <ele>2185</ele>
        <time>2018-10-06T14:48:09.000Z</time>
      </trkpt>
      <trkpt lat="45.74099" lon="6.64345">
        <ele>2184</ele>
        <time>2018-10-06T14:48:16.000Z</time>
      </trkpt>
      <trkpt lat="45.74098" lon="6.64331">
        <ele>2183</ele>
        <time>2018-10-06T14:48:23.000Z</time>
      </trkpt>
      <trkpt lat="45.74096" lon="6.64319">
        <ele>2182</ele>
        <time>2018-10-06T14:48:30.000Z</time>
      </trkpt>
      <trkpt lat="45.74093" lon="6.64305">
        <ele>2181</ele>
        <time>2018-10-06T14:48:36.000Z</time>
      </trkpt>
      <trkpt lat="45.7409" lon="6.64294">
        <ele>2182</ele>
        <time>2018-10-06T14:48:42.000Z</time>
      </trkpt>
      <trkpt lat="45.74093" lon="6.64284">
        <ele>2184</ele>
        <time>2018-10-06T14:48:50.000Z</time>
      </trkpt>
      <trkpt lat="45.74086" lon="6.64273">
        <ele>2182</ele>
        <time>2018-10-06T14:48:58.000Z</time>
      </trkpt>
      <trkpt lat="45.74079" lon="6.64262">
        <ele>2180</ele>
        <time>2018-10-06T14:49:04.000Z</time>
      </trkpt>
      <trkpt lat="45.74074" lon="6.64249">
        <ele>2178</ele>
        <time>2018-10-06T14:49:10.000Z</time>
      </trkpt>
      <trkpt lat="45.74058" lon="6.64216">
        <ele>2178</ele>
        <time>2018-10-06T14:49:29.000Z</time>
      </trkpt>
      <trkpt lat="45.74051" lon="6.64208">
        <ele>2176</ele>
        <time>2018-10-06T14:49:38.000Z</time>
      </trkpt>
      <trkpt lat="45.74046" lon="6.64198">
        <ele>2176</ele>
        <time>2018-10-06T14:50:09.000Z</time>
      </trkpt>
      <trkpt lat="45.74033" lon="6.64175">
        <ele>2174</ele>
        <time>2018-10-06T14:50:21.000Z</time>
      </trkpt>
      <trkpt lat="45.7402" lon="6.64154">
        <ele>2172</ele>
        <time>2018-10-06T14:50:31.000Z</time>
      </trkpt>
      <trkpt lat="45.74015" lon="6.64142">
        <ele>2170</ele>
        <time>2018-10-06T14:50:37.000Z</time>
      </trkpt>
      <trkpt lat="45.74012" lon="6.64129">
        <ele>2167</ele>
        <time>2018-10-06T14:50:45.000Z</time>
      </trkpt>
      <trkpt lat="45.74002" lon="6.64106">
        <ele>2163</ele>
        <time>2018-10-06T14:50:57.000Z</time>
      </trkpt>
      <trkpt lat="45.73996" lon="6.64095">
        <ele>2162</ele>
        <time>2018-10-06T14:51:02.000Z</time>
      </trkpt>
      <trkpt lat="45.73991" lon="6.64084">
        <ele>2160</ele>
        <time>2018-10-06T14:51:07.000Z</time>
      </trkpt>
      <trkpt lat="45.7398" lon="6.64063">
        <ele>2157</ele>
        <time>2018-10-06T14:51:17.000Z</time>
      </trkpt>
      <trkpt lat="45.73975" lon="6.64049">
        <ele>2154</ele>
        <time>2018-10-06T14:51:24.000Z</time>
      </trkpt>
      <trkpt lat="45.73957" lon="6.64002">
        <ele>2145</ele>
        <time>2018-10-06T14:51:48.000Z</time>
      </trkpt>
      <trkpt lat="45.73954" lon="6.63989">
        <ele>2142</ele>
        <time>2018-10-06T14:51:56.000Z</time>
      </trkpt>
      <trkpt lat="45.73949" lon="6.63978">
        <ele>2139</ele>
        <time>2018-10-06T14:52:04.000Z</time>
      </trkpt>
      <trkpt lat="45.73937" lon="6.63957">
        <ele>2132</ele>
        <time>2018-10-06T14:52:18.000Z</time>
      </trkpt>
      <trkpt lat="45.73925" lon="6.63935">
        <ele>2127</ele>
        <time>2018-10-06T14:52:31.000Z</time>
      </trkpt>
      <trkpt lat="45.73918" lon="6.63925">
        <ele>2125</ele>
        <time>2018-10-06T14:52:37.000Z</time>
      </trkpt>
      <trkpt lat="45.7391" lon="6.63917">
        <ele>2123</ele>
        <time>2018-10-06T14:52:43.000Z</time>
      </trkpt>
      <trkpt lat="45.73903" lon="6.63909">
        <ele>2121</ele>
        <time>2018-10-06T14:52:48.000Z</time>
      </trkpt>
      <trkpt lat="45.73898" lon="6.63897">
        <ele>2120</ele>
        <time>2018-10-06T14:52:54.000Z</time>
      </trkpt>
      <trkpt lat="45.73891" lon="6.63887">
        <ele>2118</ele>
        <time>2018-10-06T14:52:59.000Z</time>
      </trkpt>
      <trkpt lat="45.7388" lon="6.63863">
        <ele>2113</ele>
        <time>2018-10-06T14:53:13.000Z</time>
      </trkpt>
      <trkpt lat="45.73874" lon="6.63852">
        <ele>2111</ele>
        <time>2018-10-06T14:53:19.000Z</time>
      </trkpt>
      <trkpt lat="45.73868" lon="6.63843">
        <ele>2109</ele>
        <time>2018-10-06T14:53:24.000Z</time>
      </trkpt>
      <trkpt lat="45.73855" lon="6.63821">
        <ele>2106</ele>
        <time>2018-10-06T14:53:36.000Z</time>
      </trkpt>
      <trkpt lat="45.73843" lon="6.63797">
        <ele>2104</ele>
        <time>2018-10-06T14:53:48.000Z</time>
      </trkpt>
      <trkpt lat="45.73824" lon="6.63762">
        <ele>2102</ele>
        <time>2018-10-06T14:54:04.000Z</time>
      </trkpt>
      <trkpt lat="45.73813" lon="6.63738">
        <ele>2101</ele>
        <time>2018-10-06T14:54:14.000Z</time>
      </trkpt>
      <trkpt lat="45.73796" lon="6.63706">
        <ele>2098</ele>
        <time>2018-10-06T14:54:32.000Z</time>
      </trkpt>
      <trkpt lat="45.73788" lon="6.63695">
        <ele>2097</ele>
        <time>2018-10-06T14:54:38.000Z</time>
      </trkpt>
      <trkpt lat="45.73784" lon="6.63684">
        <ele>2097</ele>
        <time>2018-10-06T14:54:45.000Z</time>
      </trkpt>
      <trkpt lat="45.73781" lon="6.63672">
        <ele>2094</ele>
        <time>2018-10-06T14:54:52.000Z</time>
      </trkpt>
      <trkpt lat="45.73776" lon="6.63659">
        <ele>2094</ele>
        <time>2018-10-06T14:54:58.000Z</time>
      </trkpt>
      <trkpt lat="45.73765" lon="6.63638">
        <ele>2094</ele>
        <time>2018-10-06T14:55:09.000Z</time>
      </trkpt>
      <trkpt lat="45.73754" lon="6.63614">
        <ele>2094</ele>
        <time>2018-10-06T14:55:21.000Z</time>
      </trkpt>
      <trkpt lat="45.73746" lon="6.63606">
        <ele>2094</ele>
        <time>2018-10-06T14:55:27.000Z</time>
      </trkpt>
      <trkpt lat="45.7374" lon="6.63596">
        <ele>2094</ele>
        <time>2018-10-06T14:55:33.000Z</time>
      </trkpt>
      <trkpt lat="45.73737" lon="6.63584">
        <ele>2095</ele>
        <time>2018-10-06T14:55:40.000Z</time>
      </trkpt>
      <trkpt lat="45.73733" lon="6.63572">
        <ele>2096</ele>
        <time>2018-10-06T14:55:47.000Z</time>
      </trkpt>
      <trkpt lat="45.73728" lon="6.6356">
        <ele>2097</ele>
        <time>2018-10-06T14:55:54.000Z</time>
      </trkpt>
      <trkpt lat="45.73711" lon="6.63527">
        <ele>2099</ele>
        <time>2018-10-06T14:56:15.000Z</time>
      </trkpt>
      <trkpt lat="45.73709" lon="6.63515">
        <ele>2100</ele>
        <time>2018-10-06T14:56:22.000Z</time>
      </trkpt>
      <trkpt lat="45.73706" lon="6.63503">
        <ele>2100</ele>
        <time>2018-10-06T14:56:28.000Z</time>
      </trkpt>
      <trkpt lat="45.73704" lon="6.63489">
        <ele>2101</ele>
        <time>2018-10-06T14:56:35.000Z</time>
      </trkpt>
      <trkpt lat="45.737" lon="6.63476">
        <ele>2101</ele>
        <time>2018-10-06T14:56:42.000Z</time>
      </trkpt>
      <trkpt lat="45.73697" lon="6.63448">
        <ele>2101</ele>
        <time>2018-10-06T14:56:56.000Z</time>
      </trkpt>
      <trkpt lat="45.73703" lon="6.63438">
        <ele>2104</ele>
        <time>2018-10-06T14:57:05.000Z</time>
      </trkpt>
      <trkpt lat="45.73704" lon="6.63424">
        <ele>2106</ele>
        <time>2018-10-06T14:57:13.000Z</time>
      </trkpt>
      <trkpt lat="45.73704" lon="6.63396">
        <ele>2108</ele>
        <time>2018-10-06T14:57:29.000Z</time>
      </trkpt>
      <trkpt lat="45.73704" lon="6.63382">
        <ele>2110</ele>
        <time>2018-10-06T14:57:38.000Z</time>
      </trkpt>
      <trkpt lat="45.73706" lon="6.63358">
        <ele>2115</ele>
        <time>2018-10-06T14:57:57.000Z</time>
      </trkpt>
      <trkpt lat="45.73715" lon="6.63353">
        <ele>2117</ele>
        <time>2018-10-06T14:58:06.000Z</time>
      </trkpt>
      <trkpt lat="45.73723" lon="6.63347">
        <ele>2118</ele>
        <time>2018-10-06T14:58:15.000Z</time>
      </trkpt>
      <trkpt lat="45.73722" lon="6.63339">
        <ele>2120</ele>
        <time>2018-10-06T14:58:25.000Z</time>
      </trkpt>
      <trkpt lat="45.73708" lon="6.63321">
        <ele>2124</ele>
        <time>2018-10-06T14:58:47.000Z</time>
      </trkpt>
      <trkpt lat="45.7369" lon="6.63287">
        <ele>2130</ele>
        <time>2018-10-06T14:59:15.000Z</time>
      </trkpt>
      <trkpt lat="45.73681" lon="6.63264">
        <ele>2134</ele>
        <time>2018-10-06T14:59:33.000Z</time>
      </trkpt>
      <trkpt lat="45.7369" lon="6.63261">
        <ele>2136</ele>
        <time>2018-10-06T14:59:44.000Z</time>
      </trkpt>
      <trkpt lat="45.73698" lon="6.63264">
        <ele>2138</ele>
        <time>2018-10-06T14:59:56.000Z</time>
      </trkpt>
      <trkpt lat="45.73718" lon="6.63267">
        <ele>2143</ele>
        <time>2018-10-06T15:00:19.000Z</time>
      </trkpt>
      <trkpt lat="45.73727" lon="6.63268">
        <ele>2145</ele>
        <time>2018-10-06T15:00:31.000Z</time>
      </trkpt>
      <trkpt lat="45.73736" lon="6.63264">
        <ele>2148</ele>
        <time>2018-10-06T15:00:42.000Z</time>
      </trkpt>
      <trkpt lat="45.73723" lon="6.63244">
        <ele>2152</ele>
        <time>2018-10-06T15:01:06.000Z</time>
      </trkpt>
      <trkpt lat="45.73729" lon="6.63241">
        <ele>2155</ele>
        <time>2018-10-06T15:01:20.000Z</time>
      </trkpt>
      <trkpt lat="45.73739" lon="6.63238">
        <ele>2157</ele>
        <time>2018-10-06T15:01:34.000Z</time>
      </trkpt>
      <trkpt lat="45.73748" lon="6.63233">
        <ele>2160</ele>
        <time>2018-10-06T15:01:47.000Z</time>
      </trkpt>
      <trkpt lat="45.73755" lon="6.63226">
        <ele>2162</ele>
        <time>2018-10-06T15:01:57.000Z</time>
      </trkpt>
      <trkpt lat="45.73763" lon="6.63221">
        <ele>2164</ele>
        <time>2018-10-06T15:02:08.000Z</time>
      </trkpt>
      <trkpt lat="45.7377" lon="6.63213">
        <ele>2165</ele>
        <time>2018-10-06T15:02:17.000Z</time>
      </trkpt>
      <trkpt lat="45.73772" lon="6.63199">
        <ele>2167</ele>
        <time>2018-10-06T15:02:26.000Z</time>
      </trkpt>
      <trkpt lat="45.73766" lon="6.63188">
        <ele>2168</ele>
        <time>2018-10-06T15:02:33.000Z</time>
      </trkpt>
      <trkpt lat="45.73763" lon="6.63175">
        <ele>2167</ele>
        <time>2018-10-06T15:02:39.000Z</time>
      </trkpt>
      <trkpt lat="45.73764" lon="6.63162">
        <ele>2167</ele>
        <time>2018-10-06T15:02:45.000Z</time>
      </trkpt>
      <trkpt lat="45.73767" lon="6.63149">
        <ele>2167</ele>
        <time>2018-10-06T15:02:52.000Z</time>
      </trkpt>
      <trkpt lat="45.73767" lon="6.63135">
        <ele>2166</ele>
        <time>2018-10-06T15:02:58.000Z</time>
      </trkpt>
      <trkpt lat="45.73768" lon="6.63123">
        <ele>2166</ele>
        <time>2018-10-06T15:03:04.000Z</time>
      </trkpt>
      <trkpt lat="45.73774" lon="6.63112">
        <ele>2165</ele>
        <time>2018-10-06T15:03:10.000Z</time>
      </trkpt>
      <trkpt lat="45.73784" lon="6.63072">
        <ele>2166</ele>
        <time>2018-10-06T15:03:29.000Z</time>
      </trkpt>
      <trkpt lat="45.73786" lon="6.63058">
        <ele>2166</ele>
        <time>2018-10-06T15:03:38.000Z</time>
      </trkpt>
      <trkpt lat="45.73794" lon="6.63018">
        <ele>2165</ele>
        <time>2018-10-06T15:03:55.000Z</time>
      </trkpt>
      <trkpt lat="45.73797" lon="6.63006">
        <ele>2165</ele>
        <time>2018-10-06T15:04:04.000Z</time>
      </trkpt>
      <trkpt lat="45.73799" lon="6.62991">
        <ele>2165</ele>
        <time>2018-10-06T15:04:23.000Z</time>
      </trkpt>
      <trkpt lat="45.73799" lon="6.62977">
        <ele>2165</ele>
        <time>2018-10-06T15:04:30.000Z</time>
      </trkpt>
      <trkpt lat="45.73797" lon="6.62963">
        <ele>2165</ele>
        <time>2018-10-06T15:04:37.000Z</time>
      </trkpt>
      <trkpt lat="45.73797" lon="6.62949">
        <ele>2166</ele>
        <time>2018-10-06T15:04:49.000Z</time>
      </trkpt>
      <trkpt lat="45.73792" lon="6.62908">
        <ele>2165</ele>
        <time>2018-10-06T15:05:09.000Z</time>
      </trkpt>
      <trkpt lat="45.73788" lon="6.62896">
        <ele>2164</ele>
        <time>2018-10-06T15:05:14.000Z</time>
      </trkpt>
      <trkpt lat="45.73785" lon="6.62881">
        <ele>2164</ele>
        <time>2018-10-06T15:05:21.000Z</time>
      </trkpt>
      <trkpt lat="45.73777" lon="6.62854">
        <ele>2166</ele>
        <time>2018-10-06T15:05:35.000Z</time>
      </trkpt>
      <trkpt lat="45.73764" lon="6.62817">
        <ele>2167</ele>
        <time>2018-10-06T15:05:53.000Z</time>
      </trkpt>
      <trkpt lat="45.73754" lon="6.62795">
        <ele>2168</ele>
        <time>2018-10-06T15:06:05.000Z</time>
      </trkpt>
      <trkpt lat="45.7374" lon="6.62778">
        <ele>2172</ele>
        <time>2018-10-06T15:06:19.000Z</time>
      </trkpt>
      <trkpt lat="45.73732" lon="6.62768">
        <ele>2173</ele>
        <time>2018-10-06T15:06:26.000Z</time>
      </trkpt>
      <trkpt lat="45.73725" lon="6.6276">
        <ele>2172</ele>
        <time>2018-10-06T15:06:47.000Z</time>
      </trkpt>
      <trkpt lat="45.73717" lon="6.6275">
        <ele>2171</ele>
        <time>2018-10-06T15:06:53.000Z</time>
      </trkpt>
      <trkpt lat="45.73709" lon="6.62743">
        <ele>2169</ele>
        <time>2018-10-06T15:06:59.000Z</time>
      </trkpt>
      <trkpt lat="45.73701" lon="6.62733">
        <ele>2166</ele>
        <time>2018-10-06T15:07:06.000Z</time>
      </trkpt>
      <trkpt lat="45.73694" lon="6.62721">
        <ele>2164</ele>
        <time>2018-10-06T15:07:12.000Z</time>
      </trkpt>
      <trkpt lat="45.73687" lon="6.62713">
        <ele>2164</ele>
        <time>2018-10-06T15:07:17.000Z</time>
      </trkpt>
      <trkpt lat="45.73679" lon="6.62707">
        <ele>2162</ele>
        <time>2018-10-06T15:07:23.000Z</time>
      </trkpt>
      <trkpt lat="45.73672" lon="6.62698">
        <ele>2160</ele>
        <time>2018-10-06T15:07:28.000Z</time>
      </trkpt>
      <trkpt lat="45.73666" lon="6.62687">
        <ele>2160</ele>
        <time>2018-10-06T15:07:34.000Z</time>
      </trkpt>
      <trkpt lat="45.73655" lon="6.62686">
        <ele>2160</ele>
        <time>2018-10-06T15:07:40.000Z</time>
      </trkpt>
      <trkpt lat="45.73648" lon="6.62679">
        <ele>2161</ele>
        <time>2018-10-06T15:07:46.000Z</time>
      </trkpt>
      <trkpt lat="45.73636" lon="6.62657">
        <ele>2159</ele>
        <time>2018-10-06T15:07:57.000Z</time>
      </trkpt>
      <trkpt lat="45.73628" lon="6.62646">
        <ele>2158</ele>
        <time>2018-10-06T15:08:03.000Z</time>
      </trkpt>
      <trkpt lat="45.7362" lon="6.62638">
        <ele>2158</ele>
        <time>2018-10-06T15:08:08.000Z</time>
      </trkpt>
      <trkpt lat="45.73614" lon="6.62628">
        <ele>2158</ele>
        <time>2018-10-06T15:08:13.000Z</time>
      </trkpt>
      <trkpt lat="45.73607" lon="6.62619">
        <ele>2157</ele>
        <time>2018-10-06T15:08:18.000Z</time>
      </trkpt>
      <trkpt lat="45.73602" lon="6.62609">
        <ele>2156</ele>
        <time>2018-10-06T15:08:23.000Z</time>
      </trkpt>
      <trkpt lat="45.73594" lon="6.626">
        <ele>2155</ele>
        <time>2018-10-06T15:08:29.000Z</time>
      </trkpt>
      <trkpt lat="45.73586" lon="6.62594">
        <ele>2154</ele>
        <time>2018-10-06T15:08:34.000Z</time>
      </trkpt>
      <trkpt lat="45.73575" lon="6.62593">
        <ele>2152</ele>
        <time>2018-10-06T15:08:40.000Z</time>
      </trkpt>
      <trkpt lat="45.73565" lon="6.62594">
        <ele>2151</ele>
        <time>2018-10-06T15:08:45.000Z</time>
      </trkpt>
      <trkpt lat="45.73535" lon="6.62593">
        <ele>2145</ele>
        <time>2018-10-06T15:09:02.000Z</time>
      </trkpt>
      <trkpt lat="45.73526" lon="6.6259">
        <ele>2143</ele>
        <time>2018-10-06T15:09:07.000Z</time>
      </trkpt>
      <trkpt lat="45.73508" lon="6.62583">
        <ele>2140</ele>
        <time>2018-10-06T15:09:17.000Z</time>
      </trkpt>
      <trkpt lat="45.73499" lon="6.62578">
        <ele>2139</ele>
        <time>2018-10-06T15:09:22.000Z</time>
      </trkpt>
      <trkpt lat="45.73491" lon="6.62571">
        <ele>2138</ele>
        <time>2018-10-06T15:09:27.000Z</time>
      </trkpt>
      <trkpt lat="45.73484" lon="6.62561">
        <ele>2137</ele>
        <time>2018-10-06T15:09:33.000Z</time>
      </trkpt>
      <trkpt lat="45.73467" lon="6.62547">
        <ele>2134</ele>
        <time>2018-10-06T15:09:45.000Z</time>
      </trkpt>
      <trkpt lat="45.73459" lon="6.6254">
        <ele>2131</ele>
        <time>2018-10-06T15:09:52.000Z</time>
      </trkpt>
      <trkpt lat="45.7345" lon="6.62536">
        <ele>2127</ele>
        <time>2018-10-06T15:10:00.000Z</time>
      </trkpt>
      <trkpt lat="45.73442" lon="6.62528">
        <ele>2124</ele>
        <time>2018-10-06T15:10:08.000Z</time>
      </trkpt>
      <trkpt lat="45.73433" lon="6.62524">
        <ele>2121</ele>
        <time>2018-10-06T15:10:15.000Z</time>
      </trkpt>
      <trkpt lat="45.73413" lon="6.62514">
        <ele>2117</ele>
        <time>2018-10-06T15:10:26.000Z</time>
      </trkpt>
      <trkpt lat="45.73403" lon="6.62512">
        <ele>2116</ele>
        <time>2018-10-06T15:10:32.000Z</time>
      </trkpt>
      <trkpt lat="45.73395" lon="6.62512">
        <ele>2112</ele>
        <time>2018-10-06T15:10:39.000Z</time>
      </trkpt>
      <trkpt lat="45.73385" lon="6.62512">
        <ele>2109</ele>
        <time>2018-10-06T15:10:47.000Z</time>
      </trkpt>
      <trkpt lat="45.73376" lon="6.62516">
        <ele>2106</ele>
        <time>2018-10-06T15:10:54.000Z</time>
      </trkpt>
      <trkpt lat="45.73367" lon="6.62516">
        <ele>2104</ele>
        <time>2018-10-06T15:11:00.000Z</time>
      </trkpt>
      <trkpt lat="45.73357" lon="6.62515">
        <ele>2102</ele>
        <time>2018-10-06T15:11:05.000Z</time>
      </trkpt>
      <trkpt lat="45.73347" lon="6.62517">
        <ele>2100</ele>
        <time>2018-10-06T15:11:10.000Z</time>
      </trkpt>
      <trkpt lat="45.73337" lon="6.62522">
        <ele>2099</ele>
        <time>2018-10-06T15:11:15.000Z</time>
      </trkpt>
      <trkpt lat="45.73326" lon="6.62525">
        <ele>2099</ele>
        <time>2018-10-06T15:11:20.000Z</time>
      </trkpt>
      <trkpt lat="45.73317" lon="6.62517">
        <ele>2098</ele>
        <time>2018-10-06T15:11:25.000Z</time>
      </trkpt>
      <trkpt lat="45.73303" lon="6.62498">
        <ele>2097</ele>
        <time>2018-10-06T15:11:35.000Z</time>
      </trkpt>
      <trkpt lat="45.73289" lon="6.62482">
        <ele>2096</ele>
        <time>2018-10-06T15:11:45.000Z</time>
      </trkpt>
      <trkpt lat="45.73282" lon="6.62473">
        <ele>2094</ele>
        <time>2018-10-06T15:11:52.000Z</time>
      </trkpt>
      <trkpt lat="45.73274" lon="6.62467">
        <ele>2093</ele>
        <time>2018-10-06T15:11:59.000Z</time>
      </trkpt>
      <trkpt lat="45.73267" lon="6.62458">
        <ele>2092</ele>
        <time>2018-10-06T15:12:06.000Z</time>
      </trkpt>
      <trkpt lat="45.73261" lon="6.62447">
        <ele>2090</ele>
        <time>2018-10-06T15:12:16.000Z</time>
      </trkpt>
      <trkpt lat="45.73253" lon="6.62449">
        <ele>2087</ele>
        <time>2018-10-06T15:12:24.000Z</time>
      </trkpt>
      <trkpt lat="45.73248" lon="6.6246">
        <ele>2085</ele>
        <time>2018-10-06T15:12:31.000Z</time>
      </trkpt>
      <trkpt lat="45.7324" lon="6.62466">
        <ele>2083</ele>
        <time>2018-10-06T15:12:37.000Z</time>
      </trkpt>
      <trkpt lat="45.73231" lon="6.62469">
        <ele>2082</ele>
        <time>2018-10-06T15:12:43.000Z</time>
      </trkpt>
      <trkpt lat="45.73221" lon="6.62471">
        <ele>2081</ele>
        <time>2018-10-06T15:12:48.000Z</time>
      </trkpt>
      <trkpt lat="45.73211" lon="6.62467">
        <ele>2081</ele>
        <time>2018-10-06T15:12:54.000Z</time>
      </trkpt>
      <trkpt lat="45.73202" lon="6.62463">
        <ele>2081</ele>
        <time>2018-10-06T15:13:00.000Z</time>
      </trkpt>
      <trkpt lat="45.73194" lon="6.62456">
        <ele>2078</ele>
        <time>2018-10-06T15:13:07.000Z</time>
      </trkpt>
      <trkpt lat="45.73184" lon="6.62455">
        <ele>2075</ele>
        <time>2018-10-06T15:13:15.000Z</time>
      </trkpt>
      <trkpt lat="45.73175" lon="6.62458">
        <ele>2071</ele>
        <time>2018-10-06T15:13:23.000Z</time>
      </trkpt>
      <trkpt lat="45.73168" lon="6.6245">
        <ele>2068</ele>
        <time>2018-10-06T15:13:30.000Z</time>
      </trkpt>
      <trkpt lat="45.73167" lon="6.62446">
        <ele>2070</ele>
        <time>2018-10-06T15:15:13.000Z</time>
      </trkpt>
      <trkpt lat="45.7316" lon="6.62439">
        <ele>2071</ele>
        <time>2018-10-06T15:15:22.000Z</time>
      </trkpt>
      <trkpt lat="45.7315" lon="6.62436">
        <ele>2072</ele>
        <time>2018-10-06T15:15:30.000Z</time>
      </trkpt>
      <trkpt lat="45.73141" lon="6.62432">
        <ele>2072</ele>
        <time>2018-10-06T15:15:38.000Z</time>
      </trkpt>
      <trkpt lat="45.73133" lon="6.62424">
        <ele>2070</ele>
        <time>2018-10-06T15:15:45.000Z</time>
      </trkpt>
      <trkpt lat="45.73126" lon="6.62414">
        <ele>2068</ele>
        <time>2018-10-06T15:15:52.000Z</time>
      </trkpt>
      <trkpt lat="45.73111" lon="6.62398">
        <ele>2067</ele>
        <time>2018-10-06T15:16:04.000Z</time>
      </trkpt>
      <trkpt lat="45.73103" lon="6.62394">
        <ele>2066</ele>
        <time>2018-10-06T15:16:10.000Z</time>
      </trkpt>
      <trkpt lat="45.73093" lon="6.62387">
        <ele>2066</ele>
        <time>2018-10-06T15:16:17.000Z</time>
      </trkpt>
      <trkpt lat="45.73086" lon="6.62377">
        <ele>2066</ele>
        <time>2018-10-06T15:16:24.000Z</time>
      </trkpt>
      <trkpt lat="45.73078" lon="6.62369">
        <ele>2066</ele>
        <time>2018-10-06T15:16:31.000Z</time>
      </trkpt>
      <trkpt lat="45.73062" lon="6.62356">
        <ele>2066</ele>
        <time>2018-10-06T15:16:43.000Z</time>
      </trkpt>
      <trkpt lat="45.73053" lon="6.62351">
        <ele>2066</ele>
        <time>2018-10-06T15:16:49.000Z</time>
      </trkpt>
      <trkpt lat="45.73039" lon="6.62332">
        <ele>2066</ele>
        <time>2018-10-06T15:17:02.000Z</time>
      </trkpt>
      <trkpt lat="45.73024" lon="6.62315">
        <ele>2065</ele>
        <time>2018-10-06T15:17:14.000Z</time>
      </trkpt>
      <trkpt lat="45.73017" lon="6.62305">
        <ele>2066</ele>
        <time>2018-10-06T15:17:21.000Z</time>
      </trkpt>
      <trkpt lat="45.73004" lon="6.62287">
        <ele>2069</ele>
        <time>2018-10-06T15:17:36.000Z</time>
      </trkpt>
      <trkpt lat="45.72997" lon="6.62278">
        <ele>2071</ele>
        <time>2018-10-06T15:17:46.000Z</time>
      </trkpt>
      <trkpt lat="45.72992" lon="6.62267">
        <ele>2073</ele>
        <time>2018-10-06T15:17:56.000Z</time>
      </trkpt>
      <trkpt lat="45.72985" lon="6.62258">
        <ele>2074</ele>
        <time>2018-10-06T15:18:04.000Z</time>
      </trkpt>
      <trkpt lat="45.7298" lon="6.62249">
        <ele>2075</ele>
        <time>2018-10-06T15:18:17.000Z</time>
      </trkpt>
      <trkpt lat="45.72975" lon="6.62237">
        <ele>2076</ele>
        <time>2018-10-06T15:18:27.000Z</time>
      </trkpt>
      <trkpt lat="45.72972" lon="6.62224">
        <ele>2079</ele>
        <time>2018-10-06T15:18:37.000Z</time>
      </trkpt>
      <trkpt lat="45.72968" lon="6.62212">
        <ele>2081</ele>
        <time>2018-10-06T15:18:47.000Z</time>
      </trkpt>
      <trkpt lat="45.72962" lon="6.62202">
        <ele>2083</ele>
        <time>2018-10-06T15:18:56.000Z</time>
      </trkpt>
      <trkpt lat="45.72946" lon="6.62169">
        <ele>2088</ele>
        <time>2018-10-06T15:19:25.000Z</time>
      </trkpt>
      <trkpt lat="45.72934" lon="6.62149">
        <ele>2092</ele>
        <time>2018-10-06T15:19:43.000Z</time>
      </trkpt>
      <trkpt lat="45.72929" lon="6.62138">
        <ele>2093</ele>
        <time>2018-10-06T15:19:52.000Z</time>
      </trkpt>
      <trkpt lat="45.72924" lon="6.62128">
        <ele>2096</ele>
        <time>2018-10-06T15:20:03.000Z</time>
      </trkpt>
      <trkpt lat="45.72912" lon="6.62107">
        <ele>2099</ele>
        <time>2018-10-06T15:20:23.000Z</time>
      </trkpt>
      <trkpt lat="45.72896" lon="6.62097">
        <ele>2103</ele>
        <time>2018-10-06T15:20:43.000Z</time>
      </trkpt>
      <trkpt lat="45.72886" lon="6.62094">
        <ele>2105</ele>
        <time>2018-10-06T15:20:54.000Z</time>
      </trkpt>
      <trkpt lat="45.72877" lon="6.62093">
        <ele>2108</ele>
        <time>2018-10-06T15:21:06.000Z</time>
      </trkpt>
      <trkpt lat="45.72868" lon="6.62091">
        <ele>2111</ele>
        <time>2018-10-06T15:21:17.000Z</time>
      </trkpt>
      <trkpt lat="45.72858" lon="6.6209">
        <ele>2112</ele>
        <time>2018-10-06T15:21:26.000Z</time>
      </trkpt>
      <trkpt lat="45.72851" lon="6.62083">
        <ele>2114</ele>
        <time>2018-10-06T15:21:34.000Z</time>
      </trkpt>
      <trkpt lat="45.72847" lon="6.62072">
        <ele>2116</ele>
        <time>2018-10-06T15:21:43.000Z</time>
      </trkpt>
      <trkpt lat="45.72851" lon="6.62061">
        <ele>2117</ele>
        <time>2018-10-06T15:21:51.000Z</time>
      </trkpt>
      <trkpt lat="45.72848" lon="6.62047">
        <ele>2118</ele>
        <time>2018-10-06T15:21:58.000Z</time>
      </trkpt>
      <trkpt lat="45.72844" lon="6.62034">
        <ele>2118</ele>
        <time>2018-10-06T15:22:05.000Z</time>
      </trkpt>
      <trkpt lat="45.72838" lon="6.62022">
        <ele>2118</ele>
        <time>2018-10-06T15:22:12.000Z</time>
      </trkpt>
      <trkpt lat="45.72835" lon="6.62009">
        <ele>2119</ele>
        <time>2018-10-06T15:22:19.000Z</time>
      </trkpt>
      <trkpt lat="45.72829" lon="6.61996">
        <ele>2119</ele>
        <time>2018-10-06T15:22:26.000Z</time>
      </trkpt>
      <trkpt lat="45.72825" lon="6.61984">
        <ele>2119</ele>
        <time>2018-10-06T15:22:32.000Z</time>
      </trkpt>
      <trkpt lat="45.72821" lon="6.61973">
        <ele>2120</ele>
        <time>2018-10-06T15:22:38.000Z</time>
      </trkpt>
      <trkpt lat="45.72817" lon="6.61961">
        <ele>2120</ele>
        <time>2018-10-06T15:22:45.000Z</time>
      </trkpt>
      <trkpt lat="45.72812" lon="6.61951">
        <ele>2121</ele>
        <time>2018-10-06T15:22:51.000Z</time>
      </trkpt>
      <trkpt lat="45.72806" lon="6.61941">
        <ele>2122</ele>
        <time>2018-10-06T15:22:58.000Z</time>
      </trkpt>
      <trkpt lat="45.72799" lon="6.61932">
        <ele>2123</ele>
        <time>2018-10-06T15:23:06.000Z</time>
      </trkpt>
      <trkpt lat="45.72791" lon="6.61925">
        <ele>2125</ele>
        <time>2018-10-06T15:23:13.000Z</time>
      </trkpt>
      <trkpt lat="45.72772" lon="6.61923">
        <ele>2128</ele>
        <time>2018-10-06T15:23:28.000Z</time>
      </trkpt>
      <trkpt lat="45.72764" lon="6.61915">
        <ele>2130</ele>
        <time>2018-10-06T15:23:36.000Z</time>
      </trkpt>
      <trkpt lat="45.72755" lon="6.61908">
        <ele>2132</ele>
        <time>2018-10-06T15:23:44.000Z</time>
      </trkpt>
      <trkpt lat="45.72745" lon="6.61907">
        <ele>2133</ele>
        <time>2018-10-06T15:23:52.000Z</time>
      </trkpt>
      <trkpt lat="45.72738" lon="6.61913">
        <ele>2135</ele>
        <time>2018-10-06T15:25:13.000Z</time>
      </trkpt>
      <trkpt lat="45.72729" lon="6.61923">
        <ele>2136</ele>
        <time>2018-10-06T15:25:21.000Z</time>
      </trkpt>
      <trkpt lat="45.72721" lon="6.6192">
        <ele>2137</ele>
        <time>2018-10-06T15:27:21.000Z</time>
      </trkpt>
      <trkpt lat="45.72717" lon="6.61911">
        <ele>2138</ele>
        <time>2018-10-06T15:27:59.000Z</time>
      </trkpt>
      <trkpt lat="45.72709" lon="6.61888">
        <ele>2141</ele>
        <time>2018-10-06T15:28:24.000Z</time>
      </trkpt>
      <trkpt lat="45.72691" lon="6.61857">
        <ele>2144</ele>
        <time>2018-10-06T15:28:46.000Z</time>
      </trkpt>
      <trkpt lat="45.72681" lon="6.61855">
        <ele>2145</ele>
        <time>2018-10-06T15:28:54.000Z</time>
      </trkpt>
      <trkpt lat="45.72671" lon="6.61848">
        <ele>2149</ele>
        <time>2018-10-06T15:29:35.000Z</time>
      </trkpt>
      <trkpt lat="45.72665" lon="6.61837">
        <ele>2151</ele>
        <time>2018-10-06T15:29:46.000Z</time>
      </trkpt>
      <trkpt lat="45.72659" lon="6.61827">
        <ele>2154</ele>
        <time>2018-10-06T15:29:57.000Z</time>
      </trkpt>
      <trkpt lat="45.72655" lon="6.61815">
        <ele>2157</ele>
        <time>2018-10-06T15:30:11.000Z</time>
      </trkpt>
      <trkpt lat="45.72651" lon="6.61803">
        <ele>2159</ele>
        <time>2018-10-06T15:30:22.000Z</time>
      </trkpt>
      <trkpt lat="45.7265" lon="6.6179">
        <ele>2162</ele>
        <time>2018-10-06T15:30:32.000Z</time>
      </trkpt>
      <trkpt lat="45.72645" lon="6.6178">
        <ele>2164</ele>
        <time>2018-10-06T15:30:41.000Z</time>
      </trkpt>
      <trkpt lat="45.72635" lon="6.61779">
        <ele>2165</ele>
        <time>2018-10-06T15:30:50.000Z</time>
      </trkpt>
      <trkpt lat="45.72634" lon="6.6177">
        <ele>2166</ele>
        <time>2018-10-06T15:31:29.000Z</time>
      </trkpt>
      <trkpt lat="45.72637" lon="6.61757">
        <ele>2167</ele>
        <time>2018-10-06T15:31:36.000Z</time>
      </trkpt>
      <trkpt lat="45.72652" lon="6.6174">
        <ele>2169</ele>
        <time>2018-10-06T15:31:53.000Z</time>
      </trkpt>
      <trkpt lat="45.72659" lon="6.6173">
        <ele>2170</ele>
        <time>2018-10-06T15:32:00.000Z</time>
      </trkpt>
      <trkpt lat="45.72666" lon="6.61721">
        <ele>2171</ele>
        <time>2018-10-06T15:32:07.000Z</time>
      </trkpt>
      <trkpt lat="45.72671" lon="6.6171">
        <ele>2172</ele>
        <time>2018-10-06T15:32:14.000Z</time>
      </trkpt>
      <trkpt lat="45.72674" lon="6.61698">
        <ele>2172</ele>
        <time>2018-10-06T15:32:21.000Z</time>
      </trkpt>
      <trkpt lat="45.72676" lon="6.61684">
        <ele>2172</ele>
        <time>2018-10-06T15:32:28.000Z</time>
      </trkpt>
      <trkpt lat="45.72682" lon="6.61673">
        <ele>2174</ele>
        <time>2018-10-06T15:32:35.000Z</time>
      </trkpt>
      <trkpt lat="45.72683" lon="6.61661">
        <ele>2175</ele>
        <time>2018-10-06T15:32:42.000Z</time>
      </trkpt>
      <trkpt lat="45.72688" lon="6.61654">
        <ele>2175</ele>
        <time>2018-10-06T15:33:44.000Z</time>
      </trkpt>
      <trkpt lat="45.72696" lon="6.61647">
        <ele>2176</ele>
        <time>2018-10-06T15:33:51.000Z</time>
      </trkpt>
      <trkpt lat="45.72704" lon="6.61643">
        <ele>2177</ele>
        <time>2018-10-06T15:33:58.000Z</time>
      </trkpt>
      <trkpt lat="45.72712" lon="6.61634">
        <ele>2177</ele>
        <time>2018-10-06T15:34:05.000Z</time>
      </trkpt>
      <trkpt lat="45.72721" lon="6.61627">
        <ele>2178</ele>
        <time>2018-10-06T15:34:13.000Z</time>
      </trkpt>
      <trkpt lat="45.72728" lon="6.61616">
        <ele>2178</ele>
        <time>2018-10-06T15:34:20.000Z</time>
      </trkpt>
      <trkpt lat="45.72737" lon="6.6161">
        <ele>2176</ele>
        <time>2018-10-06T15:34:59.000Z</time>
      </trkpt>
      <trkpt lat="45.72744" lon="6.61603">
        <ele>2175</ele>
        <time>2018-10-06T15:35:04.000Z</time>
      </trkpt>
      <trkpt lat="45.7275" lon="6.61595">
        <ele>2173</ele>
        <time>2018-10-06T15:35:10.000Z</time>
      </trkpt>
      <trkpt lat="45.72756" lon="6.61585">
        <ele>2171</ele>
        <time>2018-10-06T15:35:15.000Z</time>
      </trkpt>
      <trkpt lat="45.72763" lon="6.61574">
        <ele>2169</ele>
        <time>2018-10-06T15:35:20.000Z</time>
      </trkpt>
      <trkpt lat="45.72783" lon="6.6154">
        <ele>2167</ele>
        <time>2018-10-06T15:35:35.000Z</time>
      </trkpt>
      <trkpt lat="45.7279" lon="6.6153">
        <ele>2166</ele>
        <time>2018-10-06T15:35:40.000Z</time>
      </trkpt>
      <trkpt lat="45.72796" lon="6.6152">
        <ele>2166</ele>
        <time>2018-10-06T15:35:45.000Z</time>
      </trkpt>
      <trkpt lat="45.72799" lon="6.61508">
        <ele>2166</ele>
        <time>2018-10-06T15:35:51.000Z</time>
      </trkpt>
      <trkpt lat="45.728" lon="6.61493">
        <ele>2166</ele>
        <time>2018-10-06T15:35:58.000Z</time>
      </trkpt>
      <trkpt lat="45.72804" lon="6.61482">
        <ele>2167</ele>
        <time>2018-10-06T15:36:04.000Z</time>
      </trkpt>
      <trkpt lat="45.72805" lon="6.61468">
        <ele>2168</ele>
        <time>2018-10-06T15:36:10.000Z</time>
      </trkpt>
      <trkpt lat="45.72805" lon="6.61454">
        <ele>2168</ele>
        <time>2018-10-06T15:36:16.000Z</time>
      </trkpt>
      <trkpt lat="45.72804" lon="6.61428">
        <ele>2169</ele>
        <time>2018-10-06T15:36:29.000Z</time>
      </trkpt>
      <trkpt lat="45.72804" lon="6.61415">
        <ele>2170</ele>
        <time>2018-10-06T15:36:36.000Z</time>
      </trkpt>
      <trkpt lat="45.72806" lon="6.61402">
        <ele>2170</ele>
        <time>2018-10-06T15:36:42.000Z</time>
      </trkpt>
      <trkpt lat="45.72809" lon="6.61389">
        <ele>2171</ele>
        <time>2018-10-06T15:36:49.000Z</time>
      </trkpt>
      <trkpt lat="45.72811" lon="6.61377">
        <ele>2172</ele>
        <time>2018-10-06T15:36:56.000Z</time>
      </trkpt>
      <trkpt lat="45.72824" lon="6.61339">
        <ele>2175</ele>
        <time>2018-10-06T15:37:18.000Z</time>
      </trkpt>
      <trkpt lat="45.72826" lon="6.61325">
        <ele>2177</ele>
        <time>2018-10-06T15:37:26.000Z</time>
      </trkpt>
      <trkpt lat="45.72833" lon="6.61317">
        <ele>2178</ele>
        <time>2018-10-06T15:37:33.000Z</time>
      </trkpt>
      <trkpt lat="45.7284" lon="6.61314">
        <ele>2179</ele>
        <time>2018-10-06T15:38:07.000Z</time>
      </trkpt>
      <trkpt lat="45.72843" lon="6.61309">
        <ele>2179</ele>
        <time>2018-10-06T15:39:42.000Z</time>
      </trkpt>
      <trkpt lat="45.7285" lon="6.61313">
        <ele>2178</ele>
        <time>2018-10-06T15:40:16.000Z</time>
      </trkpt>
      <trkpt lat="45.72856" lon="6.61321">
        <ele>2175</ele>
        <time>2018-10-06T15:40:26.000Z</time>
      </trkpt>
      <trkpt lat="45.72865" lon="6.61325">
        <ele>2173</ele>
        <time>2018-10-06T15:40:33.000Z</time>
      </trkpt>
      <trkpt lat="45.72874" lon="6.61328">
        <ele>2172</ele>
        <time>2018-10-06T15:40:40.000Z</time>
      </trkpt>
      <trkpt lat="45.72883" lon="6.61332">
        <ele>2170</ele>
        <time>2018-10-06T15:40:48.000Z</time>
      </trkpt>
      <trkpt lat="45.72892" lon="6.61334">
        <ele>2168</ele>
        <time>2018-10-06T15:40:55.000Z</time>
      </trkpt>
      <trkpt lat="45.72902" lon="6.61338">
        <ele>2166</ele>
        <time>2018-10-06T15:41:02.000Z</time>
      </trkpt>
      <trkpt lat="45.72919" lon="6.61338">
        <ele>2163</ele>
        <time>2018-10-06T15:41:15.000Z</time>
      </trkpt>
      <trkpt lat="45.72913" lon="6.61333">
        <ele>2161</ele>
        <time>2018-10-06T15:41:22.000Z</time>
      </trkpt>
      <trkpt lat="45.72904" lon="6.6133">
        <ele>2160</ele>
        <time>2018-10-06T15:41:28.000Z</time>
      </trkpt>
      <trkpt lat="45.72896" lon="6.61323">
        <ele>2157</ele>
        <time>2018-10-06T15:41:35.000Z</time>
      </trkpt>
      <trkpt lat="45.72889" lon="6.61313">
        <ele>2155</ele>
        <time>2018-10-06T15:41:42.000Z</time>
      </trkpt>
      <trkpt lat="45.72895" lon="6.61313">
        <ele>2153</ele>
        <time>2018-10-06T15:41:50.000Z</time>
      </trkpt>
      <trkpt lat="45.72913" lon="6.61315">
        <ele>2147</ele>
        <time>2018-10-06T15:42:06.000Z</time>
      </trkpt>
      <trkpt lat="45.72921" lon="6.61309">
        <ele>2144</ele>
        <time>2018-10-06T15:42:15.000Z</time>
      </trkpt>
      <trkpt lat="45.7293" lon="6.61301">
        <ele>2141</ele>
        <time>2018-10-06T15:42:24.000Z</time>
      </trkpt>
      <trkpt lat="45.72938" lon="6.61296">
        <ele>2138</ele>
        <time>2018-10-06T15:42:32.000Z</time>
      </trkpt>
      <trkpt lat="45.72946" lon="6.61291">
        <ele>2136</ele>
        <time>2018-10-06T15:42:39.000Z</time>
      </trkpt>
      <trkpt lat="45.72954" lon="6.61284">
        <ele>2133</ele>
        <time>2018-10-06T15:42:47.000Z</time>
      </trkpt>
      <trkpt lat="45.72967" lon="6.61263">
        <ele>2127</ele>
        <time>2018-10-06T15:43:04.000Z</time>
      </trkpt>
      <trkpt lat="45.72971" lon="6.61251">
        <ele>2124</ele>
        <time>2018-10-06T15:43:12.000Z</time>
      </trkpt>
      <trkpt lat="45.72969" lon="6.61242">
        <ele>2121</ele>
        <time>2018-10-06T15:43:21.000Z</time>
      </trkpt>
      <trkpt lat="45.7296" lon="6.61247">
        <ele>2119</ele>
        <time>2018-10-06T15:43:28.000Z</time>
      </trkpt>
      <trkpt lat="45.7295" lon="6.61253">
        <ele>2116</ele>
        <time>2018-10-06T15:43:35.000Z</time>
      </trkpt>
      <trkpt lat="45.7294" lon="6.61254">
        <ele>2115</ele>
        <time>2018-10-06T15:43:41.000Z</time>
      </trkpt>
      <trkpt lat="45.7293" lon="6.61254">
        <ele>2114</ele>
        <time>2018-10-06T15:43:47.000Z</time>
      </trkpt>
      <trkpt lat="45.72919" lon="6.61253">
        <ele>2113</ele>
        <time>2018-10-06T15:43:53.000Z</time>
      </trkpt>
      <trkpt lat="45.7291" lon="6.6125">
        <ele>2112</ele>
        <time>2018-10-06T15:43:58.000Z</time>
      </trkpt>
      <trkpt lat="45.72902" lon="6.61242">
        <ele>2111</ele>
        <time>2018-10-06T15:44:05.000Z</time>
      </trkpt>
      <trkpt lat="45.72919" lon="6.61238">
        <ele>2105</ele>
        <time>2018-10-06T15:44:20.000Z</time>
      </trkpt>
      <trkpt lat="45.72913" lon="6.61229">
        <ele>2102</ele>
        <time>2018-10-06T15:44:30.000Z</time>
      </trkpt>
      <trkpt lat="45.72904" lon="6.61208">
        <ele>2095</ele>
        <time>2018-10-06T15:44:51.000Z</time>
      </trkpt>
      <trkpt lat="45.72897" lon="6.61198">
        <ele>2092</ele>
        <time>2018-10-06T15:45:01.000Z</time>
      </trkpt>
      <trkpt lat="45.72883" lon="6.6118">
        <ele>2087</ele>
        <time>2018-10-06T15:45:49.000Z</time>
      </trkpt>
      <trkpt lat="45.7289" lon="6.6118">
        <ele>2084</ele>
        <time>2018-10-06T15:45:57.000Z</time>
      </trkpt>
      <trkpt lat="45.72887" lon="6.61166">
        <ele>2081</ele>
        <time>2018-10-06T15:46:05.000Z</time>
      </trkpt>
      <trkpt lat="45.72882" lon="6.61154">
        <ele>2077</ele>
        <time>2018-10-06T15:46:13.000Z</time>
      </trkpt>
      <trkpt lat="45.72881" lon="6.6114">
        <ele>2075</ele>
        <time>2018-10-06T15:46:20.000Z</time>
      </trkpt>
      <trkpt lat="45.72877" lon="6.61112">
        <ele>2070</ele>
        <time>2018-10-06T15:46:33.000Z</time>
      </trkpt>
      <trkpt lat="45.72878" lon="6.61086">
        <ele>2066</ele>
        <time>2018-10-06T15:46:45.000Z</time>
      </trkpt>
      <trkpt lat="45.72878" lon="6.61071">
        <ele>2064</ele>
        <time>2018-10-06T15:46:51.000Z</time>
      </trkpt>
      <trkpt lat="45.7288" lon="6.61057">
        <ele>2061</ele>
        <time>2018-10-06T15:46:58.000Z</time>
      </trkpt>
      <trkpt lat="45.72883" lon="6.61043">
        <ele>2058</ele>
        <time>2018-10-06T15:47:06.000Z</time>
      </trkpt>
      <trkpt lat="45.72883" lon="6.61029">
        <ele>2055</ele>
        <time>2018-10-06T15:47:14.000Z</time>
      </trkpt>
      <trkpt lat="45.72878" lon="6.61002">
        <ele>2050</ele>
        <time>2018-10-06T15:47:27.000Z</time>
      </trkpt>
      <trkpt lat="45.72876" lon="6.60988">
        <ele>2048</ele>
        <time>2018-10-06T15:47:33.000Z</time>
      </trkpt>
      <trkpt lat="45.72877" lon="6.60975">
        <ele>2046</ele>
        <time>2018-10-06T15:47:40.000Z</time>
      </trkpt>
      <trkpt lat="45.72877" lon="6.60959">
        <ele>2044</ele>
        <time>2018-10-06T15:47:47.000Z</time>
      </trkpt>
      <trkpt lat="45.72878" lon="6.60929">
        <ele>2040</ele>
        <time>2018-10-06T15:48:01.000Z</time>
      </trkpt>
      <trkpt lat="45.72881" lon="6.60902">
        <ele>2036</ele>
        <time>2018-10-06T15:48:14.000Z</time>
      </trkpt>
      <trkpt lat="45.72885" lon="6.60895">
        <ele>2034</ele>
        <time>2018-10-06T15:48:22.000Z</time>
      </trkpt>
      <trkpt lat="45.72889" lon="6.60907">
        <ele>2031</ele>
        <time>2018-10-06T15:48:31.000Z</time>
      </trkpt>
      <trkpt lat="45.72892" lon="6.60896">
        <ele>2029</ele>
        <time>2018-10-06T15:48:39.000Z</time>
      </trkpt>
      <trkpt lat="45.72897" lon="6.60884">
        <ele>2026</ele>
        <time>2018-10-06T15:48:47.000Z</time>
      </trkpt>
      <trkpt lat="45.72895" lon="6.60874">
        <ele>2024</ele>
        <time>2018-10-06T15:49:08.000Z</time>
      </trkpt>
      <trkpt lat="45.72889" lon="6.60865">
        <ele>2020</ele>
        <time>2018-10-06T15:49:15.000Z</time>
      </trkpt>
      <trkpt lat="45.72885" lon="6.60854">
        <ele>2018</ele>
        <time>2018-10-06T15:49:22.000Z</time>
      </trkpt>
      <trkpt lat="45.72883" lon="6.60842">
        <ele>2015</ele>
        <time>2018-10-06T15:49:29.000Z</time>
      </trkpt>
      <trkpt lat="45.72886" lon="6.6083">
        <ele>2012</ele>
        <time>2018-10-06T15:49:36.000Z</time>
      </trkpt>
      <trkpt lat="45.7289" lon="6.60818">
        <ele>2009</ele>
        <time>2018-10-06T15:49:43.000Z</time>
      </trkpt>
      <trkpt lat="45.72896" lon="6.60805">
        <ele>2007</ele>
        <time>2018-10-06T15:49:50.000Z</time>
      </trkpt>
      <trkpt lat="45.72903" lon="6.60796">
        <ele>2004</ele>
        <time>2018-10-06T15:49:58.000Z</time>
      </trkpt>
      <trkpt lat="45.72911" lon="6.60789">
        <ele>2001</ele>
        <time>2018-10-06T15:50:05.000Z</time>
      </trkpt>
      <trkpt lat="45.72916" lon="6.60779">
        <ele>2000</ele>
        <time>2018-10-06T15:50:11.000Z</time>
      </trkpt>
      <trkpt lat="45.72923" lon="6.6077">
        <ele>1998</ele>
        <time>2018-10-06T15:50:18.000Z</time>
      </trkpt>
      <trkpt lat="45.72931" lon="6.60775">
        <ele>1996</ele>
        <time>2018-10-06T15:50:25.000Z</time>
      </trkpt>
      <trkpt lat="45.72936" lon="6.60782">
        <ele>1993</ele>
        <time>2018-10-06T15:50:33.000Z</time>
      </trkpt>
      <trkpt lat="45.72954" lon="6.60773">
        <ele>1990</ele>
        <time>2018-10-06T15:50:48.000Z</time>
      </trkpt>
      <trkpt lat="45.72956" lon="6.60766">
        <ele>1987</ele>
        <time>2018-10-06T15:50:57.000Z</time>
      </trkpt>
      <trkpt lat="45.72949" lon="6.60759">
        <ele>1985</ele>
        <time>2018-10-06T15:51:04.000Z</time>
      </trkpt>
      <trkpt lat="45.72946" lon="6.60746">
        <ele>1983</ele>
        <time>2018-10-06T15:51:11.000Z</time>
      </trkpt>
      <trkpt lat="45.7294" lon="6.60736">
        <ele>1982</ele>
        <time>2018-10-06T15:51:17.000Z</time>
      </trkpt>
      <trkpt lat="45.72939" lon="6.60723">
        <ele>1979</ele>
        <time>2018-10-06T15:51:25.000Z</time>
      </trkpt>
      <trkpt lat="45.72946" lon="6.60729">
        <ele>1976</ele>
        <time>2018-10-06T15:51:33.000Z</time>
      </trkpt>
      <trkpt lat="45.72952" lon="6.60726">
        <ele>1973</ele>
        <time>2018-10-06T15:51:41.000Z</time>
      </trkpt>
      <trkpt lat="45.72952" lon="6.60712">
        <ele>1971</ele>
        <time>2018-10-06T15:51:48.000Z</time>
      </trkpt>
      <trkpt lat="45.72956" lon="6.607">
        <ele>1969</ele>
        <time>2018-10-06T15:51:55.000Z</time>
      </trkpt>
      <trkpt lat="45.7296" lon="6.60688">
        <ele>1966</ele>
        <time>2018-10-06T15:52:02.000Z</time>
      </trkpt>
      <trkpt lat="45.72963" lon="6.60676">
        <ele>1964</ele>
        <time>2018-10-06T15:52:09.000Z</time>
      </trkpt>
      <trkpt lat="45.72968" lon="6.60664">
        <ele>1961</ele>
        <time>2018-10-06T15:52:17.000Z</time>
      </trkpt>
      <trkpt lat="45.72973" lon="6.60654">
        <ele>1957</ele>
        <time>2018-10-06T15:52:31.000Z</time>
      </trkpt>
      <trkpt lat="45.7298" lon="6.60645">
        <ele>1953</ele>
        <time>2018-10-06T15:52:39.000Z</time>
      </trkpt>
      <trkpt lat="45.72984" lon="6.60633">
        <ele>1951</ele>
        <time>2018-10-06T15:52:46.000Z</time>
      </trkpt>
      <trkpt lat="45.73001" lon="6.60619">
        <ele>1946</ele>
        <time>2018-10-06T15:53:00.000Z</time>
      </trkpt>
      <trkpt lat="45.73009" lon="6.60615">
        <ele>1943</ele>
        <time>2018-10-06T15:53:33.000Z</time>
      </trkpt>
      <trkpt lat="45.73019" lon="6.60612">
        <ele>1941</ele>
        <time>2018-10-06T15:53:40.000Z</time>
      </trkpt>
      <trkpt lat="45.73028" lon="6.60605">
        <ele>1939</ele>
        <time>2018-10-06T15:53:46.000Z</time>
      </trkpt>
      <trkpt lat="45.73038" lon="6.60603">
        <ele>1938</ele>
        <time>2018-10-06T15:53:51.000Z</time>
      </trkpt>
      <trkpt lat="45.73048" lon="6.60606">
        <ele>1937</ele>
        <time>2018-10-06T15:53:57.000Z</time>
      </trkpt>
      <trkpt lat="45.73056" lon="6.60615">
        <ele>1936</ele>
        <time>2018-10-06T15:54:03.000Z</time>
      </trkpt>
      <trkpt lat="45.73075" lon="6.60629">
        <ele>1932</ele>
        <time>2018-10-06T15:54:14.000Z</time>
      </trkpt>
      <trkpt lat="45.73085" lon="6.60634">
        <ele>1931</ele>
        <time>2018-10-06T15:54:19.000Z</time>
      </trkpt>
      <trkpt lat="45.73094" lon="6.60639">
        <ele>1931</ele>
        <time>2018-10-06T15:54:24.000Z</time>
      </trkpt>
      <trkpt lat="45.73103" lon="6.60638">
        <ele>1930</ele>
        <time>2018-10-06T15:54:30.000Z</time>
      </trkpt>
      <trkpt lat="45.7311" lon="6.60634">
        <ele>1927</ele>
        <time>2018-10-06T15:54:37.000Z</time>
      </trkpt>
      <trkpt lat="45.73117" lon="6.60627">
        <ele>1925</ele>
        <time>2018-10-06T15:54:44.000Z</time>
      </trkpt>
      <trkpt lat="45.73109" lon="6.6062">
        <ele>1923</ele>
        <time>2018-10-06T15:54:50.000Z</time>
      </trkpt>
      <trkpt lat="45.731" lon="6.60616">
        <ele>1921</ele>
        <time>2018-10-06T15:54:56.000Z</time>
      </trkpt>
      <trkpt lat="45.73092" lon="6.6061">
        <ele>1919</ele>
        <time>2018-10-06T15:55:02.000Z</time>
      </trkpt>
      <trkpt lat="45.73085" lon="6.60601">
        <ele>1917</ele>
        <time>2018-10-06T15:55:07.000Z</time>
      </trkpt>
      <trkpt lat="45.73082" lon="6.60589">
        <ele>1915</ele>
        <time>2018-10-06T15:55:14.000Z</time>
      </trkpt>
      <trkpt lat="45.73081" lon="6.60575">
        <ele>1913</ele>
        <time>2018-10-06T15:55:24.000Z</time>
      </trkpt>
      <trkpt lat="45.73089" lon="6.60574">
        <ele>1910</ele>
        <time>2018-10-06T15:55:31.000Z</time>
      </trkpt>
      <trkpt lat="45.73097" lon="6.60578">
        <ele>1908</ele>
        <time>2018-10-06T15:55:38.000Z</time>
      </trkpt>
      <trkpt lat="45.73105" lon="6.60575">
        <ele>1905</ele>
        <time>2018-10-06T15:55:47.000Z</time>
      </trkpt>
      <trkpt lat="45.73115" lon="6.60575">
        <ele>1901</ele>
        <time>2018-10-06T15:55:56.000Z</time>
      </trkpt>
      <trkpt lat="45.73124" lon="6.60571">
        <ele>1898</ele>
        <time>2018-10-06T15:56:03.000Z</time>
      </trkpt>
      <trkpt lat="45.73128" lon="6.60563">
        <ele>1894</ele>
        <time>2018-10-06T15:56:12.000Z</time>
      </trkpt>
      <trkpt lat="45.73127" lon="6.60554">
        <ele>1890</ele>
        <time>2018-10-06T15:56:20.000Z</time>
      </trkpt>
      <trkpt lat="45.73135" lon="6.60549">
        <ele>1887</ele>
        <time>2018-10-06T15:56:27.000Z</time>
      </trkpt>
      <trkpt lat="45.73144" lon="6.60547">
        <ele>1884</ele>
        <time>2018-10-06T15:56:35.000Z</time>
      </trkpt>
      <trkpt lat="45.73152" lon="6.60542">
        <ele>1881</ele>
        <time>2018-10-06T15:56:43.000Z</time>
      </trkpt>
      <trkpt lat="45.73161" lon="6.60539">
        <ele>1878</ele>
        <time>2018-10-06T15:56:50.000Z</time>
      </trkpt>
      <trkpt lat="45.7317" lon="6.60537">
        <ele>1876</ele>
        <time>2018-10-06T15:56:57.000Z</time>
      </trkpt>
      <trkpt lat="45.73188" lon="6.60541">
        <ele>1871</ele>
        <time>2018-10-06T15:57:11.000Z</time>
      </trkpt>
      <trkpt lat="45.73189" lon="6.6053">
        <ele>1868</ele>
        <time>2018-10-06T15:57:19.000Z</time>
      </trkpt>
      <trkpt lat="45.73194" lon="6.60519">
        <ele>1865</ele>
        <time>2018-10-06T15:57:28.000Z</time>
      </trkpt>
      <trkpt lat="45.73187" lon="6.60511">
        <ele>1862</ele>
        <time>2018-10-06T15:57:34.000Z</time>
      </trkpt>
      <trkpt lat="45.73183" lon="6.60499">
        <ele>1861</ele>
        <time>2018-10-06T15:57:41.000Z</time>
      </trkpt>
      <trkpt lat="45.73188" lon="6.60492">
        <ele>1857</ele>
        <time>2018-10-06T15:57:48.000Z</time>
      </trkpt>
      <trkpt lat="45.73198" lon="6.6049">
        <ele>1855</ele>
        <time>2018-10-06T15:57:54.000Z</time>
      </trkpt>
      <trkpt lat="45.73207" lon="6.60486">
        <ele>1853</ele>
        <time>2018-10-06T15:57:59.000Z</time>
      </trkpt>
      <trkpt lat="45.73217" lon="6.60485">
        <ele>1852</ele>
        <time>2018-10-06T15:58:04.000Z</time>
      </trkpt>
      <trkpt lat="45.73227" lon="6.60485">
        <ele>1851</ele>
        <time>2018-10-06T15:58:09.000Z</time>
      </trkpt>
      <trkpt lat="45.73237" lon="6.60487">
        <ele>1850</ele>
        <time>2018-10-06T15:58:14.000Z</time>
      </trkpt>
      <trkpt lat="45.73245" lon="6.6049">
        <ele>1849</ele>
        <time>2018-10-06T15:58:19.000Z</time>
      </trkpt>
      <trkpt lat="45.73252" lon="6.605">
        <ele>1847</ele>
        <time>2018-10-06T15:58:26.000Z</time>
      </trkpt>
      <trkpt lat="45.73262" lon="6.60504">
        <ele>1845</ele>
        <time>2018-10-06T15:58:33.000Z</time>
      </trkpt>
      <trkpt lat="45.73279" lon="6.60515">
        <ele>1841</ele>
        <time>2018-10-06T15:58:46.000Z</time>
      </trkpt>
      <trkpt lat="45.73298" lon="6.60523">
        <ele>1836</ele>
        <time>2018-10-06T15:59:00.000Z</time>
      </trkpt>
      <trkpt lat="45.73307" lon="6.60526">
        <ele>1833</ele>
        <time>2018-10-06T15:59:07.000Z</time>
      </trkpt>
      <trkpt lat="45.73317" lon="6.60525">
        <ele>1831</ele>
        <time>2018-10-06T15:59:13.000Z</time>
      </trkpt>
      <trkpt lat="45.73324" lon="6.60531">
        <ele>1828</ele>
        <time>2018-10-06T15:59:20.000Z</time>
      </trkpt>
      <trkpt lat="45.73333" lon="6.60536">
        <ele>1825</ele>
        <time>2018-10-06T15:59:27.000Z</time>
      </trkpt>
      <trkpt lat="45.73343" lon="6.60536">
        <ele>1822</ele>
        <time>2018-10-06T15:59:34.000Z</time>
      </trkpt>
      <trkpt lat="45.73368" lon="6.60556">
        <ele>1814</ele>
        <time>2018-10-06T15:59:56.000Z</time>
      </trkpt>
      <trkpt lat="45.73378" lon="6.60558">
        <ele>1811</ele>
        <time>2018-10-06T16:00:03.000Z</time>
      </trkpt>
      <trkpt lat="45.73385" lon="6.60566">
        <ele>1809</ele>
        <time>2018-10-06T16:00:09.000Z</time>
      </trkpt>
      <trkpt lat="45.73396" lon="6.6057">
        <ele>1806</ele>
        <time>2018-10-06T16:00:18.000Z</time>
      </trkpt>
      <trkpt lat="45.73419" lon="6.60571">
        <ele>1802</ele>
        <time>2018-10-06T16:00:30.000Z</time>
      </trkpt>
      <trkpt lat="45.7343" lon="6.60571">
        <ele>1803</ele>
        <time>2018-10-06T16:00:37.000Z</time>
      </trkpt>
      <trkpt lat="45.73439" lon="6.60573">
        <ele>1803</ele>
        <time>2018-10-06T16:00:44.000Z</time>
      </trkpt>
      <trkpt lat="45.7345" lon="6.6057">
        <ele>1805</ele>
        <time>2018-10-06T16:00:53.000Z</time>
      </trkpt>
      <trkpt lat="45.73459" lon="6.60565">
        <ele>1807</ele>
        <time>2018-10-06T16:01:04.000Z</time>
      </trkpt>
      <trkpt lat="45.73466" lon="6.60557">
        <ele>1807</ele>
        <time>2018-10-06T16:01:13.000Z</time>
      </trkpt>
      <trkpt lat="45.73468" lon="6.60544">
        <ele>1804</ele>
        <time>2018-10-06T16:01:20.000Z</time>
      </trkpt>
      <trkpt lat="45.73473" lon="6.60532">
        <ele>1802</ele>
        <time>2018-10-06T16:01:28.000Z</time>
      </trkpt>
      <trkpt lat="45.73484" lon="6.60498">
        <ele>1793</ele>
        <time>2018-10-06T16:05:54.000Z</time>
      </trkpt>
      <trkpt lat="45.73489" lon="6.60487">
        <ele>1792</ele>
        <time>2018-10-06T16:05:59.000Z</time>
      </trkpt>
      <trkpt lat="45.73498" lon="6.60483">
        <ele>1790</ele>
        <time>2018-10-06T16:06:04.000Z</time>
      </trkpt>
      <trkpt lat="45.73523" lon="6.60458">
        <ele>1786</ele>
        <time>2018-10-06T16:06:22.000Z</time>
      </trkpt>
      <trkpt lat="45.73529" lon="6.60448">
        <ele>1785</ele>
        <time>2018-10-06T16:06:27.000Z</time>
      </trkpt>
      <trkpt lat="45.73536" lon="6.6044">
        <ele>1784</ele>
        <time>2018-10-06T16:06:32.000Z</time>
      </trkpt>
      <trkpt lat="45.73543" lon="6.6043">
        <ele>1782</ele>
        <time>2018-10-06T16:06:38.000Z</time>
      </trkpt>
      <trkpt lat="45.73544" lon="6.60418">
        <ele>1780</ele>
        <time>2018-10-06T16:06:44.000Z</time>
      </trkpt>
      <trkpt lat="45.73552" lon="6.60418">
        <ele>1776</ele>
        <time>2018-10-06T16:06:53.000Z</time>
      </trkpt>
      <trkpt lat="45.73554" lon="6.60405">
        <ele>1773</ele>
        <time>2018-10-06T16:07:00.000Z</time>
      </trkpt>
      <trkpt lat="45.73554" lon="6.60393">
        <ele>1770</ele>
        <time>2018-10-06T16:07:08.000Z</time>
      </trkpt>
      <trkpt lat="45.7355" lon="6.6038">
        <ele>1767</ele>
        <time>2018-10-06T16:07:16.000Z</time>
      </trkpt>
      <trkpt lat="45.73541" lon="6.60356">
        <ele>1762</ele>
        <time>2018-10-06T16:07:28.000Z</time>
      </trkpt>
      <trkpt lat="45.73535" lon="6.60344">
        <ele>1760</ele>
        <time>2018-10-06T16:07:34.000Z</time>
      </trkpt>
      <trkpt lat="45.73528" lon="6.60335">
        <ele>1758</ele>
        <time>2018-10-06T16:07:39.000Z</time>
      </trkpt>
      <trkpt lat="45.73519" lon="6.60326">
        <ele>1756</ele>
        <time>2018-10-06T16:07:45.000Z</time>
      </trkpt>
      <trkpt lat="45.73511" lon="6.6032">
        <ele>1754</ele>
        <time>2018-10-06T16:07:51.000Z</time>
      </trkpt>
      <trkpt lat="45.73517" lon="6.60311">
        <ele>1750</ele>
        <time>2018-10-06T16:07:58.000Z</time>
      </trkpt>
      <trkpt lat="45.73515" lon="6.60301">
        <ele>1747</ele>
        <time>2018-10-06T16:08:05.000Z</time>
      </trkpt>
      <trkpt lat="45.73507" lon="6.60293">
        <ele>1744</ele>
        <time>2018-10-06T16:08:11.000Z</time>
      </trkpt>
      <trkpt lat="45.73501" lon="6.60267">
        <ele>1741</ele>
        <time>2018-10-06T16:08:21.000Z</time>
      </trkpt>
      <trkpt lat="45.73497" lon="6.60255">
        <ele>1739</ele>
        <time>2018-10-06T16:08:26.000Z</time>
      </trkpt>
      <trkpt lat="45.73492" lon="6.60242">
        <ele>1738</ele>
        <time>2018-10-06T16:08:31.000Z</time>
      </trkpt>
      <trkpt lat="45.73478" lon="6.60219">
        <ele>1735</ele>
        <time>2018-10-06T16:08:41.000Z</time>
      </trkpt>
      <trkpt lat="45.73462" lon="6.60183">
        <ele>1730</ele>
        <time>2018-10-06T16:08:57.000Z</time>
      </trkpt>
      <trkpt lat="45.73449" lon="6.60146">
        <ele>1727</ele>
        <time>2018-10-06T16:09:12.000Z</time>
      </trkpt>
      <trkpt lat="45.73447" lon="6.60131">
        <ele>1725</ele>
        <time>2018-10-06T16:09:18.000Z</time>
      </trkpt>
      <trkpt lat="45.73444" lon="6.60118">
        <ele>1724</ele>
        <time>2018-10-06T16:09:23.000Z</time>
      </trkpt>
      <trkpt lat="45.73442" lon="6.60103">
        <ele>1722</ele>
        <time>2018-10-06T16:09:28.000Z</time>
      </trkpt>
      <trkpt lat="45.7344" lon="6.60059">
        <ele>1721</ele>
        <time>2018-10-06T16:09:44.000Z</time>
      </trkpt>
      <trkpt lat="45.73433" lon="6.60048">
        <ele>1720</ele>
        <time>2018-10-06T16:09:50.000Z</time>
      </trkpt>
      <trkpt lat="45.73429" lon="6.60037">
        <ele>1719</ele>
        <time>2018-10-06T16:09:56.000Z</time>
      </trkpt>
      <trkpt lat="45.73424" lon="6.60024">
        <ele>1718</ele>
        <time>2018-10-06T16:10:01.000Z</time>
      </trkpt>
      <trkpt lat="45.7342" lon="6.6001">
        <ele>1717</ele>
        <time>2018-10-06T16:10:06.000Z</time>
      </trkpt>
      <trkpt lat="45.73417" lon="6.59997">
        <ele>1717</ele>
        <time>2018-10-06T16:10:11.000Z</time>
      </trkpt>
      <trkpt lat="45.73417" lon="6.59984">
        <ele>1716</ele>
        <time>2018-10-06T16:10:16.000Z</time>
      </trkpt>
      <trkpt lat="45.73414" lon="6.59971">
        <ele>1716</ele>
        <time>2018-10-06T16:10:21.000Z</time>
      </trkpt>
      <trkpt lat="45.7341" lon="6.59957">
        <ele>1716</ele>
        <time>2018-10-06T16:10:27.000Z</time>
      </trkpt>
      <trkpt lat="45.73409" lon="6.59947">
        <ele>1713</ele>
        <time>2018-10-06T16:10:34.000Z</time>
      </trkpt>
      <trkpt lat="45.7341" lon="6.59932">
        <ele>1711</ele>
        <time>2018-10-06T16:10:40.000Z</time>
      </trkpt>
      <trkpt lat="45.7341" lon="6.59918">
        <ele>1710</ele>
        <time>2018-10-06T16:10:45.000Z</time>
      </trkpt>
      <trkpt lat="45.73408" lon="6.59904">
        <ele>1709</ele>
        <time>2018-10-06T16:10:50.000Z</time>
      </trkpt>
      <trkpt lat="45.73408" lon="6.59889">
        <ele>1708</ele>
        <time>2018-10-06T16:10:56.000Z</time>
      </trkpt>
      <trkpt lat="45.73407" lon="6.59874">
        <ele>1708</ele>
        <time>2018-10-06T16:11:02.000Z</time>
      </trkpt>
      <trkpt lat="45.73404" lon="6.59861">
        <ele>1709</ele>
        <time>2018-10-06T16:11:08.000Z</time>
      </trkpt>
      <trkpt lat="45.73403" lon="6.59845">
        <ele>1709</ele>
        <time>2018-10-06T16:11:16.000Z</time>
      </trkpt>
      <trkpt lat="45.73397" lon="6.59815">
        <ele>1709</ele>
        <time>2018-10-06T16:11:27.000Z</time>
      </trkpt>
      <trkpt lat="45.73393" lon="6.598">
        <ele>1707</ele>
        <time>2018-10-06T16:11:32.000Z</time>
      </trkpt>
      <trkpt lat="45.73391" lon="6.59785">
        <ele>1707</ele>
        <time>2018-10-06T16:11:37.000Z</time>
      </trkpt>
      <trkpt lat="45.73388" lon="6.59772">
        <ele>1707</ele>
        <time>2018-10-06T16:11:42.000Z</time>
      </trkpt>
      <trkpt lat="45.73385" lon="6.59759">
        <ele>1706</ele>
        <time>2018-10-06T16:11:48.000Z</time>
      </trkpt>
      <trkpt lat="45.73381" lon="6.59747">
        <ele>1704</ele>
        <time>2018-10-06T16:11:53.000Z</time>
      </trkpt>
      <trkpt lat="45.73376" lon="6.59737">
        <ele>1702</ele>
        <time>2018-10-06T16:11:59.000Z</time>
      </trkpt>
      <trkpt lat="45.73362" lon="6.59714">
        <ele>1699</ele>
        <time>2018-10-06T16:12:11.000Z</time>
      </trkpt>
      <trkpt lat="45.73345" lon="6.59675">
        <ele>1694</ele>
        <time>2018-10-06T16:12:29.000Z</time>
      </trkpt>
      <trkpt lat="45.73333" lon="6.59649">
        <ele>1689</ele>
        <time>2018-10-06T16:12:42.000Z</time>
      </trkpt>
      <trkpt lat="45.73328" lon="6.59635">
        <ele>1687</ele>
        <time>2018-10-06T16:12:48.000Z</time>
      </trkpt>
      <trkpt lat="45.73325" lon="6.59623">
        <ele>1684</ele>
        <time>2018-10-06T16:12:54.000Z</time>
      </trkpt>
      <trkpt lat="45.7332" lon="6.59607">
        <ele>1681</ele>
        <time>2018-10-06T16:13:01.000Z</time>
      </trkpt>
      <trkpt lat="45.73313" lon="6.59577">
        <ele>1677</ele>
        <time>2018-10-06T16:13:13.000Z</time>
      </trkpt>
      <trkpt lat="45.7331" lon="6.59564">
        <ele>1675</ele>
        <time>2018-10-06T16:13:18.000Z</time>
      </trkpt>
      <trkpt lat="45.73306" lon="6.59551">
        <ele>1674</ele>
        <time>2018-10-06T16:13:24.000Z</time>
      </trkpt>
      <trkpt lat="45.73299" lon="6.59539">
        <ele>1672</ele>
        <time>2018-10-06T16:13:30.000Z</time>
      </trkpt>
      <trkpt lat="45.73295" lon="6.59527">
        <ele>1670</ele>
        <time>2018-10-06T16:13:35.000Z</time>
      </trkpt>
      <trkpt lat="45.73291" lon="6.59512">
        <ele>1668</ele>
        <time>2018-10-06T16:13:41.000Z</time>
      </trkpt>
      <trkpt lat="45.73286" lon="6.59501">
        <ele>1665</ele>
        <time>2018-10-06T16:13:47.000Z</time>
      </trkpt>
      <trkpt lat="45.73284" lon="6.59486">
        <ele>1663</ele>
        <time>2018-10-06T16:13:54.000Z</time>
      </trkpt>
      <trkpt lat="45.73281" lon="6.59474">
        <ele>1660</ele>
        <time>2018-10-06T16:14:00.000Z</time>
      </trkpt>
      <trkpt lat="45.73275" lon="6.59462">
        <ele>1658</ele>
        <time>2018-10-06T16:14:06.000Z</time>
      </trkpt>
      <trkpt lat="45.73262" lon="6.59441">
        <ele>1653</ele>
        <time>2018-10-06T16:14:19.000Z</time>
      </trkpt>
      <trkpt lat="45.73254" lon="6.59433">
        <ele>1650</ele>
        <time>2018-10-06T16:14:26.000Z</time>
      </trkpt>
      <trkpt lat="45.73252" lon="6.59423">
        <ele>1646</ele>
        <time>2018-10-06T16:14:37.000Z</time>
      </trkpt>
      <trkpt lat="45.73243" lon="6.59419">
        <ele>1642</ele>
        <time>2018-10-06T16:14:46.000Z</time>
      </trkpt>
      <trkpt lat="45.73225" lon="6.59405">
        <ele>1635</ele>
        <time>2018-10-06T16:15:01.000Z</time>
      </trkpt>
      <trkpt lat="45.73216" lon="6.59399">
        <ele>1632</ele>
        <time>2018-10-06T16:15:10.000Z</time>
      </trkpt>
      <trkpt lat="45.73194" lon="6.59395">
        <ele>1625</ele>
        <time>2018-10-06T16:15:26.000Z</time>
      </trkpt>
      <trkpt lat="45.73187" lon="6.59391">
        <ele>1621</ele>
        <time>2018-10-06T16:15:33.000Z</time>
      </trkpt>
      <trkpt lat="45.73184" lon="6.59379">
        <ele>1617</ele>
        <time>2018-10-06T16:15:41.000Z</time>
      </trkpt>
      <trkpt lat="45.73178" lon="6.59367">
        <ele>1613</ele>
        <time>2018-10-06T16:15:49.000Z</time>
      </trkpt>
      <trkpt lat="45.73172" lon="6.59356">
        <ele>1609</ele>
        <time>2018-10-06T16:15:57.000Z</time>
      </trkpt>
      <trkpt lat="45.73163" lon="6.59352">
        <ele>1605</ele>
        <time>2018-10-06T16:16:04.000Z</time>
      </trkpt>
      <trkpt lat="45.73155" lon="6.59352">
        <ele>1602</ele>
        <time>2018-10-06T16:16:10.000Z</time>
      </trkpt>
      <trkpt lat="45.73154" lon="6.59346">
        <ele>1601</ele>
        <time>2018-10-06T16:16:19.000Z</time>
      </trkpt>
      <trkpt lat="45.73153" lon="6.59344">
        <ele>1601</ele>
        <time>2018-10-06T16:16:28.000Z</time>
      </trkpt>
      <trkpt lat="45.73145" lon="6.59338">
        <ele>1598</ele>
        <time>2018-10-06T16:16:36.000Z</time>
      </trkpt>
      <trkpt lat="45.73136" lon="6.59336">
        <ele>1595</ele>
        <time>2018-10-06T16:16:43.000Z</time>
      </trkpt>
      <trkpt lat="45.73127" lon="6.59359">
        <ele>1588</ele>
        <time>2018-10-06T16:16:59.000Z</time>
      </trkpt>
      <trkpt lat="45.7312" lon="6.59386">
        <ele>1578</ele>
        <time>2018-10-06T16:17:20.000Z</time>
      </trkpt>
      <trkpt lat="45.73114" lon="6.59401">
        <ele>1574</ele>
        <time>2018-10-06T16:17:29.000Z</time>
      </trkpt>
      <trkpt lat="45.73099" lon="6.59427">
        <ele>1565</ele>
        <time>2018-10-06T16:17:49.000Z</time>
      </trkpt>
      <trkpt lat="45.73096" lon="6.59441">
        <ele>1561</ele>
        <time>2018-10-06T16:17:58.000Z</time>
      </trkpt>
      <trkpt lat="45.73088" lon="6.59455">
        <ele>1559</ele>
        <time>2018-10-06T16:18:06.000Z</time>
      </trkpt>
      <trkpt lat="45.73077" lon="6.59463">
        <ele>1556</ele>
        <time>2018-10-06T16:18:13.000Z</time>
      </trkpt>
      <trkpt lat="45.73067" lon="6.59468">
        <ele>1552</ele>
        <time>2018-10-06T16:18:21.000Z</time>
      </trkpt>
      <trkpt lat="45.73061" lon="6.59479">
        <ele>1549</ele>
        <time>2018-10-06T16:18:28.000Z</time>
      </trkpt>
      <trkpt lat="45.73046" lon="6.59492">
        <ele>1543</ele>
        <time>2018-10-06T16:18:43.000Z</time>
      </trkpt>
      <trkpt lat="45.73038" lon="6.59495">
        <ele>1538</ele>
        <time>2018-10-06T16:18:52.000Z</time>
      </trkpt>
      <trkpt lat="45.7303" lon="6.59503">
        <ele>1534</ele>
        <time>2018-10-06T16:19:01.000Z</time>
      </trkpt>
      <trkpt lat="45.73019" lon="6.59508">
        <ele>1530</ele>
        <time>2018-10-06T16:19:09.000Z</time>
      </trkpt>
      <trkpt lat="45.7301" lon="6.59515">
        <ele>1527</ele>
        <time>2018-10-06T16:19:16.000Z</time>
      </trkpt>
      <trkpt lat="45.73" lon="6.5952">
        <ele>1524</ele>
        <time>2018-10-06T16:19:23.000Z</time>
      </trkpt>
      <trkpt lat="45.72979" lon="6.59523">
        <ele>1517</ele>
        <time>2018-10-06T16:19:38.000Z</time>
      </trkpt>
      <trkpt lat="45.7297" lon="6.59525">
        <ele>1515</ele>
        <time>2018-10-06T16:19:45.000Z</time>
      </trkpt>
      <trkpt lat="45.7296" lon="6.59526">
        <ele>1511</ele>
        <time>2018-10-06T16:19:53.000Z</time>
      </trkpt>
      <trkpt lat="45.72954" lon="6.59514">
        <ele>1507</ele>
        <time>2018-10-06T16:20:00.000Z</time>
      </trkpt>
      <trkpt lat="45.72945" lon="6.59506">
        <ele>1505</ele>
        <time>2018-10-06T16:20:06.000Z</time>
      </trkpt>
      <trkpt lat="45.72944" lon="6.59491">
        <ele>1494</ele>
        <time>2018-10-06T16:20:16.000Z</time>
      </trkpt>
      <trkpt lat="45.72951" lon="6.59482">
        <ele>1493</ele>
        <time>2018-10-06T16:20:26.000Z</time>
      </trkpt>
      <trkpt lat="45.72952" lon="6.59469">
        <ele>1491</ele>
        <time>2018-10-06T16:20:36.000Z</time>
      </trkpt>
      <trkpt lat="45.72961" lon="6.59446">
        <ele>1490</ele>
        <time>2018-10-06T16:20:46.000Z</time>
      </trkpt>
      <trkpt lat="45.72964" lon="6.5943">
        <ele>1493</ele>
        <time>2018-10-06T16:20:56.000Z</time>
      </trkpt>
      <trkpt lat="45.72964" lon="6.59414">
        <ele>1494</ele>
        <time>2018-10-06T16:21:06.000Z</time>
      </trkpt>
      <trkpt lat="45.7296" lon="6.59402">
        <ele>1489</ele>
        <time>2018-10-06T16:21:16.000Z</time>
      </trkpt>
      <trkpt lat="45.72951" lon="6.59396">
        <ele>1488</ele>
        <time>2018-10-06T16:21:26.000Z</time>
      </trkpt>
      <trkpt lat="45.72947" lon="6.59384">
        <ele>1489</ele>
        <time>2018-10-06T16:21:36.000Z</time>
      </trkpt>
      <trkpt lat="45.72941" lon="6.5937">
        <ele>1487</ele>
        <time>2018-10-06T16:21:46.000Z</time>
      </trkpt>
      <trkpt lat="45.72934" lon="6.59357">
        <ele>1487</ele>
        <time>2018-10-06T16:21:56.000Z</time>
      </trkpt>
      <trkpt lat="45.72918" lon="6.59328">
        <ele>1482</ele>
        <time>2018-10-06T16:22:06.000Z</time>
      </trkpt>
      <trkpt lat="45.72903" lon="6.59295">
        <ele>1478</ele>
        <time>2018-10-06T16:22:16.000Z</time>
      </trkpt>
      <trkpt lat="45.72909" lon="6.5928">
        <ele>1476</ele>
        <time>2018-10-06T16:22:26.000Z</time>
      </trkpt>
      <trkpt lat="45.72915" lon="6.59263">
        <ele>1475</ele>
        <time>2018-10-06T16:22:36.000Z</time>
      </trkpt>
      <trkpt lat="45.72911" lon="6.59225">
        <ele>1477</ele>
        <time>2018-10-06T16:22:46.000Z</time>
      </trkpt>
      <trkpt lat="45.72917" lon="6.592">
        <ele>1480</ele>
        <time>2018-10-06T16:22:56.000Z</time>
      </trkpt>
      <trkpt lat="45.72924" lon="6.59184">
        <ele>1477</ele>
        <time>2018-10-06T16:23:06.000Z</time>
      </trkpt>
      <trkpt lat="45.7294" lon="6.59142">
        <ele>1473</ele>
        <time>2018-10-06T16:23:16.000Z</time>
      </trkpt>
      <trkpt lat="45.72953" lon="6.59134">
        <ele>1473</ele>
        <time>2018-10-06T16:23:26.000Z</time>
      </trkpt>
      <trkpt lat="45.72964" lon="6.59108">
        <ele>1471</ele>
        <time>2018-10-06T16:23:36.000Z</time>
      </trkpt>
      <trkpt lat="45.72971" lon="6.59085">
        <ele>1472</ele>
        <time>2018-10-06T16:23:46.000Z</time>
      </trkpt>
      <trkpt lat="45.72984" lon="6.59073">
        <ele>1474</ele>
        <time>2018-10-06T16:23:56.000Z</time>
      </trkpt>
      <trkpt lat="45.72995" lon="6.5906">
        <ele>1474</ele>
        <time>2018-10-06T16:24:06.000Z</time>
      </trkpt>
      <trkpt lat="45.73014" lon="6.59026">
        <ele>1474</ele>
        <time>2018-10-06T16:24:16.000Z</time>
      </trkpt>
      <trkpt lat="45.73027" lon="6.59017">
        <ele>1472</ele>
        <time>2018-10-06T16:24:26.000Z</time>
      </trkpt>
      <trkpt lat="45.73038" lon="6.59008">
        <ele>1469</ele>
        <time>2018-10-06T16:24:36.000Z</time>
      </trkpt>
      <trkpt lat="45.73038" lon="6.59002">
        <ele>1465</ele>
        <time>2018-10-06T16:24:46.000Z</time>
      </trkpt>
      <trkpt lat="45.73028" lon="6.59">
        <ele>1463</ele>
        <time>2018-10-06T16:24:56.000Z</time>
      </trkpt>
      <trkpt lat="45.73025" lon="6.58993">
        <ele>1459</ele>
        <time>2018-10-06T16:25:06.000Z</time>
      </trkpt>
      <trkpt lat="45.73028" lon="6.58984">
        <ele>1455</ele>
        <time>2018-10-06T16:25:16.000Z</time>
      </trkpt>
      <trkpt lat="45.73025" lon="6.58978">
        <ele>1452</ele>
        <time>2018-10-06T16:25:26.000Z</time>
      </trkpt>
      <trkpt lat="45.73016" lon="6.58976">
        <ele>1449</ele>
        <time>2018-10-06T16:25:36.000Z</time>
      </trkpt>
      <trkpt lat="45.73009" lon="6.58967">
        <ele>1445</ele>
        <time>2018-10-06T16:25:46.000Z</time>
      </trkpt>
      <trkpt lat="45.7299" lon="6.58967">
        <ele>1440</ele>
        <time>2018-10-06T16:25:56.000Z</time>
      </trkpt>
      <trkpt lat="45.72981" lon="6.58965">
        <ele>1437</ele>
        <time>2018-10-06T16:26:06.000Z</time>
      </trkpt>
      <trkpt lat="45.72973" lon="6.58962">
        <ele>1437</ele>
        <time>2018-10-06T16:26:16.000Z</time>
      </trkpt>
      <trkpt lat="45.72959" lon="6.58955">
        <ele>1429</ele>
        <time>2018-10-06T16:26:26.000Z</time>
      </trkpt>
      <trkpt lat="45.72945" lon="6.58949">
        <ele>1424</ele>
        <time>2018-10-06T16:26:36.000Z</time>
      </trkpt>
      <trkpt lat="45.72957" lon="6.58934">
        <ele>1416</ele>
        <time>2018-10-06T16:26:46.000Z</time>
      </trkpt>
      <trkpt lat="45.72961" lon="6.58921">
        <ele>1413</ele>
        <time>2018-10-06T16:26:56.000Z</time>
      </trkpt>
      <trkpt lat="45.72966" lon="6.5891">
        <ele>1411</ele>
        <time>2018-10-06T16:27:06.000Z</time>
      </trkpt>
      <trkpt lat="45.72973" lon="6.58901">
        <ele>1409</ele>
        <time>2018-10-06T16:27:16.000Z</time>
      </trkpt>
      <trkpt lat="45.72977" lon="6.58889">
        <ele>1406</ele>
        <time>2018-10-06T16:27:26.000Z</time>
      </trkpt>
      <trkpt lat="45.72982" lon="6.58877">
        <ele>1405</ele>
        <time>2018-10-06T16:27:36.000Z</time>
      </trkpt>
      <trkpt lat="45.72989" lon="6.58866">
        <ele>1405</ele>
        <time>2018-10-06T16:27:46.000Z</time>
      </trkpt>
      <trkpt lat="45.72999" lon="6.58858">
        <ele>1403</ele>
        <time>2018-10-06T16:27:56.000Z</time>
      </trkpt>
      <trkpt lat="45.73008" lon="6.58852">
        <ele>1401</ele>
        <time>2018-10-06T16:28:06.000Z</time>
      </trkpt>
      <trkpt lat="45.73018" lon="6.58849">
        <ele>1399</ele>
        <time>2018-10-06T16:28:16.000Z</time>
      </trkpt>
      <trkpt lat="45.73028" lon="6.58847">
        <ele>1398</ele>
        <time>2018-10-06T16:28:26.000Z</time>
      </trkpt>
      <trkpt lat="45.73038" lon="6.58847">
        <ele>1398</ele>
        <time>2018-10-06T16:28:36.000Z</time>
      </trkpt>
      <trkpt lat="45.73049" lon="6.58851">
        <ele>1397</ele>
        <time>2018-10-06T16:28:46.000Z</time>
      </trkpt>
      <trkpt lat="45.73058" lon="6.58846">
        <ele>1397</ele>
        <time>2018-10-06T16:28:56.000Z</time>
      </trkpt>
      <trkpt lat="45.73066" lon="6.58838">
        <ele>1393</ele>
        <time>2018-10-06T16:29:06.000Z</time>
      </trkpt>
      <trkpt lat="45.73065" lon="6.58825">
        <ele>1390</ele>
        <time>2018-10-06T16:29:16.000Z</time>
      </trkpt>
      <trkpt lat="45.73067" lon="6.5881">
        <ele>1387</ele>
        <time>2018-10-06T16:29:26.000Z</time>
      </trkpt>
      <trkpt lat="45.73072" lon="6.58796">
        <ele>1384</ele>
        <time>2018-10-06T16:29:36.000Z</time>
      </trkpt>
      <trkpt lat="45.73073" lon="6.58779">
        <ele>1383</ele>
        <time>2018-10-06T16:29:46.000Z</time>
      </trkpt>
      <trkpt lat="45.73081" lon="6.58767">
        <ele>1379</ele>
        <time>2018-10-06T16:29:56.000Z</time>
      </trkpt>
      <trkpt lat="45.73101" lon="6.5874">
        <ele>1379</ele>
        <time>2018-10-06T16:30:06.000Z</time>
      </trkpt>
      <trkpt lat="45.73113" lon="6.58738">
        <ele>1378</ele>
        <time>2018-10-06T16:30:16.000Z</time>
      </trkpt>
      <trkpt lat="45.73119" lon="6.58741">
        <ele>1380</ele>
        <time>2018-10-06T16:30:26.000Z</time>
      </trkpt>
      <trkpt lat="45.73127" lon="6.5874">
        <ele>1382</ele>
        <time>2018-10-06T16:30:36.000Z</time>
      </trkpt>
      <trkpt lat="45.73138" lon="6.58729">
        <ele>1383</ele>
        <time>2018-10-06T16:30:46.000Z</time>
      </trkpt>
      <trkpt lat="45.7315" lon="6.58707">
        <ele>1378</ele>
        <time>2018-10-06T16:30:56.000Z</time>
      </trkpt>
      <trkpt lat="45.7316" lon="6.58696">
        <ele>1377</ele>
        <time>2018-10-06T16:31:06.000Z</time>
      </trkpt>
      <trkpt lat="45.73169" lon="6.5869">
        <ele>1377</ele>
        <time>2018-10-06T16:31:16.000Z</time>
      </trkpt>
      <trkpt lat="45.73178" lon="6.58669">
        <ele>1373</ele>
        <time>2018-10-06T16:31:26.000Z</time>
      </trkpt>
      <trkpt lat="45.73181" lon="6.58644">
        <ele>1365</ele>
        <time>2018-10-06T16:31:36.000Z</time>
      </trkpt>
      <trkpt lat="45.73181" lon="6.58626">
        <ele>1362</ele>
        <time>2018-10-06T16:31:46.000Z</time>
      </trkpt>
      <trkpt lat="45.73186" lon="6.58609">
        <ele>1361</ele>
        <time>2018-10-06T16:31:56.000Z</time>
      </trkpt>
      <trkpt lat="45.73198" lon="6.58587">
        <ele>1353</ele>
        <time>2018-10-06T16:32:06.000Z</time>
      </trkpt>
      <trkpt lat="45.73207" lon="6.5858">
        <ele>1353</ele>
        <time>2018-10-06T16:32:16.000Z</time>
      </trkpt>
      <trkpt lat="45.73213" lon="6.58571">
        <ele>1353</ele>
        <time>2018-10-06T16:32:26.000Z</time>
      </trkpt>
      <trkpt lat="45.73219" lon="6.58556">
        <ele>1350</ele>
        <time>2018-10-06T16:32:36.000Z</time>
      </trkpt>
      <trkpt lat="45.73226" lon="6.58544">
        <ele>1346</ele>
        <time>2018-10-06T16:32:46.000Z</time>
      </trkpt>
      <trkpt lat="45.73236" lon="6.58543">
        <ele>1344</ele>
        <time>2018-10-06T16:32:56.000Z</time>
      </trkpt>
      <trkpt lat="45.7325" lon="6.58543">
        <ele>1341</ele>
        <time>2018-10-06T16:33:06.000Z</time>
      </trkpt>
      <trkpt lat="45.73266" lon="6.58558">
        <ele>1339</ele>
        <time>2018-10-06T16:33:16.000Z</time>
      </trkpt>
      <trkpt lat="45.73272" lon="6.5857">
        <ele>1335</ele>
        <time>2018-10-06T16:33:26.000Z</time>
      </trkpt>
      <trkpt lat="45.7328" lon="6.58568">
        <ele>1331</ele>
        <time>2018-10-06T16:33:36.000Z</time>
      </trkpt>
      <trkpt lat="45.73288" lon="6.58563">
        <ele>1328</ele>
        <time>2018-10-06T16:33:46.000Z</time>
      </trkpt>
      <trkpt lat="45.73306" lon="6.58555">
        <ele>1321</ele>
        <time>2018-10-06T16:33:56.000Z</time>
      </trkpt>
      <trkpt lat="45.73313" lon="6.58547">
        <ele>1319</ele>
        <time>2018-10-06T16:34:06.000Z</time>
      </trkpt>
      <trkpt lat="45.73324" lon="6.58547">
        <ele>1317</ele>
        <time>2018-10-06T16:34:16.000Z</time>
      </trkpt>
      <trkpt lat="45.73333" lon="6.58549">
        <ele>1315</ele>
        <time>2018-10-06T16:34:26.000Z</time>
      </trkpt>
      <trkpt lat="45.73339" lon="6.58538">
        <ele>1313</ele>
        <time>2018-10-06T16:34:36.000Z</time>
      </trkpt>
      <trkpt lat="45.73346" lon="6.58532">
        <ele>1311</ele>
        <time>2018-10-06T16:34:46.000Z</time>
      </trkpt>
      <trkpt lat="45.73355" lon="6.58536">
        <ele>1308</ele>
        <time>2018-10-06T16:34:56.000Z</time>
      </trkpt>
      <trkpt lat="45.73365" lon="6.58536">
        <ele>1307</ele>
        <time>2018-10-06T16:35:06.000Z</time>
      </trkpt>
      <trkpt lat="45.73377" lon="6.58534">
        <ele>1305</ele>
        <time>2018-10-06T16:35:16.000Z</time>
      </trkpt>
      <trkpt lat="45.73388" lon="6.58533">
        <ele>1303</ele>
        <time>2018-10-06T16:35:26.000Z</time>
      </trkpt>
      <trkpt lat="45.73396" lon="6.58528">
        <ele>1299</ele>
        <time>2018-10-06T16:35:36.000Z</time>
      </trkpt>
      <trkpt lat="45.73402" lon="6.58519">
        <ele>1296</ele>
        <time>2018-10-06T16:35:46.000Z</time>
      </trkpt>
      <trkpt lat="45.73402" lon="6.58504">
        <ele>1293</ele>
        <time>2018-10-06T16:35:56.000Z</time>
      </trkpt>
      <trkpt lat="45.73397" lon="6.58492">
        <ele>1292</ele>
        <time>2018-10-06T16:36:06.000Z</time>
      </trkpt>
      <trkpt lat="45.73391" lon="6.58481">
        <ele>1291</ele>
        <time>2018-10-06T16:36:16.000Z</time>
      </trkpt>
      <trkpt lat="45.73371" lon="6.58464">
        <ele>1288</ele>
        <time>2018-10-06T16:36:26.000Z</time>
      </trkpt>
      <trkpt lat="45.73361" lon="6.58458">
        <ele>1288</ele>
        <time>2018-10-06T16:36:36.000Z</time>
      </trkpt>
      <trkpt lat="45.73355" lon="6.58448">
        <ele>1286</ele>
        <time>2018-10-06T16:36:46.000Z</time>
      </trkpt>
      <trkpt lat="45.7335" lon="6.58435">
        <ele>1284</ele>
        <time>2018-10-06T16:36:56.000Z</time>
      </trkpt>
      <trkpt lat="45.73349" lon="6.58422">
        <ele>1284</ele>
        <time>2018-10-06T16:37:06.000Z</time>
      </trkpt>
      <trkpt lat="45.73349" lon="6.58408">
        <ele>1283</ele>
        <time>2018-10-06T16:37:16.000Z</time>
      </trkpt>
      <trkpt lat="45.73346" lon="6.58392">
        <ele>1281</ele>
        <time>2018-10-06T16:37:26.000Z</time>
      </trkpt>
      <trkpt lat="45.73341" lon="6.58381">
        <ele>1278</ele>
        <time>2018-10-06T16:37:36.000Z</time>
      </trkpt>
      <trkpt lat="45.73334" lon="6.58371">
        <ele>1277</ele>
        <time>2018-10-06T16:37:46.000Z</time>
      </trkpt>
      <trkpt lat="45.73327" lon="6.58361">
        <ele>1276</ele>
        <time>2018-10-06T16:37:56.000Z</time>
      </trkpt>
      <trkpt lat="45.73322" lon="6.58349">
        <ele>1274</ele>
        <time>2018-10-06T16:38:06.000Z</time>
      </trkpt>
      <trkpt lat="45.73317" lon="6.58338">
        <ele>1272</ele>
        <time>2018-10-06T16:38:16.000Z</time>
      </trkpt>
      <trkpt lat="45.73313" lon="6.58326">
        <ele>1270</ele>
        <time>2018-10-06T16:38:26.000Z</time>
      </trkpt>
      <trkpt lat="45.73308" lon="6.58317">
        <ele>1268</ele>
        <time>2018-10-06T16:38:36.000Z</time>
      </trkpt>
      <trkpt lat="45.73306" lon="6.58305">
        <ele>1266</ele>
        <time>2018-10-06T16:38:46.000Z</time>
      </trkpt>
      <trkpt lat="45.73304" lon="6.58294">
        <ele>1263</ele>
        <time>2018-10-06T16:38:56.000Z</time>
      </trkpt>
      <trkpt lat="45.73304" lon="6.58282">
        <ele>1261</ele>
        <time>2018-10-06T16:39:06.000Z</time>
      </trkpt>
      <trkpt lat="45.73323" lon="6.58278">
        <ele>1259</ele>
        <time>2018-10-06T16:39:16.000Z</time>
      </trkpt>
      <trkpt lat="45.73352" lon="6.58282">
        <ele>1256</ele>
        <time>2018-10-06T16:39:26.000Z</time>
      </trkpt>
      <trkpt lat="45.7336" lon="6.58287">
        <ele>1255</ele>
        <time>2018-10-06T16:39:36.000Z</time>
      </trkpt>
      <trkpt lat="45.73344" lon="6.58268">
        <ele>1252</ele>
        <time>2018-10-06T16:39:46.000Z</time>
      </trkpt>
      <trkpt lat="45.73336" lon="6.58261">
        <ele>1251</ele>
        <time>2018-10-06T16:39:56.000Z</time>
      </trkpt>
      <trkpt lat="45.73329" lon="6.58251">
        <ele>1255</ele>
        <time>2018-10-06T16:40:06.000Z</time>
      </trkpt>
      <trkpt lat="45.7332" lon="6.58242">
        <ele>1251</ele>
        <time>2018-10-06T16:40:16.000Z</time>
      </trkpt>
      <trkpt lat="45.73312" lon="6.58234">
        <ele>1248</ele>
        <time>2018-10-06T16:40:26.000Z</time>
      </trkpt>
      <trkpt lat="45.73304" lon="6.58227">
        <ele>1247</ele>
        <time>2018-10-06T16:40:36.000Z</time>
      </trkpt>
      <trkpt lat="45.73296" lon="6.58219">
        <ele>1246</ele>
        <time>2018-10-06T16:40:46.000Z</time>
      </trkpt>
      <trkpt lat="45.73289" lon="6.58209">
        <ele>1242</ele>
        <time>2018-10-06T16:40:56.000Z</time>
      </trkpt>
      <trkpt lat="45.7328" lon="6.58205">
        <ele>1239</ele>
        <time>2018-10-06T16:41:06.000Z</time>
      </trkpt>
      <trkpt lat="45.7327" lon="6.58201">
        <ele>1239</ele>
        <time>2018-10-06T16:41:16.000Z</time>
      </trkpt>
      <trkpt lat="45.73261" lon="6.58203">
        <ele>1237</ele>
        <time>2018-10-06T16:41:26.000Z</time>
      </trkpt>
      <trkpt lat="45.73252" lon="6.58202">
        <ele>1234</ele>
        <time>2018-10-06T16:41:36.000Z</time>
      </trkpt>
      <trkpt lat="45.73242" lon="6.58178">
        <ele>1228</ele>
        <time>2018-10-06T16:41:46.000Z</time>
      </trkpt>
      <trkpt lat="45.73238" lon="6.58172">
        <ele>1224</ele>
        <time>2018-10-06T16:41:56.000Z</time>
      </trkpt>
      <trkpt lat="45.73238" lon="6.58161">
        <ele>1218</ele>
        <time>2018-10-06T16:42:06.000Z</time>
      </trkpt>
      <trkpt lat="45.73229" lon="6.58153">
        <ele>1218</ele>
        <time>2018-10-06T16:42:16.000Z</time>
      </trkpt>
      <trkpt lat="45.73233" lon="6.5814">
        <ele>1214</ele>
        <time>2018-10-06T16:42:26.000Z</time>
      </trkpt>
      <trkpt lat="45.73234" lon="6.58113">
        <ele>1209</ele>
        <time>2018-10-06T16:42:36.000Z</time>
      </trkpt>
      <trkpt lat="45.73237" lon="6.58101">
        <ele>1204</ele>
        <time>2018-10-06T16:42:46.000Z</time>
      </trkpt>
      <trkpt lat="45.73234" lon="6.58089">
        <ele>1202</ele>
        <time>2018-10-06T16:42:56.000Z</time>
      </trkpt>
      <trkpt lat="45.73233" lon="6.58076">
        <ele>1198</ele>
        <time>2018-10-06T16:43:06.000Z</time>
      </trkpt>
      <trkpt lat="45.73226" lon="6.58066">
        <ele>1195</ele>
        <time>2018-10-06T16:43:16.000Z</time>
      </trkpt>
      <trkpt lat="45.73219" lon="6.58055">
        <ele>1193</ele>
        <time>2018-10-06T16:43:26.000Z</time>
      </trkpt>
      <trkpt lat="45.73212" lon="6.58039">
        <ele>1190</ele>
        <time>2018-10-06T16:43:36.000Z</time>
      </trkpt>
      <trkpt lat="45.73219" lon="6.58034">
        <ele>1188</ele>
        <time>2018-10-06T16:43:46.000Z</time>
      </trkpt>
      <trkpt lat="45.73212" lon="6.58032">
        <ele>1186</ele>
        <time>2018-10-06T16:43:56.000Z</time>
      </trkpt>
      <trkpt lat="45.73205" lon="6.58022">
        <ele>1183</ele>
        <time>2018-10-06T16:44:06.000Z</time>
      </trkpt>
      <trkpt lat="45.73206" lon="6.58008">
        <ele>1183</ele>
        <time>2018-10-06T16:44:16.000Z</time>
      </trkpt>
      <trkpt lat="45.73213" lon="6.58">
        <ele>1179</ele>
        <time>2018-10-06T16:44:26.000Z</time>
      </trkpt>
      <trkpt lat="45.73203" lon="6.57978">
        <ele>1174</ele>
        <time>2018-10-06T16:44:36.000Z</time>
      </trkpt>
      <trkpt lat="45.73199" lon="6.57967">
        <ele>1171</ele>
        <time>2018-10-06T16:44:46.000Z</time>
      </trkpt>
      <trkpt lat="45.73194" lon="6.57953">
        <ele>1166</ele>
        <time>2018-10-06T16:44:56.000Z</time>
      </trkpt>
      <trkpt lat="45.73189" lon="6.57941">
        <ele>1163</ele>
        <time>2018-10-06T16:45:06.000Z</time>
      </trkpt>
      <trkpt lat="45.73181" lon="6.5793">
        <ele>1161</ele>
        <time>2018-10-06T16:45:16.000Z</time>
      </trkpt>
      <trkpt lat="45.73172" lon="6.57927">
        <ele>1157</ele>
        <time>2018-10-06T16:45:26.000Z</time>
      </trkpt>
      <trkpt lat="45.73163" lon="6.57924">
        <ele>1156</ele>
        <time>2018-10-06T16:45:36.000Z</time>
      </trkpt>
      <trkpt lat="45.73155" lon="6.57915">
        <ele>1151</ele>
        <time>2018-10-06T16:45:46.000Z</time>
      </trkpt>
      <trkpt lat="45.73147" lon="6.57916">
        <ele>1148</ele>
        <time>2018-10-06T16:45:56.000Z</time>
      </trkpt>
      <trkpt lat="45.7314" lon="6.57919">
        <ele>1144</ele>
        <time>2018-10-06T16:46:06.000Z</time>
      </trkpt>
      <trkpt lat="45.73131" lon="6.57911">
        <ele>1140</ele>
        <time>2018-10-06T16:46:16.000Z</time>
      </trkpt>
      <trkpt lat="45.73126" lon="6.57899">
        <ele>1139</ele>
        <time>2018-10-06T16:46:26.000Z</time>
      </trkpt>
      <trkpt lat="45.73118" lon="6.57892">
        <ele>1134</ele>
        <time>2018-10-06T16:46:36.000Z</time>
      </trkpt>
      <trkpt lat="45.7311" lon="6.5789">
        <ele>1131</ele>
        <time>2018-10-06T16:46:46.000Z</time>
      </trkpt>
      <trkpt lat="45.73103" lon="6.57895">
        <ele>1128</ele>
        <time>2018-10-06T16:46:56.000Z</time>
      </trkpt>
      <trkpt lat="45.73094" lon="6.57893">
        <ele>1124</ele>
        <time>2018-10-06T16:47:06.000Z</time>
      </trkpt>
      <trkpt lat="45.73084" lon="6.57893">
        <ele>1122</ele>
        <time>2018-10-06T16:47:16.000Z</time>
      </trkpt>
      <trkpt lat="45.73063" lon="6.57885">
        <ele>1117</ele>
        <time>2018-10-06T16:47:26.000Z</time>
      </trkpt>
      <trkpt lat="45.73053" lon="6.57879">
        <ele>1115</ele>
        <time>2018-10-06T16:47:36.000Z</time>
      </trkpt>
      <trkpt lat="45.73045" lon="6.57879">
        <ele>1113</ele>
        <time>2018-10-06T16:47:46.000Z</time>
      </trkpt>
      <trkpt lat="45.73039" lon="6.57886">
        <ele>1112</ele>
        <time>2018-10-06T16:47:56.000Z</time>
      </trkpt>
      <trkpt lat="45.73039" lon="6.57896">
        <ele>1110</ele>
        <time>2018-10-06T16:48:06.000Z</time>
      </trkpt>
      <trkpt lat="45.7303" lon="6.57892">
        <ele>1106</ele>
        <time>2018-10-06T16:48:16.000Z</time>
      </trkpt>
      <trkpt lat="45.73008" lon="6.57896">
        <ele>1101</ele>
        <time>2018-10-06T16:48:26.000Z</time>
      </trkpt>
      <trkpt lat="45.73001" lon="6.57892">
        <ele>1099</ele>
        <time>2018-10-06T16:48:36.000Z</time>
      </trkpt>
      <trkpt lat="45.72996" lon="6.57907">
        <ele>1095</ele>
        <time>2018-10-06T16:48:46.000Z</time>
      </trkpt>
      <trkpt lat="45.72997" lon="6.5792">
        <ele>1092</ele>
        <time>2018-10-06T16:48:56.000Z</time>
      </trkpt>
      <trkpt lat="45.72989" lon="6.57925">
        <ele>1089</ele>
        <time>2018-10-06T16:49:06.000Z</time>
      </trkpt>
      <trkpt lat="45.7298" lon="6.57927">
        <ele>1088</ele>
        <time>2018-10-06T16:49:16.000Z</time>
      </trkpt>
      <trkpt lat="45.72971" lon="6.57931">
        <ele>1084</ele>
        <time>2018-10-06T16:49:26.000Z</time>
      </trkpt>
      <trkpt lat="45.72964" lon="6.57935">
        <ele>1080</ele>
        <time>2018-10-06T16:49:36.000Z</time>
      </trkpt>
      <trkpt lat="45.72955" lon="6.57934">
        <ele>1077</ele>
        <time>2018-10-06T16:49:46.000Z</time>
      </trkpt>
      <trkpt lat="45.72946" lon="6.57928">
        <ele>1076</ele>
        <time>2018-10-06T16:49:56.000Z</time>
      </trkpt>
      <trkpt lat="45.7294" lon="6.57929">
        <ele>1072</ele>
        <time>2018-10-06T16:50:06.000Z</time>
      </trkpt>
      <trkpt lat="45.72938" lon="6.57939">
        <ele>1070</ele>
        <time>2018-10-06T16:50:16.000Z</time>
      </trkpt>
      <trkpt lat="45.72929" lon="6.57929">
        <ele>1068</ele>
        <time>2018-10-06T16:50:26.000Z</time>
      </trkpt>
      <trkpt lat="45.72913" lon="6.57915">
        <ele>1063</ele>
        <time>2018-10-06T16:50:36.000Z</time>
      </trkpt>
      <trkpt lat="45.7289" lon="6.57887">
        <ele>1059</ele>
        <time>2018-10-06T16:50:46.000Z</time>
      </trkpt>
      <trkpt lat="45.72881" lon="6.57879">
        <ele>1058</ele>
        <time>2018-10-06T16:50:56.000Z</time>
      </trkpt>
      <trkpt lat="45.72872" lon="6.57868">
        <ele>1057</ele>
        <time>2018-10-06T16:51:06.000Z</time>
      </trkpt>
      <trkpt lat="45.72866" lon="6.57864">
        <ele>1055</ele>
        <time>2018-10-06T16:51:16.000Z</time>
      </trkpt>
      <trkpt lat="45.72857" lon="6.57871">
        <ele>1053</ele>
        <time>2018-10-06T16:51:26.000Z</time>
      </trkpt>
      <trkpt lat="45.7285" lon="6.57865">
        <ele>1051</ele>
        <time>2018-10-06T16:51:36.000Z</time>
      </trkpt>
      <trkpt lat="45.72845" lon="6.57852">
        <ele>1047</ele>
        <time>2018-10-06T16:51:46.000Z</time>
      </trkpt>
      <trkpt lat="45.72844" lon="6.57838">
        <ele>1044</ele>
        <time>2018-10-06T16:51:56.000Z</time>
      </trkpt>
      <trkpt lat="45.72848" lon="6.57811">
        <ele>1041</ele>
        <time>2018-10-06T16:52:06.000Z</time>
      </trkpt>
      <trkpt lat="45.72853" lon="6.57781">
        <ele>1038</ele>
        <time>2018-10-06T16:52:16.000Z</time>
      </trkpt>
      <trkpt lat="45.72854" lon="6.57769">
        <ele>1037</ele>
        <time>2018-10-06T16:52:26.000Z</time>
      </trkpt>
      <trkpt lat="45.72858" lon="6.5774">
        <ele>1034</ele>
        <time>2018-10-06T16:52:36.000Z</time>
      </trkpt>
      <trkpt lat="45.72862" lon="6.57712">
        <ele>1031</ele>
        <time>2018-10-06T16:52:46.000Z</time>
      </trkpt>
      <trkpt lat="45.72864" lon="6.57697">
        <ele>1030</ele>
        <time>2018-10-06T16:52:56.000Z</time>
      </trkpt>
      <trkpt lat="45.72864" lon="6.57684">
        <ele>1029</ele>
        <time>2018-10-06T16:53:06.000Z</time>
      </trkpt>
      <trkpt lat="45.72857" lon="6.57674">
        <ele>1027</ele>
        <time>2018-10-06T16:53:16.000Z</time>
      </trkpt>
      <trkpt lat="45.72853" lon="6.57664">
        <ele>1024</ele>
        <time>2018-10-06T16:53:26.000Z</time>
      </trkpt>
      <trkpt lat="45.7285" lon="6.57654">
        <ele>1023</ele>
        <time>2018-10-06T16:53:36.000Z</time>
      </trkpt>
      <trkpt lat="45.72852" lon="6.57641">
        <ele>1021</ele>
        <time>2018-10-06T16:53:46.000Z</time>
      </trkpt>
      <trkpt lat="45.72851" lon="6.57627">
        <ele>1017</ele>
        <time>2018-10-06T16:53:56.000Z</time>
      </trkpt>
      <trkpt lat="45.72844" lon="6.57624">
        <ele>1014</ele>
        <time>2018-10-06T16:54:06.000Z</time>
      </trkpt>
      <trkpt lat="45.72842" lon="6.57611">
        <ele>1011</ele>
        <time>2018-10-06T16:54:16.000Z</time>
      </trkpt>
      <trkpt lat="45.72836" lon="6.57614">
        <ele>1010</ele>
        <time>2018-10-06T16:54:26.000Z</time>
      </trkpt>
      <trkpt lat="45.72838" lon="6.57601">
        <ele>1010</ele>
        <time>2018-10-06T16:54:36.000Z</time>
      </trkpt>
      <trkpt lat="45.72842" lon="6.57588">
        <ele>1010</ele>
        <time>2018-10-06T16:54:46.000Z</time>
      </trkpt>
      <trkpt lat="45.72854" lon="6.57564">
        <ele>1005</ele>
        <time>2018-10-06T16:54:56.000Z</time>
      </trkpt>
      <trkpt lat="45.72852" lon="6.57557">
        <ele>1002</ele>
        <time>2018-10-06T16:55:06.000Z</time>
      </trkpt>
      <trkpt lat="45.72843" lon="6.5755">
        <ele>999</ele>
        <time>2018-10-06T16:55:16.000Z</time>
      </trkpt>
      <trkpt lat="45.72832" lon="6.57551">
        <ele>998</ele>
        <time>2018-10-06T16:55:26.000Z</time>
      </trkpt>
      <trkpt lat="45.72822" lon="6.57554">
        <ele>997</ele>
        <time>2018-10-06T16:55:36.000Z</time>
      </trkpt>
      <trkpt lat="45.72814" lon="6.57558">
        <ele>996</ele>
        <time>2018-10-06T16:55:46.000Z</time>
      </trkpt>
      <trkpt lat="45.72804" lon="6.5756">
        <ele>994</ele>
        <time>2018-10-06T16:55:56.000Z</time>
      </trkpt>
      <trkpt lat="45.72793" lon="6.5756">
        <ele>994</ele>
        <time>2018-10-06T16:56:06.000Z</time>
      </trkpt>
      <trkpt lat="45.72783" lon="6.57556">
        <ele>993</ele>
        <time>2018-10-06T16:56:16.000Z</time>
      </trkpt>
      <trkpt lat="45.72773" lon="6.57551">
        <ele>992</ele>
        <time>2018-10-06T16:56:26.000Z</time>
      </trkpt>
      <trkpt lat="45.72764" lon="6.57543">
        <ele>990</ele>
        <time>2018-10-06T16:56:36.000Z</time>
      </trkpt>
      <trkpt lat="45.72756" lon="6.57537">
        <ele>989</ele>
        <time>2018-10-06T16:56:46.000Z</time>
      </trkpt>
      <trkpt lat="45.72749" lon="6.57528">
        <ele>986</ele>
        <time>2018-10-06T16:56:56.000Z</time>
      </trkpt>
      <trkpt lat="45.72744" lon="6.57515">
        <ele>986</ele>
        <time>2018-10-06T16:57:06.000Z</time>
      </trkpt>
      <trkpt lat="45.72741" lon="6.57502">
        <ele>986</ele>
        <time>2018-10-06T16:57:16.000Z</time>
      </trkpt>
      <trkpt lat="45.72739" lon="6.57488">
        <ele>981</ele>
        <time>2018-10-06T16:57:26.000Z</time>
      </trkpt>
      <trkpt lat="45.72736" lon="6.57476">
        <ele>979</ele>
        <time>2018-10-06T16:57:36.000Z</time>
      </trkpt>
      <trkpt lat="45.72729" lon="6.57467">
        <ele>975</ele>
        <time>2018-10-06T16:57:46.000Z</time>
      </trkpt>
      <trkpt lat="45.72728" lon="6.57457">
        <ele>973</ele>
        <time>2018-10-06T16:57:56.000Z</time>
      </trkpt>
      <trkpt lat="45.72698" lon="6.5744">
        <ele>969</ele>
        <time>2018-10-06T16:58:06.000Z</time>
      </trkpt>
      <trkpt lat="45.72686" lon="6.57437">
        <ele>967</ele>
        <time>2018-10-06T16:58:16.000Z</time>
      </trkpt>
      <trkpt lat="45.72675" lon="6.57437">
        <ele>967</ele>
        <time>2018-10-06T16:58:26.000Z</time>
      </trkpt>
      <trkpt lat="45.72664" lon="6.57438">
        <ele>960</ele>
        <time>2018-10-06T16:58:36.000Z</time>
      </trkpt>
      <trkpt lat="45.72655" lon="6.57441">
        <ele>960</ele>
        <time>2018-10-06T16:58:46.000Z</time>
      </trkpt>
      <trkpt lat="45.7265" lon="6.57451">
        <ele>960</ele>
        <time>2018-10-06T16:58:56.000Z</time>
      </trkpt>
      <trkpt lat="45.72649" lon="6.57464">
        <ele>958</ele>
        <time>2018-10-06T16:59:06.000Z</time>
      </trkpt>
      <trkpt lat="45.72646" lon="6.57478">
        <ele>958</ele>
        <time>2018-10-06T16:59:16.000Z</time>
      </trkpt>
      <trkpt lat="45.7265" lon="6.5749">
        <ele>957</ele>
        <time>2018-10-06T16:59:26.000Z</time>
      </trkpt>
      <trkpt lat="45.72647" lon="6.57503">
        <ele>956</ele>
        <time>2018-10-06T16:59:36.000Z</time>
      </trkpt>
      <trkpt lat="45.72649" lon="6.57515">
        <ele>956</ele>
        <time>2018-10-06T16:59:46.000Z</time>
      </trkpt>
      <trkpt lat="45.7265" lon="6.57526">
        <ele>955</ele>
        <time>2018-10-06T16:59:56.000Z</time>
      </trkpt>
      <trkpt lat="45.72655" lon="6.57538">
        <ele>954</ele>
        <time>2018-10-06T17:00:06.000Z</time>
      </trkpt>
      <trkpt lat="45.72652" lon="6.57552">
        <ele>953</ele>
        <time>2018-10-06T17:00:16.000Z</time>
      </trkpt>
      <trkpt lat="45.72647" lon="6.57566">
        <ele>952</ele>
        <time>2018-10-06T17:00:26.000Z</time>
      </trkpt>
      <trkpt lat="45.72647" lon="6.57579">
        <ele>951</ele>
        <time>2018-10-06T17:00:36.000Z</time>
      </trkpt>
      <trkpt lat="45.72641" lon="6.5759">
        <ele>950</ele>
        <time>2018-10-06T17:00:46.000Z</time>
      </trkpt>
      <trkpt lat="45.72636" lon="6.57601">
        <ele>948</ele>
        <time>2018-10-06T17:00:56.000Z</time>
      </trkpt>
      <trkpt lat="45.72635" lon="6.57614">
        <ele>948</ele>
        <time>2018-10-06T17:01:06.000Z</time>
      </trkpt>
      <trkpt lat="45.7263" lon="6.57624">
        <ele>947</ele>
        <time>2018-10-06T17:01:16.000Z</time>
      </trkpt>
      <trkpt lat="45.72626" lon="6.57615">
        <ele>946</ele>
        <time>2018-10-06T17:01:26.000Z</time>
      </trkpt>
      <trkpt lat="45.72625" lon="6.576">
        <ele>945</ele>
        <time>2018-10-06T17:01:36.000Z</time>
      </trkpt>
      <trkpt lat="45.72622" lon="6.57584">
        <ele>946</ele>
        <time>2018-10-06T17:01:46.000Z</time>
      </trkpt>
      <trkpt lat="45.72615" lon="6.57558">
        <ele>947</ele>
        <time>2018-10-06T17:01:56.000Z</time>
      </trkpt>
      <trkpt lat="45.72609" lon="6.57527">
        <ele>948</ele>
        <time>2018-10-06T17:02:06.000Z</time>
      </trkpt>
      <trkpt lat="45.72604" lon="6.57511">
        <ele>947</ele>
        <time>2018-10-06T17:02:16.000Z</time>
      </trkpt>
      <trkpt lat="45.72602" lon="6.57496">
        <ele>948</ele>
        <time>2018-10-06T17:02:26.000Z</time>
      </trkpt>
      <trkpt lat="45.72603" lon="6.57484">
        <ele>949</ele>
        <time>2018-10-06T17:02:36.000Z</time>
      </trkpt>
      <trkpt lat="45.726" lon="6.57473">
        <ele>945</ele>
        <time>2018-10-06T17:02:46.000Z</time>
      </trkpt>
      <trkpt lat="45.72592" lon="6.57468">
        <ele>942</ele>
        <time>2018-10-06T17:02:56.000Z</time>
      </trkpt>
      <trkpt lat="45.72583" lon="6.57472">
        <ele>938</ele>
        <time>2018-10-06T17:03:06.000Z</time>
      </trkpt>
      <trkpt lat="45.72573" lon="6.57474">
        <ele>936</ele>
        <time>2018-10-06T17:03:16.000Z</time>
      </trkpt>
      <trkpt lat="45.72555" lon="6.57485">
        <ele>932</ele>
        <time>2018-10-06T17:03:26.000Z</time>
      </trkpt>
      <trkpt lat="45.72546" lon="6.57488">
        <ele>930</ele>
        <time>2018-10-06T17:03:36.000Z</time>
      </trkpt>
      <trkpt lat="45.72528" lon="6.57497">
        <ele>924</ele>
        <time>2018-10-06T17:03:46.000Z</time>
      </trkpt>
      <trkpt lat="45.72509" lon="6.57501">
        <ele>917</ele>
        <time>2018-10-06T17:03:56.000Z</time>
      </trkpt>
      <trkpt lat="45.72489" lon="6.57508">
        <ele>914</ele>
        <time>2018-10-06T17:04:06.000Z</time>
      </trkpt>
      <trkpt lat="45.72479" lon="6.57513">
        <ele>911</ele>
        <time>2018-10-06T17:04:16.000Z</time>
      </trkpt>
      <trkpt lat="45.72463" lon="6.5753">
        <ele>910</ele>
        <time>2018-10-06T17:04:26.000Z</time>
      </trkpt>
      <trkpt lat="45.72455" lon="6.57537">
        <ele>908</ele>
        <time>2018-10-06T17:04:36.000Z</time>
      </trkpt>
      <trkpt lat="45.72448" lon="6.57548">
        <ele>906</ele>
        <time>2018-10-06T17:04:46.000Z</time>
      </trkpt>
      <trkpt lat="45.7244" lon="6.57557">
        <ele>905</ele>
        <time>2018-10-06T17:04:56.000Z</time>
      </trkpt>
      <trkpt lat="45.7243" lon="6.5756">
        <ele>901</ele>
        <time>2018-10-06T17:05:06.000Z</time>
      </trkpt>
      <trkpt lat="45.72421" lon="6.57565">
        <ele>899</ele>
        <time>2018-10-06T17:05:16.000Z</time>
      </trkpt>
      <trkpt lat="45.72393" lon="6.57586">
        <ele>892</ele>
        <time>2018-10-06T17:05:26.000Z</time>
      </trkpt>
      <trkpt lat="45.72383" lon="6.57587">
        <ele>890</ele>
        <time>2018-10-06T17:05:36.000Z</time>
      </trkpt>
      <trkpt lat="45.72376" lon="6.57593">
        <ele>888</ele>
        <time>2018-10-06T17:05:46.000Z</time>
      </trkpt>
      <trkpt lat="45.72377" lon="6.57606">
        <ele>889</ele>
        <time>2018-10-06T17:05:56.000Z</time>
      </trkpt>
      <trkpt lat="45.72382" lon="6.57616">
        <ele>886</ele>
        <time>2018-10-06T17:06:06.000Z</time>
      </trkpt>
      <trkpt lat="45.72376" lon="6.5762">
        <ele>885</ele>
        <time>2018-10-06T17:06:16.000Z</time>
      </trkpt>
      <trkpt lat="45.72364" lon="6.57611">
        <ele>885</ele>
        <time>2018-10-06T17:06:26.000Z</time>
      </trkpt>
      <trkpt lat="45.72355" lon="6.5761">
        <ele>884</ele>
        <time>2018-10-06T17:06:36.000Z</time>
      </trkpt>
      <trkpt lat="45.72346" lon="6.57608">
        <ele>883</ele>
        <time>2018-10-06T17:06:46.000Z</time>
      </trkpt>
      <trkpt lat="45.72337" lon="6.57607">
        <ele>882</ele>
        <time>2018-10-06T17:06:56.000Z</time>
      </trkpt>
      <trkpt lat="45.72327" lon="6.57602">
        <ele>880</ele>
        <time>2018-10-06T17:07:06.000Z</time>
      </trkpt>
      <trkpt lat="45.72307" lon="6.57599">
        <ele>876</ele>
        <time>2018-10-06T17:07:16.000Z</time>
      </trkpt>
      <trkpt lat="45.72305" lon="6.576">
        <ele>877</ele>
        <time>2018-10-06T17:07:26.000Z</time>
      </trkpt>
      <trkpt lat="45.72303" lon="6.57605">
        <ele>876</ele>
        <time>2018-10-06T17:07:36.000Z</time>
      </trkpt>
      <trkpt lat="45.72312" lon="6.57613">
        <ele>872</ele>
        <time>2018-10-06T17:07:46.000Z</time>
      </trkpt>
      <trkpt lat="45.72319" lon="6.57627">
        <ele>868</ele>
        <time>2018-10-06T17:07:56.000Z</time>
      </trkpt>
      <trkpt lat="45.72321" lon="6.57656">
        <ele>863</ele>
        <time>2018-10-06T17:08:06.000Z</time>
      </trkpt>
      <trkpt lat="45.72289" lon="6.57647">
        <ele>854</ele>
        <time>2018-10-06T17:08:16.000Z</time>
      </trkpt>
      <trkpt lat="45.72272" lon="6.57648">
        <ele>850</ele>
        <time>2018-10-06T17:08:26.000Z</time>
      </trkpt>
      <trkpt lat="45.72257" lon="6.57653">
        <ele>847</ele>
        <time>2018-10-06T17:08:36.000Z</time>
      </trkpt>
      <trkpt lat="45.72249" lon="6.5766">
        <ele>846</ele>
        <time>2018-10-06T17:08:46.000Z</time>
      </trkpt>
      <trkpt lat="45.72242" lon="6.57668">
        <ele>846</ele>
        <time>2018-10-06T17:08:56.000Z</time>
      </trkpt>
      <trkpt lat="45.72213" lon="6.57677">
        <ele>845</ele>
        <time>2018-10-06T17:09:06.000Z</time>
      </trkpt>
      <trkpt lat="45.72199" lon="6.5768">
        <ele>844</ele>
        <time>2018-10-06T17:09:16.000Z</time>
      </trkpt>
      <trkpt lat="45.72182" lon="6.57678">
        <ele>844</ele>
        <time>2018-10-06T17:09:26.000Z</time>
      </trkpt>
      <trkpt lat="45.72164" lon="6.57663">
        <ele>837</ele>
        <time>2018-10-06T17:09:36.000Z</time>
      </trkpt>
      <trkpt lat="45.72148" lon="6.57655">
        <ele>834</ele>
        <time>2018-10-06T17:09:46.000Z</time>
      </trkpt>
      <trkpt lat="45.72121" lon="6.5764">
        <ele>830</ele>
        <time>2018-10-06T17:09:56.000Z</time>
      </trkpt>
      <trkpt lat="45.72109" lon="6.57639">
        <ele>828</ele>
        <time>2018-10-06T17:10:06.000Z</time>
      </trkpt>
      <trkpt lat="45.72098" lon="6.57634">
        <ele>828</ele>
        <time>2018-10-06T17:10:16.000Z</time>
      </trkpt>
      <trkpt lat="45.7209" lon="6.5762">
        <ele>824</ele>
        <time>2018-10-06T17:10:26.000Z</time>
      </trkpt>
      <trkpt lat="45.7208" lon="6.57614">
        <ele>821</ele>
        <time>2018-10-06T17:10:36.000Z</time>
      </trkpt>
      <trkpt lat="45.72064" lon="6.57616">
        <ele>816</ele>
        <time>2018-10-06T17:10:46.000Z</time>
      </trkpt>
      <trkpt lat="45.72044" lon="6.57602">
        <ele>812</ele>
        <time>2018-10-06T17:10:56.000Z</time>
      </trkpt>
      <trkpt lat="45.72046" lon="6.57594">
        <ele>807</ele>
        <time>2018-10-06T17:11:06.000Z</time>
      </trkpt>
      <trkpt lat="45.72041" lon="6.57597">
        <ele>803</ele>
        <time>2018-10-06T17:11:16.000Z</time>
      </trkpt>
      <trkpt lat="45.7204" lon="6.5759">
        <ele>798</ele>
        <time>2018-10-06T17:11:26.000Z</time>
      </trkpt>
      <trkpt lat="45.72031" lon="6.576">
        <ele>793</ele>
        <time>2018-10-06T17:11:36.000Z</time>
      </trkpt>
      <trkpt lat="45.72021" lon="6.57613">
        <ele>788</ele>
        <time>2018-10-06T17:11:46.000Z</time>
      </trkpt>
      <trkpt lat="45.72009" lon="6.57636">
        <ele>782</ele>
        <time>2018-10-06T17:11:56.000Z</time>
      </trkpt>
      <trkpt lat="45.71989" lon="6.57612">
        <ele>778</ele>
        <time>2018-10-06T17:12:06.000Z</time>
      </trkpt>
      <trkpt lat="45.71978" lon="6.57604">
        <ele>776</ele>
        <time>2018-10-06T17:12:16.000Z</time>
      </trkpt>
      <trkpt lat="45.71967" lon="6.576">
        <ele>774</ele>
        <time>2018-10-06T17:12:26.000Z</time>
      </trkpt>
      <trkpt lat="45.71955" lon="6.57598">
        <ele>772</ele>
        <time>2018-10-06T17:12:36.000Z</time>
      </trkpt>
      <trkpt lat="45.71945" lon="6.57605">
        <ele>769</ele>
        <time>2018-10-06T17:12:46.000Z</time>
      </trkpt>
      <trkpt lat="45.71935" lon="6.57602">
        <ele>767</ele>
        <time>2018-10-06T17:12:56.000Z</time>
      </trkpt>
      <trkpt lat="45.71921" lon="6.57601">
        <ele>766</ele>
        <time>2018-10-06T17:13:06.000Z</time>
      </trkpt>
      <trkpt lat="45.71908" lon="6.57601">
        <ele>764</ele>
        <time>2018-10-06T17:13:16.000Z</time>
      </trkpt>
      <trkpt lat="45.71895" lon="6.57596">
        <ele>762</ele>
        <time>2018-10-06T17:13:26.000Z</time>
      </trkpt>
      <trkpt lat="45.71881" lon="6.57585">
        <ele>761</ele>
        <time>2018-10-06T17:13:36.000Z</time>
      </trkpt>
      <trkpt lat="45.71868" lon="6.57579">
        <ele>759</ele>
        <time>2018-10-06T17:13:46.000Z</time>
      </trkpt>
      <trkpt lat="45.71847" lon="6.57564">
        <ele>757</ele>
        <time>2018-10-06T17:13:56.000Z</time>
      </trkpt>
      <trkpt lat="45.71828" lon="6.57545">
        <ele>754</ele>
        <time>2018-10-06T17:14:06.000Z</time>
      </trkpt>
      <trkpt lat="45.71818" lon="6.57533">
        <ele>753</ele>
        <time>2018-10-06T17:14:16.000Z</time>
      </trkpt>
      <trkpt lat="45.71807" lon="6.57531">
        <ele>752</ele>
        <time>2018-10-06T17:14:26.000Z</time>
      </trkpt>
      <trkpt lat="45.718" lon="6.57515">
        <ele>751</ele>
        <time>2018-10-06T17:14:36.000Z</time>
      </trkpt>
      <trkpt lat="45.71797" lon="6.57505">
        <ele>749</ele>
        <time>2018-10-06T17:14:46.000Z</time>
      </trkpt>
      <trkpt lat="45.71796" lon="6.57488">
        <ele>748</ele>
        <time>2018-10-06T17:14:56.000Z</time>
      </trkpt>
      <trkpt lat="45.71818" lon="6.57457">
        <ele>746</ele>
        <time>2018-10-06T17:15:06.000Z</time>
      </trkpt>
      <trkpt lat="45.71817" lon="6.57442">
        <ele>745</ele>
        <time>2018-10-06T17:15:16.000Z</time>
      </trkpt>
      <trkpt lat="45.71808" lon="6.5742">
        <ele>745</ele>
        <time>2018-10-06T17:15:26.000Z</time>
      </trkpt>
      <trkpt lat="45.71801" lon="6.57388">
        <ele>745</ele>
        <time>2018-10-06T17:15:36.000Z</time>
      </trkpt>
      <trkpt lat="45.71794" lon="6.57364">
        <ele>745</ele>
        <time>2018-10-06T17:15:46.000Z</time>
      </trkpt>
      <trkpt lat="45.71798" lon="6.57339">
        <ele>740</ele>
        <time>2018-10-06T17:15:56.000Z</time>
      </trkpt>
      <trkpt lat="45.71802" lon="6.57327">
        <ele>741</ele>
        <time>2018-10-06T17:16:06.000Z</time>
      </trkpt>
      <trkpt lat="45.71809" lon="6.57308">
        <ele>734.6</ele>
        <time>2018-10-06T17:16:16.000Z</time>
      </trkpt>
      <trkpt lat="45.7187" lon="6.57377">
        <ele>732.8</ele>
      </trkpt>
      <trkpt lat="45.7189" lon="6.57382">
        <ele>733.7</ele>
        <time>2018-10-15T13:20:29.000Z</time>
      </trkpt>
    </trkseg>
  </trk>
</gpx>